<?xml version="1.0" encoding="UTF-8" standalone="no" ?>
<gpx xmlns="http://www.topografix.com/GPX/1/1" xmlns:xsi="http://www.w3.org/2001/XMLSchema-instance" xsi:schemaLocation="http://www.topografix.com/GPX/1/1 http://www.topografix.com/GPX/1/1/gpx.xsd" version="1.1" creator="VisuGPX - https://www.visugpx.com">
  <metadata>
    <name>2017-07-29 Bike ride VTT-Amberieux Les Cheres O</name>
    <desc><![CDATA[2017-07-29 Bike ride VTT-Amberieux Les Cheres O]]></desc>
  </metadata>
  <wpt lat="45.92458" lon="4.73718">
    <ele>174</ele>
    <name><![CDATA[2017-07-29 11:29 (Start)]]></name>
  </wpt>
  <wpt lat="45.92455" lon="4.73709">
    <ele>174</ele>
    <name><![CDATA[2017-07-29 11:29 (End)]]></name>
    <desc><![CDATA[Created by Google My Tracks on Android  Name: 2017-07-29 11:29 Activity type: biking Description: - Total distance: 22.05 km (13.7 mi) Total time: 1:21:57 Moving time: 1:15:40 Average speed: 16.14 km/h (10.0 mi/h) Average moving speed: 17.49 km/h (10.9 mi/h) Max speed: 36.20 km/h (22.5 mi/h) Average pace: 3:43 min/km (5:59 min/mi) Average moving pace: 3:26 min/km (5:31 min/mi) Fastest pace: 1:39 min/km (2:40 min/mi) Max elevation: 212 m (694 ft) Min elevation: 164 m (539 ft) Elevation gain: 454 m (1491 ft) Max grade: 17 % Min grade: -32 % Recorded: 29/07/2017 11:29]]></desc>
  </wpt>
  <trk>
    <name><![CDATA[2017-07-29 11:29]]></name>
    <trkseg>
      <trkpt lat="45.92458" lon="4.73718">
        <ele>174</ele>
        <time>2017-07-29T09:29:03.973Z</time>
      </trkpt>
      <trkpt lat="45.92466" lon="4.73723">
        <ele>174</ele>
        <time>2017-07-29T09:29:50Z</time>
      </trkpt>
      <trkpt lat="45.92472" lon="4.73728">
        <ele>174</ele>
        <time>2017-07-29T09:29:51Z</time>
      </trkpt>
      <trkpt lat="45.92474" lon="4.73718">
        <ele>174</ele>
        <time>2017-07-29T09:29:59Z</time>
      </trkpt>
      <trkpt lat="45.92474" lon="4.73716">
        <ele>174</ele>
        <time>2017-07-29T09:30:00Z</time>
      </trkpt>
      <trkpt lat="45.92478" lon="4.73726">
        <ele>174</ele>
        <time>2017-07-29T09:30:10Z</time>
      </trkpt>
      <trkpt lat="45.92479" lon="4.73729">
        <ele>174</ele>
        <time>2017-07-29T09:30:11Z</time>
      </trkpt>
      <trkpt lat="45.92473" lon="4.73719">
        <ele>174</ele>
        <time>2017-07-29T09:30:20Z</time>
      </trkpt>
      <trkpt lat="45.92473" lon="4.73717">
        <ele>174</ele>
        <time>2017-07-29T09:30:21Z</time>
      </trkpt>
      <trkpt lat="45.92472" lon="4.73718">
        <ele>174</ele>
        <time>2017-07-29T09:30:34Z</time>
      </trkpt>
      <trkpt lat="45.92463" lon="4.73711">
        <ele>174</ele>
        <time>2017-07-29T09:30:35Z</time>
      </trkpt>
      <trkpt lat="45.92462" lon="4.73722">
        <ele>174</ele>
        <time>2017-07-29T09:31:12Z</time>
      </trkpt>
      <trkpt lat="45.92462" lon="4.73724">
        <ele>174</ele>
        <time>2017-07-29T09:31:13Z</time>
      </trkpt>
      <trkpt lat="45.92462" lon="4.73736">
        <ele>174</ele>
        <time>2017-07-29T09:31:16Z</time>
      </trkpt>
      <trkpt lat="45.92464" lon="4.73745">
        <ele>174</ele>
        <time>2017-07-29T09:31:17Z</time>
      </trkpt>
      <trkpt lat="45.92466" lon="4.73754">
        <ele>173</ele>
        <time>2017-07-29T09:31:18Z</time>
      </trkpt>
      <trkpt lat="45.92468" lon="4.73759">
        <ele>173</ele>
        <time>2017-07-29T09:31:19Z</time>
      </trkpt>
      <trkpt lat="45.92471" lon="4.73768">
        <ele>173</ele>
        <time>2017-07-29T09:31:21Z</time>
      </trkpt>
      <trkpt lat="45.92473" lon="4.73774">
        <ele>173</ele>
        <time>2017-07-29T09:31:22Z</time>
      </trkpt>
      <trkpt lat="45.92473" lon="4.73786">
        <ele>172</ele>
        <time>2017-07-29T09:31:24Z</time>
      </trkpt>
      <trkpt lat="45.92472" lon="4.73791">
        <ele>172</ele>
        <time>2017-07-29T09:31:25Z</time>
      </trkpt>
      <trkpt lat="45.9247" lon="4.73802">
        <ele>172</ele>
        <time>2017-07-29T09:31:27Z</time>
      </trkpt>
      <trkpt lat="45.92468" lon="4.73807">
        <ele>172</ele>
        <time>2017-07-29T09:31:28Z</time>
      </trkpt>
      <trkpt lat="45.92467" lon="4.73819">
        <ele>172</ele>
        <time>2017-07-29T09:31:30Z</time>
      </trkpt>
      <trkpt lat="45.92466" lon="4.73826">
        <ele>171</ele>
        <time>2017-07-29T09:31:31Z</time>
      </trkpt>
      <trkpt lat="45.92463" lon="4.73832">
        <ele>171</ele>
        <time>2017-07-29T09:31:32Z</time>
      </trkpt>
      <trkpt lat="45.92462" lon="4.73839">
        <ele>171</ele>
        <time>2017-07-29T09:31:33Z</time>
      </trkpt>
      <trkpt lat="45.92461" lon="4.73846">
        <ele>171</ele>
        <time>2017-07-29T09:31:34Z</time>
      </trkpt>
      <trkpt lat="45.92459" lon="4.73853">
        <ele>171</ele>
        <time>2017-07-29T09:31:35Z</time>
      </trkpt>
      <trkpt lat="45.92459" lon="4.7386">
        <ele>171</ele>
        <time>2017-07-29T09:31:36Z</time>
      </trkpt>
      <trkpt lat="45.92459" lon="4.73868">
        <ele>171</ele>
        <time>2017-07-29T09:31:37Z</time>
      </trkpt>
      <trkpt lat="45.92459" lon="4.73875">
        <ele>171</ele>
        <time>2017-07-29T09:31:38Z</time>
      </trkpt>
      <trkpt lat="45.92459" lon="4.73882">
        <ele>171</ele>
        <time>2017-07-29T09:31:39Z</time>
      </trkpt>
      <trkpt lat="45.92459" lon="4.73889">
        <ele>171</ele>
        <time>2017-07-29T09:31:40Z</time>
      </trkpt>
      <trkpt lat="45.9246" lon="4.73896">
        <ele>171</ele>
        <time>2017-07-29T09:31:41Z</time>
      </trkpt>
      <trkpt lat="45.92461" lon="4.73901">
        <ele>171</ele>
        <time>2017-07-29T09:31:42Z</time>
      </trkpt>
      <trkpt lat="45.9246" lon="4.73909">
        <ele>171</ele>
        <time>2017-07-29T09:31:43Z</time>
      </trkpt>
      <trkpt lat="45.9246" lon="4.73921">
        <ele>172</ele>
        <time>2017-07-29T09:31:45Z</time>
      </trkpt>
      <trkpt lat="45.9246" lon="4.73928">
        <ele>172</ele>
        <time>2017-07-29T09:31:46Z</time>
      </trkpt>
      <trkpt lat="45.92463" lon="4.7394">
        <ele>172</ele>
        <time>2017-07-29T09:31:48Z</time>
      </trkpt>
      <trkpt lat="45.92465" lon="4.73944">
        <ele>172</ele>
        <time>2017-07-29T09:31:49Z</time>
      </trkpt>
      <trkpt lat="45.92469" lon="4.73948">
        <ele>172</ele>
        <time>2017-07-29T09:31:50Z</time>
      </trkpt>
      <trkpt lat="45.92473" lon="4.73952">
        <ele>172</ele>
        <time>2017-07-29T09:31:51Z</time>
      </trkpt>
      <trkpt lat="45.92477" lon="4.73954">
        <ele>172</ele>
        <time>2017-07-29T09:31:52Z</time>
      </trkpt>
      <trkpt lat="45.92481" lon="4.73956">
        <ele>172</ele>
        <time>2017-07-29T09:31:53Z</time>
      </trkpt>
      <trkpt lat="45.92486" lon="4.73958">
        <ele>172</ele>
        <time>2017-07-29T09:31:54Z</time>
      </trkpt>
      <trkpt lat="45.92491" lon="4.73961">
        <ele>172</ele>
        <time>2017-07-29T09:31:55Z</time>
      </trkpt>
      <trkpt lat="45.92497" lon="4.73963">
        <ele>172</ele>
        <time>2017-07-29T09:31:56Z</time>
      </trkpt>
      <trkpt lat="45.92501" lon="4.73965">
        <ele>172</ele>
        <time>2017-07-29T09:31:57Z</time>
      </trkpt>
      <trkpt lat="45.92506" lon="4.73967">
        <ele>172</ele>
        <time>2017-07-29T09:31:58Z</time>
      </trkpt>
      <trkpt lat="45.92511" lon="4.7397">
        <ele>172</ele>
        <time>2017-07-29T09:31:59Z</time>
      </trkpt>
      <trkpt lat="45.92516" lon="4.73973">
        <ele>172</ele>
        <time>2017-07-29T09:32:00Z</time>
      </trkpt>
      <trkpt lat="45.9252" lon="4.73975">
        <ele>172</ele>
        <time>2017-07-29T09:32:01Z</time>
      </trkpt>
      <trkpt lat="45.92526" lon="4.73977">
        <ele>172</ele>
        <time>2017-07-29T09:32:02Z</time>
      </trkpt>
      <trkpt lat="45.92531" lon="4.73981">
        <ele>172</ele>
        <time>2017-07-29T09:32:03Z</time>
      </trkpt>
      <trkpt lat="45.92537" lon="4.73984">
        <ele>172</ele>
        <time>2017-07-29T09:32:04Z</time>
      </trkpt>
      <trkpt lat="45.92542" lon="4.73987">
        <ele>172</ele>
        <time>2017-07-29T09:32:05Z</time>
      </trkpt>
      <trkpt lat="45.92547" lon="4.7399">
        <ele>172</ele>
        <time>2017-07-29T09:32:06Z</time>
      </trkpt>
      <trkpt lat="45.9255" lon="4.73995">
        <ele>172</ele>
        <time>2017-07-29T09:32:07Z</time>
      </trkpt>
      <trkpt lat="45.92553" lon="4.74003">
        <ele>172</ele>
        <time>2017-07-29T09:32:08Z</time>
      </trkpt>
      <trkpt lat="45.92554" lon="4.7401">
        <ele>172</ele>
        <time>2017-07-29T09:32:09Z</time>
      </trkpt>
      <trkpt lat="45.92554" lon="4.74017">
        <ele>172</ele>
        <time>2017-07-29T09:32:10Z</time>
      </trkpt>
      <trkpt lat="45.92553" lon="4.74025">
        <ele>172</ele>
        <time>2017-07-29T09:32:11Z</time>
      </trkpt>
      <trkpt lat="45.9255" lon="4.7403">
        <ele>172</ele>
        <time>2017-07-29T09:32:12Z</time>
      </trkpt>
      <trkpt lat="45.92547" lon="4.74036">
        <ele>172</ele>
        <time>2017-07-29T09:32:13Z</time>
      </trkpt>
      <trkpt lat="45.92543" lon="4.74042">
        <ele>172</ele>
        <time>2017-07-29T09:32:14Z</time>
      </trkpt>
      <trkpt lat="45.9254" lon="4.74047">
        <ele>172</ele>
        <time>2017-07-29T09:32:15Z</time>
      </trkpt>
      <trkpt lat="45.92536" lon="4.74052">
        <ele>172</ele>
        <time>2017-07-29T09:32:16Z</time>
      </trkpt>
      <trkpt lat="45.92531" lon="4.74058">
        <ele>172</ele>
        <time>2017-07-29T09:32:17Z</time>
      </trkpt>
      <trkpt lat="45.92527" lon="4.74062">
        <ele>172</ele>
        <time>2017-07-29T09:32:18Z</time>
      </trkpt>
      <trkpt lat="45.92523" lon="4.74066">
        <ele>172</ele>
        <time>2017-07-29T09:32:19Z</time>
      </trkpt>
      <trkpt lat="45.92518" lon="4.74071">
        <ele>172</ele>
        <time>2017-07-29T09:32:20Z</time>
      </trkpt>
      <trkpt lat="45.92513" lon="4.74077">
        <ele>172</ele>
        <time>2017-07-29T09:32:21Z</time>
      </trkpt>
      <trkpt lat="45.92508" lon="4.74082">
        <ele>172</ele>
        <time>2017-07-29T09:32:22Z</time>
      </trkpt>
      <trkpt lat="45.92504" lon="4.74087">
        <ele>172</ele>
        <time>2017-07-29T09:32:23Z</time>
      </trkpt>
      <trkpt lat="45.92502" lon="4.74096">
        <ele>172</ele>
        <time>2017-07-29T09:32:24Z</time>
      </trkpt>
      <trkpt lat="45.92497" lon="4.741">
        <ele>172</ele>
        <time>2017-07-29T09:32:25Z</time>
      </trkpt>
      <trkpt lat="45.92494" lon="4.74105">
        <ele>172</ele>
        <time>2017-07-29T09:32:26Z</time>
      </trkpt>
      <trkpt lat="45.92491" lon="4.7411">
        <ele>172</ele>
        <time>2017-07-29T09:32:27Z</time>
      </trkpt>
      <trkpt lat="45.92488" lon="4.74116">
        <ele>172</ele>
        <time>2017-07-29T09:32:28Z</time>
      </trkpt>
      <trkpt lat="45.92485" lon="4.74121">
        <ele>172</ele>
        <time>2017-07-29T09:32:29Z</time>
      </trkpt>
      <trkpt lat="45.9248" lon="4.74131">
        <ele>171</ele>
        <time>2017-07-29T09:32:31Z</time>
      </trkpt>
      <trkpt lat="45.92478" lon="4.74138">
        <ele>171</ele>
        <time>2017-07-29T09:32:32Z</time>
      </trkpt>
      <trkpt lat="45.92476" lon="4.74144">
        <ele>171</ele>
        <time>2017-07-29T09:32:33Z</time>
      </trkpt>
      <trkpt lat="45.92474" lon="4.7415">
        <ele>171</ele>
        <time>2017-07-29T09:32:34Z</time>
      </trkpt>
      <trkpt lat="45.92471" lon="4.74157">
        <ele>171</ele>
        <time>2017-07-29T09:32:35Z</time>
      </trkpt>
      <trkpt lat="45.92468" lon="4.74163">
        <ele>171</ele>
        <time>2017-07-29T09:32:36Z</time>
      </trkpt>
      <trkpt lat="45.92466" lon="4.7417">
        <ele>171</ele>
        <time>2017-07-29T09:32:37Z</time>
      </trkpt>
      <trkpt lat="45.92463" lon="4.74177">
        <ele>171</ele>
        <time>2017-07-29T09:32:38Z</time>
      </trkpt>
      <trkpt lat="45.92459" lon="4.74185">
        <ele>171</ele>
        <time>2017-07-29T09:32:39Z</time>
      </trkpt>
      <trkpt lat="45.92458" lon="4.74194">
        <ele>171</ele>
        <time>2017-07-29T09:32:40Z</time>
      </trkpt>
      <trkpt lat="45.92455" lon="4.74202">
        <ele>171</ele>
        <time>2017-07-29T09:32:41Z</time>
      </trkpt>
      <trkpt lat="45.92452" lon="4.7421">
        <ele>171</ele>
        <time>2017-07-29T09:32:42Z</time>
      </trkpt>
      <trkpt lat="45.92449" lon="4.74218">
        <ele>171</ele>
        <time>2017-07-29T09:32:43Z</time>
      </trkpt>
      <trkpt lat="45.92447" lon="4.74225">
        <ele>171</ele>
        <time>2017-07-29T09:32:44Z</time>
      </trkpt>
      <trkpt lat="45.92444" lon="4.74232">
        <ele>171</ele>
        <time>2017-07-29T09:32:45Z</time>
      </trkpt>
      <trkpt lat="45.92442" lon="4.7424">
        <ele>171</ele>
        <time>2017-07-29T09:32:46Z</time>
      </trkpt>
      <trkpt lat="45.92439" lon="4.74246">
        <ele>171</ele>
        <time>2017-07-29T09:32:47Z</time>
      </trkpt>
      <trkpt lat="45.92436" lon="4.74252">
        <ele>170</ele>
        <time>2017-07-29T09:32:48Z</time>
      </trkpt>
      <trkpt lat="45.92433" lon="4.74258">
        <ele>170</ele>
        <time>2017-07-29T09:32:49Z</time>
      </trkpt>
      <trkpt lat="45.9243" lon="4.74264">
        <ele>170</ele>
        <time>2017-07-29T09:32:50Z</time>
      </trkpt>
      <trkpt lat="45.92427" lon="4.7427">
        <ele>170</ele>
        <time>2017-07-29T09:32:51Z</time>
      </trkpt>
      <trkpt lat="45.92423" lon="4.74276">
        <ele>170</ele>
        <time>2017-07-29T09:32:52Z</time>
      </trkpt>
      <trkpt lat="45.9242" lon="4.74282">
        <ele>170</ele>
        <time>2017-07-29T09:32:53Z</time>
      </trkpt>
      <trkpt lat="45.92416" lon="4.74288">
        <ele>170</ele>
        <time>2017-07-29T09:32:54Z</time>
      </trkpt>
      <trkpt lat="45.92413" lon="4.74295">
        <ele>170</ele>
        <time>2017-07-29T09:32:55Z</time>
      </trkpt>
      <trkpt lat="45.9241" lon="4.74302">
        <ele>170</ele>
        <time>2017-07-29T09:32:56Z</time>
      </trkpt>
      <trkpt lat="45.92407" lon="4.74309">
        <ele>170</ele>
        <time>2017-07-29T09:32:57Z</time>
      </trkpt>
      <trkpt lat="45.92403" lon="4.74314">
        <ele>170</ele>
        <time>2017-07-29T09:32:58Z</time>
      </trkpt>
      <trkpt lat="45.92399" lon="4.74317">
        <ele>170</ele>
        <time>2017-07-29T09:32:59Z</time>
      </trkpt>
      <trkpt lat="45.92395" lon="4.74319">
        <ele>170</ele>
        <time>2017-07-29T09:33:00Z</time>
      </trkpt>
      <trkpt lat="45.92386" lon="4.74316">
        <ele>170</ele>
        <time>2017-07-29T09:33:01Z</time>
      </trkpt>
      <trkpt lat="45.92382" lon="4.74316">
        <ele>170</ele>
        <time>2017-07-29T09:33:02Z</time>
      </trkpt>
      <trkpt lat="45.92377" lon="4.74314">
        <ele>170</ele>
        <time>2017-07-29T09:33:03Z</time>
      </trkpt>
      <trkpt lat="45.92372" lon="4.74312">
        <ele>170</ele>
        <time>2017-07-29T09:33:04Z</time>
      </trkpt>
      <trkpt lat="45.92368" lon="4.7431">
        <ele>170</ele>
        <time>2017-07-29T09:33:05Z</time>
      </trkpt>
      <trkpt lat="45.92363" lon="4.74308">
        <ele>170</ele>
        <time>2017-07-29T09:33:06Z</time>
      </trkpt>
      <trkpt lat="45.92359" lon="4.74306">
        <ele>170</ele>
        <time>2017-07-29T09:33:07Z</time>
      </trkpt>
      <trkpt lat="45.92354" lon="4.74303">
        <ele>170</ele>
        <time>2017-07-29T09:33:08Z</time>
      </trkpt>
      <trkpt lat="45.9235" lon="4.74301">
        <ele>170</ele>
        <time>2017-07-29T09:33:09Z</time>
      </trkpt>
      <trkpt lat="45.92344" lon="4.74299">
        <ele>170</ele>
        <time>2017-07-29T09:33:10Z</time>
      </trkpt>
      <trkpt lat="45.92339" lon="4.74296">
        <ele>170</ele>
        <time>2017-07-29T09:33:11Z</time>
      </trkpt>
      <trkpt lat="45.92335" lon="4.74295">
        <ele>170</ele>
        <time>2017-07-29T09:33:12Z</time>
      </trkpt>
      <trkpt lat="45.9233" lon="4.74296">
        <ele>170</ele>
        <time>2017-07-29T09:33:13Z</time>
      </trkpt>
      <trkpt lat="45.92325" lon="4.74297">
        <ele>170</ele>
        <time>2017-07-29T09:33:14Z</time>
      </trkpt>
      <trkpt lat="45.9232" lon="4.74299">
        <ele>170</ele>
        <time>2017-07-29T09:33:15Z</time>
      </trkpt>
      <trkpt lat="45.92316" lon="4.74303">
        <ele>170</ele>
        <time>2017-07-29T09:33:16Z</time>
      </trkpt>
      <trkpt lat="45.92312" lon="4.74307">
        <ele>170</ele>
        <time>2017-07-29T09:33:17Z</time>
      </trkpt>
      <trkpt lat="45.92308" lon="4.7431">
        <ele>170</ele>
        <time>2017-07-29T09:33:18Z</time>
      </trkpt>
      <trkpt lat="45.92303" lon="4.74314">
        <ele>170</ele>
        <time>2017-07-29T09:33:19Z</time>
      </trkpt>
      <trkpt lat="45.92299" lon="4.74319">
        <ele>170</ele>
        <time>2017-07-29T09:33:20Z</time>
      </trkpt>
      <trkpt lat="45.92295" lon="4.74323">
        <ele>170</ele>
        <time>2017-07-29T09:33:21Z</time>
      </trkpt>
      <trkpt lat="45.92291" lon="4.74328">
        <ele>170</ele>
        <time>2017-07-29T09:33:22Z</time>
      </trkpt>
      <trkpt lat="45.92287" lon="4.74332">
        <ele>170</ele>
        <time>2017-07-29T09:33:23Z</time>
      </trkpt>
      <trkpt lat="45.92283" lon="4.74337">
        <ele>171</ele>
        <time>2017-07-29T09:33:24Z</time>
      </trkpt>
      <trkpt lat="45.92279" lon="4.74342">
        <ele>171</ele>
        <time>2017-07-29T09:33:25Z</time>
      </trkpt>
      <trkpt lat="45.92275" lon="4.74346">
        <ele>171</ele>
        <time>2017-07-29T09:33:26Z</time>
      </trkpt>
      <trkpt lat="45.92271" lon="4.74352">
        <ele>171</ele>
        <time>2017-07-29T09:33:27Z</time>
      </trkpt>
      <trkpt lat="45.92268" lon="4.74357">
        <ele>171</ele>
        <time>2017-07-29T09:33:28Z</time>
      </trkpt>
      <trkpt lat="45.92265" lon="4.74362">
        <ele>171</ele>
        <time>2017-07-29T09:33:29Z</time>
      </trkpt>
      <trkpt lat="45.92262" lon="4.74367">
        <ele>171</ele>
        <time>2017-07-29T09:33:30Z</time>
      </trkpt>
      <trkpt lat="45.92259" lon="4.74373">
        <ele>171</ele>
        <time>2017-07-29T09:33:31Z</time>
      </trkpt>
      <trkpt lat="45.92256" lon="4.74379">
        <ele>171</ele>
        <time>2017-07-29T09:33:32Z</time>
      </trkpt>
      <trkpt lat="45.92253" lon="4.74385">
        <ele>171</ele>
        <time>2017-07-29T09:33:33Z</time>
      </trkpt>
      <trkpt lat="45.92251" lon="4.74391">
        <ele>171</ele>
        <time>2017-07-29T09:33:34Z</time>
      </trkpt>
      <trkpt lat="45.92248" lon="4.74397">
        <ele>171</ele>
        <time>2017-07-29T09:33:35Z</time>
      </trkpt>
      <trkpt lat="45.92246" lon="4.74404">
        <ele>171</ele>
        <time>2017-07-29T09:33:36Z</time>
      </trkpt>
      <trkpt lat="45.92243" lon="4.74411">
        <ele>171</ele>
        <time>2017-07-29T09:33:37Z</time>
      </trkpt>
      <trkpt lat="45.92241" lon="4.74418">
        <ele>171</ele>
        <time>2017-07-29T09:33:38Z</time>
      </trkpt>
      <trkpt lat="45.9224" lon="4.74425">
        <ele>171</ele>
        <time>2017-07-29T09:33:39Z</time>
      </trkpt>
      <trkpt lat="45.92239" lon="4.74432">
        <ele>171</ele>
        <time>2017-07-29T09:33:40Z</time>
      </trkpt>
      <trkpt lat="45.92238" lon="4.7444">
        <ele>171</ele>
        <time>2017-07-29T09:33:41Z</time>
      </trkpt>
      <trkpt lat="45.92237" lon="4.74446">
        <ele>171</ele>
        <time>2017-07-29T09:33:42Z</time>
      </trkpt>
      <trkpt lat="45.92237" lon="4.74458">
        <ele>171</ele>
        <time>2017-07-29T09:33:44Z</time>
      </trkpt>
      <trkpt lat="45.92238" lon="4.74463">
        <ele>171</ele>
        <time>2017-07-29T09:33:45Z</time>
      </trkpt>
      <trkpt lat="45.92244" lon="4.74472">
        <ele>171</ele>
        <time>2017-07-29T09:33:47Z</time>
      </trkpt>
      <trkpt lat="45.92249" lon="4.74474">
        <ele>171</ele>
        <time>2017-07-29T09:33:48Z</time>
      </trkpt>
      <trkpt lat="45.92253" lon="4.74477">
        <ele>171</ele>
        <time>2017-07-29T09:33:49Z</time>
      </trkpt>
      <trkpt lat="45.92258" lon="4.74479">
        <ele>171</ele>
        <time>2017-07-29T09:33:50Z</time>
      </trkpt>
      <trkpt lat="45.92263" lon="4.74481">
        <ele>171</ele>
        <time>2017-07-29T09:33:51Z</time>
      </trkpt>
      <trkpt lat="45.92267" lon="4.74484">
        <ele>171</ele>
        <time>2017-07-29T09:33:52Z</time>
      </trkpt>
      <trkpt lat="45.92271" lon="4.74486">
        <ele>171</ele>
        <time>2017-07-29T09:33:53Z</time>
      </trkpt>
      <trkpt lat="45.92276" lon="4.74488">
        <ele>171</ele>
        <time>2017-07-29T09:33:54Z</time>
      </trkpt>
      <trkpt lat="45.92283" lon="4.74492">
        <ele>171</ele>
        <time>2017-07-29T09:33:56Z</time>
      </trkpt>
      <trkpt lat="45.92287" lon="4.74495">
        <ele>171</ele>
        <time>2017-07-29T09:33:57Z</time>
      </trkpt>
      <trkpt lat="45.92292" lon="4.74497">
        <ele>171</ele>
        <time>2017-07-29T09:33:58Z</time>
      </trkpt>
      <trkpt lat="45.92296" lon="4.74498">
        <ele>171</ele>
        <time>2017-07-29T09:33:59Z</time>
      </trkpt>
      <trkpt lat="45.92301" lon="4.74501">
        <ele>171</ele>
        <time>2017-07-29T09:34:00Z</time>
      </trkpt>
      <trkpt lat="45.92305" lon="4.74504">
        <ele>171</ele>
        <time>2017-07-29T09:34:01Z</time>
      </trkpt>
      <trkpt lat="45.9231" lon="4.74507">
        <ele>171</ele>
        <time>2017-07-29T09:34:02Z</time>
      </trkpt>
      <trkpt lat="45.92315" lon="4.74509">
        <ele>171</ele>
        <time>2017-07-29T09:34:03Z</time>
      </trkpt>
      <trkpt lat="45.92319" lon="4.74512">
        <ele>171</ele>
        <time>2017-07-29T09:34:04Z</time>
      </trkpt>
      <trkpt lat="45.92323" lon="4.74515">
        <ele>171</ele>
        <time>2017-07-29T09:34:05Z</time>
      </trkpt>
      <trkpt lat="45.92327" lon="4.74517">
        <ele>171</ele>
        <time>2017-07-29T09:34:06Z</time>
      </trkpt>
      <trkpt lat="45.92332" lon="4.74519">
        <ele>171</ele>
        <time>2017-07-29T09:34:07Z</time>
      </trkpt>
      <trkpt lat="45.92336" lon="4.74521">
        <ele>171</ele>
        <time>2017-07-29T09:34:08Z</time>
      </trkpt>
      <trkpt lat="45.92341" lon="4.74523">
        <ele>171</ele>
        <time>2017-07-29T09:34:09Z</time>
      </trkpt>
      <trkpt lat="45.92346" lon="4.74525">
        <ele>171</ele>
        <time>2017-07-29T09:34:10Z</time>
      </trkpt>
      <trkpt lat="45.9235" lon="4.74527">
        <ele>171</ele>
        <time>2017-07-29T09:34:11Z</time>
      </trkpt>
      <trkpt lat="45.92354" lon="4.7453">
        <ele>171</ele>
        <time>2017-07-29T09:34:12Z</time>
      </trkpt>
      <trkpt lat="45.92358" lon="4.74533">
        <ele>171</ele>
        <time>2017-07-29T09:34:13Z</time>
      </trkpt>
      <trkpt lat="45.92363" lon="4.74535">
        <ele>171</ele>
        <time>2017-07-29T09:34:14Z</time>
      </trkpt>
      <trkpt lat="45.92367" lon="4.74538">
        <ele>171</ele>
        <time>2017-07-29T09:34:15Z</time>
      </trkpt>
      <trkpt lat="45.92372" lon="4.74541">
        <ele>171</ele>
        <time>2017-07-29T09:34:16Z</time>
      </trkpt>
      <trkpt lat="45.92376" lon="4.74544">
        <ele>171</ele>
        <time>2017-07-29T09:34:17Z</time>
      </trkpt>
      <trkpt lat="45.92381" lon="4.74547">
        <ele>171</ele>
        <time>2017-07-29T09:34:18Z</time>
      </trkpt>
      <trkpt lat="45.92385" lon="4.7455">
        <ele>171</ele>
        <time>2017-07-29T09:34:19Z</time>
      </trkpt>
      <trkpt lat="45.92393" lon="4.74555">
        <ele>171</ele>
        <time>2017-07-29T09:34:21Z</time>
      </trkpt>
      <trkpt lat="45.92397" lon="4.74557">
        <ele>171</ele>
        <time>2017-07-29T09:34:22Z</time>
      </trkpt>
      <trkpt lat="45.92405" lon="4.74562">
        <ele>171</ele>
        <time>2017-07-29T09:34:24Z</time>
      </trkpt>
      <trkpt lat="45.9241" lon="4.74565">
        <ele>171</ele>
        <time>2017-07-29T09:34:25Z</time>
      </trkpt>
      <trkpt lat="45.92414" lon="4.74568">
        <ele>171</ele>
        <time>2017-07-29T09:34:26Z</time>
      </trkpt>
      <trkpt lat="45.92418" lon="4.74572">
        <ele>171</ele>
        <time>2017-07-29T09:34:27Z</time>
      </trkpt>
      <trkpt lat="45.92423" lon="4.74575">
        <ele>171</ele>
        <time>2017-07-29T09:34:28Z</time>
      </trkpt>
      <trkpt lat="45.92427" lon="4.74578">
        <ele>171</ele>
        <time>2017-07-29T09:34:29Z</time>
      </trkpt>
      <trkpt lat="45.92432" lon="4.74589">
        <ele>171</ele>
        <time>2017-07-29T09:34:31Z</time>
      </trkpt>
      <trkpt lat="45.92433" lon="4.74596">
        <ele>171</ele>
        <time>2017-07-29T09:34:32Z</time>
      </trkpt>
      <trkpt lat="45.92432" lon="4.74603">
        <ele>171</ele>
        <time>2017-07-29T09:34:33Z</time>
      </trkpt>
      <trkpt lat="45.92431" lon="4.7461">
        <ele>171</ele>
        <time>2017-07-29T09:34:34Z</time>
      </trkpt>
      <trkpt lat="45.9243" lon="4.74616">
        <ele>171</ele>
        <time>2017-07-29T09:34:35Z</time>
      </trkpt>
      <trkpt lat="45.92428" lon="4.74623">
        <ele>171</ele>
        <time>2017-07-29T09:34:36Z</time>
      </trkpt>
      <trkpt lat="45.92426" lon="4.74628">
        <ele>171</ele>
        <time>2017-07-29T09:34:37Z</time>
      </trkpt>
      <trkpt lat="45.92424" lon="4.74634">
        <ele>171</ele>
        <time>2017-07-29T09:34:38Z</time>
      </trkpt>
      <trkpt lat="45.92421" lon="4.74639">
        <ele>171</ele>
        <time>2017-07-29T09:34:39Z</time>
      </trkpt>
      <trkpt lat="45.92416" lon="4.74642">
        <ele>171</ele>
        <time>2017-07-29T09:34:40Z</time>
      </trkpt>
      <trkpt lat="45.92411" lon="4.74646">
        <ele>171</ele>
        <time>2017-07-29T09:34:41Z</time>
      </trkpt>
      <trkpt lat="45.92408" lon="4.7465">
        <ele>171</ele>
        <time>2017-07-29T09:34:42Z</time>
      </trkpt>
      <trkpt lat="45.92405" lon="4.74655">
        <ele>171</ele>
        <time>2017-07-29T09:34:43Z</time>
      </trkpt>
      <trkpt lat="45.92401" lon="4.74662">
        <ele>171</ele>
        <time>2017-07-29T09:34:44Z</time>
      </trkpt>
      <trkpt lat="45.92398" lon="4.74669">
        <ele>171</ele>
        <time>2017-07-29T09:34:45Z</time>
      </trkpt>
      <trkpt lat="45.92394" lon="4.74675">
        <ele>171</ele>
        <time>2017-07-29T09:34:46Z</time>
      </trkpt>
      <trkpt lat="45.9239" lon="4.74681">
        <ele>171</ele>
        <time>2017-07-29T09:34:47Z</time>
      </trkpt>
      <trkpt lat="45.92386" lon="4.74686">
        <ele>171</ele>
        <time>2017-07-29T09:34:48Z</time>
      </trkpt>
      <trkpt lat="45.92383" lon="4.74692">
        <ele>171</ele>
        <time>2017-07-29T09:34:49Z</time>
      </trkpt>
      <trkpt lat="45.9238" lon="4.74698">
        <ele>171</ele>
        <time>2017-07-29T09:34:50Z</time>
      </trkpt>
      <trkpt lat="45.92377" lon="4.74704">
        <ele>171</ele>
        <time>2017-07-29T09:34:51Z</time>
      </trkpt>
      <trkpt lat="45.92373" lon="4.7471">
        <ele>171</ele>
        <time>2017-07-29T09:34:52Z</time>
      </trkpt>
      <trkpt lat="45.9237" lon="4.74717">
        <ele>171</ele>
        <time>2017-07-29T09:34:53Z</time>
      </trkpt>
      <trkpt lat="45.92366" lon="4.74722">
        <ele>171</ele>
        <time>2017-07-29T09:34:54Z</time>
      </trkpt>
      <trkpt lat="45.92363" lon="4.74728">
        <ele>171</ele>
        <time>2017-07-29T09:34:55Z</time>
      </trkpt>
      <trkpt lat="45.92361" lon="4.74734">
        <ele>171</ele>
        <time>2017-07-29T09:34:56Z</time>
      </trkpt>
      <trkpt lat="45.92355" lon="4.74743">
        <ele>170</ele>
        <time>2017-07-29T09:34:58Z</time>
      </trkpt>
      <trkpt lat="45.92352" lon="4.74748">
        <ele>170</ele>
        <time>2017-07-29T09:34:59Z</time>
      </trkpt>
      <trkpt lat="45.92349" lon="4.74754">
        <ele>171</ele>
        <time>2017-07-29T09:35:00Z</time>
      </trkpt>
      <trkpt lat="45.92346" lon="4.74759">
        <ele>171</ele>
        <time>2017-07-29T09:35:01Z</time>
      </trkpt>
      <trkpt lat="45.92343" lon="4.74765">
        <ele>171</ele>
        <time>2017-07-29T09:35:02Z</time>
      </trkpt>
      <trkpt lat="45.9234" lon="4.74771">
        <ele>171</ele>
        <time>2017-07-29T09:35:03Z</time>
      </trkpt>
      <trkpt lat="45.92337" lon="4.74777">
        <ele>171</ele>
        <time>2017-07-29T09:35:04Z</time>
      </trkpt>
      <trkpt lat="45.92333" lon="4.74783">
        <ele>171</ele>
        <time>2017-07-29T09:35:05Z</time>
      </trkpt>
      <trkpt lat="45.9233" lon="4.74788">
        <ele>171</ele>
        <time>2017-07-29T09:35:06Z</time>
      </trkpt>
      <trkpt lat="45.92327" lon="4.74794">
        <ele>171</ele>
        <time>2017-07-29T09:35:07Z</time>
      </trkpt>
      <trkpt lat="45.92324" lon="4.748">
        <ele>171</ele>
        <time>2017-07-29T09:35:08Z</time>
      </trkpt>
      <trkpt lat="45.92321" lon="4.74805">
        <ele>171</ele>
        <time>2017-07-29T09:35:09Z</time>
      </trkpt>
      <trkpt lat="45.92318" lon="4.74811">
        <ele>171</ele>
        <time>2017-07-29T09:35:10Z</time>
      </trkpt>
      <trkpt lat="45.92316" lon="4.74816">
        <ele>171</ele>
        <time>2017-07-29T09:35:11Z</time>
      </trkpt>
      <trkpt lat="45.9231" lon="4.74825">
        <ele>171</ele>
        <time>2017-07-29T09:35:13Z</time>
      </trkpt>
      <trkpt lat="45.92307" lon="4.7483">
        <ele>171</ele>
        <time>2017-07-29T09:35:14Z</time>
      </trkpt>
      <trkpt lat="45.92305" lon="4.74836">
        <ele>172</ele>
        <time>2017-07-29T09:35:15Z</time>
      </trkpt>
      <trkpt lat="45.92302" lon="4.74842">
        <ele>172</ele>
        <time>2017-07-29T09:35:16Z</time>
      </trkpt>
      <trkpt lat="45.92299" lon="4.74847">
        <ele>172</ele>
        <time>2017-07-29T09:35:17Z</time>
      </trkpt>
      <trkpt lat="45.92296" lon="4.74852">
        <ele>172</ele>
        <time>2017-07-29T09:35:18Z</time>
      </trkpt>
      <trkpt lat="45.92293" lon="4.74858">
        <ele>172</ele>
        <time>2017-07-29T09:35:19Z</time>
      </trkpt>
      <trkpt lat="45.9229" lon="4.74865">
        <ele>171</ele>
        <time>2017-07-29T09:35:20Z</time>
      </trkpt>
      <trkpt lat="45.92286" lon="4.7487">
        <ele>171</ele>
        <time>2017-07-29T09:35:21Z</time>
      </trkpt>
      <trkpt lat="45.92283" lon="4.74875">
        <ele>172</ele>
        <time>2017-07-29T09:35:22Z</time>
      </trkpt>
      <trkpt lat="45.92277" lon="4.74885">
        <ele>172</ele>
        <time>2017-07-29T09:35:24Z</time>
      </trkpt>
      <trkpt lat="45.92274" lon="4.74889">
        <ele>172</ele>
        <time>2017-07-29T09:35:25Z</time>
      </trkpt>
      <trkpt lat="45.92268" lon="4.74898">
        <ele>172</ele>
        <time>2017-07-29T09:35:27Z</time>
      </trkpt>
      <trkpt lat="45.92265" lon="4.74901">
        <ele>172</ele>
        <time>2017-07-29T09:35:28Z</time>
      </trkpt>
      <trkpt lat="45.92261" lon="4.74906">
        <ele>172</ele>
        <time>2017-07-29T09:35:29Z</time>
      </trkpt>
      <trkpt lat="45.92257" lon="4.7491">
        <ele>172</ele>
        <time>2017-07-29T09:35:30Z</time>
      </trkpt>
      <trkpt lat="45.92254" lon="4.74915">
        <ele>172</ele>
        <time>2017-07-29T09:35:31Z</time>
      </trkpt>
      <trkpt lat="45.92251" lon="4.74921">
        <ele>172</ele>
        <time>2017-07-29T09:35:32Z</time>
      </trkpt>
      <trkpt lat="45.92248" lon="4.74933">
        <ele>172</ele>
        <time>2017-07-29T09:35:34Z</time>
      </trkpt>
      <trkpt lat="45.92247" lon="4.74938">
        <ele>172</ele>
        <time>2017-07-29T09:35:35Z</time>
      </trkpt>
      <trkpt lat="45.92244" lon="4.74949">
        <ele>172</ele>
        <time>2017-07-29T09:35:37Z</time>
      </trkpt>
      <trkpt lat="45.92242" lon="4.74954">
        <ele>172</ele>
        <time>2017-07-29T09:35:38Z</time>
      </trkpt>
      <trkpt lat="45.92238" lon="4.74962">
        <ele>171</ele>
        <time>2017-07-29T09:35:40Z</time>
      </trkpt>
      <trkpt lat="45.92235" lon="4.74962">
        <ele>171</ele>
        <time>2017-07-29T09:35:41Z</time>
      </trkpt>
      <trkpt lat="45.92228" lon="4.74958">
        <ele>171</ele>
        <time>2017-07-29T09:35:43Z</time>
      </trkpt>
      <trkpt lat="45.92224" lon="4.74956">
        <ele>171</ele>
        <time>2017-07-29T09:35:44Z</time>
      </trkpt>
      <trkpt lat="45.9222" lon="4.74954">
        <ele>171</ele>
        <time>2017-07-29T09:35:45Z</time>
      </trkpt>
      <trkpt lat="45.92215" lon="4.74952">
        <ele>171</ele>
        <time>2017-07-29T09:35:46Z</time>
      </trkpt>
      <trkpt lat="45.92211" lon="4.7495">
        <ele>171</ele>
        <time>2017-07-29T09:35:47Z</time>
      </trkpt>
      <trkpt lat="45.92206" lon="4.74948">
        <ele>171</ele>
        <time>2017-07-29T09:35:48Z</time>
      </trkpt>
      <trkpt lat="45.92202" lon="4.74946">
        <ele>171</ele>
        <time>2017-07-29T09:35:49Z</time>
      </trkpt>
      <trkpt lat="45.92197" lon="4.74944">
        <ele>171</ele>
        <time>2017-07-29T09:35:50Z</time>
      </trkpt>
      <trkpt lat="45.92193" lon="4.74942">
        <ele>171</ele>
        <time>2017-07-29T09:35:51Z</time>
      </trkpt>
      <trkpt lat="45.92188" lon="4.74939">
        <ele>171</ele>
        <time>2017-07-29T09:35:52Z</time>
      </trkpt>
      <trkpt lat="45.92183" lon="4.74937">
        <ele>171</ele>
        <time>2017-07-29T09:35:53Z</time>
      </trkpt>
      <trkpt lat="45.92177" lon="4.74934">
        <ele>171</ele>
        <time>2017-07-29T09:35:54Z</time>
      </trkpt>
      <trkpt lat="45.92172" lon="4.74931">
        <ele>171</ele>
        <time>2017-07-29T09:35:55Z</time>
      </trkpt>
      <trkpt lat="45.92167" lon="4.74928">
        <ele>170</ele>
        <time>2017-07-29T09:35:56Z</time>
      </trkpt>
      <trkpt lat="45.92161" lon="4.74925">
        <ele>170</ele>
        <time>2017-07-29T09:35:57Z</time>
      </trkpt>
      <trkpt lat="45.92156" lon="4.74921">
        <ele>170</ele>
        <time>2017-07-29T09:35:58Z</time>
      </trkpt>
      <trkpt lat="45.92151" lon="4.74919">
        <ele>170</ele>
        <time>2017-07-29T09:35:59Z</time>
      </trkpt>
      <trkpt lat="45.92145" lon="4.74916">
        <ele>170</ele>
        <time>2017-07-29T09:36:00Z</time>
      </trkpt>
      <trkpt lat="45.92141" lon="4.74914">
        <ele>170</ele>
        <time>2017-07-29T09:36:01Z</time>
      </trkpt>
      <trkpt lat="45.92135" lon="4.74911">
        <ele>170</ele>
        <time>2017-07-29T09:36:02Z</time>
      </trkpt>
      <trkpt lat="45.92131" lon="4.74908">
        <ele>170</ele>
        <time>2017-07-29T09:36:03Z</time>
      </trkpt>
      <trkpt lat="45.92126" lon="4.74905">
        <ele>170</ele>
        <time>2017-07-29T09:36:04Z</time>
      </trkpt>
      <trkpt lat="45.9212" lon="4.74902">
        <ele>170</ele>
        <time>2017-07-29T09:36:05Z</time>
      </trkpt>
      <trkpt lat="45.92115" lon="4.74899">
        <ele>170</ele>
        <time>2017-07-29T09:36:06Z</time>
      </trkpt>
      <trkpt lat="45.9211" lon="4.74895">
        <ele>170</ele>
        <time>2017-07-29T09:36:07Z</time>
      </trkpt>
      <trkpt lat="45.92105" lon="4.74891">
        <ele>170</ele>
        <time>2017-07-29T09:36:08Z</time>
      </trkpt>
      <trkpt lat="45.921" lon="4.74888">
        <ele>170</ele>
        <time>2017-07-29T09:36:09Z</time>
      </trkpt>
      <trkpt lat="45.92094" lon="4.74885">
        <ele>170</ele>
        <time>2017-07-29T09:36:10Z</time>
      </trkpt>
      <trkpt lat="45.92088" lon="4.74883">
        <ele>170</ele>
        <time>2017-07-29T09:36:11Z</time>
      </trkpt>
      <trkpt lat="45.92083" lon="4.7488">
        <ele>169</ele>
        <time>2017-07-29T09:36:12Z</time>
      </trkpt>
      <trkpt lat="45.92078" lon="4.74877">
        <ele>169</ele>
        <time>2017-07-29T09:36:13Z</time>
      </trkpt>
      <trkpt lat="45.92072" lon="4.74873">
        <ele>169</ele>
        <time>2017-07-29T09:36:14Z</time>
      </trkpt>
      <trkpt lat="45.92066" lon="4.74871">
        <ele>169</ele>
        <time>2017-07-29T09:36:15Z</time>
      </trkpt>
      <trkpt lat="45.9206" lon="4.74868">
        <ele>169</ele>
        <time>2017-07-29T09:36:16Z</time>
      </trkpt>
      <trkpt lat="45.92054" lon="4.74865">
        <ele>169</ele>
        <time>2017-07-29T09:36:17Z</time>
      </trkpt>
      <trkpt lat="45.92049" lon="4.74862">
        <ele>169</ele>
        <time>2017-07-29T09:36:18Z</time>
      </trkpt>
      <trkpt lat="45.92043" lon="4.74859">
        <ele>169</ele>
        <time>2017-07-29T09:36:19Z</time>
      </trkpt>
      <trkpt lat="45.92037" lon="4.74856">
        <ele>169</ele>
        <time>2017-07-29T09:36:20Z</time>
      </trkpt>
      <trkpt lat="45.92032" lon="4.74853">
        <ele>169</ele>
        <time>2017-07-29T09:36:21Z</time>
      </trkpt>
      <trkpt lat="45.92027" lon="4.74851">
        <ele>169</ele>
        <time>2017-07-29T09:36:22Z</time>
      </trkpt>
      <trkpt lat="45.92021" lon="4.74848">
        <ele>169</ele>
        <time>2017-07-29T09:36:23Z</time>
      </trkpt>
      <trkpt lat="45.92016" lon="4.74845">
        <ele>169</ele>
        <time>2017-07-29T09:36:24Z</time>
      </trkpt>
      <trkpt lat="45.9201" lon="4.74842">
        <ele>168</ele>
        <time>2017-07-29T09:36:25Z</time>
      </trkpt>
      <trkpt lat="45.92005" lon="4.74839">
        <ele>168</ele>
        <time>2017-07-29T09:36:26Z</time>
      </trkpt>
      <trkpt lat="45.92" lon="4.74835">
        <ele>168</ele>
        <time>2017-07-29T09:36:27Z</time>
      </trkpt>
      <trkpt lat="45.91995" lon="4.74832">
        <ele>168</ele>
        <time>2017-07-29T09:36:28Z</time>
      </trkpt>
      <trkpt lat="45.9199" lon="4.74829">
        <ele>169</ele>
        <time>2017-07-29T09:36:29Z</time>
      </trkpt>
      <trkpt lat="45.91984" lon="4.74826">
        <ele>169</ele>
        <time>2017-07-29T09:36:30Z</time>
      </trkpt>
      <trkpt lat="45.91979" lon="4.74823">
        <ele>169</ele>
        <time>2017-07-29T09:36:31Z</time>
      </trkpt>
      <trkpt lat="45.91974" lon="4.7482">
        <ele>169</ele>
        <time>2017-07-29T09:36:32Z</time>
      </trkpt>
      <trkpt lat="45.91968" lon="4.74817">
        <ele>170</ele>
        <time>2017-07-29T09:36:33Z</time>
      </trkpt>
      <trkpt lat="45.91963" lon="4.74815">
        <ele>170</ele>
        <time>2017-07-29T09:36:34Z</time>
      </trkpt>
      <trkpt lat="45.91957" lon="4.74812">
        <ele>170</ele>
        <time>2017-07-29T09:36:35Z</time>
      </trkpt>
      <trkpt lat="45.91952" lon="4.74809">
        <ele>170</ele>
        <time>2017-07-29T09:36:36Z</time>
      </trkpt>
      <trkpt lat="45.91946" lon="4.74806">
        <ele>170</ele>
        <time>2017-07-29T09:36:37Z</time>
      </trkpt>
      <trkpt lat="45.91941" lon="4.74803">
        <ele>170</ele>
        <time>2017-07-29T09:36:38Z</time>
      </trkpt>
      <trkpt lat="45.91936" lon="4.74799">
        <ele>170</ele>
        <time>2017-07-29T09:36:39Z</time>
      </trkpt>
      <trkpt lat="45.9193" lon="4.74796">
        <ele>170</ele>
        <time>2017-07-29T09:36:40Z</time>
      </trkpt>
      <trkpt lat="45.91925" lon="4.74794">
        <ele>170</ele>
        <time>2017-07-29T09:36:41Z</time>
      </trkpt>
      <trkpt lat="45.9192" lon="4.74791">
        <ele>171</ele>
        <time>2017-07-29T09:36:42Z</time>
      </trkpt>
      <trkpt lat="45.91915" lon="4.74788">
        <ele>172</ele>
        <time>2017-07-29T09:36:43Z</time>
      </trkpt>
      <trkpt lat="45.9191" lon="4.74785">
        <ele>172</ele>
        <time>2017-07-29T09:36:44Z</time>
      </trkpt>
      <trkpt lat="45.91905" lon="4.74783">
        <ele>172</ele>
        <time>2017-07-29T09:36:45Z</time>
      </trkpt>
      <trkpt lat="45.919" lon="4.7478">
        <ele>172</ele>
        <time>2017-07-29T09:36:46Z</time>
      </trkpt>
      <trkpt lat="45.91894" lon="4.74777">
        <ele>172</ele>
        <time>2017-07-29T09:36:47Z</time>
      </trkpt>
      <trkpt lat="45.91888" lon="4.74773">
        <ele>172</ele>
        <time>2017-07-29T09:36:48Z</time>
      </trkpt>
      <trkpt lat="45.91883" lon="4.74771">
        <ele>172</ele>
        <time>2017-07-29T09:36:49Z</time>
      </trkpt>
      <trkpt lat="45.91877" lon="4.74768">
        <ele>172</ele>
        <time>2017-07-29T09:36:50Z</time>
      </trkpt>
      <trkpt lat="45.91871" lon="4.74766">
        <ele>171</ele>
        <time>2017-07-29T09:36:51Z</time>
      </trkpt>
      <trkpt lat="45.91865" lon="4.74766">
        <ele>171</ele>
        <time>2017-07-29T09:36:52Z</time>
      </trkpt>
      <trkpt lat="45.9186" lon="4.74766">
        <ele>171</ele>
        <time>2017-07-29T09:36:53Z</time>
      </trkpt>
      <trkpt lat="45.91855" lon="4.74769">
        <ele>171</ele>
        <time>2017-07-29T09:36:54Z</time>
      </trkpt>
      <trkpt lat="45.91851" lon="4.74773">
        <ele>171</ele>
        <time>2017-07-29T09:36:55Z</time>
      </trkpt>
      <trkpt lat="45.91846" lon="4.74778">
        <ele>171</ele>
        <time>2017-07-29T09:36:56Z</time>
      </trkpt>
      <trkpt lat="45.91842" lon="4.74784">
        <ele>171</ele>
        <time>2017-07-29T09:36:57Z</time>
      </trkpt>
      <trkpt lat="45.91837" lon="4.7479">
        <ele>171</ele>
        <time>2017-07-29T09:36:58Z</time>
      </trkpt>
      <trkpt lat="45.91832" lon="4.74797">
        <ele>172</ele>
        <time>2017-07-29T09:36:59Z</time>
      </trkpt>
      <trkpt lat="45.91828" lon="4.74803">
        <ele>172</ele>
        <time>2017-07-29T09:37:00Z</time>
      </trkpt>
      <trkpt lat="45.91824" lon="4.7481">
        <ele>172</ele>
        <time>2017-07-29T09:37:01Z</time>
      </trkpt>
      <trkpt lat="45.9182" lon="4.74816">
        <ele>172</ele>
        <time>2017-07-29T09:37:02Z</time>
      </trkpt>
      <trkpt lat="45.91816" lon="4.74822">
        <ele>172</ele>
        <time>2017-07-29T09:37:03Z</time>
      </trkpt>
      <trkpt lat="45.91812" lon="4.74827">
        <ele>172</ele>
        <time>2017-07-29T09:37:04Z</time>
      </trkpt>
      <trkpt lat="45.91808" lon="4.74834">
        <ele>172</ele>
        <time>2017-07-29T09:37:05Z</time>
      </trkpt>
      <trkpt lat="45.91804" lon="4.7484">
        <ele>172</ele>
        <time>2017-07-29T09:37:06Z</time>
      </trkpt>
      <trkpt lat="45.918" lon="4.74846">
        <ele>173</ele>
        <time>2017-07-29T09:37:07Z</time>
      </trkpt>
      <trkpt lat="45.91797" lon="4.74853">
        <ele>173</ele>
        <time>2017-07-29T09:37:08Z</time>
      </trkpt>
      <trkpt lat="45.91794" lon="4.74859">
        <ele>173</ele>
        <time>2017-07-29T09:37:09Z</time>
      </trkpt>
      <trkpt lat="45.9179" lon="4.74865">
        <ele>173</ele>
        <time>2017-07-29T09:37:10Z</time>
      </trkpt>
      <trkpt lat="45.91787" lon="4.74871">
        <ele>173</ele>
        <time>2017-07-29T09:37:11Z</time>
      </trkpt>
      <trkpt lat="45.91784" lon="4.74878">
        <ele>173</ele>
        <time>2017-07-29T09:37:12Z</time>
      </trkpt>
      <trkpt lat="45.91781" lon="4.74884">
        <ele>173</ele>
        <time>2017-07-29T09:37:13Z</time>
      </trkpt>
      <trkpt lat="45.91778" lon="4.7489">
        <ele>173</ele>
        <time>2017-07-29T09:37:14Z</time>
      </trkpt>
      <trkpt lat="45.91775" lon="4.74896">
        <ele>173</ele>
        <time>2017-07-29T09:37:15Z</time>
      </trkpt>
      <trkpt lat="45.91772" lon="4.74902">
        <ele>173</ele>
        <time>2017-07-29T09:37:16Z</time>
      </trkpt>
      <trkpt lat="45.91769" lon="4.74907">
        <ele>173</ele>
        <time>2017-07-29T09:37:17Z</time>
      </trkpt>
      <trkpt lat="45.91766" lon="4.74913">
        <ele>173</ele>
        <time>2017-07-29T09:37:18Z</time>
      </trkpt>
      <trkpt lat="45.91763" lon="4.74918">
        <ele>174</ele>
        <time>2017-07-29T09:37:19Z</time>
      </trkpt>
      <trkpt lat="45.9176" lon="4.74923">
        <ele>174</ele>
        <time>2017-07-29T09:37:20Z</time>
      </trkpt>
      <trkpt lat="45.91756" lon="4.74927">
        <ele>174</ele>
        <time>2017-07-29T09:37:21Z</time>
      </trkpt>
      <trkpt lat="45.91753" lon="4.74931">
        <ele>174</ele>
        <time>2017-07-29T09:37:22Z</time>
      </trkpt>
      <trkpt lat="45.9175" lon="4.74936">
        <ele>174</ele>
        <time>2017-07-29T09:37:23Z</time>
      </trkpt>
      <trkpt lat="45.91746" lon="4.7494">
        <ele>174</ele>
        <time>2017-07-29T09:37:24Z</time>
      </trkpt>
      <trkpt lat="45.91739" lon="4.74948">
        <ele>174</ele>
        <time>2017-07-29T09:37:26Z</time>
      </trkpt>
      <trkpt lat="45.91736" lon="4.74952">
        <ele>175</ele>
        <time>2017-07-29T09:37:27Z</time>
      </trkpt>
      <trkpt lat="45.91732" lon="4.74956">
        <ele>175</ele>
        <time>2017-07-29T09:37:28Z</time>
      </trkpt>
      <trkpt lat="45.91729" lon="4.74961">
        <ele>175</ele>
        <time>2017-07-29T09:37:29Z</time>
      </trkpt>
      <trkpt lat="45.91725" lon="4.74965">
        <ele>175</ele>
        <time>2017-07-29T09:37:30Z</time>
      </trkpt>
      <trkpt lat="45.9172" lon="4.74969">
        <ele>175</ele>
        <time>2017-07-29T09:37:31Z</time>
      </trkpt>
      <trkpt lat="45.91716" lon="4.74972">
        <ele>175</ele>
        <time>2017-07-29T09:37:32Z</time>
      </trkpt>
      <trkpt lat="45.91712" lon="4.74976">
        <ele>175</ele>
        <time>2017-07-29T09:37:33Z</time>
      </trkpt>
      <trkpt lat="45.91708" lon="4.74979">
        <ele>175</ele>
        <time>2017-07-29T09:37:34Z</time>
      </trkpt>
      <trkpt lat="45.91704" lon="4.74982">
        <ele>175</ele>
        <time>2017-07-29T09:37:35Z</time>
      </trkpt>
      <trkpt lat="45.91696" lon="4.74985">
        <ele>175</ele>
        <time>2017-07-29T09:37:37Z</time>
      </trkpt>
      <trkpt lat="45.91692" lon="4.74986">
        <ele>175</ele>
        <time>2017-07-29T09:37:38Z</time>
      </trkpt>
      <trkpt lat="45.91687" lon="4.74985">
        <ele>175</ele>
        <time>2017-07-29T09:37:39Z</time>
      </trkpt>
      <trkpt lat="45.91683" lon="4.74984">
        <ele>175</ele>
        <time>2017-07-29T09:37:40Z</time>
      </trkpt>
      <trkpt lat="45.91678" lon="4.74982">
        <ele>175</ele>
        <time>2017-07-29T09:37:41Z</time>
      </trkpt>
      <trkpt lat="45.91673" lon="4.74979">
        <ele>175</ele>
        <time>2017-07-29T09:37:42Z</time>
      </trkpt>
      <trkpt lat="45.91669" lon="4.74977">
        <ele>175</ele>
        <time>2017-07-29T09:37:43Z</time>
      </trkpt>
      <trkpt lat="45.91661" lon="4.74974">
        <ele>176</ele>
        <time>2017-07-29T09:37:44Z</time>
      </trkpt>
      <trkpt lat="45.91656" lon="4.7497">
        <ele>176</ele>
        <time>2017-07-29T09:37:45Z</time>
      </trkpt>
      <trkpt lat="45.91651" lon="4.74968">
        <ele>176</ele>
        <time>2017-07-29T09:37:46Z</time>
      </trkpt>
      <trkpt lat="45.91643" lon="4.74965">
        <ele>176</ele>
        <time>2017-07-29T09:37:48Z</time>
      </trkpt>
      <trkpt lat="45.91639" lon="4.74964">
        <ele>176</ele>
        <time>2017-07-29T09:37:49Z</time>
      </trkpt>
      <trkpt lat="45.9163" lon="4.74961">
        <ele>176</ele>
        <time>2017-07-29T09:37:51Z</time>
      </trkpt>
      <trkpt lat="45.91625" lon="4.74959">
        <ele>177</ele>
        <time>2017-07-29T09:37:52Z</time>
      </trkpt>
      <trkpt lat="45.9162" lon="4.74957">
        <ele>177</ele>
        <time>2017-07-29T09:37:53Z</time>
      </trkpt>
      <trkpt lat="45.91615" lon="4.74956">
        <ele>177</ele>
        <time>2017-07-29T09:37:54Z</time>
      </trkpt>
      <trkpt lat="45.9161" lon="4.74954">
        <ele>177</ele>
        <time>2017-07-29T09:37:55Z</time>
      </trkpt>
      <trkpt lat="45.91606" lon="4.74953">
        <ele>177</ele>
        <time>2017-07-29T09:37:56Z</time>
      </trkpt>
      <trkpt lat="45.91597" lon="4.74951">
        <ele>177</ele>
        <time>2017-07-29T09:37:58Z</time>
      </trkpt>
      <trkpt lat="45.91594" lon="4.7495">
        <ele>177</ele>
        <time>2017-07-29T09:37:59Z</time>
      </trkpt>
      <trkpt lat="45.91589" lon="4.74947">
        <ele>177</ele>
        <time>2017-07-29T09:38:00Z</time>
      </trkpt>
      <trkpt lat="45.91584" lon="4.74945">
        <ele>177</ele>
        <time>2017-07-29T09:38:01Z</time>
      </trkpt>
      <trkpt lat="45.91579" lon="4.74942">
        <ele>178</ele>
        <time>2017-07-29T09:38:02Z</time>
      </trkpt>
      <trkpt lat="45.91574" lon="4.7494">
        <ele>178</ele>
        <time>2017-07-29T09:38:03Z</time>
      </trkpt>
      <trkpt lat="45.9157" lon="4.74938">
        <ele>178</ele>
        <time>2017-07-29T09:38:04Z</time>
      </trkpt>
      <trkpt lat="45.91565" lon="4.74936">
        <ele>178</ele>
        <time>2017-07-29T09:38:05Z</time>
      </trkpt>
      <trkpt lat="45.9156" lon="4.74935">
        <ele>178</ele>
        <time>2017-07-29T09:38:06Z</time>
      </trkpt>
      <trkpt lat="45.91555" lon="4.74934">
        <ele>178</ele>
        <time>2017-07-29T09:38:07Z</time>
      </trkpt>
      <trkpt lat="45.9155" lon="4.74933">
        <ele>178</ele>
        <time>2017-07-29T09:38:08Z</time>
      </trkpt>
      <trkpt lat="45.91546" lon="4.74933">
        <ele>178</ele>
        <time>2017-07-29T09:38:09Z</time>
      </trkpt>
      <trkpt lat="45.91541" lon="4.74933">
        <ele>178</ele>
        <time>2017-07-29T09:38:10Z</time>
      </trkpt>
      <trkpt lat="45.91536" lon="4.74932">
        <ele>178</ele>
        <time>2017-07-29T09:38:11Z</time>
      </trkpt>
      <trkpt lat="45.91531" lon="4.74932">
        <ele>178</ele>
        <time>2017-07-29T09:38:12Z</time>
      </trkpt>
      <trkpt lat="45.91527" lon="4.74932">
        <ele>177</ele>
        <time>2017-07-29T09:38:13Z</time>
      </trkpt>
      <trkpt lat="45.91519" lon="4.74933">
        <ele>177</ele>
        <time>2017-07-29T09:38:15Z</time>
      </trkpt>
      <trkpt lat="45.91515" lon="4.74932">
        <ele>177</ele>
        <time>2017-07-29T09:38:16Z</time>
      </trkpt>
      <trkpt lat="45.9151" lon="4.74932">
        <ele>177</ele>
        <time>2017-07-29T09:38:17Z</time>
      </trkpt>
      <trkpt lat="45.91506" lon="4.7493">
        <ele>177</ele>
        <time>2017-07-29T09:38:18Z</time>
      </trkpt>
      <trkpt lat="45.91497" lon="4.74927">
        <ele>177</ele>
        <time>2017-07-29T09:38:20Z</time>
      </trkpt>
      <trkpt lat="45.91493" lon="4.74924">
        <ele>177</ele>
        <time>2017-07-29T09:38:21Z</time>
      </trkpt>
      <trkpt lat="45.91489" lon="4.74922">
        <ele>177</ele>
        <time>2017-07-29T09:38:22Z</time>
      </trkpt>
      <trkpt lat="45.91483" lon="4.74921">
        <ele>178</ele>
        <time>2017-07-29T09:38:23Z</time>
      </trkpt>
      <trkpt lat="45.91475" lon="4.74917">
        <ele>178</ele>
        <time>2017-07-29T09:38:25Z</time>
      </trkpt>
      <trkpt lat="45.91468" lon="4.74919">
        <ele>178</ele>
        <time>2017-07-29T09:38:26Z</time>
      </trkpt>
      <trkpt lat="45.91462" lon="4.74918">
        <ele>178</ele>
        <time>2017-07-29T09:38:27Z</time>
      </trkpt>
      <trkpt lat="45.91457" lon="4.74917">
        <ele>177</ele>
        <time>2017-07-29T09:38:28Z</time>
      </trkpt>
      <trkpt lat="45.91451" lon="4.74916">
        <ele>177</ele>
        <time>2017-07-29T09:38:29Z</time>
      </trkpt>
      <trkpt lat="45.91446" lon="4.74913">
        <ele>177</ele>
        <time>2017-07-29T09:38:30Z</time>
      </trkpt>
      <trkpt lat="45.9144" lon="4.74912">
        <ele>177</ele>
        <time>2017-07-29T09:38:31Z</time>
      </trkpt>
      <trkpt lat="45.91435" lon="4.74911">
        <ele>177</ele>
        <time>2017-07-29T09:38:32Z</time>
      </trkpt>
      <trkpt lat="45.91431" lon="4.74909">
        <ele>177</ele>
        <time>2017-07-29T09:38:33Z</time>
      </trkpt>
      <trkpt lat="45.91426" lon="4.74908">
        <ele>177</ele>
        <time>2017-07-29T09:38:34Z</time>
      </trkpt>
      <trkpt lat="45.91422" lon="4.74908">
        <ele>177</ele>
        <time>2017-07-29T09:38:35Z</time>
      </trkpt>
      <trkpt lat="45.91417" lon="4.74907">
        <ele>177</ele>
        <time>2017-07-29T09:38:36Z</time>
      </trkpt>
      <trkpt lat="45.91413" lon="4.74906">
        <ele>177</ele>
        <time>2017-07-29T09:38:37Z</time>
      </trkpt>
      <trkpt lat="45.91406" lon="4.74905">
        <ele>177</ele>
        <time>2017-07-29T09:38:38Z</time>
      </trkpt>
      <trkpt lat="45.91401" lon="4.74906">
        <ele>177</ele>
        <time>2017-07-29T09:38:39Z</time>
      </trkpt>
      <trkpt lat="45.91397" lon="4.74905">
        <ele>177</ele>
        <time>2017-07-29T09:38:40Z</time>
      </trkpt>
      <trkpt lat="45.91388" lon="4.74903">
        <ele>177</ele>
        <time>2017-07-29T09:38:42Z</time>
      </trkpt>
      <trkpt lat="45.91384" lon="4.74901">
        <ele>177</ele>
        <time>2017-07-29T09:38:43Z</time>
      </trkpt>
      <trkpt lat="45.91376" lon="4.74897">
        <ele>177</ele>
        <time>2017-07-29T09:38:45Z</time>
      </trkpt>
      <trkpt lat="45.91371" lon="4.74894">
        <ele>177</ele>
        <time>2017-07-29T09:38:46Z</time>
      </trkpt>
      <trkpt lat="45.91364" lon="4.74893">
        <ele>176</ele>
        <time>2017-07-29T09:38:48Z</time>
      </trkpt>
      <trkpt lat="45.9136" lon="4.74891">
        <ele>176</ele>
        <time>2017-07-29T09:38:49Z</time>
      </trkpt>
      <trkpt lat="45.91352" lon="4.74889">
        <ele>176</ele>
        <time>2017-07-29T09:38:51Z</time>
      </trkpt>
      <trkpt lat="45.91348" lon="4.74888">
        <ele>176</ele>
        <time>2017-07-29T09:38:52Z</time>
      </trkpt>
      <trkpt lat="45.91341" lon="4.74885">
        <ele>176</ele>
        <time>2017-07-29T09:38:54Z</time>
      </trkpt>
      <trkpt lat="45.91337" lon="4.74885">
        <ele>176</ele>
        <time>2017-07-29T09:38:55Z</time>
      </trkpt>
      <trkpt lat="45.91329" lon="4.74882">
        <ele>176</ele>
        <time>2017-07-29T09:38:57Z</time>
      </trkpt>
      <trkpt lat="45.91324" lon="4.74881">
        <ele>176</ele>
        <time>2017-07-29T09:38:58Z</time>
      </trkpt>
      <trkpt lat="45.91316" lon="4.74878">
        <ele>176</ele>
        <time>2017-07-29T09:39:01Z</time>
      </trkpt>
      <trkpt lat="45.91313" lon="4.74876">
        <ele>176</ele>
        <time>2017-07-29T09:39:02Z</time>
      </trkpt>
      <trkpt lat="45.91305" lon="4.74873">
        <ele>176</ele>
        <time>2017-07-29T09:39:04Z</time>
      </trkpt>
      <trkpt lat="45.91303" lon="4.74873">
        <ele>176</ele>
        <time>2017-07-29T09:39:05Z</time>
      </trkpt>
      <trkpt lat="45.91298" lon="4.7488">
        <ele>176</ele>
        <time>2017-07-29T09:39:07Z</time>
      </trkpt>
      <trkpt lat="45.91301" lon="4.74893">
        <ele>176</ele>
        <time>2017-07-29T09:39:08Z</time>
      </trkpt>
      <trkpt lat="45.91301" lon="4.74901">
        <ele>176</ele>
        <time>2017-07-29T09:39:09Z</time>
      </trkpt>
      <trkpt lat="45.913" lon="4.7491">
        <ele>176</ele>
        <time>2017-07-29T09:39:10Z</time>
      </trkpt>
      <trkpt lat="45.913" lon="4.74917">
        <ele>176</ele>
        <time>2017-07-29T09:39:11Z</time>
      </trkpt>
      <trkpt lat="45.91299" lon="4.74924">
        <ele>177</ele>
        <time>2017-07-29T09:39:12Z</time>
      </trkpt>
      <trkpt lat="45.91298" lon="4.74931">
        <ele>177</ele>
        <time>2017-07-29T09:39:13Z</time>
      </trkpt>
      <trkpt lat="45.91297" lon="4.74939">
        <ele>177</ele>
        <time>2017-07-29T09:39:14Z</time>
      </trkpt>
      <trkpt lat="45.91296" lon="4.74947">
        <ele>177</ele>
        <time>2017-07-29T09:39:15Z</time>
      </trkpt>
      <trkpt lat="45.91295" lon="4.74955">
        <ele>177</ele>
        <time>2017-07-29T09:39:16Z</time>
      </trkpt>
      <trkpt lat="45.91295" lon="4.74964">
        <ele>177</ele>
        <time>2017-07-29T09:39:17Z</time>
      </trkpt>
      <trkpt lat="45.91295" lon="4.74972">
        <ele>177</ele>
        <time>2017-07-29T09:39:18Z</time>
      </trkpt>
      <trkpt lat="45.91294" lon="4.7498">
        <ele>177</ele>
        <time>2017-07-29T09:39:19Z</time>
      </trkpt>
      <trkpt lat="45.91293" lon="4.74989">
        <ele>177</ele>
        <time>2017-07-29T09:39:20Z</time>
      </trkpt>
      <trkpt lat="45.91293" lon="4.74998">
        <ele>177</ele>
        <time>2017-07-29T09:39:21Z</time>
      </trkpt>
      <trkpt lat="45.91293" lon="4.75007">
        <ele>177</ele>
        <time>2017-07-29T09:39:22Z</time>
      </trkpt>
      <trkpt lat="45.91293" lon="4.75015">
        <ele>177</ele>
        <time>2017-07-29T09:39:23Z</time>
      </trkpt>
      <trkpt lat="45.91294" lon="4.75022">
        <ele>177</ele>
        <time>2017-07-29T09:39:24Z</time>
      </trkpt>
      <trkpt lat="45.91294" lon="4.7503">
        <ele>177</ele>
        <time>2017-07-29T09:39:25Z</time>
      </trkpt>
      <trkpt lat="45.91294" lon="4.75037">
        <ele>177</ele>
        <time>2017-07-29T09:39:26Z</time>
      </trkpt>
      <trkpt lat="45.91294" lon="4.75045">
        <ele>177</ele>
        <time>2017-07-29T09:39:27Z</time>
      </trkpt>
      <trkpt lat="45.91295" lon="4.75051">
        <ele>177</ele>
        <time>2017-07-29T09:39:28Z</time>
      </trkpt>
      <trkpt lat="45.91296" lon="4.75058">
        <ele>177</ele>
        <time>2017-07-29T09:39:29Z</time>
      </trkpt>
      <trkpt lat="45.91296" lon="4.75067">
        <ele>177</ele>
        <time>2017-07-29T09:39:30Z</time>
      </trkpt>
      <trkpt lat="45.91297" lon="4.75075">
        <ele>177</ele>
        <time>2017-07-29T09:39:31Z</time>
      </trkpt>
      <trkpt lat="45.91297" lon="4.75082">
        <ele>177</ele>
        <time>2017-07-29T09:39:32Z</time>
      </trkpt>
      <trkpt lat="45.91297" lon="4.7509">
        <ele>177</ele>
        <time>2017-07-29T09:39:33Z</time>
      </trkpt>
      <trkpt lat="45.91297" lon="4.75098">
        <ele>177</ele>
        <time>2017-07-29T09:39:34Z</time>
      </trkpt>
      <trkpt lat="45.913" lon="4.75109">
        <ele>177</ele>
        <time>2017-07-29T09:39:35Z</time>
      </trkpt>
      <trkpt lat="45.91301" lon="4.75118">
        <ele>177</ele>
        <time>2017-07-29T09:39:36Z</time>
      </trkpt>
      <trkpt lat="45.91302" lon="4.75126">
        <ele>177</ele>
        <time>2017-07-29T09:39:37Z</time>
      </trkpt>
      <trkpt lat="45.91303" lon="4.75133">
        <ele>177</ele>
        <time>2017-07-29T09:39:38Z</time>
      </trkpt>
      <trkpt lat="45.91301" lon="4.75143">
        <ele>177</ele>
        <time>2017-07-29T09:39:40Z</time>
      </trkpt>
      <trkpt lat="45.91299" lon="4.75147">
        <ele>177</ele>
        <time>2017-07-29T09:39:41Z</time>
      </trkpt>
      <trkpt lat="45.91291" lon="4.7515">
        <ele>177</ele>
        <time>2017-07-29T09:39:45Z</time>
      </trkpt>
      <trkpt lat="45.91287" lon="4.75149">
        <ele>177</ele>
        <time>2017-07-29T09:39:46Z</time>
      </trkpt>
      <trkpt lat="45.91283" lon="4.75146">
        <ele>177</ele>
        <time>2017-07-29T09:39:47Z</time>
      </trkpt>
      <trkpt lat="45.91278" lon="4.75143">
        <ele>177</ele>
        <time>2017-07-29T09:39:48Z</time>
      </trkpt>
      <trkpt lat="45.91273" lon="4.75141">
        <ele>177</ele>
        <time>2017-07-29T09:39:49Z</time>
      </trkpt>
      <trkpt lat="45.91268" lon="4.75139">
        <ele>177</ele>
        <time>2017-07-29T09:39:50Z</time>
      </trkpt>
      <trkpt lat="45.91261" lon="4.75134">
        <ele>177</ele>
        <time>2017-07-29T09:39:52Z</time>
      </trkpt>
      <trkpt lat="45.91257" lon="4.75132">
        <ele>177</ele>
        <time>2017-07-29T09:39:53Z</time>
      </trkpt>
      <trkpt lat="45.91249" lon="4.75129">
        <ele>177</ele>
        <time>2017-07-29T09:39:55Z</time>
      </trkpt>
      <trkpt lat="45.91244" lon="4.75129">
        <ele>177</ele>
        <time>2017-07-29T09:39:56Z</time>
      </trkpt>
      <trkpt lat="45.91236" lon="4.75126">
        <ele>177</ele>
        <time>2017-07-29T09:39:58Z</time>
      </trkpt>
      <trkpt lat="45.91231" lon="4.75124">
        <ele>177</ele>
        <time>2017-07-29T09:39:59Z</time>
      </trkpt>
      <trkpt lat="45.91227" lon="4.75123">
        <ele>177</ele>
        <time>2017-07-29T09:40:00Z</time>
      </trkpt>
      <trkpt lat="45.91222" lon="4.75121">
        <ele>177</ele>
        <time>2017-07-29T09:40:01Z</time>
      </trkpt>
      <trkpt lat="45.91218" lon="4.75119">
        <ele>177</ele>
        <time>2017-07-29T09:40:02Z</time>
      </trkpt>
      <trkpt lat="45.91213" lon="4.75118">
        <ele>177</ele>
        <time>2017-07-29T09:40:03Z</time>
      </trkpt>
      <trkpt lat="45.91208" lon="4.75118">
        <ele>178</ele>
        <time>2017-07-29T09:40:04Z</time>
      </trkpt>
      <trkpt lat="45.91203" lon="4.75116">
        <ele>178</ele>
        <time>2017-07-29T09:40:05Z</time>
      </trkpt>
      <trkpt lat="45.91198" lon="4.75115">
        <ele>178</ele>
        <time>2017-07-29T09:40:06Z</time>
      </trkpt>
      <trkpt lat="45.91193" lon="4.75114">
        <ele>178</ele>
        <time>2017-07-29T09:40:07Z</time>
      </trkpt>
      <trkpt lat="45.91188" lon="4.75113">
        <ele>178</ele>
        <time>2017-07-29T09:40:08Z</time>
      </trkpt>
      <trkpt lat="45.91184" lon="4.75112">
        <ele>178</ele>
        <time>2017-07-29T09:40:09Z</time>
      </trkpt>
      <trkpt lat="45.91179" lon="4.75111">
        <ele>178</ele>
        <time>2017-07-29T09:40:10Z</time>
      </trkpt>
      <trkpt lat="45.91174" lon="4.75111">
        <ele>178</ele>
        <time>2017-07-29T09:40:11Z</time>
      </trkpt>
      <trkpt lat="45.91169" lon="4.75111">
        <ele>178</ele>
        <time>2017-07-29T09:40:12Z</time>
      </trkpt>
      <trkpt lat="45.91164" lon="4.75111">
        <ele>179</ele>
        <time>2017-07-29T09:40:13Z</time>
      </trkpt>
      <trkpt lat="45.91159" lon="4.7511">
        <ele>179</ele>
        <time>2017-07-29T09:40:14Z</time>
      </trkpt>
      <trkpt lat="45.91154" lon="4.75109">
        <ele>179</ele>
        <time>2017-07-29T09:40:15Z</time>
      </trkpt>
      <trkpt lat="45.91149" lon="4.75107">
        <ele>179</ele>
        <time>2017-07-29T09:40:16Z</time>
      </trkpt>
      <trkpt lat="45.91145" lon="4.75106">
        <ele>179</ele>
        <time>2017-07-29T09:40:17Z</time>
      </trkpt>
      <trkpt lat="45.9114" lon="4.75104">
        <ele>179</ele>
        <time>2017-07-29T09:40:18Z</time>
      </trkpt>
      <trkpt lat="45.91135" lon="4.75103">
        <ele>179</ele>
        <time>2017-07-29T09:40:19Z</time>
      </trkpt>
      <trkpt lat="45.91131" lon="4.75101">
        <ele>179</ele>
        <time>2017-07-29T09:40:20Z</time>
      </trkpt>
      <trkpt lat="45.91127" lon="4.75099">
        <ele>179</ele>
        <time>2017-07-29T09:40:21Z</time>
      </trkpt>
      <trkpt lat="45.91119" lon="4.75097">
        <ele>179</ele>
        <time>2017-07-29T09:40:23Z</time>
      </trkpt>
      <trkpt lat="45.91115" lon="4.75095">
        <ele>179</ele>
        <time>2017-07-29T09:40:24Z</time>
      </trkpt>
      <trkpt lat="45.91107" lon="4.75092">
        <ele>180</ele>
        <time>2017-07-29T09:40:26Z</time>
      </trkpt>
      <trkpt lat="45.91103" lon="4.7509">
        <ele>180</ele>
        <time>2017-07-29T09:40:27Z</time>
      </trkpt>
      <trkpt lat="45.91098" lon="4.75089">
        <ele>180</ele>
        <time>2017-07-29T09:40:28Z</time>
      </trkpt>
      <trkpt lat="45.91094" lon="4.75087">
        <ele>180</ele>
        <time>2017-07-29T09:40:29Z</time>
      </trkpt>
      <trkpt lat="45.91089" lon="4.75085">
        <ele>180</ele>
        <time>2017-07-29T09:40:30Z</time>
      </trkpt>
      <trkpt lat="45.91085" lon="4.75084">
        <ele>180</ele>
        <time>2017-07-29T09:40:31Z</time>
      </trkpt>
      <trkpt lat="45.91081" lon="4.75083">
        <ele>180</ele>
        <time>2017-07-29T09:40:32Z</time>
      </trkpt>
      <trkpt lat="45.91076" lon="4.75081">
        <ele>180</ele>
        <time>2017-07-29T09:40:33Z</time>
      </trkpt>
      <trkpt lat="45.91072" lon="4.7508">
        <ele>179</ele>
        <time>2017-07-29T09:40:34Z</time>
      </trkpt>
      <trkpt lat="45.91067" lon="4.75078">
        <ele>179</ele>
        <time>2017-07-29T09:40:35Z</time>
      </trkpt>
      <trkpt lat="45.91062" lon="4.75076">
        <ele>179</ele>
        <time>2017-07-29T09:40:36Z</time>
      </trkpt>
      <trkpt lat="45.91058" lon="4.75074">
        <ele>179</ele>
        <time>2017-07-29T09:40:37Z</time>
      </trkpt>
      <trkpt lat="45.91053" lon="4.75072">
        <ele>179</ele>
        <time>2017-07-29T09:40:38Z</time>
      </trkpt>
      <trkpt lat="45.91049" lon="4.75071">
        <ele>179</ele>
        <time>2017-07-29T09:40:39Z</time>
      </trkpt>
      <trkpt lat="45.91044" lon="4.75069">
        <ele>179</ele>
        <time>2017-07-29T09:40:40Z</time>
      </trkpt>
      <trkpt lat="45.9104" lon="4.75067">
        <ele>179</ele>
        <time>2017-07-29T09:40:41Z</time>
      </trkpt>
      <trkpt lat="45.91036" lon="4.75066">
        <ele>179</ele>
        <time>2017-07-29T09:40:42Z</time>
      </trkpt>
      <trkpt lat="45.91031" lon="4.75065">
        <ele>179</ele>
        <time>2017-07-29T09:40:43Z</time>
      </trkpt>
      <trkpt lat="45.91023" lon="4.75062">
        <ele>179</ele>
        <time>2017-07-29T09:40:45Z</time>
      </trkpt>
      <trkpt lat="45.91018" lon="4.75059">
        <ele>179</ele>
        <time>2017-07-29T09:40:46Z</time>
      </trkpt>
      <trkpt lat="45.91009" lon="4.75055">
        <ele>179</ele>
        <time>2017-07-29T09:40:48Z</time>
      </trkpt>
      <trkpt lat="45.91006" lon="4.75053">
        <ele>179</ele>
        <time>2017-07-29T09:40:49Z</time>
      </trkpt>
      <trkpt lat="45.90998" lon="4.7505">
        <ele>179</ele>
        <time>2017-07-29T09:40:51Z</time>
      </trkpt>
      <trkpt lat="45.90994" lon="4.75048">
        <ele>179</ele>
        <time>2017-07-29T09:40:52Z</time>
      </trkpt>
      <trkpt lat="45.9099" lon="4.75047">
        <ele>179</ele>
        <time>2017-07-29T09:40:53Z</time>
      </trkpt>
      <trkpt lat="45.90985" lon="4.75045">
        <ele>179</ele>
        <time>2017-07-29T09:40:54Z</time>
      </trkpt>
      <trkpt lat="45.90981" lon="4.75044">
        <ele>179</ele>
        <time>2017-07-29T09:40:55Z</time>
      </trkpt>
      <trkpt lat="45.90976" lon="4.75042">
        <ele>179</ele>
        <time>2017-07-29T09:40:56Z</time>
      </trkpt>
      <trkpt lat="45.90968" lon="4.75038">
        <ele>179</ele>
        <time>2017-07-29T09:40:58Z</time>
      </trkpt>
      <trkpt lat="45.90964" lon="4.75037">
        <ele>179</ele>
        <time>2017-07-29T09:40:59Z</time>
      </trkpt>
      <trkpt lat="45.90957" lon="4.75041">
        <ele>179</ele>
        <time>2017-07-29T09:41:01Z</time>
      </trkpt>
      <trkpt lat="45.90955" lon="4.75044">
        <ele>179</ele>
        <time>2017-07-29T09:41:02Z</time>
      </trkpt>
      <trkpt lat="45.90953" lon="4.75055">
        <ele>179</ele>
        <time>2017-07-29T09:41:05Z</time>
      </trkpt>
      <trkpt lat="45.90953" lon="4.75058">
        <ele>179</ele>
        <time>2017-07-29T09:41:06Z</time>
      </trkpt>
      <trkpt lat="45.90952" lon="4.75067">
        <ele>179</ele>
        <time>2017-07-29T09:41:08Z</time>
      </trkpt>
      <trkpt lat="45.90951" lon="4.75071">
        <ele>179</ele>
        <time>2017-07-29T09:41:09Z</time>
      </trkpt>
      <trkpt lat="45.90949" lon="4.75081">
        <ele>179</ele>
        <time>2017-07-29T09:41:11Z</time>
      </trkpt>
      <trkpt lat="45.90949" lon="4.75086">
        <ele>181</ele>
        <time>2017-07-29T09:41:12Z</time>
      </trkpt>
      <trkpt lat="45.90948" lon="4.75096">
        <ele>181</ele>
        <time>2017-07-29T09:41:14Z</time>
      </trkpt>
      <trkpt lat="45.90947" lon="4.75102">
        <ele>181</ele>
        <time>2017-07-29T09:41:15Z</time>
      </trkpt>
      <trkpt lat="45.90945" lon="4.75112">
        <ele>181</ele>
        <time>2017-07-29T09:41:17Z</time>
      </trkpt>
      <trkpt lat="45.90945" lon="4.75118">
        <ele>181</ele>
        <time>2017-07-29T09:41:18Z</time>
      </trkpt>
      <trkpt lat="45.90944" lon="4.75129">
        <ele>181</ele>
        <time>2017-07-29T09:41:20Z</time>
      </trkpt>
      <trkpt lat="45.90943" lon="4.75134">
        <ele>182</ele>
        <time>2017-07-29T09:41:21Z</time>
      </trkpt>
      <trkpt lat="45.90942" lon="4.75145">
        <ele>182</ele>
        <time>2017-07-29T09:41:23Z</time>
      </trkpt>
      <trkpt lat="45.90942" lon="4.75151">
        <ele>182</ele>
        <time>2017-07-29T09:41:24Z</time>
      </trkpt>
      <trkpt lat="45.90941" lon="4.75161">
        <ele>182</ele>
        <time>2017-07-29T09:41:26Z</time>
      </trkpt>
      <trkpt lat="45.9094" lon="4.75166">
        <ele>182</ele>
        <time>2017-07-29T09:41:27Z</time>
      </trkpt>
      <trkpt lat="45.9094" lon="4.75177">
        <ele>183</ele>
        <time>2017-07-29T09:41:29Z</time>
      </trkpt>
      <trkpt lat="45.90939" lon="4.75182">
        <ele>183</ele>
        <time>2017-07-29T09:41:30Z</time>
      </trkpt>
      <trkpt lat="45.90938" lon="4.75193">
        <ele>183</ele>
        <time>2017-07-29T09:41:32Z</time>
      </trkpt>
      <trkpt lat="45.90938" lon="4.75198">
        <ele>183</ele>
        <time>2017-07-29T09:41:33Z</time>
      </trkpt>
      <trkpt lat="45.90936" lon="4.75208">
        <ele>184</ele>
        <time>2017-07-29T09:41:35Z</time>
      </trkpt>
      <trkpt lat="45.90936" lon="4.75213">
        <ele>184</ele>
        <time>2017-07-29T09:41:36Z</time>
      </trkpt>
      <trkpt lat="45.90935" lon="4.75223">
        <ele>184</ele>
        <time>2017-07-29T09:41:38Z</time>
      </trkpt>
      <trkpt lat="45.90935" lon="4.75228">
        <ele>184</ele>
        <time>2017-07-29T09:41:39Z</time>
      </trkpt>
      <trkpt lat="45.90934" lon="4.75239">
        <ele>184</ele>
        <time>2017-07-29T09:41:41Z</time>
      </trkpt>
      <trkpt lat="45.90933" lon="4.75244">
        <ele>184</ele>
        <time>2017-07-29T09:41:42Z</time>
      </trkpt>
      <trkpt lat="45.90933" lon="4.75254">
        <ele>185</ele>
        <time>2017-07-29T09:41:44Z</time>
      </trkpt>
      <trkpt lat="45.90932" lon="4.75259">
        <ele>185</ele>
        <time>2017-07-29T09:41:45Z</time>
      </trkpt>
      <trkpt lat="45.90932" lon="4.75269">
        <ele>185</ele>
        <time>2017-07-29T09:41:47Z</time>
      </trkpt>
      <trkpt lat="45.90932" lon="4.75274">
        <ele>185</ele>
        <time>2017-07-29T09:41:48Z</time>
      </trkpt>
      <trkpt lat="45.90931" lon="4.75283">
        <ele>185</ele>
        <time>2017-07-29T09:41:50Z</time>
      </trkpt>
      <trkpt lat="45.9093" lon="4.75289">
        <ele>185</ele>
        <time>2017-07-29T09:41:51Z</time>
      </trkpt>
      <trkpt lat="45.9093" lon="4.753">
        <ele>185</ele>
        <time>2017-07-29T09:41:53Z</time>
      </trkpt>
      <trkpt lat="45.90929" lon="4.75305">
        <ele>185</ele>
        <time>2017-07-29T09:41:54Z</time>
      </trkpt>
      <trkpt lat="45.90929" lon="4.75315">
        <ele>185</ele>
        <time>2017-07-29T09:41:56Z</time>
      </trkpt>
      <trkpt lat="45.90928" lon="4.75321">
        <ele>185</ele>
        <time>2017-07-29T09:41:57Z</time>
      </trkpt>
      <trkpt lat="45.90927" lon="4.75332">
        <ele>186</ele>
        <time>2017-07-29T09:41:59Z</time>
      </trkpt>
      <trkpt lat="45.90927" lon="4.75338">
        <ele>186</ele>
        <time>2017-07-29T09:42:00Z</time>
      </trkpt>
      <trkpt lat="45.90926" lon="4.75349">
        <ele>185</ele>
        <time>2017-07-29T09:42:02Z</time>
      </trkpt>
      <trkpt lat="45.90925" lon="4.75355">
        <ele>185</ele>
        <time>2017-07-29T09:42:03Z</time>
      </trkpt>
      <trkpt lat="45.90924" lon="4.75366">
        <ele>185</ele>
        <time>2017-07-29T09:42:05Z</time>
      </trkpt>
      <trkpt lat="45.90923" lon="4.75371">
        <ele>185</ele>
        <time>2017-07-29T09:42:06Z</time>
      </trkpt>
      <trkpt lat="45.90922" lon="4.75381">
        <ele>185</ele>
        <time>2017-07-29T09:42:08Z</time>
      </trkpt>
      <trkpt lat="45.90921" lon="4.75387">
        <ele>185</ele>
        <time>2017-07-29T09:42:09Z</time>
      </trkpt>
      <trkpt lat="45.9092" lon="4.75398">
        <ele>185</ele>
        <time>2017-07-29T09:42:11Z</time>
      </trkpt>
      <trkpt lat="45.90919" lon="4.75404">
        <ele>185</ele>
        <time>2017-07-29T09:42:12Z</time>
      </trkpt>
      <trkpt lat="45.90918" lon="4.75413">
        <ele>185</ele>
        <time>2017-07-29T09:42:14Z</time>
      </trkpt>
      <trkpt lat="45.90917" lon="4.75418">
        <ele>185</ele>
        <time>2017-07-29T09:42:15Z</time>
      </trkpt>
      <trkpt lat="45.90916" lon="4.75429">
        <ele>185</ele>
        <time>2017-07-29T09:42:17Z</time>
      </trkpt>
      <trkpt lat="45.90915" lon="4.75434">
        <ele>185</ele>
        <time>2017-07-29T09:42:18Z</time>
      </trkpt>
      <trkpt lat="45.90915" lon="4.75444">
        <ele>186</ele>
        <time>2017-07-29T09:42:20Z</time>
      </trkpt>
      <trkpt lat="45.90914" lon="4.75448">
        <ele>186</ele>
        <time>2017-07-29T09:42:21Z</time>
      </trkpt>
      <trkpt lat="45.90913" lon="4.75458">
        <ele>186</ele>
        <time>2017-07-29T09:42:23Z</time>
      </trkpt>
      <trkpt lat="45.90912" lon="4.75463">
        <ele>186</ele>
        <time>2017-07-29T09:42:24Z</time>
      </trkpt>
      <trkpt lat="45.90911" lon="4.75473">
        <ele>186</ele>
        <time>2017-07-29T09:42:26Z</time>
      </trkpt>
      <trkpt lat="45.90911" lon="4.75478">
        <ele>186</ele>
        <time>2017-07-29T09:42:27Z</time>
      </trkpt>
      <trkpt lat="45.90909" lon="4.75488">
        <ele>186</ele>
        <time>2017-07-29T09:42:29Z</time>
      </trkpt>
      <trkpt lat="45.90908" lon="4.75493">
        <ele>186</ele>
        <time>2017-07-29T09:42:30Z</time>
      </trkpt>
      <trkpt lat="45.90907" lon="4.75504">
        <ele>186</ele>
        <time>2017-07-29T09:42:32Z</time>
      </trkpt>
      <trkpt lat="45.90907" lon="4.75509">
        <ele>186</ele>
        <time>2017-07-29T09:42:33Z</time>
      </trkpt>
      <trkpt lat="45.90906" lon="4.7552">
        <ele>186</ele>
        <time>2017-07-29T09:42:35Z</time>
      </trkpt>
      <trkpt lat="45.90906" lon="4.75526">
        <ele>186</ele>
        <time>2017-07-29T09:42:36Z</time>
      </trkpt>
      <trkpt lat="45.90904" lon="4.75537">
        <ele>186</ele>
        <time>2017-07-29T09:42:38Z</time>
      </trkpt>
      <trkpt lat="45.90904" lon="4.75542">
        <ele>186</ele>
        <time>2017-07-29T09:42:39Z</time>
      </trkpt>
      <trkpt lat="45.90903" lon="4.75553">
        <ele>186</ele>
        <time>2017-07-29T09:42:41Z</time>
      </trkpt>
      <trkpt lat="45.90903" lon="4.75559">
        <ele>186</ele>
        <time>2017-07-29T09:42:42Z</time>
      </trkpt>
      <trkpt lat="45.90902" lon="4.7557">
        <ele>186</ele>
        <time>2017-07-29T09:42:44Z</time>
      </trkpt>
      <trkpt lat="45.90901" lon="4.75575">
        <ele>186</ele>
        <time>2017-07-29T09:42:45Z</time>
      </trkpt>
      <trkpt lat="45.909" lon="4.75585">
        <ele>185</ele>
        <time>2017-07-29T09:42:47Z</time>
      </trkpt>
      <trkpt lat="45.90899" lon="4.75589">
        <ele>185</ele>
        <time>2017-07-29T09:42:48Z</time>
      </trkpt>
      <trkpt lat="45.90899" lon="4.75599">
        <ele>185</ele>
        <time>2017-07-29T09:42:50Z</time>
      </trkpt>
      <trkpt lat="45.90898" lon="4.75604">
        <ele>185</ele>
        <time>2017-07-29T09:42:51Z</time>
      </trkpt>
      <trkpt lat="45.90897" lon="4.75614">
        <ele>185</ele>
        <time>2017-07-29T09:42:53Z</time>
      </trkpt>
      <trkpt lat="45.90896" lon="4.75618">
        <ele>185</ele>
        <time>2017-07-29T09:42:54Z</time>
      </trkpt>
      <trkpt lat="45.90895" lon="4.75628">
        <ele>185</ele>
        <time>2017-07-29T09:42:56Z</time>
      </trkpt>
      <trkpt lat="45.90895" lon="4.75634">
        <ele>185</ele>
        <time>2017-07-29T09:42:57Z</time>
      </trkpt>
      <trkpt lat="45.90894" lon="4.75645">
        <ele>185</ele>
        <time>2017-07-29T09:42:59Z</time>
      </trkpt>
      <trkpt lat="45.90894" lon="4.75651">
        <ele>185</ele>
        <time>2017-07-29T09:43:00Z</time>
      </trkpt>
      <trkpt lat="45.90895" lon="4.75661">
        <ele>184</ele>
        <time>2017-07-29T09:43:02Z</time>
      </trkpt>
      <trkpt lat="45.90895" lon="4.75665">
        <ele>184</ele>
        <time>2017-07-29T09:43:03Z</time>
      </trkpt>
      <trkpt lat="45.90894" lon="4.75675">
        <ele>184</ele>
        <time>2017-07-29T09:43:05Z</time>
      </trkpt>
      <trkpt lat="45.90893" lon="4.7568">
        <ele>184</ele>
        <time>2017-07-29T09:43:06Z</time>
      </trkpt>
      <trkpt lat="45.90892" lon="4.75692">
        <ele>184</ele>
        <time>2017-07-29T09:43:08Z</time>
      </trkpt>
      <trkpt lat="45.90891" lon="4.75697">
        <ele>184</ele>
        <time>2017-07-29T09:43:09Z</time>
      </trkpt>
      <trkpt lat="45.9089" lon="4.75707">
        <ele>185</ele>
        <time>2017-07-29T09:43:11Z</time>
      </trkpt>
      <trkpt lat="45.90889" lon="4.75712">
        <ele>185</ele>
        <time>2017-07-29T09:43:12Z</time>
      </trkpt>
      <trkpt lat="45.90889" lon="4.75722">
        <ele>185</ele>
        <time>2017-07-29T09:43:14Z</time>
      </trkpt>
      <trkpt lat="45.90889" lon="4.75728">
        <ele>185</ele>
        <time>2017-07-29T09:43:15Z</time>
      </trkpt>
      <trkpt lat="45.90889" lon="4.75738">
        <ele>185</ele>
        <time>2017-07-29T09:43:17Z</time>
      </trkpt>
      <trkpt lat="45.90888" lon="4.75743">
        <ele>185</ele>
        <time>2017-07-29T09:43:18Z</time>
      </trkpt>
      <trkpt lat="45.90889" lon="4.75753">
        <ele>185</ele>
        <time>2017-07-29T09:43:20Z</time>
      </trkpt>
      <trkpt lat="45.90889" lon="4.75758">
        <ele>185</ele>
        <time>2017-07-29T09:43:21Z</time>
      </trkpt>
      <trkpt lat="45.90889" lon="4.75768">
        <ele>185</ele>
        <time>2017-07-29T09:43:23Z</time>
      </trkpt>
      <trkpt lat="45.90889" lon="4.75773">
        <ele>185</ele>
        <time>2017-07-29T09:43:24Z</time>
      </trkpt>
      <trkpt lat="45.90889" lon="4.75784">
        <ele>185</ele>
        <time>2017-07-29T09:43:26Z</time>
      </trkpt>
      <trkpt lat="45.90889" lon="4.75789">
        <ele>185</ele>
        <time>2017-07-29T09:43:27Z</time>
      </trkpt>
      <trkpt lat="45.90889" lon="4.75796">
        <ele>185</ele>
        <time>2017-07-29T09:43:28Z</time>
      </trkpt>
      <trkpt lat="45.90887" lon="4.75803">
        <ele>185</ele>
        <time>2017-07-29T09:43:29Z</time>
      </trkpt>
      <trkpt lat="45.90885" lon="4.75814">
        <ele>184</ele>
        <time>2017-07-29T09:43:31Z</time>
      </trkpt>
      <trkpt lat="45.90885" lon="4.7582">
        <ele>184</ele>
        <time>2017-07-29T09:43:32Z</time>
      </trkpt>
      <trkpt lat="45.90885" lon="4.75826">
        <ele>184</ele>
        <time>2017-07-29T09:43:33Z</time>
      </trkpt>
      <trkpt lat="45.90885" lon="4.75833">
        <ele>184</ele>
        <time>2017-07-29T09:43:34Z</time>
      </trkpt>
      <trkpt lat="45.90886" lon="4.75839">
        <ele>184</ele>
        <time>2017-07-29T09:43:35Z</time>
      </trkpt>
      <trkpt lat="45.90886" lon="4.75846">
        <ele>184</ele>
        <time>2017-07-29T09:43:36Z</time>
      </trkpt>
      <trkpt lat="45.90882" lon="4.75857">
        <ele>184</ele>
        <time>2017-07-29T09:43:38Z</time>
      </trkpt>
      <trkpt lat="45.90882" lon="4.75861">
        <ele>184</ele>
        <time>2017-07-29T09:43:39Z</time>
      </trkpt>
      <trkpt lat="45.90876" lon="4.75866">
        <ele>184</ele>
        <time>2017-07-29T09:43:41Z</time>
      </trkpt>
      <trkpt lat="45.90873" lon="4.75867">
        <ele>184</ele>
        <time>2017-07-29T09:43:42Z</time>
      </trkpt>
      <trkpt lat="45.90865" lon="4.75866">
        <ele>184</ele>
        <time>2017-07-29T09:43:44Z</time>
      </trkpt>
      <trkpt lat="45.90861" lon="4.75867">
        <ele>184</ele>
        <time>2017-07-29T09:43:45Z</time>
      </trkpt>
      <trkpt lat="45.90856" lon="4.75864">
        <ele>184</ele>
        <time>2017-07-29T09:43:46Z</time>
      </trkpt>
      <trkpt lat="45.90852" lon="4.75862">
        <ele>184</ele>
        <time>2017-07-29T09:43:47Z</time>
      </trkpt>
      <trkpt lat="45.90848" lon="4.75862">
        <ele>184</ele>
        <time>2017-07-29T09:43:48Z</time>
      </trkpt>
      <trkpt lat="45.90843" lon="4.75862">
        <ele>184</ele>
        <time>2017-07-29T09:43:49Z</time>
      </trkpt>
      <trkpt lat="45.90838" lon="4.75862">
        <ele>184</ele>
        <time>2017-07-29T09:43:50Z</time>
      </trkpt>
      <trkpt lat="45.90833" lon="4.75864">
        <ele>185</ele>
        <time>2017-07-29T09:43:51Z</time>
      </trkpt>
      <trkpt lat="45.90828" lon="4.75864">
        <ele>185</ele>
        <time>2017-07-29T09:43:52Z</time>
      </trkpt>
      <trkpt lat="45.90823" lon="4.75863">
        <ele>185</ele>
        <time>2017-07-29T09:43:53Z</time>
      </trkpt>
      <trkpt lat="45.90818" lon="4.75863">
        <ele>185</ele>
        <time>2017-07-29T09:43:54Z</time>
      </trkpt>
      <trkpt lat="45.90813" lon="4.75862">
        <ele>185</ele>
        <time>2017-07-29T09:43:55Z</time>
      </trkpt>
      <trkpt lat="45.90805" lon="4.75862">
        <ele>185</ele>
        <time>2017-07-29T09:43:57Z</time>
      </trkpt>
      <trkpt lat="45.90801" lon="4.75861">
        <ele>185</ele>
        <time>2017-07-29T09:43:58Z</time>
      </trkpt>
      <trkpt lat="45.90792" lon="4.75862">
        <ele>185</ele>
        <time>2017-07-29T09:44:00Z</time>
      </trkpt>
      <trkpt lat="45.90788" lon="4.75862">
        <ele>185</ele>
        <time>2017-07-29T09:44:01Z</time>
      </trkpt>
      <trkpt lat="45.90783" lon="4.75862">
        <ele>185</ele>
        <time>2017-07-29T09:44:02Z</time>
      </trkpt>
      <trkpt lat="45.90778" lon="4.75858">
        <ele>185</ele>
        <time>2017-07-29T09:44:03Z</time>
      </trkpt>
      <trkpt lat="45.9077" lon="4.75859">
        <ele>185</ele>
        <time>2017-07-29T09:44:05Z</time>
      </trkpt>
      <trkpt lat="45.90765" lon="4.75859">
        <ele>185</ele>
        <time>2017-07-29T09:44:06Z</time>
      </trkpt>
      <trkpt lat="45.9076" lon="4.7586">
        <ele>185</ele>
        <time>2017-07-29T09:44:07Z</time>
      </trkpt>
      <trkpt lat="45.90755" lon="4.75862">
        <ele>185</ele>
        <time>2017-07-29T09:44:08Z</time>
      </trkpt>
      <trkpt lat="45.90751" lon="4.75863">
        <ele>185</ele>
        <time>2017-07-29T09:44:09Z</time>
      </trkpt>
      <trkpt lat="45.90746" lon="4.75865">
        <ele>186</ele>
        <time>2017-07-29T09:44:10Z</time>
      </trkpt>
      <trkpt lat="45.90741" lon="4.7587">
        <ele>186</ele>
        <time>2017-07-29T09:44:11Z</time>
      </trkpt>
      <trkpt lat="45.90737" lon="4.75871">
        <ele>186</ele>
        <time>2017-07-29T09:44:12Z</time>
      </trkpt>
      <trkpt lat="45.9073" lon="4.75869">
        <ele>186</ele>
        <time>2017-07-29T09:44:14Z</time>
      </trkpt>
      <trkpt lat="45.90725" lon="4.75868">
        <ele>186</ele>
        <time>2017-07-29T09:44:15Z</time>
      </trkpt>
      <trkpt lat="45.9072" lon="4.75866">
        <ele>186</ele>
        <time>2017-07-29T09:44:16Z</time>
      </trkpt>
      <trkpt lat="45.90716" lon="4.75863">
        <ele>186</ele>
        <time>2017-07-29T09:44:17Z</time>
      </trkpt>
      <trkpt lat="45.90707" lon="4.75863">
        <ele>187</ele>
        <time>2017-07-29T09:44:19Z</time>
      </trkpt>
      <trkpt lat="45.90702" lon="4.7586">
        <ele>187</ele>
        <time>2017-07-29T09:44:20Z</time>
      </trkpt>
      <trkpt lat="45.90697" lon="4.75858">
        <ele>187</ele>
        <time>2017-07-29T09:44:21Z</time>
      </trkpt>
      <trkpt lat="45.90692" lon="4.75859">
        <ele>187</ele>
        <time>2017-07-29T09:44:22Z</time>
      </trkpt>
      <trkpt lat="45.90684" lon="4.7586">
        <ele>187</ele>
        <time>2017-07-29T09:44:24Z</time>
      </trkpt>
      <trkpt lat="45.90679" lon="4.75861">
        <ele>187</ele>
        <time>2017-07-29T09:44:25Z</time>
      </trkpt>
      <trkpt lat="45.90671" lon="4.75863">
        <ele>187</ele>
        <time>2017-07-29T09:44:27Z</time>
      </trkpt>
      <trkpt lat="45.90667" lon="4.75866">
        <ele>187</ele>
        <time>2017-07-29T09:44:28Z</time>
      </trkpt>
      <trkpt lat="45.90659" lon="4.75873">
        <ele>187</ele>
        <time>2017-07-29T09:44:30Z</time>
      </trkpt>
      <trkpt lat="45.90656" lon="4.75877">
        <ele>187</ele>
        <time>2017-07-29T09:44:31Z</time>
      </trkpt>
      <trkpt lat="45.90653" lon="4.75882">
        <ele>187</ele>
        <time>2017-07-29T09:44:32Z</time>
      </trkpt>
      <trkpt lat="45.90651" lon="4.75888">
        <ele>187</ele>
        <time>2017-07-29T09:44:33Z</time>
      </trkpt>
      <trkpt lat="45.90649" lon="4.75895">
        <ele>187</ele>
        <time>2017-07-29T09:44:34Z</time>
      </trkpt>
      <trkpt lat="45.90646" lon="4.75905">
        <ele>187</ele>
        <time>2017-07-29T09:44:35Z</time>
      </trkpt>
      <trkpt lat="45.90643" lon="4.75912">
        <ele>187</ele>
        <time>2017-07-29T09:44:36Z</time>
      </trkpt>
      <trkpt lat="45.9064" lon="4.75917">
        <ele>186</ele>
        <time>2017-07-29T09:44:37Z</time>
      </trkpt>
      <trkpt lat="45.90638" lon="4.75922">
        <ele>186</ele>
        <time>2017-07-29T09:44:38Z</time>
      </trkpt>
      <trkpt lat="45.90634" lon="4.75929">
        <ele>186</ele>
        <time>2017-07-29T09:44:39Z</time>
      </trkpt>
      <trkpt lat="45.90631" lon="4.7594">
        <ele>186</ele>
        <time>2017-07-29T09:44:41Z</time>
      </trkpt>
      <trkpt lat="45.90628" lon="4.75945">
        <ele>186</ele>
        <time>2017-07-29T09:44:42Z</time>
      </trkpt>
      <trkpt lat="45.90624" lon="4.7595">
        <ele>186</ele>
        <time>2017-07-29T09:44:43Z</time>
      </trkpt>
      <trkpt lat="45.9062" lon="4.75955">
        <ele>186</ele>
        <time>2017-07-29T09:44:44Z</time>
      </trkpt>
      <trkpt lat="45.90617" lon="4.7596">
        <ele>186</ele>
        <time>2017-07-29T09:44:45Z</time>
      </trkpt>
      <trkpt lat="45.90613" lon="4.75965">
        <ele>186</ele>
        <time>2017-07-29T09:44:46Z</time>
      </trkpt>
      <trkpt lat="45.90611" lon="4.75971">
        <ele>186</ele>
        <time>2017-07-29T09:44:47Z</time>
      </trkpt>
      <trkpt lat="45.90607" lon="4.75977">
        <ele>186</ele>
        <time>2017-07-29T09:44:48Z</time>
      </trkpt>
      <trkpt lat="45.90604" lon="4.75982">
        <ele>186</ele>
        <time>2017-07-29T09:44:49Z</time>
      </trkpt>
      <trkpt lat="45.906" lon="4.75987">
        <ele>186</ele>
        <time>2017-07-29T09:44:50Z</time>
      </trkpt>
      <trkpt lat="45.90596" lon="4.75991">
        <ele>186</ele>
        <time>2017-07-29T09:44:51Z</time>
      </trkpt>
      <trkpt lat="45.90591" lon="4.75991">
        <ele>186</ele>
        <time>2017-07-29T09:44:52Z</time>
      </trkpt>
      <trkpt lat="45.90583" lon="4.75986">
        <ele>186</ele>
        <time>2017-07-29T09:44:54Z</time>
      </trkpt>
      <trkpt lat="45.90579" lon="4.75982">
        <ele>186</ele>
        <time>2017-07-29T09:44:55Z</time>
      </trkpt>
      <trkpt lat="45.90576" lon="4.75978">
        <ele>186</ele>
        <time>2017-07-29T09:44:56Z</time>
      </trkpt>
      <trkpt lat="45.90572" lon="4.75974">
        <ele>186</ele>
        <time>2017-07-29T09:44:57Z</time>
      </trkpt>
      <trkpt lat="45.90567" lon="4.75968">
        <ele>186</ele>
        <time>2017-07-29T09:44:58Z</time>
      </trkpt>
      <trkpt lat="45.90562" lon="4.75964">
        <ele>186</ele>
        <time>2017-07-29T09:44:59Z</time>
      </trkpt>
      <trkpt lat="45.90557" lon="4.7596">
        <ele>186</ele>
        <time>2017-07-29T09:45:00Z</time>
      </trkpt>
      <trkpt lat="45.90552" lon="4.75957">
        <ele>186</ele>
        <time>2017-07-29T09:45:01Z</time>
      </trkpt>
      <trkpt lat="45.90547" lon="4.75954">
        <ele>186</ele>
        <time>2017-07-29T09:45:02Z</time>
      </trkpt>
      <trkpt lat="45.90541" lon="4.75946">
        <ele>186</ele>
        <time>2017-07-29T09:45:03Z</time>
      </trkpt>
      <trkpt lat="45.90536" lon="4.75941">
        <ele>186</ele>
        <time>2017-07-29T09:45:04Z</time>
      </trkpt>
      <trkpt lat="45.90532" lon="4.75937">
        <ele>186</ele>
        <time>2017-07-29T09:45:05Z</time>
      </trkpt>
      <trkpt lat="45.90526" lon="4.75932">
        <ele>186</ele>
        <time>2017-07-29T09:45:07Z</time>
      </trkpt>
      <trkpt lat="45.90521" lon="4.75929">
        <ele>187</ele>
        <time>2017-07-29T09:45:08Z</time>
      </trkpt>
      <trkpt lat="45.90517" lon="4.75927">
        <ele>187</ele>
        <time>2017-07-29T09:45:09Z</time>
      </trkpt>
      <trkpt lat="45.90511" lon="4.75926">
        <ele>187</ele>
        <time>2017-07-29T09:45:10Z</time>
      </trkpt>
      <trkpt lat="45.90507" lon="4.75926">
        <ele>187</ele>
        <time>2017-07-29T09:45:11Z</time>
      </trkpt>
      <trkpt lat="45.90502" lon="4.75925">
        <ele>187</ele>
        <time>2017-07-29T09:45:12Z</time>
      </trkpt>
      <trkpt lat="45.90497" lon="4.75926">
        <ele>187</ele>
        <time>2017-07-29T09:45:13Z</time>
      </trkpt>
      <trkpt lat="45.90492" lon="4.75927">
        <ele>187</ele>
        <time>2017-07-29T09:45:14Z</time>
      </trkpt>
      <trkpt lat="45.90487" lon="4.75928">
        <ele>187</ele>
        <time>2017-07-29T09:45:15Z</time>
      </trkpt>
      <trkpt lat="45.90483" lon="4.75929">
        <ele>187</ele>
        <time>2017-07-29T09:45:16Z</time>
      </trkpt>
      <trkpt lat="45.90475" lon="4.7593">
        <ele>187</ele>
        <time>2017-07-29T09:45:18Z</time>
      </trkpt>
      <trkpt lat="45.90472" lon="4.7593">
        <ele>187</ele>
        <time>2017-07-29T09:45:19Z</time>
      </trkpt>
      <trkpt lat="45.90464" lon="4.7593">
        <ele>187</ele>
        <time>2017-07-29T09:45:21Z</time>
      </trkpt>
      <trkpt lat="45.9046" lon="4.7593">
        <ele>187</ele>
        <time>2017-07-29T09:45:22Z</time>
      </trkpt>
      <trkpt lat="45.90455" lon="4.75932">
        <ele>187</ele>
        <time>2017-07-29T09:45:23Z</time>
      </trkpt>
      <trkpt lat="45.9045" lon="4.75932">
        <ele>187</ele>
        <time>2017-07-29T09:45:24Z</time>
      </trkpt>
      <trkpt lat="45.90445" lon="4.75933">
        <ele>187</ele>
        <time>2017-07-29T09:45:25Z</time>
      </trkpt>
      <trkpt lat="45.9044" lon="4.75935">
        <ele>187</ele>
        <time>2017-07-29T09:45:26Z</time>
      </trkpt>
      <trkpt lat="45.90435" lon="4.75936">
        <ele>187</ele>
        <time>2017-07-29T09:45:27Z</time>
      </trkpt>
      <trkpt lat="45.90429" lon="4.75937">
        <ele>187</ele>
        <time>2017-07-29T09:45:28Z</time>
      </trkpt>
      <trkpt lat="45.90424" lon="4.75938">
        <ele>187</ele>
        <time>2017-07-29T09:45:29Z</time>
      </trkpt>
      <trkpt lat="45.90419" lon="4.75939">
        <ele>187</ele>
        <time>2017-07-29T09:45:30Z</time>
      </trkpt>
      <trkpt lat="45.90413" lon="4.7594">
        <ele>187</ele>
        <time>2017-07-29T09:45:31Z</time>
      </trkpt>
      <trkpt lat="45.90409" lon="4.75941">
        <ele>187</ele>
        <time>2017-07-29T09:45:32Z</time>
      </trkpt>
      <trkpt lat="45.90403" lon="4.7594">
        <ele>187</ele>
        <time>2017-07-29T09:45:33Z</time>
      </trkpt>
      <trkpt lat="45.90398" lon="4.7594">
        <ele>187</ele>
        <time>2017-07-29T09:45:34Z</time>
      </trkpt>
      <trkpt lat="45.90393" lon="4.75941">
        <ele>187</ele>
        <time>2017-07-29T09:45:35Z</time>
      </trkpt>
      <trkpt lat="45.90389" lon="4.75941">
        <ele>187</ele>
        <time>2017-07-29T09:45:36Z</time>
      </trkpt>
      <trkpt lat="45.9038" lon="4.75944">
        <ele>187</ele>
        <time>2017-07-29T09:45:38Z</time>
      </trkpt>
      <trkpt lat="45.90376" lon="4.75944">
        <ele>187</ele>
        <time>2017-07-29T09:45:39Z</time>
      </trkpt>
      <trkpt lat="45.90371" lon="4.75943">
        <ele>187</ele>
        <time>2017-07-29T09:45:40Z</time>
      </trkpt>
      <trkpt lat="45.90366" lon="4.75942">
        <ele>187</ele>
        <time>2017-07-29T09:45:41Z</time>
      </trkpt>
      <trkpt lat="45.90359" lon="4.75934">
        <ele>187</ele>
        <time>2017-07-29T09:45:43Z</time>
      </trkpt>
      <trkpt lat="45.90356" lon="4.75928">
        <ele>187</ele>
        <time>2017-07-29T09:45:44Z</time>
      </trkpt>
      <trkpt lat="45.90353" lon="4.75922">
        <ele>187</ele>
        <time>2017-07-29T09:45:45Z</time>
      </trkpt>
      <trkpt lat="45.9035" lon="4.75916">
        <ele>188</ele>
        <time>2017-07-29T09:45:46Z</time>
      </trkpt>
      <trkpt lat="45.90346" lon="4.75906">
        <ele>188</ele>
        <time>2017-07-29T09:45:48Z</time>
      </trkpt>
      <trkpt lat="45.90344" lon="4.75901">
        <ele>188</ele>
        <time>2017-07-29T09:45:49Z</time>
      </trkpt>
      <trkpt lat="45.90339" lon="4.75891">
        <ele>188</ele>
        <time>2017-07-29T09:45:51Z</time>
      </trkpt>
      <trkpt lat="45.90336" lon="4.75885">
        <ele>188</ele>
        <time>2017-07-29T09:45:52Z</time>
      </trkpt>
      <trkpt lat="45.90333" lon="4.75879">
        <ele>189</ele>
        <time>2017-07-29T09:45:53Z</time>
      </trkpt>
      <trkpt lat="45.90331" lon="4.75874">
        <ele>189</ele>
        <time>2017-07-29T09:45:54Z</time>
      </trkpt>
      <trkpt lat="45.90326" lon="4.75864">
        <ele>189</ele>
        <time>2017-07-29T09:45:56Z</time>
      </trkpt>
      <trkpt lat="45.90323" lon="4.75859">
        <ele>189</ele>
        <time>2017-07-29T09:45:57Z</time>
      </trkpt>
      <trkpt lat="45.9032" lon="4.75854">
        <ele>189</ele>
        <time>2017-07-29T09:45:58Z</time>
      </trkpt>
      <trkpt lat="45.90317" lon="4.75849">
        <ele>189</ele>
        <time>2017-07-29T09:45:59Z</time>
      </trkpt>
      <trkpt lat="45.90313" lon="4.75844">
        <ele>189</ele>
        <time>2017-07-29T09:46:00Z</time>
      </trkpt>
      <trkpt lat="45.90309" lon="4.7584">
        <ele>189</ele>
        <time>2017-07-29T09:46:01Z</time>
      </trkpt>
      <trkpt lat="45.90305" lon="4.75837">
        <ele>189</ele>
        <time>2017-07-29T09:46:02Z</time>
      </trkpt>
      <trkpt lat="45.903" lon="4.75834">
        <ele>189</ele>
        <time>2017-07-29T09:46:03Z</time>
      </trkpt>
      <trkpt lat="45.90295" lon="4.75831">
        <ele>189</ele>
        <time>2017-07-29T09:46:04Z</time>
      </trkpt>
      <trkpt lat="45.90291" lon="4.75829">
        <ele>189</ele>
        <time>2017-07-29T09:46:05Z</time>
      </trkpt>
      <trkpt lat="45.90286" lon="4.75828">
        <ele>189</ele>
        <time>2017-07-29T09:46:06Z</time>
      </trkpt>
      <trkpt lat="45.90281" lon="4.75828">
        <ele>189</ele>
        <time>2017-07-29T09:46:07Z</time>
      </trkpt>
      <trkpt lat="45.90277" lon="4.75829">
        <ele>189</ele>
        <time>2017-07-29T09:46:08Z</time>
      </trkpt>
      <trkpt lat="45.90272" lon="4.75829">
        <ele>189</ele>
        <time>2017-07-29T09:46:09Z</time>
      </trkpt>
      <trkpt lat="45.90268" lon="4.75829">
        <ele>190</ele>
        <time>2017-07-29T09:46:10Z</time>
      </trkpt>
      <trkpt lat="45.90263" lon="4.75828">
        <ele>190</ele>
        <time>2017-07-29T09:46:11Z</time>
      </trkpt>
      <trkpt lat="45.90258" lon="4.75827">
        <ele>190</ele>
        <time>2017-07-29T09:46:12Z</time>
      </trkpt>
      <trkpt lat="45.90253" lon="4.75826">
        <ele>190</ele>
        <time>2017-07-29T09:46:13Z</time>
      </trkpt>
      <trkpt lat="45.90248" lon="4.75824">
        <ele>190</ele>
        <time>2017-07-29T09:46:14Z</time>
      </trkpt>
      <trkpt lat="45.90243" lon="4.75822">
        <ele>190</ele>
        <time>2017-07-29T09:46:15Z</time>
      </trkpt>
      <trkpt lat="45.90238" lon="4.75821">
        <ele>190</ele>
        <time>2017-07-29T09:46:16Z</time>
      </trkpt>
      <trkpt lat="45.90234" lon="4.75819">
        <ele>190</ele>
        <time>2017-07-29T09:46:17Z</time>
      </trkpt>
      <trkpt lat="45.90229" lon="4.75818">
        <ele>190</ele>
        <time>2017-07-29T09:46:18Z</time>
      </trkpt>
      <trkpt lat="45.90225" lon="4.75816">
        <ele>190</ele>
        <time>2017-07-29T09:46:19Z</time>
      </trkpt>
      <trkpt lat="45.9022" lon="4.75814">
        <ele>190</ele>
        <time>2017-07-29T09:46:20Z</time>
      </trkpt>
      <trkpt lat="45.90216" lon="4.75814">
        <ele>190</ele>
        <time>2017-07-29T09:46:21Z</time>
      </trkpt>
      <trkpt lat="45.90211" lon="4.75812">
        <ele>190</ele>
        <time>2017-07-29T09:46:22Z</time>
      </trkpt>
      <trkpt lat="45.90206" lon="4.75811">
        <ele>190</ele>
        <time>2017-07-29T09:46:23Z</time>
      </trkpt>
      <trkpt lat="45.90197" lon="4.7581">
        <ele>190</ele>
        <time>2017-07-29T09:46:25Z</time>
      </trkpt>
      <trkpt lat="45.90193" lon="4.75809">
        <ele>190</ele>
        <time>2017-07-29T09:46:26Z</time>
      </trkpt>
      <trkpt lat="45.90185" lon="4.75808">
        <ele>190</ele>
        <time>2017-07-29T09:46:28Z</time>
      </trkpt>
      <trkpt lat="45.90181" lon="4.75808">
        <ele>190</ele>
        <time>2017-07-29T09:46:29Z</time>
      </trkpt>
      <trkpt lat="45.90176" lon="4.75808">
        <ele>190</ele>
        <time>2017-07-29T09:46:30Z</time>
      </trkpt>
      <trkpt lat="45.90172" lon="4.75808">
        <ele>190</ele>
        <time>2017-07-29T09:46:31Z</time>
      </trkpt>
      <trkpt lat="45.90167" lon="4.75807">
        <ele>190</ele>
        <time>2017-07-29T09:46:32Z</time>
      </trkpt>
      <trkpt lat="45.90162" lon="4.75807">
        <ele>191</ele>
        <time>2017-07-29T09:46:33Z</time>
      </trkpt>
      <trkpt lat="45.90158" lon="4.75807">
        <ele>191</ele>
        <time>2017-07-29T09:46:34Z</time>
      </trkpt>
      <trkpt lat="45.90153" lon="4.75804">
        <ele>191</ele>
        <time>2017-07-29T09:46:35Z</time>
      </trkpt>
      <trkpt lat="45.90146" lon="4.75801">
        <ele>191</ele>
        <time>2017-07-29T09:46:37Z</time>
      </trkpt>
      <trkpt lat="45.90142" lon="4.75799">
        <ele>191</ele>
        <time>2017-07-29T09:46:38Z</time>
      </trkpt>
      <trkpt lat="45.90135" lon="4.75794">
        <ele>191</ele>
        <time>2017-07-29T09:46:40Z</time>
      </trkpt>
      <trkpt lat="45.90132" lon="4.75791">
        <ele>191</ele>
        <time>2017-07-29T09:46:41Z</time>
      </trkpt>
      <trkpt lat="45.90127" lon="4.75789">
        <ele>191</ele>
        <time>2017-07-29T09:46:42Z</time>
      </trkpt>
      <trkpt lat="45.90123" lon="4.75787">
        <ele>191</ele>
        <time>2017-07-29T09:46:43Z</time>
      </trkpt>
      <trkpt lat="45.90118" lon="4.75785">
        <ele>191</ele>
        <time>2017-07-29T09:46:44Z</time>
      </trkpt>
      <trkpt lat="45.90113" lon="4.75782">
        <ele>191</ele>
        <time>2017-07-29T09:46:45Z</time>
      </trkpt>
      <trkpt lat="45.90109" lon="4.75779">
        <ele>191</ele>
        <time>2017-07-29T09:46:46Z</time>
      </trkpt>
      <trkpt lat="45.90104" lon="4.75777">
        <ele>191</ele>
        <time>2017-07-29T09:46:47Z</time>
      </trkpt>
      <trkpt lat="45.90097" lon="4.75772">
        <ele>191</ele>
        <time>2017-07-29T09:46:49Z</time>
      </trkpt>
      <trkpt lat="45.90093" lon="4.7577">
        <ele>191</ele>
        <time>2017-07-29T09:46:50Z</time>
      </trkpt>
      <trkpt lat="45.90089" lon="4.75768">
        <ele>192</ele>
        <time>2017-07-29T09:46:51Z</time>
      </trkpt>
      <trkpt lat="45.90084" lon="4.75766">
        <ele>192</ele>
        <time>2017-07-29T09:46:52Z</time>
      </trkpt>
      <trkpt lat="45.9008" lon="4.75764">
        <ele>192</ele>
        <time>2017-07-29T09:46:53Z</time>
      </trkpt>
      <trkpt lat="45.90076" lon="4.75762">
        <ele>192</ele>
        <time>2017-07-29T09:46:54Z</time>
      </trkpt>
      <trkpt lat="45.90071" lon="4.75759">
        <ele>192</ele>
        <time>2017-07-29T09:46:55Z</time>
      </trkpt>
      <trkpt lat="45.90066" lon="4.75757">
        <ele>192</ele>
        <time>2017-07-29T09:46:56Z</time>
      </trkpt>
      <trkpt lat="45.90062" lon="4.75755">
        <ele>192</ele>
        <time>2017-07-29T09:46:57Z</time>
      </trkpt>
      <trkpt lat="45.90057" lon="4.75753">
        <ele>192</ele>
        <time>2017-07-29T09:46:58Z</time>
      </trkpt>
      <trkpt lat="45.90053" lon="4.7575">
        <ele>192</ele>
        <time>2017-07-29T09:46:59Z</time>
      </trkpt>
      <trkpt lat="45.90048" lon="4.75747">
        <ele>192</ele>
        <time>2017-07-29T09:47:00Z</time>
      </trkpt>
      <trkpt lat="45.90043" lon="4.75745">
        <ele>192</ele>
        <time>2017-07-29T09:47:01Z</time>
      </trkpt>
      <trkpt lat="45.90039" lon="4.75743">
        <ele>193</ele>
        <time>2017-07-29T09:47:02Z</time>
      </trkpt>
      <trkpt lat="45.9003" lon="4.75739">
        <ele>193</ele>
        <time>2017-07-29T09:47:04Z</time>
      </trkpt>
      <trkpt lat="45.90026" lon="4.75737">
        <ele>193</ele>
        <time>2017-07-29T09:47:05Z</time>
      </trkpt>
      <trkpt lat="45.90022" lon="4.75736">
        <ele>193</ele>
        <time>2017-07-29T09:47:06Z</time>
      </trkpt>
      <trkpt lat="45.90017" lon="4.75736">
        <ele>193</ele>
        <time>2017-07-29T09:47:07Z</time>
      </trkpt>
      <trkpt lat="45.90012" lon="4.75736">
        <ele>193</ele>
        <time>2017-07-29T09:47:08Z</time>
      </trkpt>
      <trkpt lat="45.90007" lon="4.75736">
        <ele>193</ele>
        <time>2017-07-29T09:47:09Z</time>
      </trkpt>
      <trkpt lat="45.90002" lon="4.75738">
        <ele>193</ele>
        <time>2017-07-29T09:47:10Z</time>
      </trkpt>
      <trkpt lat="45.89997" lon="4.7574">
        <ele>193</ele>
        <time>2017-07-29T09:47:11Z</time>
      </trkpt>
      <trkpt lat="45.89992" lon="4.75742">
        <ele>193</ele>
        <time>2017-07-29T09:47:12Z</time>
      </trkpt>
      <trkpt lat="45.89987" lon="4.75744">
        <ele>193</ele>
        <time>2017-07-29T09:47:13Z</time>
      </trkpt>
      <trkpt lat="45.89982" lon="4.75747">
        <ele>192</ele>
        <time>2017-07-29T09:47:14Z</time>
      </trkpt>
      <trkpt lat="45.89977" lon="4.75749">
        <ele>192</ele>
        <time>2017-07-29T09:47:15Z</time>
      </trkpt>
      <trkpt lat="45.89971" lon="4.75751">
        <ele>192</ele>
        <time>2017-07-29T09:47:16Z</time>
      </trkpt>
      <trkpt lat="45.89966" lon="4.75754">
        <ele>192</ele>
        <time>2017-07-29T09:47:17Z</time>
      </trkpt>
      <trkpt lat="45.89962" lon="4.75755">
        <ele>192</ele>
        <time>2017-07-29T09:47:18Z</time>
      </trkpt>
      <trkpt lat="45.89958" lon="4.75758">
        <ele>192</ele>
        <time>2017-07-29T09:47:19Z</time>
      </trkpt>
      <trkpt lat="45.89953" lon="4.7576">
        <ele>192</ele>
        <time>2017-07-29T09:47:20Z</time>
      </trkpt>
      <trkpt lat="45.89949" lon="4.75762">
        <ele>192</ele>
        <time>2017-07-29T09:47:21Z</time>
      </trkpt>
      <trkpt lat="45.89945" lon="4.75765">
        <ele>192</ele>
        <time>2017-07-29T09:47:22Z</time>
      </trkpt>
      <trkpt lat="45.8994" lon="4.75767">
        <ele>192</ele>
        <time>2017-07-29T09:47:23Z</time>
      </trkpt>
      <trkpt lat="45.89935" lon="4.7577">
        <ele>192</ele>
        <time>2017-07-29T09:47:24Z</time>
      </trkpt>
      <trkpt lat="45.8993" lon="4.75772">
        <ele>192</ele>
        <time>2017-07-29T09:47:25Z</time>
      </trkpt>
      <trkpt lat="45.89925" lon="4.75774">
        <ele>192</ele>
        <time>2017-07-29T09:47:26Z</time>
      </trkpt>
      <trkpt lat="45.8992" lon="4.75777">
        <ele>192</ele>
        <time>2017-07-29T09:47:27Z</time>
      </trkpt>
      <trkpt lat="45.89916" lon="4.7578">
        <ele>192</ele>
        <time>2017-07-29T09:47:28Z</time>
      </trkpt>
      <trkpt lat="45.89912" lon="4.75783">
        <ele>192</ele>
        <time>2017-07-29T09:47:29Z</time>
      </trkpt>
      <trkpt lat="45.89903" lon="4.75787">
        <ele>192</ele>
        <time>2017-07-29T09:47:31Z</time>
      </trkpt>
      <trkpt lat="45.899" lon="4.75789">
        <ele>192</ele>
        <time>2017-07-29T09:47:32Z</time>
      </trkpt>
      <trkpt lat="45.89893" lon="4.75792">
        <ele>192</ele>
        <time>2017-07-29T09:47:34Z</time>
      </trkpt>
      <trkpt lat="45.89887" lon="4.75794">
        <ele>192</ele>
        <time>2017-07-29T09:47:35Z</time>
      </trkpt>
      <trkpt lat="45.89882" lon="4.75796">
        <ele>192</ele>
        <time>2017-07-29T09:47:36Z</time>
      </trkpt>
      <trkpt lat="45.89877" lon="4.75799">
        <ele>192</ele>
        <time>2017-07-29T09:47:37Z</time>
      </trkpt>
      <trkpt lat="45.89873" lon="4.75802">
        <ele>192</ele>
        <time>2017-07-29T09:47:38Z</time>
      </trkpt>
      <trkpt lat="45.89868" lon="4.75805">
        <ele>192</ele>
        <time>2017-07-29T09:47:39Z</time>
      </trkpt>
      <trkpt lat="45.89864" lon="4.75809">
        <ele>192</ele>
        <time>2017-07-29T09:47:40Z</time>
      </trkpt>
      <trkpt lat="45.89858" lon="4.75815">
        <ele>192</ele>
        <time>2017-07-29T09:47:41Z</time>
      </trkpt>
      <trkpt lat="45.89854" lon="4.75819">
        <ele>192</ele>
        <time>2017-07-29T09:47:42Z</time>
      </trkpt>
      <trkpt lat="45.89851" lon="4.75823">
        <ele>192</ele>
        <time>2017-07-29T09:47:43Z</time>
      </trkpt>
      <trkpt lat="45.89847" lon="4.75828">
        <ele>192</ele>
        <time>2017-07-29T09:47:44Z</time>
      </trkpt>
      <trkpt lat="45.89844" lon="4.75832">
        <ele>192</ele>
        <time>2017-07-29T09:47:45Z</time>
      </trkpt>
      <trkpt lat="45.8984" lon="4.75836">
        <ele>192</ele>
        <time>2017-07-29T09:47:46Z</time>
      </trkpt>
      <trkpt lat="45.89836" lon="4.75839">
        <ele>192</ele>
        <time>2017-07-29T09:47:47Z</time>
      </trkpt>
      <trkpt lat="45.89833" lon="4.75844">
        <ele>193</ele>
        <time>2017-07-29T09:47:48Z</time>
      </trkpt>
      <trkpt lat="45.89829" lon="4.75848">
        <ele>193</ele>
        <time>2017-07-29T09:47:49Z</time>
      </trkpt>
      <trkpt lat="45.89826" lon="4.75852">
        <ele>193</ele>
        <time>2017-07-29T09:47:50Z</time>
      </trkpt>
      <trkpt lat="45.89822" lon="4.75857">
        <ele>193</ele>
        <time>2017-07-29T09:47:51Z</time>
      </trkpt>
      <trkpt lat="45.89819" lon="4.75862">
        <ele>194</ele>
        <time>2017-07-29T09:47:52Z</time>
      </trkpt>
      <trkpt lat="45.89816" lon="4.75868">
        <ele>194</ele>
        <time>2017-07-29T09:47:53Z</time>
      </trkpt>
      <trkpt lat="45.89814" lon="4.75873">
        <ele>194</ele>
        <time>2017-07-29T09:47:54Z</time>
      </trkpt>
      <trkpt lat="45.89811" lon="4.75879">
        <ele>194</ele>
        <time>2017-07-29T09:47:55Z</time>
      </trkpt>
      <trkpt lat="45.89809" lon="4.75885">
        <ele>194</ele>
        <time>2017-07-29T09:47:56Z</time>
      </trkpt>
      <trkpt lat="45.89807" lon="4.75892">
        <ele>194</ele>
        <time>2017-07-29T09:47:57Z</time>
      </trkpt>
      <trkpt lat="45.89805" lon="4.75898">
        <ele>194</ele>
        <time>2017-07-29T09:47:58Z</time>
      </trkpt>
      <trkpt lat="45.89803" lon="4.75904">
        <ele>194</ele>
        <time>2017-07-29T09:47:59Z</time>
      </trkpt>
      <trkpt lat="45.89801" lon="4.7591">
        <ele>194</ele>
        <time>2017-07-29T09:48:00Z</time>
      </trkpt>
      <trkpt lat="45.89799" lon="4.75916">
        <ele>194</ele>
        <time>2017-07-29T09:48:01Z</time>
      </trkpt>
      <trkpt lat="45.89796" lon="4.75928">
        <ele>195</ele>
        <time>2017-07-29T09:48:03Z</time>
      </trkpt>
      <trkpt lat="45.89794" lon="4.75933">
        <ele>195</ele>
        <time>2017-07-29T09:48:04Z</time>
      </trkpt>
      <trkpt lat="45.8979" lon="4.75942">
        <ele>195</ele>
        <time>2017-07-29T09:48:06Z</time>
      </trkpt>
      <trkpt lat="45.89788" lon="4.75948">
        <ele>195</ele>
        <time>2017-07-29T09:48:07Z</time>
      </trkpt>
      <trkpt lat="45.89786" lon="4.75953">
        <ele>195</ele>
        <time>2017-07-29T09:48:08Z</time>
      </trkpt>
      <trkpt lat="45.89784" lon="4.7596">
        <ele>195</ele>
        <time>2017-07-29T09:48:09Z</time>
      </trkpt>
      <trkpt lat="45.89781" lon="4.75966">
        <ele>195</ele>
        <time>2017-07-29T09:48:10Z</time>
      </trkpt>
      <trkpt lat="45.89779" lon="4.75972">
        <ele>195</ele>
        <time>2017-07-29T09:48:11Z</time>
      </trkpt>
      <trkpt lat="45.89778" lon="4.75978">
        <ele>195</ele>
        <time>2017-07-29T09:48:12Z</time>
      </trkpt>
      <trkpt lat="45.89777" lon="4.75985">
        <ele>195</ele>
        <time>2017-07-29T09:48:13Z</time>
      </trkpt>
      <trkpt lat="45.89775" lon="4.75991">
        <ele>195</ele>
        <time>2017-07-29T09:48:14Z</time>
      </trkpt>
      <trkpt lat="45.89773" lon="4.75997">
        <ele>195</ele>
        <time>2017-07-29T09:48:15Z</time>
      </trkpt>
      <trkpt lat="45.89771" lon="4.76003">
        <ele>195</ele>
        <time>2017-07-29T09:48:16Z</time>
      </trkpt>
      <trkpt lat="45.8977" lon="4.76009">
        <ele>195</ele>
        <time>2017-07-29T09:48:17Z</time>
      </trkpt>
      <trkpt lat="45.89765" lon="4.7602">
        <ele>195</ele>
        <time>2017-07-29T09:48:19Z</time>
      </trkpt>
      <trkpt lat="45.89764" lon="4.76026">
        <ele>195</ele>
        <time>2017-07-29T09:48:20Z</time>
      </trkpt>
      <trkpt lat="45.89759" lon="4.76037">
        <ele>195</ele>
        <time>2017-07-29T09:48:22Z</time>
      </trkpt>
      <trkpt lat="45.89758" lon="4.76042">
        <ele>195</ele>
        <time>2017-07-29T09:48:23Z</time>
      </trkpt>
      <trkpt lat="45.89753" lon="4.76053">
        <ele>195</ele>
        <time>2017-07-29T09:48:25Z</time>
      </trkpt>
      <trkpt lat="45.89751" lon="4.76059">
        <ele>195</ele>
        <time>2017-07-29T09:48:26Z</time>
      </trkpt>
      <trkpt lat="45.89747" lon="4.7607">
        <ele>195</ele>
        <time>2017-07-29T09:48:28Z</time>
      </trkpt>
      <trkpt lat="45.89745" lon="4.76075">
        <ele>195</ele>
        <time>2017-07-29T09:48:29Z</time>
      </trkpt>
      <trkpt lat="45.89741" lon="4.76085">
        <ele>195</ele>
        <time>2017-07-29T09:48:31Z</time>
      </trkpt>
      <trkpt lat="45.89739" lon="4.76091">
        <ele>195</ele>
        <time>2017-07-29T09:48:32Z</time>
      </trkpt>
      <trkpt lat="45.89737" lon="4.76097">
        <ele>195</ele>
        <time>2017-07-29T09:48:33Z</time>
      </trkpt>
      <trkpt lat="45.89735" lon="4.76103">
        <ele>195</ele>
        <time>2017-07-29T09:48:34Z</time>
      </trkpt>
      <trkpt lat="45.89733" lon="4.76109">
        <ele>195</ele>
        <time>2017-07-29T09:48:35Z</time>
      </trkpt>
      <trkpt lat="45.89731" lon="4.76114">
        <ele>195</ele>
        <time>2017-07-29T09:48:36Z</time>
      </trkpt>
      <trkpt lat="45.89727" lon="4.76125">
        <ele>195</ele>
        <time>2017-07-29T09:48:38Z</time>
      </trkpt>
      <trkpt lat="45.89725" lon="4.7613">
        <ele>195</ele>
        <time>2017-07-29T09:48:39Z</time>
      </trkpt>
      <trkpt lat="45.89721" lon="4.76141">
        <ele>195</ele>
        <time>2017-07-29T09:48:41Z</time>
      </trkpt>
      <trkpt lat="45.89719" lon="4.76146">
        <ele>195</ele>
        <time>2017-07-29T09:48:42Z</time>
      </trkpt>
      <trkpt lat="45.89716" lon="4.76152">
        <ele>195</ele>
        <time>2017-07-29T09:48:43Z</time>
      </trkpt>
      <trkpt lat="45.89714" lon="4.76158">
        <ele>195</ele>
        <time>2017-07-29T09:48:44Z</time>
      </trkpt>
      <trkpt lat="45.89712" lon="4.76165">
        <ele>195</ele>
        <time>2017-07-29T09:48:45Z</time>
      </trkpt>
      <trkpt lat="45.89711" lon="4.76171">
        <ele>195</ele>
        <time>2017-07-29T09:48:46Z</time>
      </trkpt>
      <trkpt lat="45.89707" lon="4.76183">
        <ele>195</ele>
        <time>2017-07-29T09:48:48Z</time>
      </trkpt>
      <trkpt lat="45.89705" lon="4.76189">
        <ele>195</ele>
        <time>2017-07-29T09:48:49Z</time>
      </trkpt>
      <trkpt lat="45.89703" lon="4.76194">
        <ele>195</ele>
        <time>2017-07-29T09:48:50Z</time>
      </trkpt>
      <trkpt lat="45.89701" lon="4.762">
        <ele>195</ele>
        <time>2017-07-29T09:48:51Z</time>
      </trkpt>
      <trkpt lat="45.89698" lon="4.76206">
        <ele>195</ele>
        <time>2017-07-29T09:48:52Z</time>
      </trkpt>
      <trkpt lat="45.89696" lon="4.76212">
        <ele>195</ele>
        <time>2017-07-29T09:48:53Z</time>
      </trkpt>
      <trkpt lat="45.89694" lon="4.76219">
        <ele>195</ele>
        <time>2017-07-29T09:48:54Z</time>
      </trkpt>
      <trkpt lat="45.89692" lon="4.76226">
        <ele>195</ele>
        <time>2017-07-29T09:48:55Z</time>
      </trkpt>
      <trkpt lat="45.89689" lon="4.76238">
        <ele>195</ele>
        <time>2017-07-29T09:48:57Z</time>
      </trkpt>
      <trkpt lat="45.89687" lon="4.76243">
        <ele>195</ele>
        <time>2017-07-29T09:48:58Z</time>
      </trkpt>
      <trkpt lat="45.89683" lon="4.76253">
        <ele>195</ele>
        <time>2017-07-29T09:49:00Z</time>
      </trkpt>
      <trkpt lat="45.89681" lon="4.76258">
        <ele>195</ele>
        <time>2017-07-29T09:49:01Z</time>
      </trkpt>
      <trkpt lat="45.89679" lon="4.76265">
        <ele>195</ele>
        <time>2017-07-29T09:49:02Z</time>
      </trkpt>
      <trkpt lat="45.89677" lon="4.76271">
        <ele>195</ele>
        <time>2017-07-29T09:49:03Z</time>
      </trkpt>
      <trkpt lat="45.89675" lon="4.76277">
        <ele>195</ele>
        <time>2017-07-29T09:49:04Z</time>
      </trkpt>
      <trkpt lat="45.89673" lon="4.76284">
        <ele>195</ele>
        <time>2017-07-29T09:49:05Z</time>
      </trkpt>
      <trkpt lat="45.8967" lon="4.7629">
        <ele>195</ele>
        <time>2017-07-29T09:49:06Z</time>
      </trkpt>
      <trkpt lat="45.89668" lon="4.76296">
        <ele>195</ele>
        <time>2017-07-29T09:49:07Z</time>
      </trkpt>
      <trkpt lat="45.89665" lon="4.76307">
        <ele>195</ele>
        <time>2017-07-29T09:49:09Z</time>
      </trkpt>
      <trkpt lat="45.89663" lon="4.76313">
        <ele>195</ele>
        <time>2017-07-29T09:49:10Z</time>
      </trkpt>
      <trkpt lat="45.89661" lon="4.76318">
        <ele>195</ele>
        <time>2017-07-29T09:49:11Z</time>
      </trkpt>
      <trkpt lat="45.89659" lon="4.76324">
        <ele>195</ele>
        <time>2017-07-29T09:49:12Z</time>
      </trkpt>
      <trkpt lat="45.89655" lon="4.76334">
        <ele>195</ele>
        <time>2017-07-29T09:49:14Z</time>
      </trkpt>
      <trkpt lat="45.89653" lon="4.76341">
        <ele>195</ele>
        <time>2017-07-29T09:49:15Z</time>
      </trkpt>
      <trkpt lat="45.89649" lon="4.76352">
        <ele>195</ele>
        <time>2017-07-29T09:49:17Z</time>
      </trkpt>
      <trkpt lat="45.89647" lon="4.76357">
        <ele>195</ele>
        <time>2017-07-29T09:49:18Z</time>
      </trkpt>
      <trkpt lat="45.89645" lon="4.76364">
        <ele>195</ele>
        <time>2017-07-29T09:49:19Z</time>
      </trkpt>
      <trkpt lat="45.89643" lon="4.7637">
        <ele>195</ele>
        <time>2017-07-29T09:49:20Z</time>
      </trkpt>
      <trkpt lat="45.89641" lon="4.76376">
        <ele>195</ele>
        <time>2017-07-29T09:49:21Z</time>
      </trkpt>
      <trkpt lat="45.89639" lon="4.76382">
        <ele>195</ele>
        <time>2017-07-29T09:49:22Z</time>
      </trkpt>
      <trkpt lat="45.89635" lon="4.76393">
        <ele>195</ele>
        <time>2017-07-29T09:49:24Z</time>
      </trkpt>
      <trkpt lat="45.89634" lon="4.76398">
        <ele>195</ele>
        <time>2017-07-29T09:49:25Z</time>
      </trkpt>
      <trkpt lat="45.89632" lon="4.76405">
        <ele>195</ele>
        <time>2017-07-29T09:49:26Z</time>
      </trkpt>
      <trkpt lat="45.8963" lon="4.7641">
        <ele>195</ele>
        <time>2017-07-29T09:49:27Z</time>
      </trkpt>
      <trkpt lat="45.89627" lon="4.76421">
        <ele>195</ele>
        <time>2017-07-29T09:49:29Z</time>
      </trkpt>
      <trkpt lat="45.89625" lon="4.76426">
        <ele>195</ele>
        <time>2017-07-29T09:49:30Z</time>
      </trkpt>
      <trkpt lat="45.89621" lon="4.76436">
        <ele>195</ele>
        <time>2017-07-29T09:49:32Z</time>
      </trkpt>
      <trkpt lat="45.89619" lon="4.76442">
        <ele>195</ele>
        <time>2017-07-29T09:49:33Z</time>
      </trkpt>
      <trkpt lat="45.89615" lon="4.76452">
        <ele>195</ele>
        <time>2017-07-29T09:49:35Z</time>
      </trkpt>
      <trkpt lat="45.89612" lon="4.76457">
        <ele>195</ele>
        <time>2017-07-29T09:49:36Z</time>
      </trkpt>
      <trkpt lat="45.89608" lon="4.76467">
        <ele>194</ele>
        <time>2017-07-29T09:49:38Z</time>
      </trkpt>
      <trkpt lat="45.89606" lon="4.76471">
        <ele>194</ele>
        <time>2017-07-29T09:49:39Z</time>
      </trkpt>
      <trkpt lat="45.89602" lon="4.76481">
        <ele>194</ele>
        <time>2017-07-29T09:49:41Z</time>
      </trkpt>
      <trkpt lat="45.896" lon="4.76486">
        <ele>194</ele>
        <time>2017-07-29T09:49:42Z</time>
      </trkpt>
      <trkpt lat="45.89596" lon="4.76495">
        <ele>194</ele>
        <time>2017-07-29T09:49:44Z</time>
      </trkpt>
      <trkpt lat="45.89595" lon="4.765">
        <ele>194</ele>
        <time>2017-07-29T09:49:45Z</time>
      </trkpt>
      <trkpt lat="45.89592" lon="4.76508">
        <ele>194</ele>
        <time>2017-07-29T09:49:47Z</time>
      </trkpt>
      <trkpt lat="45.8959" lon="4.76512">
        <ele>194</ele>
        <time>2017-07-29T09:49:48Z</time>
      </trkpt>
      <trkpt lat="45.89584" lon="4.76523">
        <ele>194</ele>
        <time>2017-07-29T09:49:51Z</time>
      </trkpt>
      <trkpt lat="45.89582" lon="4.76525">
        <ele>194</ele>
        <time>2017-07-29T09:49:52Z</time>
      </trkpt>
      <trkpt lat="45.89576" lon="4.76532">
        <ele>194</ele>
        <time>2017-07-29T09:49:55Z</time>
      </trkpt>
      <trkpt lat="45.89573" lon="4.76532">
        <ele>194</ele>
        <time>2017-07-29T09:49:56Z</time>
      </trkpt>
      <trkpt lat="45.89566" lon="4.76534">
        <ele>194</ele>
        <time>2017-07-29T09:49:59Z</time>
      </trkpt>
      <trkpt lat="45.89563" lon="4.76534">
        <ele>194</ele>
        <time>2017-07-29T09:50:00Z</time>
      </trkpt>
      <trkpt lat="45.89556" lon="4.76534">
        <ele>194</ele>
        <time>2017-07-29T09:50:02Z</time>
      </trkpt>
      <trkpt lat="45.89553" lon="4.76534">
        <ele>194</ele>
        <time>2017-07-29T09:50:03Z</time>
      </trkpt>
      <trkpt lat="45.89544" lon="4.76533">
        <ele>194</ele>
        <time>2017-07-29T09:50:06Z</time>
      </trkpt>
      <trkpt lat="45.89541" lon="4.76533">
        <ele>194</ele>
        <time>2017-07-29T09:50:07Z</time>
      </trkpt>
      <trkpt lat="45.89533" lon="4.76535">
        <ele>194</ele>
        <time>2017-07-29T09:50:10Z</time>
      </trkpt>
      <trkpt lat="45.8953" lon="4.76536">
        <ele>194</ele>
        <time>2017-07-29T09:50:11Z</time>
      </trkpt>
      <trkpt lat="45.89523" lon="4.76538">
        <ele>194</ele>
        <time>2017-07-29T09:50:13Z</time>
      </trkpt>
      <trkpt lat="45.8952" lon="4.76539">
        <ele>194</ele>
        <time>2017-07-29T09:50:14Z</time>
      </trkpt>
      <trkpt lat="45.89514" lon="4.76542">
        <ele>194</ele>
        <time>2017-07-29T09:50:16Z</time>
      </trkpt>
      <trkpt lat="45.8951" lon="4.76543">
        <ele>194</ele>
        <time>2017-07-29T09:50:17Z</time>
      </trkpt>
      <trkpt lat="45.89503" lon="4.76547">
        <ele>194</ele>
        <time>2017-07-29T09:50:19Z</time>
      </trkpt>
      <trkpt lat="45.895" lon="4.76547">
        <ele>194</ele>
        <time>2017-07-29T09:50:20Z</time>
      </trkpt>
      <trkpt lat="45.89492" lon="4.7655">
        <ele>194</ele>
        <time>2017-07-29T09:50:23Z</time>
      </trkpt>
      <trkpt lat="45.8949" lon="4.76551">
        <ele>194</ele>
        <time>2017-07-29T09:50:24Z</time>
      </trkpt>
      <trkpt lat="45.89484" lon="4.76551">
        <ele>194</ele>
        <time>2017-07-29T09:50:27Z</time>
      </trkpt>
      <trkpt lat="45.8948" lon="4.76552">
        <ele>194</ele>
        <time>2017-07-29T09:50:28Z</time>
      </trkpt>
      <trkpt lat="45.89472" lon="4.76555">
        <ele>194</ele>
        <time>2017-07-29T09:50:31Z</time>
      </trkpt>
      <trkpt lat="45.89469" lon="4.76555">
        <ele>194</ele>
        <time>2017-07-29T09:50:32Z</time>
      </trkpt>
      <trkpt lat="45.89461" lon="4.76556">
        <ele>194</ele>
        <time>2017-07-29T09:50:35Z</time>
      </trkpt>
      <trkpt lat="45.89459" lon="4.76556">
        <ele>194</ele>
        <time>2017-07-29T09:50:36Z</time>
      </trkpt>
      <trkpt lat="45.89451" lon="4.76557">
        <ele>194</ele>
        <time>2017-07-29T09:50:39Z</time>
      </trkpt>
      <trkpt lat="45.89449" lon="4.76556">
        <ele>194</ele>
        <time>2017-07-29T09:50:40Z</time>
      </trkpt>
      <trkpt lat="45.89441" lon="4.76555">
        <ele>194</ele>
        <time>2017-07-29T09:50:43Z</time>
      </trkpt>
      <trkpt lat="45.89439" lon="4.76554">
        <ele>194</ele>
        <time>2017-07-29T09:50:44Z</time>
      </trkpt>
      <trkpt lat="45.89434" lon="4.76551">
        <ele>194</ele>
        <time>2017-07-29T09:50:46Z</time>
      </trkpt>
      <trkpt lat="45.89429" lon="4.76552">
        <ele>194</ele>
        <time>2017-07-29T09:50:47Z</time>
      </trkpt>
      <trkpt lat="45.89423" lon="4.76548">
        <ele>194</ele>
        <time>2017-07-29T09:50:49Z</time>
      </trkpt>
      <trkpt lat="45.89421" lon="4.76546">
        <ele>194</ele>
        <time>2017-07-29T09:50:50Z</time>
      </trkpt>
      <trkpt lat="45.89415" lon="4.76542">
        <ele>194</ele>
        <time>2017-07-29T09:50:52Z</time>
      </trkpt>
      <trkpt lat="45.89412" lon="4.76541">
        <ele>194</ele>
        <time>2017-07-29T09:50:53Z</time>
      </trkpt>
      <trkpt lat="45.89405" lon="4.76539">
        <ele>194</ele>
        <time>2017-07-29T09:50:55Z</time>
      </trkpt>
      <trkpt lat="45.89401" lon="4.76538">
        <ele>194</ele>
        <time>2017-07-29T09:50:56Z</time>
      </trkpt>
      <trkpt lat="45.89394" lon="4.76538">
        <ele>194</ele>
        <time>2017-07-29T09:50:58Z</time>
      </trkpt>
      <trkpt lat="45.89391" lon="4.76536">
        <ele>194</ele>
        <time>2017-07-29T09:50:59Z</time>
      </trkpt>
      <trkpt lat="45.89384" lon="4.76534">
        <ele>194</ele>
        <time>2017-07-29T09:51:01Z</time>
      </trkpt>
      <trkpt lat="45.89381" lon="4.76532">
        <ele>194</ele>
        <time>2017-07-29T09:51:02Z</time>
      </trkpt>
      <trkpt lat="45.89374" lon="4.76529">
        <ele>194</ele>
        <time>2017-07-29T09:51:04Z</time>
      </trkpt>
      <trkpt lat="45.89371" lon="4.76528">
        <ele>194</ele>
        <time>2017-07-29T09:51:05Z</time>
      </trkpt>
      <trkpt lat="45.89362" lon="4.76529">
        <ele>194</ele>
        <time>2017-07-29T09:51:08Z</time>
      </trkpt>
      <trkpt lat="45.89359" lon="4.76528">
        <ele>194</ele>
        <time>2017-07-29T09:51:09Z</time>
      </trkpt>
      <trkpt lat="45.89353" lon="4.7652">
        <ele>194</ele>
        <time>2017-07-29T09:51:12Z</time>
      </trkpt>
      <trkpt lat="45.8935" lon="4.76517">
        <ele>194</ele>
        <time>2017-07-29T09:51:13Z</time>
      </trkpt>
      <trkpt lat="45.89343" lon="4.76512">
        <ele>194</ele>
        <time>2017-07-29T09:51:15Z</time>
      </trkpt>
      <trkpt lat="45.8934" lon="4.76511">
        <ele>194</ele>
        <time>2017-07-29T09:51:16Z</time>
      </trkpt>
      <trkpt lat="45.89334" lon="4.76508">
        <ele>194</ele>
        <time>2017-07-29T09:51:18Z</time>
      </trkpt>
      <trkpt lat="45.89331" lon="4.76508">
        <ele>194</ele>
        <time>2017-07-29T09:51:19Z</time>
      </trkpt>
      <trkpt lat="45.89324" lon="4.76506">
        <ele>194</ele>
        <time>2017-07-29T09:51:21Z</time>
      </trkpt>
      <trkpt lat="45.8932" lon="4.76505">
        <ele>194</ele>
        <time>2017-07-29T09:51:22Z</time>
      </trkpt>
      <trkpt lat="45.89312" lon="4.76503">
        <ele>194</ele>
        <time>2017-07-29T09:51:24Z</time>
      </trkpt>
      <trkpt lat="45.89308" lon="4.76502">
        <ele>194</ele>
        <time>2017-07-29T09:51:25Z</time>
      </trkpt>
      <trkpt lat="45.893" lon="4.76501">
        <ele>194</ele>
        <time>2017-07-29T09:51:27Z</time>
      </trkpt>
      <trkpt lat="45.89296" lon="4.76501">
        <ele>194</ele>
        <time>2017-07-29T09:51:28Z</time>
      </trkpt>
      <trkpt lat="45.89289" lon="4.765">
        <ele>193</ele>
        <time>2017-07-29T09:51:30Z</time>
      </trkpt>
      <trkpt lat="45.89285" lon="4.76498">
        <ele>193</ele>
        <time>2017-07-29T09:51:31Z</time>
      </trkpt>
      <trkpt lat="45.89277" lon="4.76496">
        <ele>193</ele>
        <time>2017-07-29T09:51:33Z</time>
      </trkpt>
      <trkpt lat="45.89272" lon="4.76494">
        <ele>193</ele>
        <time>2017-07-29T09:51:34Z</time>
      </trkpt>
      <trkpt lat="45.89265" lon="4.76491">
        <ele>193</ele>
        <time>2017-07-29T09:51:36Z</time>
      </trkpt>
      <trkpt lat="45.89261" lon="4.7649">
        <ele>193</ele>
        <time>2017-07-29T09:51:37Z</time>
      </trkpt>
      <trkpt lat="45.89253" lon="4.76485">
        <ele>193</ele>
        <time>2017-07-29T09:51:40Z</time>
      </trkpt>
      <trkpt lat="45.8925" lon="4.76483">
        <ele>193</ele>
        <time>2017-07-29T09:51:41Z</time>
      </trkpt>
      <trkpt lat="45.89244" lon="4.76476">
        <ele>193</ele>
        <time>2017-07-29T09:51:43Z</time>
      </trkpt>
      <trkpt lat="45.89241" lon="4.76472">
        <ele>193</ele>
        <time>2017-07-29T09:51:44Z</time>
      </trkpt>
      <trkpt lat="45.89234" lon="4.76466">
        <ele>193</ele>
        <time>2017-07-29T09:51:46Z</time>
      </trkpt>
      <trkpt lat="45.89231" lon="4.76463">
        <ele>193</ele>
        <time>2017-07-29T09:51:47Z</time>
      </trkpt>
      <trkpt lat="45.89225" lon="4.76456">
        <ele>194</ele>
        <time>2017-07-29T09:51:49Z</time>
      </trkpt>
      <trkpt lat="45.89222" lon="4.76451">
        <ele>194</ele>
        <time>2017-07-29T09:51:50Z</time>
      </trkpt>
      <trkpt lat="45.89218" lon="4.76441">
        <ele>194</ele>
        <time>2017-07-29T09:51:52Z</time>
      </trkpt>
      <trkpt lat="45.89215" lon="4.76436">
        <ele>194</ele>
        <time>2017-07-29T09:51:53Z</time>
      </trkpt>
      <trkpt lat="45.89211" lon="4.76426">
        <ele>194</ele>
        <time>2017-07-29T09:51:55Z</time>
      </trkpt>
      <trkpt lat="45.89209" lon="4.7642">
        <ele>194</ele>
        <time>2017-07-29T09:51:56Z</time>
      </trkpt>
      <trkpt lat="45.89204" lon="4.7641">
        <ele>194</ele>
        <time>2017-07-29T09:51:58Z</time>
      </trkpt>
      <trkpt lat="45.89202" lon="4.76406">
        <ele>194</ele>
        <time>2017-07-29T09:51:59Z</time>
      </trkpt>
      <trkpt lat="45.89198" lon="4.76398">
        <ele>194</ele>
        <time>2017-07-29T09:52:01Z</time>
      </trkpt>
      <trkpt lat="45.89196" lon="4.76393">
        <ele>194</ele>
        <time>2017-07-29T09:52:02Z</time>
      </trkpt>
      <trkpt lat="45.89192" lon="4.76385">
        <ele>194</ele>
        <time>2017-07-29T09:52:04Z</time>
      </trkpt>
      <trkpt lat="45.8919" lon="4.7638">
        <ele>194</ele>
        <time>2017-07-29T09:52:05Z</time>
      </trkpt>
      <trkpt lat="45.89185" lon="4.7637">
        <ele>194</ele>
        <time>2017-07-29T09:52:07Z</time>
      </trkpt>
      <trkpt lat="45.89182" lon="4.76365">
        <ele>194</ele>
        <time>2017-07-29T09:52:08Z</time>
      </trkpt>
      <trkpt lat="45.89177" lon="4.76355">
        <ele>194</ele>
        <time>2017-07-29T09:52:10Z</time>
      </trkpt>
      <trkpt lat="45.89176" lon="4.7635">
        <ele>195</ele>
        <time>2017-07-29T09:52:11Z</time>
      </trkpt>
      <trkpt lat="45.89171" lon="4.76339">
        <ele>195</ele>
        <time>2017-07-29T09:52:13Z</time>
      </trkpt>
      <trkpt lat="45.89169" lon="4.76335">
        <ele>195</ele>
        <time>2017-07-29T09:52:14Z</time>
      </trkpt>
      <trkpt lat="45.89164" lon="4.76325">
        <ele>195</ele>
        <time>2017-07-29T09:52:16Z</time>
      </trkpt>
      <trkpt lat="45.89161" lon="4.76319">
        <ele>196</ele>
        <time>2017-07-29T09:52:17Z</time>
      </trkpt>
      <trkpt lat="45.89156" lon="4.7631">
        <ele>196</ele>
        <time>2017-07-29T09:52:19Z</time>
      </trkpt>
      <trkpt lat="45.89154" lon="4.76305">
        <ele>196</ele>
        <time>2017-07-29T09:52:20Z</time>
      </trkpt>
      <trkpt lat="45.8915" lon="4.76296">
        <ele>196</ele>
        <time>2017-07-29T09:52:22Z</time>
      </trkpt>
      <trkpt lat="45.89147" lon="4.76292">
        <ele>196</ele>
        <time>2017-07-29T09:52:23Z</time>
      </trkpt>
      <trkpt lat="45.89143" lon="4.76281">
        <ele>196</ele>
        <time>2017-07-29T09:52:25Z</time>
      </trkpt>
      <trkpt lat="45.8914" lon="4.76275">
        <ele>196</ele>
        <time>2017-07-29T09:52:26Z</time>
      </trkpt>
      <trkpt lat="45.89135" lon="4.76265">
        <ele>196</ele>
        <time>2017-07-29T09:52:28Z</time>
      </trkpt>
      <trkpt lat="45.89132" lon="4.7626">
        <ele>197</ele>
        <time>2017-07-29T09:52:29Z</time>
      </trkpt>
      <trkpt lat="45.89127" lon="4.76251">
        <ele>197</ele>
        <time>2017-07-29T09:52:31Z</time>
      </trkpt>
      <trkpt lat="45.89125" lon="4.76246">
        <ele>196</ele>
        <time>2017-07-29T09:52:32Z</time>
      </trkpt>
      <trkpt lat="45.8912" lon="4.76236">
        <ele>196</ele>
        <time>2017-07-29T09:52:34Z</time>
      </trkpt>
      <trkpt lat="45.89118" lon="4.7623">
        <ele>196</ele>
        <time>2017-07-29T09:52:35Z</time>
      </trkpt>
      <trkpt lat="45.89113" lon="4.7622">
        <ele>196</ele>
        <time>2017-07-29T09:52:37Z</time>
      </trkpt>
      <trkpt lat="45.89111" lon="4.76215">
        <ele>196</ele>
        <time>2017-07-29T09:52:38Z</time>
      </trkpt>
      <trkpt lat="45.89106" lon="4.76206">
        <ele>196</ele>
        <time>2017-07-29T09:52:40Z</time>
      </trkpt>
      <trkpt lat="45.89103" lon="4.76201">
        <ele>196</ele>
        <time>2017-07-29T09:52:41Z</time>
      </trkpt>
      <trkpt lat="45.89099" lon="4.7619">
        <ele>196</ele>
        <time>2017-07-29T09:52:43Z</time>
      </trkpt>
      <trkpt lat="45.89096" lon="4.76184">
        <ele>196</ele>
        <time>2017-07-29T09:52:44Z</time>
      </trkpt>
      <trkpt lat="45.89091" lon="4.76175">
        <ele>195</ele>
        <time>2017-07-29T09:52:46Z</time>
      </trkpt>
      <trkpt lat="45.89089" lon="4.76171">
        <ele>195</ele>
        <time>2017-07-29T09:52:47Z</time>
      </trkpt>
      <trkpt lat="45.89084" lon="4.76161">
        <ele>195</ele>
        <time>2017-07-29T09:52:49Z</time>
      </trkpt>
      <trkpt lat="45.89082" lon="4.76156">
        <ele>196</ele>
        <time>2017-07-29T09:52:50Z</time>
      </trkpt>
      <trkpt lat="45.89078" lon="4.76152">
        <ele>196</ele>
        <time>2017-07-29T09:52:51Z</time>
      </trkpt>
      <trkpt lat="45.89076" lon="4.76146">
        <ele>196</ele>
        <time>2017-07-29T09:52:52Z</time>
      </trkpt>
      <trkpt lat="45.89071" lon="4.76137">
        <ele>197</ele>
        <time>2017-07-29T09:52:54Z</time>
      </trkpt>
      <trkpt lat="45.8907" lon="4.76133">
        <ele>197</ele>
        <time>2017-07-29T09:52:55Z</time>
      </trkpt>
      <trkpt lat="45.89067" lon="4.76124">
        <ele>197</ele>
        <time>2017-07-29T09:52:57Z</time>
      </trkpt>
      <trkpt lat="45.89064" lon="4.7612">
        <ele>197</ele>
        <time>2017-07-29T09:52:58Z</time>
      </trkpt>
      <trkpt lat="45.89059" lon="4.76111">
        <ele>197</ele>
        <time>2017-07-29T09:53:00Z</time>
      </trkpt>
      <trkpt lat="45.89057" lon="4.76107">
        <ele>197</ele>
        <time>2017-07-29T09:53:01Z</time>
      </trkpt>
      <trkpt lat="45.89052" lon="4.76099">
        <ele>197</ele>
        <time>2017-07-29T09:53:03Z</time>
      </trkpt>
      <trkpt lat="45.8905" lon="4.76094">
        <ele>197</ele>
        <time>2017-07-29T09:53:04Z</time>
      </trkpt>
      <trkpt lat="45.89045" lon="4.76085">
        <ele>198</ele>
        <time>2017-07-29T09:53:06Z</time>
      </trkpt>
      <trkpt lat="45.89042" lon="4.7608">
        <ele>199</ele>
        <time>2017-07-29T09:53:07Z</time>
      </trkpt>
      <trkpt lat="45.89038" lon="4.76072">
        <ele>199</ele>
        <time>2017-07-29T09:53:09Z</time>
      </trkpt>
      <trkpt lat="45.89036" lon="4.76068">
        <ele>199</ele>
        <time>2017-07-29T09:53:10Z</time>
      </trkpt>
      <trkpt lat="45.89031" lon="4.7606">
        <ele>199</ele>
        <time>2017-07-29T09:53:12Z</time>
      </trkpt>
      <trkpt lat="45.8903" lon="4.76055">
        <ele>199</ele>
        <time>2017-07-29T09:53:13Z</time>
      </trkpt>
      <trkpt lat="45.89027" lon="4.76045">
        <ele>199</ele>
        <time>2017-07-29T09:53:15Z</time>
      </trkpt>
      <trkpt lat="45.89024" lon="4.76039">
        <ele>199</ele>
        <time>2017-07-29T09:53:16Z</time>
      </trkpt>
      <trkpt lat="45.89021" lon="4.76033">
        <ele>199</ele>
        <time>2017-07-29T09:53:17Z</time>
      </trkpt>
      <trkpt lat="45.89019" lon="4.76027">
        <ele>199</ele>
        <time>2017-07-29T09:53:18Z</time>
      </trkpt>
      <trkpt lat="45.89014" lon="4.76016">
        <ele>200</ele>
        <time>2017-07-29T09:53:20Z</time>
      </trkpt>
      <trkpt lat="45.89012" lon="4.76011">
        <ele>200</ele>
        <time>2017-07-29T09:53:21Z</time>
      </trkpt>
      <trkpt lat="45.89007" lon="4.76001">
        <ele>200</ele>
        <time>2017-07-29T09:53:23Z</time>
      </trkpt>
      <trkpt lat="45.89005" lon="4.75995">
        <ele>200</ele>
        <time>2017-07-29T09:53:24Z</time>
      </trkpt>
      <trkpt lat="45.89001" lon="4.75983">
        <ele>200</ele>
        <time>2017-07-29T09:53:26Z</time>
      </trkpt>
      <trkpt lat="45.88997" lon="4.75977">
        <ele>199</ele>
        <time>2017-07-29T09:53:27Z</time>
      </trkpt>
      <trkpt lat="45.88993" lon="4.75967">
        <ele>199</ele>
        <time>2017-07-29T09:53:29Z</time>
      </trkpt>
      <trkpt lat="45.8899" lon="4.75961">
        <ele>199</ele>
        <time>2017-07-29T09:53:30Z</time>
      </trkpt>
      <trkpt lat="45.88988" lon="4.7595">
        <ele>199</ele>
        <time>2017-07-29T09:53:32Z</time>
      </trkpt>
      <trkpt lat="45.88987" lon="4.75945">
        <ele>199</ele>
        <time>2017-07-29T09:53:33Z</time>
      </trkpt>
      <trkpt lat="45.88987" lon="4.75935">
        <ele>199</ele>
        <time>2017-07-29T09:53:35Z</time>
      </trkpt>
      <trkpt lat="45.88989" lon="4.7593">
        <ele>199</ele>
        <time>2017-07-29T09:53:36Z</time>
      </trkpt>
      <trkpt lat="45.88992" lon="4.75921">
        <ele>200</ele>
        <time>2017-07-29T09:53:38Z</time>
      </trkpt>
      <trkpt lat="45.88993" lon="4.75916">
        <ele>200</ele>
        <time>2017-07-29T09:53:39Z</time>
      </trkpt>
      <trkpt lat="45.88997" lon="4.75906">
        <ele>199</ele>
        <time>2017-07-29T09:53:41Z</time>
      </trkpt>
      <trkpt lat="45.88998" lon="4.759">
        <ele>199</ele>
        <time>2017-07-29T09:53:42Z</time>
      </trkpt>
      <trkpt lat="45.89" lon="4.75894">
        <ele>200</ele>
        <time>2017-07-29T09:53:43Z</time>
      </trkpt>
      <trkpt lat="45.89003" lon="4.75888">
        <ele>200</ele>
        <time>2017-07-29T09:53:44Z</time>
      </trkpt>
      <trkpt lat="45.89006" lon="4.75878">
        <ele>200</ele>
        <time>2017-07-29T09:53:46Z</time>
      </trkpt>
      <trkpt lat="45.89008" lon="4.75872">
        <ele>200</ele>
        <time>2017-07-29T09:53:47Z</time>
      </trkpt>
      <trkpt lat="45.89011" lon="4.75861">
        <ele>200</ele>
        <time>2017-07-29T09:53:49Z</time>
      </trkpt>
      <trkpt lat="45.89012" lon="4.75855">
        <ele>200</ele>
        <time>2017-07-29T09:53:50Z</time>
      </trkpt>
      <trkpt lat="45.89012" lon="4.75849">
        <ele>200</ele>
        <time>2017-07-29T09:53:51Z</time>
      </trkpt>
      <trkpt lat="45.89012" lon="4.75841">
        <ele>200</ele>
        <time>2017-07-29T09:53:52Z</time>
      </trkpt>
      <trkpt lat="45.89012" lon="4.75833">
        <ele>200</ele>
        <time>2017-07-29T09:53:53Z</time>
      </trkpt>
      <trkpt lat="45.89012" lon="4.75826">
        <ele>199</ele>
        <time>2017-07-29T09:53:54Z</time>
      </trkpt>
      <trkpt lat="45.89015" lon="4.75815">
        <ele>199</ele>
        <time>2017-07-29T09:53:56Z</time>
      </trkpt>
      <trkpt lat="45.89013" lon="4.75808">
        <ele>199</ele>
        <time>2017-07-29T09:53:57Z</time>
      </trkpt>
      <trkpt lat="45.89013" lon="4.75802">
        <ele>199</ele>
        <time>2017-07-29T09:53:58Z</time>
      </trkpt>
      <trkpt lat="45.89011" lon="4.75795">
        <ele>199</ele>
        <time>2017-07-29T09:53:59Z</time>
      </trkpt>
      <trkpt lat="45.89009" lon="4.75789">
        <ele>199</ele>
        <time>2017-07-29T09:54:00Z</time>
      </trkpt>
      <trkpt lat="45.89007" lon="4.75782">
        <ele>199</ele>
        <time>2017-07-29T09:54:01Z</time>
      </trkpt>
      <trkpt lat="45.89005" lon="4.75776">
        <ele>199</ele>
        <time>2017-07-29T09:54:02Z</time>
      </trkpt>
      <trkpt lat="45.89003" lon="4.7577">
        <ele>198</ele>
        <time>2017-07-29T09:54:03Z</time>
      </trkpt>
      <trkpt lat="45.89002" lon="4.75764">
        <ele>198</ele>
        <time>2017-07-29T09:54:04Z</time>
      </trkpt>
      <trkpt lat="45.89" lon="4.75758">
        <ele>198</ele>
        <time>2017-07-29T09:54:05Z</time>
      </trkpt>
      <trkpt lat="45.88998" lon="4.75745">
        <ele>198</ele>
        <time>2017-07-29T09:54:07Z</time>
      </trkpt>
      <trkpt lat="45.88997" lon="4.75739">
        <ele>198</ele>
        <time>2017-07-29T09:54:08Z</time>
      </trkpt>
      <trkpt lat="45.88995" lon="4.75732">
        <ele>198</ele>
        <time>2017-07-29T09:54:09Z</time>
      </trkpt>
      <trkpt lat="45.88994" lon="4.75725">
        <ele>198</ele>
        <time>2017-07-29T09:54:10Z</time>
      </trkpt>
      <trkpt lat="45.88993" lon="4.75718">
        <ele>198</ele>
        <time>2017-07-29T09:54:11Z</time>
      </trkpt>
      <trkpt lat="45.88992" lon="4.75711">
        <ele>198</ele>
        <time>2017-07-29T09:54:12Z</time>
      </trkpt>
      <trkpt lat="45.88991" lon="4.75705">
        <ele>199</ele>
        <time>2017-07-29T09:54:13Z</time>
      </trkpt>
      <trkpt lat="45.8899" lon="4.75698">
        <ele>198</ele>
        <time>2017-07-29T09:54:14Z</time>
      </trkpt>
      <trkpt lat="45.88989" lon="4.75692">
        <ele>198</ele>
        <time>2017-07-29T09:54:15Z</time>
      </trkpt>
      <trkpt lat="45.88988" lon="4.75685">
        <ele>198</ele>
        <time>2017-07-29T09:54:16Z</time>
      </trkpt>
      <trkpt lat="45.88985" lon="4.75673">
        <ele>198</ele>
        <time>2017-07-29T09:54:18Z</time>
      </trkpt>
      <trkpt lat="45.88984" lon="4.75667">
        <ele>198</ele>
        <time>2017-07-29T09:54:19Z</time>
      </trkpt>
      <trkpt lat="45.88983" lon="4.7566">
        <ele>198</ele>
        <time>2017-07-29T09:54:20Z</time>
      </trkpt>
      <trkpt lat="45.88982" lon="4.75653">
        <ele>198</ele>
        <time>2017-07-29T09:54:21Z</time>
      </trkpt>
      <trkpt lat="45.8898" lon="4.75646">
        <ele>198</ele>
        <time>2017-07-29T09:54:22Z</time>
      </trkpt>
      <trkpt lat="45.88978" lon="4.7564">
        <ele>198</ele>
        <time>2017-07-29T09:54:23Z</time>
      </trkpt>
      <trkpt lat="45.88976" lon="4.75634">
        <ele>198</ele>
        <time>2017-07-29T09:54:24Z</time>
      </trkpt>
      <trkpt lat="45.88975" lon="4.75627">
        <ele>198</ele>
        <time>2017-07-29T09:54:25Z</time>
      </trkpt>
      <trkpt lat="45.88973" lon="4.75621">
        <ele>198</ele>
        <time>2017-07-29T09:54:26Z</time>
      </trkpt>
      <trkpt lat="45.8897" lon="4.75614">
        <ele>198</ele>
        <time>2017-07-29T09:54:27Z</time>
      </trkpt>
      <trkpt lat="45.88968" lon="4.75607">
        <ele>198</ele>
        <time>2017-07-29T09:54:28Z</time>
      </trkpt>
      <trkpt lat="45.88967" lon="4.756">
        <ele>198</ele>
        <time>2017-07-29T09:54:29Z</time>
      </trkpt>
      <trkpt lat="45.88966" lon="4.75592">
        <ele>198</ele>
        <time>2017-07-29T09:54:30Z</time>
      </trkpt>
      <trkpt lat="45.88965" lon="4.75585">
        <ele>198</ele>
        <time>2017-07-29T09:54:31Z</time>
      </trkpt>
      <trkpt lat="45.88964" lon="4.75572">
        <ele>198</ele>
        <time>2017-07-29T09:54:33Z</time>
      </trkpt>
      <trkpt lat="45.88964" lon="4.75566">
        <ele>198</ele>
        <time>2017-07-29T09:54:34Z</time>
      </trkpt>
      <trkpt lat="45.88963" lon="4.75559">
        <ele>198</ele>
        <time>2017-07-29T09:54:35Z</time>
      </trkpt>
      <trkpt lat="45.88962" lon="4.75553">
        <ele>198</ele>
        <time>2017-07-29T09:54:36Z</time>
      </trkpt>
      <trkpt lat="45.88962" lon="4.75545">
        <ele>198</ele>
        <time>2017-07-29T09:54:37Z</time>
      </trkpt>
      <trkpt lat="45.88962" lon="4.75538">
        <ele>198</ele>
        <time>2017-07-29T09:54:38Z</time>
      </trkpt>
      <trkpt lat="45.88961" lon="4.75531">
        <ele>198</ele>
        <time>2017-07-29T09:54:39Z</time>
      </trkpt>
      <trkpt lat="45.88962" lon="4.75524">
        <ele>198</ele>
        <time>2017-07-29T09:54:40Z</time>
      </trkpt>
      <trkpt lat="45.88961" lon="4.75517">
        <ele>198</ele>
        <time>2017-07-29T09:54:41Z</time>
      </trkpt>
      <trkpt lat="45.8896" lon="4.7551">
        <ele>198</ele>
        <time>2017-07-29T09:54:42Z</time>
      </trkpt>
      <trkpt lat="45.88959" lon="4.75497">
        <ele>198</ele>
        <time>2017-07-29T09:54:44Z</time>
      </trkpt>
      <trkpt lat="45.88959" lon="4.75491">
        <ele>198</ele>
        <time>2017-07-29T09:54:45Z</time>
      </trkpt>
      <trkpt lat="45.88959" lon="4.75485">
        <ele>199</ele>
        <time>2017-07-29T09:54:46Z</time>
      </trkpt>
      <trkpt lat="45.88958" lon="4.75478">
        <ele>199</ele>
        <time>2017-07-29T09:54:47Z</time>
      </trkpt>
      <trkpt lat="45.88958" lon="4.75465">
        <ele>199</ele>
        <time>2017-07-29T09:54:49Z</time>
      </trkpt>
      <trkpt lat="45.88958" lon="4.75459">
        <ele>199</ele>
        <time>2017-07-29T09:54:50Z</time>
      </trkpt>
      <trkpt lat="45.88958" lon="4.75447">
        <ele>199</ele>
        <time>2017-07-29T09:54:52Z</time>
      </trkpt>
      <trkpt lat="45.88959" lon="4.75442">
        <ele>199</ele>
        <time>2017-07-29T09:54:53Z</time>
      </trkpt>
      <trkpt lat="45.88959" lon="4.75432">
        <ele>199</ele>
        <time>2017-07-29T09:54:55Z</time>
      </trkpt>
      <trkpt lat="45.88961" lon="4.75427">
        <ele>199</ele>
        <time>2017-07-29T09:54:56Z</time>
      </trkpt>
      <trkpt lat="45.88967" lon="4.75423">
        <ele>199</ele>
        <time>2017-07-29T09:54:58Z</time>
      </trkpt>
      <trkpt lat="45.88971" lon="4.75424">
        <ele>199</ele>
        <time>2017-07-29T09:54:59Z</time>
      </trkpt>
      <trkpt lat="45.8898" lon="4.75423">
        <ele>199</ele>
        <time>2017-07-29T09:55:01Z</time>
      </trkpt>
      <trkpt lat="45.88985" lon="4.75422">
        <ele>199</ele>
        <time>2017-07-29T09:55:02Z</time>
      </trkpt>
      <trkpt lat="45.8899" lon="4.75421">
        <ele>199</ele>
        <time>2017-07-29T09:55:03Z</time>
      </trkpt>
      <trkpt lat="45.88996" lon="4.7542">
        <ele>199</ele>
        <time>2017-07-29T09:55:04Z</time>
      </trkpt>
      <trkpt lat="45.89001" lon="4.75418">
        <ele>199</ele>
        <time>2017-07-29T09:55:05Z</time>
      </trkpt>
      <trkpt lat="45.89005" lon="4.75417">
        <ele>199</ele>
        <time>2017-07-29T09:55:06Z</time>
      </trkpt>
      <trkpt lat="45.8901" lon="4.75415">
        <ele>199</ele>
        <time>2017-07-29T09:55:07Z</time>
      </trkpt>
      <trkpt lat="45.89015" lon="4.75413">
        <ele>199</ele>
        <time>2017-07-29T09:55:08Z</time>
      </trkpt>
      <trkpt lat="45.89019" lon="4.75411">
        <ele>199</ele>
        <time>2017-07-29T09:55:09Z</time>
      </trkpt>
      <trkpt lat="45.89023" lon="4.75408">
        <ele>199</ele>
        <time>2017-07-29T09:55:10Z</time>
      </trkpt>
      <trkpt lat="45.89032" lon="4.75405">
        <ele>199</ele>
        <time>2017-07-29T09:55:12Z</time>
      </trkpt>
      <trkpt lat="45.89035" lon="4.75404">
        <ele>199</ele>
        <time>2017-07-29T09:55:13Z</time>
      </trkpt>
      <trkpt lat="45.89042" lon="4.75399">
        <ele>199</ele>
        <time>2017-07-29T09:55:15Z</time>
      </trkpt>
      <trkpt lat="45.89044" lon="4.75395">
        <ele>199</ele>
        <time>2017-07-29T09:55:16Z</time>
      </trkpt>
      <trkpt lat="45.89046" lon="4.75385">
        <ele>199</ele>
        <time>2017-07-29T09:55:18Z</time>
      </trkpt>
      <trkpt lat="45.89046" lon="4.7538">
        <ele>199</ele>
        <time>2017-07-29T09:55:19Z</time>
      </trkpt>
      <trkpt lat="45.89048" lon="4.75368">
        <ele>199</ele>
        <time>2017-07-29T09:55:21Z</time>
      </trkpt>
      <trkpt lat="45.89048" lon="4.75362">
        <ele>199</ele>
        <time>2017-07-29T09:55:22Z</time>
      </trkpt>
      <trkpt lat="45.89049" lon="4.7535">
        <ele>199</ele>
        <time>2017-07-29T09:55:24Z</time>
      </trkpt>
      <trkpt lat="45.8905" lon="4.75345">
        <ele>199</ele>
        <time>2017-07-29T09:55:25Z</time>
      </trkpt>
      <trkpt lat="45.89052" lon="4.75334">
        <ele>199</ele>
        <time>2017-07-29T09:55:27Z</time>
      </trkpt>
      <trkpt lat="45.89052" lon="4.75328">
        <ele>199</ele>
        <time>2017-07-29T09:55:28Z</time>
      </trkpt>
      <trkpt lat="45.89053" lon="4.75317">
        <ele>199</ele>
        <time>2017-07-29T09:55:30Z</time>
      </trkpt>
      <trkpt lat="45.89054" lon="4.75311">
        <ele>199</ele>
        <time>2017-07-29T09:55:31Z</time>
      </trkpt>
      <trkpt lat="45.89055" lon="4.75301">
        <ele>199</ele>
        <time>2017-07-29T09:55:33Z</time>
      </trkpt>
      <trkpt lat="45.89056" lon="4.75295">
        <ele>199</ele>
        <time>2017-07-29T09:55:34Z</time>
      </trkpt>
      <trkpt lat="45.89057" lon="4.75283">
        <ele>199</ele>
        <time>2017-07-29T09:55:36Z</time>
      </trkpt>
      <trkpt lat="45.89057" lon="4.75277">
        <ele>199</ele>
        <time>2017-07-29T09:55:37Z</time>
      </trkpt>
      <trkpt lat="45.89059" lon="4.7527">
        <ele>199</ele>
        <time>2017-07-29T09:55:38Z</time>
      </trkpt>
      <trkpt lat="45.89059" lon="4.75264">
        <ele>199</ele>
        <time>2017-07-29T09:55:39Z</time>
      </trkpt>
      <trkpt lat="45.8906" lon="4.75252">
        <ele>199</ele>
        <time>2017-07-29T09:55:41Z</time>
      </trkpt>
      <trkpt lat="45.89061" lon="4.75247">
        <ele>199</ele>
        <time>2017-07-29T09:55:42Z</time>
      </trkpt>
      <trkpt lat="45.89062" lon="4.75237">
        <ele>199</ele>
        <time>2017-07-29T09:55:44Z</time>
      </trkpt>
      <trkpt lat="45.89063" lon="4.75231">
        <ele>199</ele>
        <time>2017-07-29T09:55:45Z</time>
      </trkpt>
      <trkpt lat="45.89066" lon="4.75219">
        <ele>199</ele>
        <time>2017-07-29T09:55:47Z</time>
      </trkpt>
      <trkpt lat="45.89067" lon="4.75213">
        <ele>199</ele>
        <time>2017-07-29T09:55:48Z</time>
      </trkpt>
      <trkpt lat="45.89069" lon="4.75201">
        <ele>199</ele>
        <time>2017-07-29T09:55:50Z</time>
      </trkpt>
      <trkpt lat="45.8907" lon="4.75195">
        <ele>199</ele>
        <time>2017-07-29T09:55:51Z</time>
      </trkpt>
      <trkpt lat="45.89069" lon="4.75188">
        <ele>199</ele>
        <time>2017-07-29T09:55:52Z</time>
      </trkpt>
      <trkpt lat="45.89069" lon="4.75182">
        <ele>199</ele>
        <time>2017-07-29T09:55:53Z</time>
      </trkpt>
      <trkpt lat="45.89068" lon="4.75169">
        <ele>199</ele>
        <time>2017-07-29T09:55:55Z</time>
      </trkpt>
      <trkpt lat="45.89067" lon="4.75163">
        <ele>199</ele>
        <time>2017-07-29T09:55:56Z</time>
      </trkpt>
      <trkpt lat="45.89066" lon="4.75151">
        <ele>199</ele>
        <time>2017-07-29T09:55:58Z</time>
      </trkpt>
      <trkpt lat="45.89065" lon="4.75146">
        <ele>199</ele>
        <time>2017-07-29T09:55:59Z</time>
      </trkpt>
      <trkpt lat="45.89063" lon="4.75135">
        <ele>199</ele>
        <time>2017-07-29T09:56:01Z</time>
      </trkpt>
      <trkpt lat="45.89061" lon="4.75129">
        <ele>199</ele>
        <time>2017-07-29T09:56:02Z</time>
      </trkpt>
      <trkpt lat="45.89057" lon="4.7512">
        <ele>199</ele>
        <time>2017-07-29T09:56:04Z</time>
      </trkpt>
      <trkpt lat="45.89055" lon="4.75116">
        <ele>199</ele>
        <time>2017-07-29T09:56:05Z</time>
      </trkpt>
      <trkpt lat="45.89051" lon="4.75108">
        <ele>199</ele>
        <time>2017-07-29T09:56:07Z</time>
      </trkpt>
      <trkpt lat="45.89049" lon="4.75104">
        <ele>199</ele>
        <time>2017-07-29T09:56:08Z</time>
      </trkpt>
      <trkpt lat="45.89043" lon="4.75095">
        <ele>199</ele>
        <time>2017-07-29T09:56:10Z</time>
      </trkpt>
      <trkpt lat="45.8904" lon="4.7509">
        <ele>199</ele>
        <time>2017-07-29T09:56:11Z</time>
      </trkpt>
      <trkpt lat="45.89034" lon="4.7508">
        <ele>199</ele>
        <time>2017-07-29T09:56:13Z</time>
      </trkpt>
      <trkpt lat="45.89031" lon="4.75075">
        <ele>199</ele>
        <time>2017-07-29T09:56:14Z</time>
      </trkpt>
      <trkpt lat="45.89025" lon="4.75066">
        <ele>199</ele>
        <time>2017-07-29T09:56:16Z</time>
      </trkpt>
      <trkpt lat="45.89023" lon="4.75061">
        <ele>199</ele>
        <time>2017-07-29T09:56:17Z</time>
      </trkpt>
      <trkpt lat="45.89019" lon="4.75052">
        <ele>199</ele>
        <time>2017-07-29T09:56:19Z</time>
      </trkpt>
      <trkpt lat="45.89018" lon="4.75047">
        <ele>199</ele>
        <time>2017-07-29T09:56:20Z</time>
      </trkpt>
      <trkpt lat="45.89016" lon="4.75037">
        <ele>199</ele>
        <time>2017-07-29T09:56:22Z</time>
      </trkpt>
      <trkpt lat="45.89016" lon="4.75031">
        <ele>199</ele>
        <time>2017-07-29T09:56:23Z</time>
      </trkpt>
      <trkpt lat="45.89015" lon="4.75019">
        <ele>199</ele>
        <time>2017-07-29T09:56:25Z</time>
      </trkpt>
      <trkpt lat="45.89015" lon="4.75014">
        <ele>199</ele>
        <time>2017-07-29T09:56:26Z</time>
      </trkpt>
      <trkpt lat="45.89014" lon="4.75003">
        <ele>199</ele>
        <time>2017-07-29T09:56:28Z</time>
      </trkpt>
      <trkpt lat="45.89013" lon="4.74998">
        <ele>199</ele>
        <time>2017-07-29T09:56:29Z</time>
      </trkpt>
      <trkpt lat="45.89013" lon="4.74989">
        <ele>199</ele>
        <time>2017-07-29T09:56:31Z</time>
      </trkpt>
      <trkpt lat="45.89012" lon="4.74984">
        <ele>199</ele>
        <time>2017-07-29T09:56:32Z</time>
      </trkpt>
      <trkpt lat="45.89011" lon="4.74974">
        <ele>199</ele>
        <time>2017-07-29T09:56:34Z</time>
      </trkpt>
      <trkpt lat="45.89012" lon="4.74968">
        <ele>199</ele>
        <time>2017-07-29T09:56:35Z</time>
      </trkpt>
      <trkpt lat="45.89013" lon="4.74956">
        <ele>199</ele>
        <time>2017-07-29T09:56:37Z</time>
      </trkpt>
      <trkpt lat="45.89015" lon="4.74952">
        <ele>199</ele>
        <time>2017-07-29T09:56:38Z</time>
      </trkpt>
      <trkpt lat="45.89017" lon="4.74943">
        <ele>199</ele>
        <time>2017-07-29T09:56:40Z</time>
      </trkpt>
      <trkpt lat="45.89019" lon="4.74937">
        <ele>199</ele>
        <time>2017-07-29T09:56:41Z</time>
      </trkpt>
      <trkpt lat="45.89021" lon="4.74925">
        <ele>199</ele>
        <time>2017-07-29T09:56:43Z</time>
      </trkpt>
      <trkpt lat="45.89022" lon="4.7492">
        <ele>199</ele>
        <time>2017-07-29T09:56:44Z</time>
      </trkpt>
      <trkpt lat="45.89026" lon="4.74912">
        <ele>199</ele>
        <time>2017-07-29T09:56:46Z</time>
      </trkpt>
      <trkpt lat="45.89028" lon="4.74907">
        <ele>199</ele>
        <time>2017-07-29T09:56:47Z</time>
      </trkpt>
      <trkpt lat="45.89033" lon="4.74897">
        <ele>199</ele>
        <time>2017-07-29T09:56:50Z</time>
      </trkpt>
      <trkpt lat="45.89035" lon="4.74895">
        <ele>199</ele>
        <time>2017-07-29T09:56:51Z</time>
      </trkpt>
      <trkpt lat="45.89041" lon="4.74889">
        <ele>199</ele>
        <time>2017-07-29T09:56:53Z</time>
      </trkpt>
      <trkpt lat="45.89043" lon="4.74884">
        <ele>199</ele>
        <time>2017-07-29T09:56:54Z</time>
      </trkpt>
      <trkpt lat="45.89045" lon="4.74873">
        <ele>199</ele>
        <time>2017-07-29T09:56:56Z</time>
      </trkpt>
      <trkpt lat="45.89044" lon="4.74868">
        <ele>199</ele>
        <time>2017-07-29T09:56:57Z</time>
      </trkpt>
      <trkpt lat="45.8904" lon="4.74858">
        <ele>199</ele>
        <time>2017-07-29T09:56:59Z</time>
      </trkpt>
      <trkpt lat="45.89039" lon="4.74851">
        <ele>199</ele>
        <time>2017-07-29T09:57:00Z</time>
      </trkpt>
      <trkpt lat="45.8904" lon="4.74839">
        <ele>199</ele>
        <time>2017-07-29T09:57:02Z</time>
      </trkpt>
      <trkpt lat="45.89039" lon="4.74833">
        <ele>199</ele>
        <time>2017-07-29T09:57:03Z</time>
      </trkpt>
      <trkpt lat="45.89038" lon="4.74823">
        <ele>199</ele>
        <time>2017-07-29T09:57:05Z</time>
      </trkpt>
      <trkpt lat="45.89037" lon="4.74817">
        <ele>199</ele>
        <time>2017-07-29T09:57:06Z</time>
      </trkpt>
      <trkpt lat="45.89036" lon="4.74806">
        <ele>198</ele>
        <time>2017-07-29T09:57:08Z</time>
      </trkpt>
      <trkpt lat="45.89034" lon="4.74799">
        <ele>198</ele>
        <time>2017-07-29T09:57:09Z</time>
      </trkpt>
      <trkpt lat="45.89033" lon="4.74793">
        <ele>198</ele>
        <time>2017-07-29T09:57:10Z</time>
      </trkpt>
      <trkpt lat="45.89032" lon="4.74786">
        <ele>198</ele>
        <time>2017-07-29T09:57:11Z</time>
      </trkpt>
      <trkpt lat="45.89031" lon="4.74778">
        <ele>198</ele>
        <time>2017-07-29T09:57:12Z</time>
      </trkpt>
      <trkpt lat="45.8903" lon="4.74771">
        <ele>198</ele>
        <time>2017-07-29T09:57:13Z</time>
      </trkpt>
      <trkpt lat="45.89029" lon="4.74763">
        <ele>198</ele>
        <time>2017-07-29T09:57:14Z</time>
      </trkpt>
      <trkpt lat="45.89027" lon="4.74754">
        <ele>198</ele>
        <time>2017-07-29T09:57:15Z</time>
      </trkpt>
      <trkpt lat="45.89027" lon="4.74746">
        <ele>196</ele>
        <time>2017-07-29T09:57:16Z</time>
      </trkpt>
      <trkpt lat="45.89027" lon="4.7474">
        <ele>196</ele>
        <time>2017-07-29T09:57:17Z</time>
      </trkpt>
      <trkpt lat="45.89022" lon="4.74731">
        <ele>196</ele>
        <time>2017-07-29T09:57:19Z</time>
      </trkpt>
      <trkpt lat="45.89014" lon="4.74726">
        <ele>196</ele>
        <time>2017-07-29T09:57:20Z</time>
      </trkpt>
      <trkpt lat="45.89008" lon="4.7472">
        <ele>195</ele>
        <time>2017-07-29T09:57:21Z</time>
      </trkpt>
      <trkpt lat="45.89002" lon="4.74718">
        <ele>195</ele>
        <time>2017-07-29T09:57:22Z</time>
      </trkpt>
      <trkpt lat="45.88994" lon="4.74719">
        <ele>196</ele>
        <time>2017-07-29T09:57:24Z</time>
      </trkpt>
      <trkpt lat="45.8899" lon="4.7472">
        <ele>196</ele>
        <time>2017-07-29T09:57:25Z</time>
      </trkpt>
      <trkpt lat="45.88984" lon="4.7472">
        <ele>196</ele>
        <time>2017-07-29T09:57:27Z</time>
      </trkpt>
      <trkpt lat="45.88981" lon="4.74715">
        <ele>196</ele>
        <time>2017-07-29T09:57:28Z</time>
      </trkpt>
      <trkpt lat="45.88981" lon="4.74707">
        <ele>196</ele>
        <time>2017-07-29T09:57:29Z</time>
      </trkpt>
      <trkpt lat="45.88986" lon="4.74699">
        <ele>196</ele>
        <time>2017-07-29T09:57:30Z</time>
      </trkpt>
      <trkpt lat="45.8899" lon="4.74694">
        <ele>196</ele>
        <time>2017-07-29T09:57:31Z</time>
      </trkpt>
      <trkpt lat="45.88995" lon="4.74688">
        <ele>195</ele>
        <time>2017-07-29T09:57:32Z</time>
      </trkpt>
      <trkpt lat="45.88996" lon="4.74681">
        <ele>195</ele>
        <time>2017-07-29T09:57:33Z</time>
      </trkpt>
      <trkpt lat="45.88997" lon="4.74674">
        <ele>195</ele>
        <time>2017-07-29T09:57:34Z</time>
      </trkpt>
      <trkpt lat="45.89" lon="4.74667">
        <ele>194</ele>
        <time>2017-07-29T09:57:35Z</time>
      </trkpt>
      <trkpt lat="45.89001" lon="4.74659">
        <ele>193</ele>
        <time>2017-07-29T09:57:36Z</time>
      </trkpt>
      <trkpt lat="45.89003" lon="4.74651">
        <ele>193</ele>
        <time>2017-07-29T09:57:37Z</time>
      </trkpt>
      <trkpt lat="45.89004" lon="4.74642">
        <ele>192</ele>
        <time>2017-07-29T09:57:38Z</time>
      </trkpt>
      <trkpt lat="45.89006" lon="4.74633">
        <ele>192</ele>
        <time>2017-07-29T09:57:39Z</time>
      </trkpt>
      <trkpt lat="45.89009" lon="4.74625">
        <ele>192</ele>
        <time>2017-07-29T09:57:40Z</time>
      </trkpt>
      <trkpt lat="45.89011" lon="4.74616">
        <ele>191</ele>
        <time>2017-07-29T09:57:41Z</time>
      </trkpt>
      <trkpt lat="45.89014" lon="4.74608">
        <ele>191</ele>
        <time>2017-07-29T09:57:42Z</time>
      </trkpt>
      <trkpt lat="45.89017" lon="4.74599">
        <ele>191</ele>
        <time>2017-07-29T09:57:43Z</time>
      </trkpt>
      <trkpt lat="45.89019" lon="4.7459">
        <ele>191</ele>
        <time>2017-07-29T09:57:44Z</time>
      </trkpt>
      <trkpt lat="45.8902" lon="4.74582">
        <ele>190</ele>
        <time>2017-07-29T09:57:45Z</time>
      </trkpt>
      <trkpt lat="45.89021" lon="4.74575">
        <ele>190</ele>
        <time>2017-07-29T09:57:46Z</time>
      </trkpt>
      <trkpt lat="45.89023" lon="4.74568">
        <ele>190</ele>
        <time>2017-07-29T09:57:47Z</time>
      </trkpt>
      <trkpt lat="45.89024" lon="4.74561">
        <ele>190</ele>
        <time>2017-07-29T09:57:48Z</time>
      </trkpt>
      <trkpt lat="45.89025" lon="4.74555">
        <ele>190</ele>
        <time>2017-07-29T09:57:49Z</time>
      </trkpt>
      <trkpt lat="45.89026" lon="4.74548">
        <ele>189</ele>
        <time>2017-07-29T09:57:50Z</time>
      </trkpt>
      <trkpt lat="45.89028" lon="4.74542">
        <ele>189</ele>
        <time>2017-07-29T09:57:51Z</time>
      </trkpt>
      <trkpt lat="45.89028" lon="4.74535">
        <ele>189</ele>
        <time>2017-07-29T09:57:52Z</time>
      </trkpt>
      <trkpt lat="45.8903" lon="4.74523">
        <ele>189</ele>
        <time>2017-07-29T09:57:54Z</time>
      </trkpt>
      <trkpt lat="45.89031" lon="4.74519">
        <ele>189</ele>
        <time>2017-07-29T09:57:55Z</time>
      </trkpt>
      <trkpt lat="45.89029" lon="4.74508">
        <ele>189</ele>
        <time>2017-07-29T09:57:58Z</time>
      </trkpt>
      <trkpt lat="45.89026" lon="4.74507">
        <ele>189</ele>
        <time>2017-07-29T09:57:59Z</time>
      </trkpt>
      <trkpt lat="45.8902" lon="4.74504">
        <ele>189</ele>
        <time>2017-07-29T09:58:01Z</time>
      </trkpt>
      <trkpt lat="45.89015" lon="4.745">
        <ele>189</ele>
        <time>2017-07-29T09:58:02Z</time>
      </trkpt>
      <trkpt lat="45.89008" lon="4.74497">
        <ele>189</ele>
        <time>2017-07-29T09:58:04Z</time>
      </trkpt>
      <trkpt lat="45.89004" lon="4.74495">
        <ele>189</ele>
        <time>2017-07-29T09:58:05Z</time>
      </trkpt>
      <trkpt lat="45.88999" lon="4.74484">
        <ele>189</ele>
        <time>2017-07-29T09:58:09Z</time>
      </trkpt>
      <trkpt lat="45.88999" lon="4.7448">
        <ele>189</ele>
        <time>2017-07-29T09:58:10Z</time>
      </trkpt>
      <trkpt lat="45.89001" lon="4.74468">
        <ele>188</ele>
        <time>2017-07-29T09:58:13Z</time>
      </trkpt>
      <trkpt lat="45.88999" lon="4.74464">
        <ele>189</ele>
        <time>2017-07-29T09:58:14Z</time>
      </trkpt>
      <trkpt lat="45.88995" lon="4.74458">
        <ele>188</ele>
        <time>2017-07-29T09:58:16Z</time>
      </trkpt>
      <trkpt lat="45.88991" lon="4.74456">
        <ele>188</ele>
        <time>2017-07-29T09:58:17Z</time>
      </trkpt>
      <trkpt lat="45.88985" lon="4.7445">
        <ele>188</ele>
        <time>2017-07-29T09:58:19Z</time>
      </trkpt>
      <trkpt lat="45.88982" lon="4.74446">
        <ele>188</ele>
        <time>2017-07-29T09:58:20Z</time>
      </trkpt>
      <trkpt lat="45.88979" lon="4.74441">
        <ele>188</ele>
        <time>2017-07-29T09:58:21Z</time>
      </trkpt>
      <trkpt lat="45.88974" lon="4.74438">
        <ele>188</ele>
        <time>2017-07-29T09:58:22Z</time>
      </trkpt>
      <trkpt lat="45.8897" lon="4.74436">
        <ele>188</ele>
        <time>2017-07-29T09:58:23Z</time>
      </trkpt>
      <trkpt lat="45.88965" lon="4.74434">
        <ele>188</ele>
        <time>2017-07-29T09:58:24Z</time>
      </trkpt>
      <trkpt lat="45.88957" lon="4.74431">
        <ele>188</ele>
        <time>2017-07-29T09:58:26Z</time>
      </trkpt>
      <trkpt lat="45.88954" lon="4.74429">
        <ele>188</ele>
        <time>2017-07-29T09:58:27Z</time>
      </trkpt>
      <trkpt lat="45.88947" lon="4.74425">
        <ele>188</ele>
        <time>2017-07-29T09:58:29Z</time>
      </trkpt>
      <trkpt lat="45.88944" lon="4.74422">
        <ele>188</ele>
        <time>2017-07-29T09:58:30Z</time>
      </trkpt>
      <trkpt lat="45.8894" lon="4.74411">
        <ele>188</ele>
        <time>2017-07-29T09:58:33Z</time>
      </trkpt>
      <trkpt lat="45.8894" lon="4.74407">
        <ele>188</ele>
        <time>2017-07-29T09:58:34Z</time>
      </trkpt>
      <trkpt lat="45.88943" lon="4.74396">
        <ele>188</ele>
        <time>2017-07-29T09:58:36Z</time>
      </trkpt>
      <trkpt lat="45.88944" lon="4.74391">
        <ele>188</ele>
        <time>2017-07-29T09:58:37Z</time>
      </trkpt>
      <trkpt lat="45.88946" lon="4.74382">
        <ele>188</ele>
        <time>2017-07-29T09:58:39Z</time>
      </trkpt>
      <trkpt lat="45.88947" lon="4.74377">
        <ele>188</ele>
        <time>2017-07-29T09:58:40Z</time>
      </trkpt>
      <trkpt lat="45.88952" lon="4.74368">
        <ele>188</ele>
        <time>2017-07-29T09:58:42Z</time>
      </trkpt>
      <trkpt lat="45.88954" lon="4.74363">
        <ele>188</ele>
        <time>2017-07-29T09:58:43Z</time>
      </trkpt>
      <trkpt lat="45.88957" lon="4.74357">
        <ele>188</ele>
        <time>2017-07-29T09:58:44Z</time>
      </trkpt>
      <trkpt lat="45.88959" lon="4.74352">
        <ele>188</ele>
        <time>2017-07-29T09:58:45Z</time>
      </trkpt>
      <trkpt lat="45.88962" lon="4.74346">
        <ele>188</ele>
        <time>2017-07-29T09:58:46Z</time>
      </trkpt>
      <trkpt lat="45.88965" lon="4.7434">
        <ele>188</ele>
        <time>2017-07-29T09:58:47Z</time>
      </trkpt>
      <trkpt lat="45.8897" lon="4.7433">
        <ele>187</ele>
        <time>2017-07-29T09:58:49Z</time>
      </trkpt>
      <trkpt lat="45.8897" lon="4.74324">
        <ele>187</ele>
        <time>2017-07-29T09:58:50Z</time>
      </trkpt>
      <trkpt lat="45.88972" lon="4.74312">
        <ele>187</ele>
        <time>2017-07-29T09:58:52Z</time>
      </trkpt>
      <trkpt lat="45.88974" lon="4.74306">
        <ele>187</ele>
        <time>2017-07-29T09:58:53Z</time>
      </trkpt>
      <trkpt lat="45.8898" lon="4.74299">
        <ele>187</ele>
        <time>2017-07-29T09:58:55Z</time>
      </trkpt>
      <trkpt lat="45.88982" lon="4.74295">
        <ele>187</ele>
        <time>2017-07-29T09:58:56Z</time>
      </trkpt>
      <trkpt lat="45.88988" lon="4.74286">
        <ele>187</ele>
        <time>2017-07-29T09:59:00Z</time>
      </trkpt>
      <trkpt lat="45.88991" lon="4.74285">
        <ele>187</ele>
        <time>2017-07-29T09:59:01Z</time>
      </trkpt>
      <trkpt lat="45.88993" lon="4.74278">
        <ele>187</ele>
        <time>2017-07-29T09:59:03Z</time>
      </trkpt>
      <trkpt lat="45.88997" lon="4.74276">
        <ele>187</ele>
        <time>2017-07-29T09:59:04Z</time>
      </trkpt>
      <trkpt lat="45.89002" lon="4.74275">
        <ele>187</ele>
        <time>2017-07-29T09:59:05Z</time>
      </trkpt>
      <trkpt lat="45.89007" lon="4.74274">
        <ele>187</ele>
        <time>2017-07-29T09:59:06Z</time>
      </trkpt>
      <trkpt lat="45.89011" lon="4.74274">
        <ele>187</ele>
        <time>2017-07-29T09:59:07Z</time>
      </trkpt>
      <trkpt lat="45.89016" lon="4.74274">
        <ele>187</ele>
        <time>2017-07-29T09:59:08Z</time>
      </trkpt>
      <trkpt lat="45.8902" lon="4.74274">
        <ele>187</ele>
        <time>2017-07-29T09:59:09Z</time>
      </trkpt>
      <trkpt lat="45.89025" lon="4.74274">
        <ele>187</ele>
        <time>2017-07-29T09:59:10Z</time>
      </trkpt>
      <trkpt lat="45.89027" lon="4.74266">
        <ele>187</ele>
        <time>2017-07-29T09:59:12Z</time>
      </trkpt>
      <trkpt lat="45.89028" lon="4.74261">
        <ele>187</ele>
        <time>2017-07-29T09:59:13Z</time>
      </trkpt>
      <trkpt lat="45.89028" lon="4.74256">
        <ele>187</ele>
        <time>2017-07-29T09:59:14Z</time>
      </trkpt>
      <trkpt lat="45.89025" lon="4.74248">
        <ele>186</ele>
        <time>2017-07-29T09:59:15Z</time>
      </trkpt>
      <trkpt lat="45.89022" lon="4.74237">
        <ele>186</ele>
        <time>2017-07-29T09:59:17Z</time>
      </trkpt>
      <trkpt lat="45.89023" lon="4.74235">
        <ele>186</ele>
        <time>2017-07-29T09:59:18Z</time>
      </trkpt>
      <trkpt lat="45.89019" lon="4.74225">
        <ele>186</ele>
        <time>2017-07-29T09:59:21Z</time>
      </trkpt>
      <trkpt lat="45.8902" lon="4.74221">
        <ele>186</ele>
        <time>2017-07-29T09:59:22Z</time>
      </trkpt>
      <trkpt lat="45.89022" lon="4.74209">
        <ele>186</ele>
        <time>2017-07-29T09:59:25Z</time>
      </trkpt>
      <trkpt lat="45.89022" lon="4.74204">
        <ele>186</ele>
        <time>2017-07-29T09:59:26Z</time>
      </trkpt>
      <trkpt lat="45.89025" lon="4.74192">
        <ele>186</ele>
        <time>2017-07-29T09:59:28Z</time>
      </trkpt>
      <trkpt lat="45.89025" lon="4.74185">
        <ele>186</ele>
        <time>2017-07-29T09:59:29Z</time>
      </trkpt>
      <trkpt lat="45.89026" lon="4.74173">
        <ele>185</ele>
        <time>2017-07-29T09:59:31Z</time>
      </trkpt>
      <trkpt lat="45.89027" lon="4.74168">
        <ele>185</ele>
        <time>2017-07-29T09:59:32Z</time>
      </trkpt>
      <trkpt lat="45.89028" lon="4.74157">
        <ele>185</ele>
        <time>2017-07-29T09:59:34Z</time>
      </trkpt>
      <trkpt lat="45.89031" lon="4.74152">
        <ele>185</ele>
        <time>2017-07-29T09:59:35Z</time>
      </trkpt>
      <trkpt lat="45.89034" lon="4.74146">
        <ele>185</ele>
        <time>2017-07-29T09:59:36Z</time>
      </trkpt>
      <trkpt lat="45.89036" lon="4.7414">
        <ele>185</ele>
        <time>2017-07-29T09:59:37Z</time>
      </trkpt>
      <trkpt lat="45.89038" lon="4.74134">
        <ele>185</ele>
        <time>2017-07-29T09:59:38Z</time>
      </trkpt>
      <trkpt lat="45.8904" lon="4.74127">
        <ele>185</ele>
        <time>2017-07-29T09:59:39Z</time>
      </trkpt>
      <trkpt lat="45.89041" lon="4.7412">
        <ele>185</ele>
        <time>2017-07-29T09:59:40Z</time>
      </trkpt>
      <trkpt lat="45.8904" lon="4.74112">
        <ele>185</ele>
        <time>2017-07-29T09:59:41Z</time>
      </trkpt>
      <trkpt lat="45.8904" lon="4.74105">
        <ele>185</ele>
        <time>2017-07-29T09:59:42Z</time>
      </trkpt>
      <trkpt lat="45.89039" lon="4.74097">
        <ele>185</ele>
        <time>2017-07-29T09:59:43Z</time>
      </trkpt>
      <trkpt lat="45.89038" lon="4.74089">
        <ele>185</ele>
        <time>2017-07-29T09:59:44Z</time>
      </trkpt>
      <trkpt lat="45.89038" lon="4.74082">
        <ele>184</ele>
        <time>2017-07-29T09:59:45Z</time>
      </trkpt>
      <trkpt lat="45.89036" lon="4.74075">
        <ele>184</ele>
        <time>2017-07-29T09:59:46Z</time>
      </trkpt>
      <trkpt lat="45.89037" lon="4.74068">
        <ele>184</ele>
        <time>2017-07-29T09:59:47Z</time>
      </trkpt>
      <trkpt lat="45.89036" lon="4.74061">
        <ele>184</ele>
        <time>2017-07-29T09:59:48Z</time>
      </trkpt>
      <trkpt lat="45.89036" lon="4.74054">
        <ele>184</ele>
        <time>2017-07-29T09:59:49Z</time>
      </trkpt>
      <trkpt lat="45.89035" lon="4.74047">
        <ele>184</ele>
        <time>2017-07-29T09:59:50Z</time>
      </trkpt>
      <trkpt lat="45.89034" lon="4.74039">
        <ele>184</ele>
        <time>2017-07-29T09:59:51Z</time>
      </trkpt>
      <trkpt lat="45.89034" lon="4.74033">
        <ele>184</ele>
        <time>2017-07-29T09:59:52Z</time>
      </trkpt>
      <trkpt lat="45.89034" lon="4.74026">
        <ele>184</ele>
        <time>2017-07-29T09:59:53Z</time>
      </trkpt>
      <trkpt lat="45.89035" lon="4.74014">
        <ele>184</ele>
        <time>2017-07-29T09:59:55Z</time>
      </trkpt>
      <trkpt lat="45.89038" lon="4.74009">
        <ele>184</ele>
        <time>2017-07-29T09:59:56Z</time>
      </trkpt>
      <trkpt lat="45.89043" lon="4.74006">
        <ele>184</ele>
        <time>2017-07-29T09:59:57Z</time>
      </trkpt>
      <trkpt lat="45.89048" lon="4.74004">
        <ele>184</ele>
        <time>2017-07-29T09:59:58Z</time>
      </trkpt>
      <trkpt lat="45.89053" lon="4.74003">
        <ele>184</ele>
        <time>2017-07-29T09:59:59Z</time>
      </trkpt>
      <trkpt lat="45.89057" lon="4.74002">
        <ele>184</ele>
        <time>2017-07-29T10:00:00Z</time>
      </trkpt>
      <trkpt lat="45.89066" lon="4.73999">
        <ele>184</ele>
        <time>2017-07-29T10:00:02Z</time>
      </trkpt>
      <trkpt lat="45.8907" lon="4.73999">
        <ele>183</ele>
        <time>2017-07-29T10:00:03Z</time>
      </trkpt>
      <trkpt lat="45.89074" lon="4.73998">
        <ele>183</ele>
        <time>2017-07-29T10:00:04Z</time>
      </trkpt>
      <trkpt lat="45.89079" lon="4.73997">
        <ele>183</ele>
        <time>2017-07-29T10:00:05Z</time>
      </trkpt>
      <trkpt lat="45.89083" lon="4.73995">
        <ele>183</ele>
        <time>2017-07-29T10:00:06Z</time>
      </trkpt>
      <trkpt lat="45.89088" lon="4.73993">
        <ele>183</ele>
        <time>2017-07-29T10:00:07Z</time>
      </trkpt>
      <trkpt lat="45.89096" lon="4.7399">
        <ele>183</ele>
        <time>2017-07-29T10:00:09Z</time>
      </trkpt>
      <trkpt lat="45.891" lon="4.73989">
        <ele>183</ele>
        <time>2017-07-29T10:00:10Z</time>
      </trkpt>
      <trkpt lat="45.89104" lon="4.73989">
        <ele>183</ele>
        <time>2017-07-29T10:00:11Z</time>
      </trkpt>
      <trkpt lat="45.89109" lon="4.73988">
        <ele>183</ele>
        <time>2017-07-29T10:00:12Z</time>
      </trkpt>
      <trkpt lat="45.89117" lon="4.73983">
        <ele>183</ele>
        <time>2017-07-29T10:00:14Z</time>
      </trkpt>
      <trkpt lat="45.89119" lon="4.73977">
        <ele>183</ele>
        <time>2017-07-29T10:00:15Z</time>
      </trkpt>
      <trkpt lat="45.89119" lon="4.73964">
        <ele>183</ele>
        <time>2017-07-29T10:00:17Z</time>
      </trkpt>
      <trkpt lat="45.89119" lon="4.73958">
        <ele>183</ele>
        <time>2017-07-29T10:00:18Z</time>
      </trkpt>
      <trkpt lat="45.8912" lon="4.73951">
        <ele>183</ele>
        <time>2017-07-29T10:00:19Z</time>
      </trkpt>
      <trkpt lat="45.89118" lon="4.73944">
        <ele>183</ele>
        <time>2017-07-29T10:00:20Z</time>
      </trkpt>
      <trkpt lat="45.89117" lon="4.73937">
        <ele>183</ele>
        <time>2017-07-29T10:00:21Z</time>
      </trkpt>
      <trkpt lat="45.89116" lon="4.73929">
        <ele>183</ele>
        <time>2017-07-29T10:00:22Z</time>
      </trkpt>
      <trkpt lat="45.89116" lon="4.73921">
        <ele>183</ele>
        <time>2017-07-29T10:00:23Z</time>
      </trkpt>
      <trkpt lat="45.89117" lon="4.73913">
        <ele>182</ele>
        <time>2017-07-29T10:00:24Z</time>
      </trkpt>
      <trkpt lat="45.89118" lon="4.73905">
        <ele>182</ele>
        <time>2017-07-29T10:00:25Z</time>
      </trkpt>
      <trkpt lat="45.89118" lon="4.73897">
        <ele>182</ele>
        <time>2017-07-29T10:00:26Z</time>
      </trkpt>
      <trkpt lat="45.89119" lon="4.73889">
        <ele>182</ele>
        <time>2017-07-29T10:00:27Z</time>
      </trkpt>
      <trkpt lat="45.8912" lon="4.73882">
        <ele>182</ele>
        <time>2017-07-29T10:00:28Z</time>
      </trkpt>
      <trkpt lat="45.89119" lon="4.73875">
        <ele>182</ele>
        <time>2017-07-29T10:00:29Z</time>
      </trkpt>
      <trkpt lat="45.89119" lon="4.73868">
        <ele>182</ele>
        <time>2017-07-29T10:00:30Z</time>
      </trkpt>
      <trkpt lat="45.89119" lon="4.73861">
        <ele>182</ele>
        <time>2017-07-29T10:00:31Z</time>
      </trkpt>
      <trkpt lat="45.89119" lon="4.73854">
        <ele>182</ele>
        <time>2017-07-29T10:00:32Z</time>
      </trkpt>
      <trkpt lat="45.89118" lon="4.73847">
        <ele>182</ele>
        <time>2017-07-29T10:00:33Z</time>
      </trkpt>
      <trkpt lat="45.89117" lon="4.73838">
        <ele>182</ele>
        <time>2017-07-29T10:00:34Z</time>
      </trkpt>
      <trkpt lat="45.89116" lon="4.7383">
        <ele>181</ele>
        <time>2017-07-29T10:00:35Z</time>
      </trkpt>
      <trkpt lat="45.89115" lon="4.73822">
        <ele>181</ele>
        <time>2017-07-29T10:00:36Z</time>
      </trkpt>
      <trkpt lat="45.89114" lon="4.73814">
        <ele>181</ele>
        <time>2017-07-29T10:00:37Z</time>
      </trkpt>
      <trkpt lat="45.89114" lon="4.73807">
        <ele>181</ele>
        <time>2017-07-29T10:00:38Z</time>
      </trkpt>
      <trkpt lat="45.89114" lon="4.738">
        <ele>181</ele>
        <time>2017-07-29T10:00:39Z</time>
      </trkpt>
      <trkpt lat="45.89113" lon="4.73793">
        <ele>181</ele>
        <time>2017-07-29T10:00:40Z</time>
      </trkpt>
      <trkpt lat="45.89113" lon="4.73786">
        <ele>181</ele>
        <time>2017-07-29T10:00:41Z</time>
      </trkpt>
      <trkpt lat="45.89113" lon="4.7378">
        <ele>181</ele>
        <time>2017-07-29T10:00:42Z</time>
      </trkpt>
      <trkpt lat="45.89113" lon="4.73767">
        <ele>181</ele>
        <time>2017-07-29T10:00:44Z</time>
      </trkpt>
      <trkpt lat="45.89113" lon="4.73761">
        <ele>181</ele>
        <time>2017-07-29T10:00:45Z</time>
      </trkpt>
      <trkpt lat="45.89113" lon="4.73749">
        <ele>181</ele>
        <time>2017-07-29T10:00:47Z</time>
      </trkpt>
      <trkpt lat="45.89113" lon="4.73743">
        <ele>181</ele>
        <time>2017-07-29T10:00:48Z</time>
      </trkpt>
      <trkpt lat="45.89114" lon="4.73736">
        <ele>181</ele>
        <time>2017-07-29T10:00:49Z</time>
      </trkpt>
      <trkpt lat="45.89115" lon="4.73729">
        <ele>181</ele>
        <time>2017-07-29T10:00:50Z</time>
      </trkpt>
      <trkpt lat="45.89115" lon="4.73722">
        <ele>181</ele>
        <time>2017-07-29T10:00:51Z</time>
      </trkpt>
      <trkpt lat="45.89114" lon="4.73715">
        <ele>182</ele>
        <time>2017-07-29T10:00:52Z</time>
      </trkpt>
      <trkpt lat="45.89115" lon="4.73702">
        <ele>182</ele>
        <time>2017-07-29T10:00:54Z</time>
      </trkpt>
      <trkpt lat="45.89115" lon="4.73696">
        <ele>182</ele>
        <time>2017-07-29T10:00:55Z</time>
      </trkpt>
      <trkpt lat="45.89115" lon="4.73684">
        <ele>182</ele>
        <time>2017-07-29T10:00:57Z</time>
      </trkpt>
      <trkpt lat="45.89117" lon="4.73678">
        <ele>182</ele>
        <time>2017-07-29T10:00:58Z</time>
      </trkpt>
      <trkpt lat="45.89118" lon="4.73672">
        <ele>182</ele>
        <time>2017-07-29T10:00:59Z</time>
      </trkpt>
      <trkpt lat="45.89119" lon="4.73665">
        <ele>182</ele>
        <time>2017-07-29T10:01:00Z</time>
      </trkpt>
      <trkpt lat="45.89121" lon="4.73659">
        <ele>182</ele>
        <time>2017-07-29T10:01:01Z</time>
      </trkpt>
      <trkpt lat="45.89121" lon="4.73652">
        <ele>182</ele>
        <time>2017-07-29T10:01:02Z</time>
      </trkpt>
      <trkpt lat="45.89122" lon="4.7364">
        <ele>181</ele>
        <time>2017-07-29T10:01:04Z</time>
      </trkpt>
      <trkpt lat="45.89124" lon="4.73636">
        <ele>181</ele>
        <time>2017-07-29T10:01:05Z</time>
      </trkpt>
      <trkpt lat="45.89118" lon="4.73625">
        <ele>181</ele>
        <time>2017-07-29T10:01:07Z</time>
      </trkpt>
      <trkpt lat="45.89115" lon="4.73619">
        <ele>181</ele>
        <time>2017-07-29T10:01:08Z</time>
      </trkpt>
      <trkpt lat="45.8911" lon="4.73612">
        <ele>181</ele>
        <time>2017-07-29T10:01:09Z</time>
      </trkpt>
      <trkpt lat="45.89107" lon="4.73606">
        <ele>181</ele>
        <time>2017-07-29T10:01:10Z</time>
      </trkpt>
      <trkpt lat="45.89104" lon="4.73599">
        <ele>181</ele>
        <time>2017-07-29T10:01:11Z</time>
      </trkpt>
      <trkpt lat="45.89102" lon="4.73593">
        <ele>181</ele>
        <time>2017-07-29T10:01:12Z</time>
      </trkpt>
      <trkpt lat="45.89099" lon="4.73587">
        <ele>181</ele>
        <time>2017-07-29T10:01:13Z</time>
      </trkpt>
      <trkpt lat="45.89097" lon="4.73581">
        <ele>181</ele>
        <time>2017-07-29T10:01:14Z</time>
      </trkpt>
      <trkpt lat="45.89095" lon="4.7357">
        <ele>181</ele>
        <time>2017-07-29T10:01:16Z</time>
      </trkpt>
      <trkpt lat="45.89094" lon="4.73563">
        <ele>181</ele>
        <time>2017-07-29T10:01:17Z</time>
      </trkpt>
      <trkpt lat="45.89093" lon="4.73556">
        <ele>181</ele>
        <time>2017-07-29T10:01:18Z</time>
      </trkpt>
      <trkpt lat="45.89093" lon="4.7355">
        <ele>181</ele>
        <time>2017-07-29T10:01:19Z</time>
      </trkpt>
      <trkpt lat="45.89094" lon="4.73538">
        <ele>181</ele>
        <time>2017-07-29T10:01:21Z</time>
      </trkpt>
      <trkpt lat="45.89094" lon="4.73532">
        <ele>181</ele>
        <time>2017-07-29T10:01:22Z</time>
      </trkpt>
      <trkpt lat="45.89095" lon="4.73519">
        <ele>181</ele>
        <time>2017-07-29T10:01:24Z</time>
      </trkpt>
      <trkpt lat="45.89095" lon="4.73513">
        <ele>181</ele>
        <time>2017-07-29T10:01:25Z</time>
      </trkpt>
      <trkpt lat="45.89095" lon="4.73507">
        <ele>181</ele>
        <time>2017-07-29T10:01:26Z</time>
      </trkpt>
      <trkpt lat="45.89094" lon="4.735">
        <ele>181</ele>
        <time>2017-07-29T10:01:27Z</time>
      </trkpt>
      <trkpt lat="45.89093" lon="4.73493">
        <ele>181</ele>
        <time>2017-07-29T10:01:28Z</time>
      </trkpt>
      <trkpt lat="45.89093" lon="4.73486">
        <ele>180</ele>
        <time>2017-07-29T10:01:29Z</time>
      </trkpt>
      <trkpt lat="45.89092" lon="4.73475">
        <ele>180</ele>
        <time>2017-07-29T10:01:31Z</time>
      </trkpt>
      <trkpt lat="45.89091" lon="4.7347">
        <ele>180</ele>
        <time>2017-07-29T10:01:32Z</time>
      </trkpt>
      <trkpt lat="45.8909" lon="4.73461">
        <ele>180</ele>
        <time>2017-07-29T10:01:34Z</time>
      </trkpt>
      <trkpt lat="45.8909" lon="4.73456">
        <ele>180</ele>
        <time>2017-07-29T10:01:35Z</time>
      </trkpt>
      <trkpt lat="45.8909" lon="4.73446">
        <ele>180</ele>
        <time>2017-07-29T10:01:37Z</time>
      </trkpt>
      <trkpt lat="45.8909" lon="4.7344">
        <ele>180</ele>
        <time>2017-07-29T10:01:38Z</time>
      </trkpt>
      <trkpt lat="45.89091" lon="4.7343">
        <ele>180</ele>
        <time>2017-07-29T10:01:40Z</time>
      </trkpt>
      <trkpt lat="45.89088" lon="4.7342">
        <ele>180</ele>
        <time>2017-07-29T10:01:44Z</time>
      </trkpt>
      <trkpt lat="45.89087" lon="4.73418">
        <ele>180</ele>
        <time>2017-07-29T10:01:45Z</time>
      </trkpt>
      <trkpt lat="45.89086" lon="4.7341">
        <ele>180</ele>
        <time>2017-07-29T10:01:50Z</time>
      </trkpt>
      <trkpt lat="45.89085" lon="4.73407">
        <ele>180</ele>
        <time>2017-07-29T10:01:51Z</time>
      </trkpt>
      <trkpt lat="45.89082" lon="4.73398">
        <ele>180</ele>
        <time>2017-07-29T10:01:54Z</time>
      </trkpt>
      <trkpt lat="45.89082" lon="4.73395">
        <ele>180</ele>
        <time>2017-07-29T10:01:55Z</time>
      </trkpt>
      <trkpt lat="45.89081" lon="4.73385">
        <ele>180</ele>
        <time>2017-07-29T10:01:57Z</time>
      </trkpt>
      <trkpt lat="45.89081" lon="4.7338">
        <ele>180</ele>
        <time>2017-07-29T10:01:58Z</time>
      </trkpt>
      <trkpt lat="45.89081" lon="4.73368">
        <ele>180</ele>
        <time>2017-07-29T10:02:00Z</time>
      </trkpt>
      <trkpt lat="45.8908" lon="4.73362">
        <ele>180</ele>
        <time>2017-07-29T10:02:01Z</time>
      </trkpt>
      <trkpt lat="45.8908" lon="4.73352">
        <ele>180</ele>
        <time>2017-07-29T10:02:03Z</time>
      </trkpt>
      <trkpt lat="45.8908" lon="4.73346">
        <ele>179</ele>
        <time>2017-07-29T10:02:04Z</time>
      </trkpt>
      <trkpt lat="45.89079" lon="4.73335">
        <ele>179</ele>
        <time>2017-07-29T10:02:06Z</time>
      </trkpt>
      <trkpt lat="45.8908" lon="4.73329">
        <ele>179</ele>
        <time>2017-07-29T10:02:07Z</time>
      </trkpt>
      <trkpt lat="45.89077" lon="4.73319">
        <ele>179</ele>
        <time>2017-07-29T10:02:09Z</time>
      </trkpt>
      <trkpt lat="45.89077" lon="4.73313">
        <ele>179</ele>
        <time>2017-07-29T10:02:10Z</time>
      </trkpt>
      <trkpt lat="45.89075" lon="4.73302">
        <ele>179</ele>
        <time>2017-07-29T10:02:12Z</time>
      </trkpt>
      <trkpt lat="45.89074" lon="4.73297">
        <ele>179</ele>
        <time>2017-07-29T10:02:13Z</time>
      </trkpt>
      <trkpt lat="45.89071" lon="4.73287">
        <ele>179</ele>
        <time>2017-07-29T10:02:15Z</time>
      </trkpt>
      <trkpt lat="45.8907" lon="4.73282">
        <ele>179</ele>
        <time>2017-07-29T10:02:16Z</time>
      </trkpt>
      <trkpt lat="45.89068" lon="4.73276">
        <ele>179</ele>
        <time>2017-07-29T10:02:17Z</time>
      </trkpt>
      <trkpt lat="45.89067" lon="4.73269">
        <ele>179</ele>
        <time>2017-07-29T10:02:18Z</time>
      </trkpt>
      <trkpt lat="45.89066" lon="4.73262">
        <ele>179</ele>
        <time>2017-07-29T10:02:19Z</time>
      </trkpt>
      <trkpt lat="45.89065" lon="4.73256">
        <ele>179</ele>
        <time>2017-07-29T10:02:20Z</time>
      </trkpt>
      <trkpt lat="45.89064" lon="4.73245">
        <ele>180</ele>
        <time>2017-07-29T10:02:22Z</time>
      </trkpt>
      <trkpt lat="45.89063" lon="4.7324">
        <ele>180</ele>
        <time>2017-07-29T10:02:23Z</time>
      </trkpt>
      <trkpt lat="45.89062" lon="4.73228">
        <ele>180</ele>
        <time>2017-07-29T10:02:25Z</time>
      </trkpt>
      <trkpt lat="45.89062" lon="4.73221">
        <ele>180</ele>
        <time>2017-07-29T10:02:26Z</time>
      </trkpt>
      <trkpt lat="45.89061" lon="4.73208">
        <ele>180</ele>
        <time>2017-07-29T10:02:28Z</time>
      </trkpt>
      <trkpt lat="45.89061" lon="4.73202">
        <ele>180</ele>
        <time>2017-07-29T10:02:29Z</time>
      </trkpt>
      <trkpt lat="45.89061" lon="4.73195">
        <ele>180</ele>
        <time>2017-07-29T10:02:30Z</time>
      </trkpt>
      <trkpt lat="45.89061" lon="4.73188">
        <ele>180</ele>
        <time>2017-07-29T10:02:31Z</time>
      </trkpt>
      <trkpt lat="45.8906" lon="4.73176">
        <ele>180</ele>
        <time>2017-07-29T10:02:33Z</time>
      </trkpt>
      <trkpt lat="45.8906" lon="4.73169">
        <ele>180</ele>
        <time>2017-07-29T10:02:34Z</time>
      </trkpt>
      <trkpt lat="45.89059" lon="4.73157">
        <ele>181</ele>
        <time>2017-07-29T10:02:36Z</time>
      </trkpt>
      <trkpt lat="45.89059" lon="4.73151">
        <ele>181</ele>
        <time>2017-07-29T10:02:37Z</time>
      </trkpt>
      <trkpt lat="45.8906" lon="4.7314">
        <ele>181</ele>
        <time>2017-07-29T10:02:39Z</time>
      </trkpt>
      <trkpt lat="45.8906" lon="4.73134">
        <ele>181</ele>
        <time>2017-07-29T10:02:40Z</time>
      </trkpt>
      <trkpt lat="45.89061" lon="4.73124">
        <ele>182</ele>
        <time>2017-07-29T10:02:42Z</time>
      </trkpt>
      <trkpt lat="45.8906" lon="4.73118">
        <ele>182</ele>
        <time>2017-07-29T10:02:43Z</time>
      </trkpt>
      <trkpt lat="45.8906" lon="4.73106">
        <ele>182</ele>
        <time>2017-07-29T10:02:45Z</time>
      </trkpt>
      <trkpt lat="45.8906" lon="4.73099">
        <ele>182</ele>
        <time>2017-07-29T10:02:46Z</time>
      </trkpt>
      <trkpt lat="45.89061" lon="4.73087">
        <ele>182</ele>
        <time>2017-07-29T10:02:48Z</time>
      </trkpt>
      <trkpt lat="45.89062" lon="4.7308">
        <ele>182</ele>
        <time>2017-07-29T10:02:49Z</time>
      </trkpt>
      <trkpt lat="45.89061" lon="4.73068">
        <ele>182</ele>
        <time>2017-07-29T10:02:51Z</time>
      </trkpt>
      <trkpt lat="45.89061" lon="4.73062">
        <ele>182</ele>
        <time>2017-07-29T10:02:52Z</time>
      </trkpt>
      <trkpt lat="45.89058" lon="4.73057">
        <ele>182</ele>
        <time>2017-07-29T10:02:53Z</time>
      </trkpt>
      <trkpt lat="45.89053" lon="4.73054">
        <ele>182</ele>
        <time>2017-07-29T10:02:54Z</time>
      </trkpt>
      <trkpt lat="45.89048" lon="4.73053">
        <ele>182</ele>
        <time>2017-07-29T10:02:55Z</time>
      </trkpt>
      <trkpt lat="45.89042" lon="4.73054">
        <ele>182</ele>
        <time>2017-07-29T10:02:56Z</time>
      </trkpt>
      <trkpt lat="45.89037" lon="4.73055">
        <ele>182</ele>
        <time>2017-07-29T10:02:57Z</time>
      </trkpt>
      <trkpt lat="45.89031" lon="4.73056">
        <ele>182</ele>
        <time>2017-07-29T10:02:58Z</time>
      </trkpt>
      <trkpt lat="45.89026" lon="4.73056">
        <ele>182</ele>
        <time>2017-07-29T10:02:59Z</time>
      </trkpt>
      <trkpt lat="45.8902" lon="4.73056">
        <ele>182</ele>
        <time>2017-07-29T10:03:00Z</time>
      </trkpt>
      <trkpt lat="45.89015" lon="4.73057">
        <ele>182</ele>
        <time>2017-07-29T10:03:01Z</time>
      </trkpt>
      <trkpt lat="45.8901" lon="4.73059">
        <ele>182</ele>
        <time>2017-07-29T10:03:02Z</time>
      </trkpt>
      <trkpt lat="45.89004" lon="4.7306">
        <ele>182</ele>
        <time>2017-07-29T10:03:03Z</time>
      </trkpt>
      <trkpt lat="45.88999" lon="4.73062">
        <ele>183</ele>
        <time>2017-07-29T10:03:04Z</time>
      </trkpt>
      <trkpt lat="45.88994" lon="4.73063">
        <ele>183</ele>
        <time>2017-07-29T10:03:05Z</time>
      </trkpt>
      <trkpt lat="45.8899" lon="4.73065">
        <ele>183</ele>
        <time>2017-07-29T10:03:06Z</time>
      </trkpt>
      <trkpt lat="45.88984" lon="4.73065">
        <ele>183</ele>
        <time>2017-07-29T10:03:07Z</time>
      </trkpt>
      <trkpt lat="45.88979" lon="4.73067">
        <ele>183</ele>
        <time>2017-07-29T10:03:08Z</time>
      </trkpt>
      <trkpt lat="45.88975" lon="4.73068">
        <ele>183</ele>
        <time>2017-07-29T10:03:09Z</time>
      </trkpt>
      <trkpt lat="45.8897" lon="4.7307">
        <ele>183</ele>
        <time>2017-07-29T10:03:10Z</time>
      </trkpt>
      <trkpt lat="45.88965" lon="4.73069">
        <ele>183</ele>
        <time>2017-07-29T10:03:11Z</time>
      </trkpt>
      <trkpt lat="45.8896" lon="4.73071">
        <ele>183</ele>
        <time>2017-07-29T10:03:12Z</time>
      </trkpt>
      <trkpt lat="45.88955" lon="4.73071">
        <ele>183</ele>
        <time>2017-07-29T10:03:13Z</time>
      </trkpt>
      <trkpt lat="45.8895" lon="4.73073">
        <ele>183</ele>
        <time>2017-07-29T10:03:14Z</time>
      </trkpt>
      <trkpt lat="45.88945" lon="4.73074">
        <ele>183</ele>
        <time>2017-07-29T10:03:15Z</time>
      </trkpt>
      <trkpt lat="45.8894" lon="4.73075">
        <ele>183</ele>
        <time>2017-07-29T10:03:16Z</time>
      </trkpt>
      <trkpt lat="45.88935" lon="4.73076">
        <ele>183</ele>
        <time>2017-07-29T10:03:17Z</time>
      </trkpt>
      <trkpt lat="45.88931" lon="4.73077">
        <ele>183</ele>
        <time>2017-07-29T10:03:18Z</time>
      </trkpt>
      <trkpt lat="45.88926" lon="4.73078">
        <ele>183</ele>
        <time>2017-07-29T10:03:19Z</time>
      </trkpt>
      <trkpt lat="45.88921" lon="4.73078">
        <ele>183</ele>
        <time>2017-07-29T10:03:20Z</time>
      </trkpt>
      <trkpt lat="45.88912" lon="4.73079">
        <ele>183</ele>
        <time>2017-07-29T10:03:22Z</time>
      </trkpt>
      <trkpt lat="45.88907" lon="4.7308">
        <ele>183</ele>
        <time>2017-07-29T10:03:23Z</time>
      </trkpt>
      <trkpt lat="45.88899" lon="4.73082">
        <ele>183</ele>
        <time>2017-07-29T10:03:25Z</time>
      </trkpt>
      <trkpt lat="45.88894" lon="4.73083">
        <ele>183</ele>
        <time>2017-07-29T10:03:26Z</time>
      </trkpt>
      <trkpt lat="45.8889" lon="4.73085">
        <ele>182</ele>
        <time>2017-07-29T10:03:27Z</time>
      </trkpt>
      <trkpt lat="45.88885" lon="4.73086">
        <ele>182</ele>
        <time>2017-07-29T10:03:28Z</time>
      </trkpt>
      <trkpt lat="45.8888" lon="4.73087">
        <ele>182</ele>
        <time>2017-07-29T10:03:29Z</time>
      </trkpt>
      <trkpt lat="45.88875" lon="4.73088">
        <ele>182</ele>
        <time>2017-07-29T10:03:30Z</time>
      </trkpt>
      <trkpt lat="45.88869" lon="4.73089">
        <ele>182</ele>
        <time>2017-07-29T10:03:31Z</time>
      </trkpt>
      <trkpt lat="45.88864" lon="4.7309">
        <ele>182</ele>
        <time>2017-07-29T10:03:32Z</time>
      </trkpt>
      <trkpt lat="45.88859" lon="4.73091">
        <ele>182</ele>
        <time>2017-07-29T10:03:33Z</time>
      </trkpt>
      <trkpt lat="45.88854" lon="4.73093">
        <ele>182</ele>
        <time>2017-07-29T10:03:34Z</time>
      </trkpt>
      <trkpt lat="45.8885" lon="4.73094">
        <ele>182</ele>
        <time>2017-07-29T10:03:35Z</time>
      </trkpt>
      <trkpt lat="45.88845" lon="4.73095">
        <ele>182</ele>
        <time>2017-07-29T10:03:36Z</time>
      </trkpt>
      <trkpt lat="45.8884" lon="4.73095">
        <ele>182</ele>
        <time>2017-07-29T10:03:37Z</time>
      </trkpt>
      <trkpt lat="45.88834" lon="4.73093">
        <ele>182</ele>
        <time>2017-07-29T10:03:38Z</time>
      </trkpt>
      <trkpt lat="45.8883" lon="4.73094">
        <ele>182</ele>
        <time>2017-07-29T10:03:39Z</time>
      </trkpt>
      <trkpt lat="45.88825" lon="4.73096">
        <ele>182</ele>
        <time>2017-07-29T10:03:40Z</time>
      </trkpt>
      <trkpt lat="45.88818" lon="4.73096">
        <ele>182</ele>
        <time>2017-07-29T10:03:42Z</time>
      </trkpt>
      <trkpt lat="45.88815" lon="4.73097">
        <ele>182</ele>
        <time>2017-07-29T10:03:43Z</time>
      </trkpt>
      <trkpt lat="45.88808" lon="4.73103">
        <ele>182</ele>
        <time>2017-07-29T10:03:46Z</time>
      </trkpt>
      <trkpt lat="45.88806" lon="4.73104">
        <ele>182</ele>
        <time>2017-07-29T10:03:47Z</time>
      </trkpt>
      <trkpt lat="45.88799" lon="4.73104">
        <ele>182</ele>
        <time>2017-07-29T10:03:51Z</time>
      </trkpt>
      <trkpt lat="45.88797" lon="4.73103">
        <ele>182</ele>
        <time>2017-07-29T10:03:52Z</time>
      </trkpt>
      <trkpt lat="45.88788" lon="4.73103">
        <ele>182</ele>
        <time>2017-07-29T10:03:55Z</time>
      </trkpt>
      <trkpt lat="45.88785" lon="4.73103">
        <ele>182</ele>
        <time>2017-07-29T10:03:56Z</time>
      </trkpt>
      <trkpt lat="45.88777" lon="4.73103">
        <ele>182</ele>
        <time>2017-07-29T10:03:59Z</time>
      </trkpt>
      <trkpt lat="45.88775" lon="4.73102">
        <ele>183</ele>
        <time>2017-07-29T10:04:00Z</time>
      </trkpt>
      <trkpt lat="45.88775" lon="4.73091">
        <ele>183</ele>
        <time>2017-07-29T10:04:04Z</time>
      </trkpt>
      <trkpt lat="45.88775" lon="4.73086">
        <ele>183</ele>
        <time>2017-07-29T10:04:05Z</time>
      </trkpt>
      <trkpt lat="45.88775" lon="4.73076">
        <ele>184</ele>
        <time>2017-07-29T10:04:07Z</time>
      </trkpt>
      <trkpt lat="45.88776" lon="4.73073">
        <ele>184</ele>
        <time>2017-07-29T10:04:08Z</time>
      </trkpt>
      <trkpt lat="45.88774" lon="4.7306">
        <ele>184</ele>
        <time>2017-07-29T10:04:11Z</time>
      </trkpt>
      <trkpt lat="45.88774" lon="4.73056">
        <ele>184</ele>
        <time>2017-07-29T10:04:12Z</time>
      </trkpt>
      <trkpt lat="45.88774" lon="4.73045">
        <ele>184</ele>
        <time>2017-07-29T10:04:14Z</time>
      </trkpt>
      <trkpt lat="45.88774" lon="4.7304">
        <ele>184</ele>
        <time>2017-07-29T10:04:15Z</time>
      </trkpt>
      <trkpt lat="45.88774" lon="4.7303">
        <ele>184</ele>
        <time>2017-07-29T10:04:17Z</time>
      </trkpt>
      <trkpt lat="45.88774" lon="4.73026">
        <ele>184</ele>
        <time>2017-07-29T10:04:18Z</time>
      </trkpt>
      <trkpt lat="45.88773" lon="4.73016">
        <ele>184</ele>
        <time>2017-07-29T10:04:20Z</time>
      </trkpt>
      <trkpt lat="45.88773" lon="4.7301">
        <ele>184</ele>
        <time>2017-07-29T10:04:21Z</time>
      </trkpt>
      <trkpt lat="45.88773" lon="4.72999">
        <ele>185</ele>
        <time>2017-07-29T10:04:23Z</time>
      </trkpt>
      <trkpt lat="45.88773" lon="4.72993">
        <ele>185</ele>
        <time>2017-07-29T10:04:24Z</time>
      </trkpt>
      <trkpt lat="45.88772" lon="4.7298">
        <ele>185</ele>
        <time>2017-07-29T10:04:26Z</time>
      </trkpt>
      <trkpt lat="45.88772" lon="4.72975">
        <ele>185</ele>
        <time>2017-07-29T10:04:27Z</time>
      </trkpt>
      <trkpt lat="45.88773" lon="4.72964">
        <ele>185</ele>
        <time>2017-07-29T10:04:29Z</time>
      </trkpt>
      <trkpt lat="45.88773" lon="4.72959">
        <ele>185</ele>
        <time>2017-07-29T10:04:30Z</time>
      </trkpt>
      <trkpt lat="45.88773" lon="4.72949">
        <ele>185</ele>
        <time>2017-07-29T10:04:32Z</time>
      </trkpt>
      <trkpt lat="45.88773" lon="4.72943">
        <ele>185</ele>
        <time>2017-07-29T10:04:33Z</time>
      </trkpt>
      <trkpt lat="45.88773" lon="4.72937">
        <ele>185</ele>
        <time>2017-07-29T10:04:34Z</time>
      </trkpt>
      <trkpt lat="45.88773" lon="4.7293">
        <ele>185</ele>
        <time>2017-07-29T10:04:35Z</time>
      </trkpt>
      <trkpt lat="45.88773" lon="4.72922">
        <ele>185</ele>
        <time>2017-07-29T10:04:36Z</time>
      </trkpt>
      <trkpt lat="45.88773" lon="4.72915">
        <ele>185</ele>
        <time>2017-07-29T10:04:37Z</time>
      </trkpt>
      <trkpt lat="45.88772" lon="4.72908">
        <ele>185</ele>
        <time>2017-07-29T10:04:38Z</time>
      </trkpt>
      <trkpt lat="45.88773" lon="4.72902">
        <ele>185</ele>
        <time>2017-07-29T10:04:39Z</time>
      </trkpt>
      <trkpt lat="45.88773" lon="4.72894">
        <ele>185</ele>
        <time>2017-07-29T10:04:40Z</time>
      </trkpt>
      <trkpt lat="45.88773" lon="4.72886">
        <ele>185</ele>
        <time>2017-07-29T10:04:41Z</time>
      </trkpt>
      <trkpt lat="45.88773" lon="4.72876">
        <ele>185</ele>
        <time>2017-07-29T10:04:42Z</time>
      </trkpt>
      <trkpt lat="45.88773" lon="4.72867">
        <ele>185</ele>
        <time>2017-07-29T10:04:43Z</time>
      </trkpt>
      <trkpt lat="45.88772" lon="4.72859">
        <ele>185</ele>
        <time>2017-07-29T10:04:44Z</time>
      </trkpt>
      <trkpt lat="45.88771" lon="4.7285">
        <ele>185</ele>
        <time>2017-07-29T10:04:45Z</time>
      </trkpt>
      <trkpt lat="45.88771" lon="4.72842">
        <ele>185</ele>
        <time>2017-07-29T10:04:46Z</time>
      </trkpt>
      <trkpt lat="45.8877" lon="4.72833">
        <ele>185</ele>
        <time>2017-07-29T10:04:47Z</time>
      </trkpt>
      <trkpt lat="45.88769" lon="4.72825">
        <ele>185</ele>
        <time>2017-07-29T10:04:48Z</time>
      </trkpt>
      <trkpt lat="45.88769" lon="4.72817">
        <ele>185</ele>
        <time>2017-07-29T10:04:49Z</time>
      </trkpt>
      <trkpt lat="45.88768" lon="4.72809">
        <ele>184</ele>
        <time>2017-07-29T10:04:50Z</time>
      </trkpt>
      <trkpt lat="45.88768" lon="4.72801">
        <ele>184</ele>
        <time>2017-07-29T10:04:51Z</time>
      </trkpt>
      <trkpt lat="45.88767" lon="4.72794">
        <ele>184</ele>
        <time>2017-07-29T10:04:52Z</time>
      </trkpt>
      <trkpt lat="45.88766" lon="4.72785">
        <ele>184</ele>
        <time>2017-07-29T10:04:53Z</time>
      </trkpt>
      <trkpt lat="45.88766" lon="4.72779">
        <ele>184</ele>
        <time>2017-07-29T10:04:54Z</time>
      </trkpt>
      <trkpt lat="45.88766" lon="4.72771">
        <ele>184</ele>
        <time>2017-07-29T10:04:55Z</time>
      </trkpt>
      <trkpt lat="45.88765" lon="4.72761">
        <ele>183</ele>
        <time>2017-07-29T10:04:56Z</time>
      </trkpt>
      <trkpt lat="45.88764" lon="4.72752">
        <ele>183</ele>
        <time>2017-07-29T10:04:57Z</time>
      </trkpt>
      <trkpt lat="45.88763" lon="4.72742">
        <ele>183</ele>
        <time>2017-07-29T10:04:58Z</time>
      </trkpt>
      <trkpt lat="45.88762" lon="4.72733">
        <ele>183</ele>
        <time>2017-07-29T10:04:59Z</time>
      </trkpt>
      <trkpt lat="45.88761" lon="4.72723">
        <ele>183</ele>
        <time>2017-07-29T10:05:00Z</time>
      </trkpt>
      <trkpt lat="45.8876" lon="4.72713">
        <ele>183</ele>
        <time>2017-07-29T10:05:01Z</time>
      </trkpt>
      <trkpt lat="45.88759" lon="4.72703">
        <ele>182</ele>
        <time>2017-07-29T10:05:02Z</time>
      </trkpt>
      <trkpt lat="45.88757" lon="4.72693">
        <ele>182</ele>
        <time>2017-07-29T10:05:03Z</time>
      </trkpt>
      <trkpt lat="45.88757" lon="4.72685">
        <ele>182</ele>
        <time>2017-07-29T10:05:04Z</time>
      </trkpt>
      <trkpt lat="45.88755" lon="4.72676">
        <ele>182</ele>
        <time>2017-07-29T10:05:05Z</time>
      </trkpt>
      <trkpt lat="45.88754" lon="4.72668">
        <ele>182</ele>
        <time>2017-07-29T10:05:06Z</time>
      </trkpt>
      <trkpt lat="45.88753" lon="4.72661">
        <ele>182</ele>
        <time>2017-07-29T10:05:07Z</time>
      </trkpt>
      <trkpt lat="45.88754" lon="4.72651">
        <ele>182</ele>
        <time>2017-07-29T10:05:09Z</time>
      </trkpt>
      <trkpt lat="45.88755" lon="4.72644">
        <ele>183</ele>
        <time>2017-07-29T10:05:10Z</time>
      </trkpt>
      <trkpt lat="45.88755" lon="4.72636">
        <ele>183</ele>
        <time>2017-07-29T10:05:11Z</time>
      </trkpt>
      <trkpt lat="45.88754" lon="4.72628">
        <ele>183</ele>
        <time>2017-07-29T10:05:12Z</time>
      </trkpt>
      <trkpt lat="45.88752" lon="4.7262">
        <ele>183</ele>
        <time>2017-07-29T10:05:13Z</time>
      </trkpt>
      <trkpt lat="45.88751" lon="4.72612">
        <ele>183</ele>
        <time>2017-07-29T10:05:14Z</time>
      </trkpt>
      <trkpt lat="45.88749" lon="4.72603">
        <ele>184</ele>
        <time>2017-07-29T10:05:15Z</time>
      </trkpt>
      <trkpt lat="45.88748" lon="4.72595">
        <ele>184</ele>
        <time>2017-07-29T10:05:16Z</time>
      </trkpt>
      <trkpt lat="45.88746" lon="4.72586">
        <ele>184</ele>
        <time>2017-07-29T10:05:17Z</time>
      </trkpt>
      <trkpt lat="45.88745" lon="4.72577">
        <ele>184</ele>
        <time>2017-07-29T10:05:18Z</time>
      </trkpt>
      <trkpt lat="45.88743" lon="4.72569">
        <ele>184</ele>
        <time>2017-07-29T10:05:19Z</time>
      </trkpt>
      <trkpt lat="45.88742" lon="4.72561">
        <ele>183</ele>
        <time>2017-07-29T10:05:20Z</time>
      </trkpt>
      <trkpt lat="45.8874" lon="4.72552">
        <ele>183</ele>
        <time>2017-07-29T10:05:21Z</time>
      </trkpt>
      <trkpt lat="45.88737" lon="4.72544">
        <ele>183</ele>
        <time>2017-07-29T10:05:22Z</time>
      </trkpt>
      <trkpt lat="45.88735" lon="4.72536">
        <ele>183</ele>
        <time>2017-07-29T10:05:23Z</time>
      </trkpt>
      <trkpt lat="45.88732" lon="4.72528">
        <ele>183</ele>
        <time>2017-07-29T10:05:24Z</time>
      </trkpt>
      <trkpt lat="45.8873" lon="4.72521">
        <ele>183</ele>
        <time>2017-07-29T10:05:25Z</time>
      </trkpt>
      <trkpt lat="45.88729" lon="4.72513">
        <ele>183</ele>
        <time>2017-07-29T10:05:26Z</time>
      </trkpt>
      <trkpt lat="45.88728" lon="4.72505">
        <ele>183</ele>
        <time>2017-07-29T10:05:27Z</time>
      </trkpt>
      <trkpt lat="45.88727" lon="4.72497">
        <ele>182</ele>
        <time>2017-07-29T10:05:28Z</time>
      </trkpt>
      <trkpt lat="45.88728" lon="4.72489">
        <ele>182</ele>
        <time>2017-07-29T10:05:29Z</time>
      </trkpt>
      <trkpt lat="45.88728" lon="4.72482">
        <ele>182</ele>
        <time>2017-07-29T10:05:30Z</time>
      </trkpt>
      <trkpt lat="45.8873" lon="4.72474">
        <ele>182</ele>
        <time>2017-07-29T10:05:31Z</time>
      </trkpt>
      <trkpt lat="45.88732" lon="4.72465">
        <ele>182</ele>
        <time>2017-07-29T10:05:32Z</time>
      </trkpt>
      <trkpt lat="45.88734" lon="4.72457">
        <ele>182</ele>
        <time>2017-07-29T10:05:33Z</time>
      </trkpt>
      <trkpt lat="45.88737" lon="4.72448">
        <ele>182</ele>
        <time>2017-07-29T10:05:34Z</time>
      </trkpt>
      <trkpt lat="45.8874" lon="4.72439">
        <ele>182</ele>
        <time>2017-07-29T10:05:35Z</time>
      </trkpt>
      <trkpt lat="45.88741" lon="4.72429">
        <ele>182</ele>
        <time>2017-07-29T10:05:36Z</time>
      </trkpt>
      <trkpt lat="45.88745" lon="4.72422">
        <ele>182</ele>
        <time>2017-07-29T10:05:37Z</time>
      </trkpt>
      <trkpt lat="45.88748" lon="4.72416">
        <ele>182</ele>
        <time>2017-07-29T10:05:38Z</time>
      </trkpt>
      <trkpt lat="45.88752" lon="4.7241">
        <ele>182</ele>
        <time>2017-07-29T10:05:39Z</time>
      </trkpt>
      <trkpt lat="45.88756" lon="4.72405">
        <ele>182</ele>
        <time>2017-07-29T10:05:40Z</time>
      </trkpt>
      <trkpt lat="45.8876" lon="4.72399">
        <ele>182</ele>
        <time>2017-07-29T10:05:41Z</time>
      </trkpt>
      <trkpt lat="45.88764" lon="4.72394">
        <ele>182</ele>
        <time>2017-07-29T10:05:42Z</time>
      </trkpt>
      <trkpt lat="45.88767" lon="4.72387">
        <ele>182</ele>
        <time>2017-07-29T10:05:43Z</time>
      </trkpt>
      <trkpt lat="45.8877" lon="4.72381">
        <ele>182</ele>
        <time>2017-07-29T10:05:44Z</time>
      </trkpt>
      <trkpt lat="45.88773" lon="4.72374">
        <ele>182</ele>
        <time>2017-07-29T10:05:45Z</time>
      </trkpt>
      <trkpt lat="45.88777" lon="4.72367">
        <ele>182</ele>
        <time>2017-07-29T10:05:46Z</time>
      </trkpt>
      <trkpt lat="45.8878" lon="4.7236">
        <ele>182</ele>
        <time>2017-07-29T10:05:47Z</time>
      </trkpt>
      <trkpt lat="45.88783" lon="4.72351">
        <ele>182</ele>
        <time>2017-07-29T10:05:48Z</time>
      </trkpt>
      <trkpt lat="45.88787" lon="4.72344">
        <ele>182</ele>
        <time>2017-07-29T10:05:49Z</time>
      </trkpt>
      <trkpt lat="45.88791" lon="4.72336">
        <ele>182</ele>
        <time>2017-07-29T10:05:50Z</time>
      </trkpt>
      <trkpt lat="45.88794" lon="4.72328">
        <ele>182</ele>
        <time>2017-07-29T10:05:51Z</time>
      </trkpt>
      <trkpt lat="45.88797" lon="4.7232">
        <ele>182</ele>
        <time>2017-07-29T10:05:52Z</time>
      </trkpt>
      <trkpt lat="45.88799" lon="4.72312">
        <ele>182</ele>
        <time>2017-07-29T10:05:53Z</time>
      </trkpt>
      <trkpt lat="45.88802" lon="4.72305">
        <ele>182</ele>
        <time>2017-07-29T10:05:54Z</time>
      </trkpt>
      <trkpt lat="45.88803" lon="4.72297">
        <ele>182</ele>
        <time>2017-07-29T10:05:55Z</time>
      </trkpt>
      <trkpt lat="45.88804" lon="4.72289">
        <ele>182</ele>
        <time>2017-07-29T10:05:56Z</time>
      </trkpt>
      <trkpt lat="45.88806" lon="4.72282">
        <ele>182</ele>
        <time>2017-07-29T10:05:57Z</time>
      </trkpt>
      <trkpt lat="45.88807" lon="4.72274">
        <ele>182</ele>
        <time>2017-07-29T10:05:58Z</time>
      </trkpt>
      <trkpt lat="45.88808" lon="4.72265">
        <ele>182</ele>
        <time>2017-07-29T10:05:59Z</time>
      </trkpt>
      <trkpt lat="45.88809" lon="4.72257">
        <ele>182</ele>
        <time>2017-07-29T10:06:00Z</time>
      </trkpt>
      <trkpt lat="45.8881" lon="4.72248">
        <ele>182</ele>
        <time>2017-07-29T10:06:01Z</time>
      </trkpt>
      <trkpt lat="45.88812" lon="4.72239">
        <ele>182</ele>
        <time>2017-07-29T10:06:02Z</time>
      </trkpt>
      <trkpt lat="45.88813" lon="4.72231">
        <ele>182</ele>
        <time>2017-07-29T10:06:03Z</time>
      </trkpt>
      <trkpt lat="45.88814" lon="4.72222">
        <ele>182</ele>
        <time>2017-07-29T10:06:04Z</time>
      </trkpt>
      <trkpt lat="45.88816" lon="4.72214">
        <ele>182</ele>
        <time>2017-07-29T10:06:05Z</time>
      </trkpt>
      <trkpt lat="45.88817" lon="4.72206">
        <ele>182</ele>
        <time>2017-07-29T10:06:06Z</time>
      </trkpt>
      <trkpt lat="45.88818" lon="4.72198">
        <ele>182</ele>
        <time>2017-07-29T10:06:07Z</time>
      </trkpt>
      <trkpt lat="45.88819" lon="4.72191">
        <ele>182</ele>
        <time>2017-07-29T10:06:08Z</time>
      </trkpt>
      <trkpt lat="45.88821" lon="4.72184">
        <ele>182</ele>
        <time>2017-07-29T10:06:09Z</time>
      </trkpt>
      <trkpt lat="45.88822" lon="4.72177">
        <ele>182</ele>
        <time>2017-07-29T10:06:10Z</time>
      </trkpt>
      <trkpt lat="45.88823" lon="4.72171">
        <ele>182</ele>
        <time>2017-07-29T10:06:11Z</time>
      </trkpt>
      <trkpt lat="45.88824" lon="4.72165">
        <ele>182</ele>
        <time>2017-07-29T10:06:12Z</time>
      </trkpt>
      <trkpt lat="45.88826" lon="4.72157">
        <ele>182</ele>
        <time>2017-07-29T10:06:13Z</time>
      </trkpt>
      <trkpt lat="45.88827" lon="4.72149">
        <ele>182</ele>
        <time>2017-07-29T10:06:14Z</time>
      </trkpt>
      <trkpt lat="45.88828" lon="4.72141">
        <ele>182</ele>
        <time>2017-07-29T10:06:15Z</time>
      </trkpt>
      <trkpt lat="45.8883" lon="4.72134">
        <ele>182</ele>
        <time>2017-07-29T10:06:16Z</time>
      </trkpt>
      <trkpt lat="45.88831" lon="4.72127">
        <ele>182</ele>
        <time>2017-07-29T10:06:17Z</time>
      </trkpt>
      <trkpt lat="45.88833" lon="4.7212">
        <ele>181</ele>
        <time>2017-07-29T10:06:18Z</time>
      </trkpt>
      <trkpt lat="45.88834" lon="4.72113">
        <ele>181</ele>
        <time>2017-07-29T10:06:19Z</time>
      </trkpt>
      <trkpt lat="45.88836" lon="4.72107">
        <ele>181</ele>
        <time>2017-07-29T10:06:20Z</time>
      </trkpt>
      <trkpt lat="45.88843" lon="4.72101">
        <ele>181</ele>
        <time>2017-07-29T10:06:22Z</time>
      </trkpt>
      <trkpt lat="45.88848" lon="4.721">
        <ele>181</ele>
        <time>2017-07-29T10:06:23Z</time>
      </trkpt>
      <trkpt lat="45.88856" lon="4.72102">
        <ele>181</ele>
        <time>2017-07-29T10:06:25Z</time>
      </trkpt>
      <trkpt lat="45.8886" lon="4.72105">
        <ele>181</ele>
        <time>2017-07-29T10:06:26Z</time>
      </trkpt>
      <trkpt lat="45.88865" lon="4.72107">
        <ele>181</ele>
        <time>2017-07-29T10:06:27Z</time>
      </trkpt>
      <trkpt lat="45.8887" lon="4.7211">
        <ele>181</ele>
        <time>2017-07-29T10:06:28Z</time>
      </trkpt>
      <trkpt lat="45.88875" lon="4.72111">
        <ele>181</ele>
        <time>2017-07-29T10:06:29Z</time>
      </trkpt>
      <trkpt lat="45.88881" lon="4.72113">
        <ele>181</ele>
        <time>2017-07-29T10:06:30Z</time>
      </trkpt>
      <trkpt lat="45.88886" lon="4.72114">
        <ele>181</ele>
        <time>2017-07-29T10:06:31Z</time>
      </trkpt>
      <trkpt lat="45.88891" lon="4.72115">
        <ele>181</ele>
        <time>2017-07-29T10:06:32Z</time>
      </trkpt>
      <trkpt lat="45.88895" lon="4.72116">
        <ele>181</ele>
        <time>2017-07-29T10:06:33Z</time>
      </trkpt>
      <trkpt lat="45.889" lon="4.72117">
        <ele>181</ele>
        <time>2017-07-29T10:06:34Z</time>
      </trkpt>
      <trkpt lat="45.88905" lon="4.72118">
        <ele>181</ele>
        <time>2017-07-29T10:06:35Z</time>
      </trkpt>
      <trkpt lat="45.8891" lon="4.7212">
        <ele>181</ele>
        <time>2017-07-29T10:06:36Z</time>
      </trkpt>
      <trkpt lat="45.88915" lon="4.72121">
        <ele>181</ele>
        <time>2017-07-29T10:06:37Z</time>
      </trkpt>
      <trkpt lat="45.8892" lon="4.72123">
        <ele>181</ele>
        <time>2017-07-29T10:06:38Z</time>
      </trkpt>
      <trkpt lat="45.88925" lon="4.72125">
        <ele>181</ele>
        <time>2017-07-29T10:06:39Z</time>
      </trkpt>
      <trkpt lat="45.8893" lon="4.72126">
        <ele>181</ele>
        <time>2017-07-29T10:06:40Z</time>
      </trkpt>
      <trkpt lat="45.88935" lon="4.72128">
        <ele>181</ele>
        <time>2017-07-29T10:06:41Z</time>
      </trkpt>
      <trkpt lat="45.8894" lon="4.7213">
        <ele>181</ele>
        <time>2017-07-29T10:06:42Z</time>
      </trkpt>
      <trkpt lat="45.88945" lon="4.72132">
        <ele>181</ele>
        <time>2017-07-29T10:06:43Z</time>
      </trkpt>
      <trkpt lat="45.8895" lon="4.72133">
        <ele>181</ele>
        <time>2017-07-29T10:06:44Z</time>
      </trkpt>
      <trkpt lat="45.88955" lon="4.72136">
        <ele>181</ele>
        <time>2017-07-29T10:06:45Z</time>
      </trkpt>
      <trkpt lat="45.8896" lon="4.72136">
        <ele>180</ele>
        <time>2017-07-29T10:06:46Z</time>
      </trkpt>
      <trkpt lat="45.88965" lon="4.72136">
        <ele>180</ele>
        <time>2017-07-29T10:06:47Z</time>
      </trkpt>
      <trkpt lat="45.8897" lon="4.72138">
        <ele>180</ele>
        <time>2017-07-29T10:06:48Z</time>
      </trkpt>
      <trkpt lat="45.88974" lon="4.7214">
        <ele>180</ele>
        <time>2017-07-29T10:06:49Z</time>
      </trkpt>
      <trkpt lat="45.88979" lon="4.72141">
        <ele>180</ele>
        <time>2017-07-29T10:06:50Z</time>
      </trkpt>
      <trkpt lat="45.88983" lon="4.72143">
        <ele>180</ele>
        <time>2017-07-29T10:06:51Z</time>
      </trkpt>
      <trkpt lat="45.88988" lon="4.72144">
        <ele>180</ele>
        <time>2017-07-29T10:06:52Z</time>
      </trkpt>
      <trkpt lat="45.88993" lon="4.72145">
        <ele>180</ele>
        <time>2017-07-29T10:06:53Z</time>
      </trkpt>
      <trkpt lat="45.88998" lon="4.72146">
        <ele>180</ele>
        <time>2017-07-29T10:06:54Z</time>
      </trkpt>
      <trkpt lat="45.89003" lon="4.72148">
        <ele>180</ele>
        <time>2017-07-29T10:06:55Z</time>
      </trkpt>
      <trkpt lat="45.89009" lon="4.72149">
        <ele>180</ele>
        <time>2017-07-29T10:06:56Z</time>
      </trkpt>
      <trkpt lat="45.89014" lon="4.72151">
        <ele>180</ele>
        <time>2017-07-29T10:06:57Z</time>
      </trkpt>
      <trkpt lat="45.89019" lon="4.72152">
        <ele>180</ele>
        <time>2017-07-29T10:06:58Z</time>
      </trkpt>
      <trkpt lat="45.89024" lon="4.72153">
        <ele>180</ele>
        <time>2017-07-29T10:06:59Z</time>
      </trkpt>
      <trkpt lat="45.89029" lon="4.72155">
        <ele>180</ele>
        <time>2017-07-29T10:07:00Z</time>
      </trkpt>
      <trkpt lat="45.89034" lon="4.72157">
        <ele>180</ele>
        <time>2017-07-29T10:07:01Z</time>
      </trkpt>
      <trkpt lat="45.89039" lon="4.72158">
        <ele>180</ele>
        <time>2017-07-29T10:07:02Z</time>
      </trkpt>
      <trkpt lat="45.89044" lon="4.7216">
        <ele>180</ele>
        <time>2017-07-29T10:07:03Z</time>
      </trkpt>
      <trkpt lat="45.89049" lon="4.72164">
        <ele>180</ele>
        <time>2017-07-29T10:07:04Z</time>
      </trkpt>
      <trkpt lat="45.89054" lon="4.72168">
        <ele>180</ele>
        <time>2017-07-29T10:07:05Z</time>
      </trkpt>
      <trkpt lat="45.89059" lon="4.72171">
        <ele>180</ele>
        <time>2017-07-29T10:07:06Z</time>
      </trkpt>
      <trkpt lat="45.89064" lon="4.72175">
        <ele>180</ele>
        <time>2017-07-29T10:07:07Z</time>
      </trkpt>
      <trkpt lat="45.89068" lon="4.72178">
        <ele>180</ele>
        <time>2017-07-29T10:07:08Z</time>
      </trkpt>
      <trkpt lat="45.89072" lon="4.72181">
        <ele>180</ele>
        <time>2017-07-29T10:07:09Z</time>
      </trkpt>
      <trkpt lat="45.89077" lon="4.72183">
        <ele>180</ele>
        <time>2017-07-29T10:07:10Z</time>
      </trkpt>
      <trkpt lat="45.89081" lon="4.72186">
        <ele>180</ele>
        <time>2017-07-29T10:07:11Z</time>
      </trkpt>
      <trkpt lat="45.89086" lon="4.72189">
        <ele>180</ele>
        <time>2017-07-29T10:07:12Z</time>
      </trkpt>
      <trkpt lat="45.8909" lon="4.72192">
        <ele>180</ele>
        <time>2017-07-29T10:07:13Z</time>
      </trkpt>
      <trkpt lat="45.89095" lon="4.72194">
        <ele>180</ele>
        <time>2017-07-29T10:07:14Z</time>
      </trkpt>
      <trkpt lat="45.891" lon="4.72196">
        <ele>180</ele>
        <time>2017-07-29T10:07:15Z</time>
      </trkpt>
      <trkpt lat="45.89105" lon="4.72198">
        <ele>180</ele>
        <time>2017-07-29T10:07:16Z</time>
      </trkpt>
      <trkpt lat="45.8911" lon="4.72201">
        <ele>180</ele>
        <time>2017-07-29T10:07:17Z</time>
      </trkpt>
      <trkpt lat="45.89114" lon="4.72204">
        <ele>180</ele>
        <time>2017-07-29T10:07:18Z</time>
      </trkpt>
      <trkpt lat="45.89122" lon="4.7221">
        <ele>180</ele>
        <time>2017-07-29T10:07:20Z</time>
      </trkpt>
      <trkpt lat="45.89126" lon="4.72212">
        <ele>180</ele>
        <time>2017-07-29T10:07:21Z</time>
      </trkpt>
      <trkpt lat="45.89134" lon="4.72217">
        <ele>180</ele>
        <time>2017-07-29T10:07:23Z</time>
      </trkpt>
      <trkpt lat="45.89138" lon="4.72218">
        <ele>180</ele>
        <time>2017-07-29T10:07:24Z</time>
      </trkpt>
      <trkpt lat="45.89146" lon="4.72222">
        <ele>180</ele>
        <time>2017-07-29T10:07:26Z</time>
      </trkpt>
      <trkpt lat="45.89151" lon="4.72224">
        <ele>180</ele>
        <time>2017-07-29T10:07:27Z</time>
      </trkpt>
      <trkpt lat="45.89155" lon="4.72227">
        <ele>180</ele>
        <time>2017-07-29T10:07:28Z</time>
      </trkpt>
      <trkpt lat="45.8916" lon="4.72229">
        <ele>180</ele>
        <time>2017-07-29T10:07:29Z</time>
      </trkpt>
      <trkpt lat="45.89165" lon="4.72231">
        <ele>180</ele>
        <time>2017-07-29T10:07:30Z</time>
      </trkpt>
      <trkpt lat="45.89169" lon="4.72234">
        <ele>180</ele>
        <time>2017-07-29T10:07:31Z</time>
      </trkpt>
      <trkpt lat="45.89174" lon="4.72236">
        <ele>180</ele>
        <time>2017-07-29T10:07:32Z</time>
      </trkpt>
      <trkpt lat="45.89178" lon="4.72237">
        <ele>180</ele>
        <time>2017-07-29T10:07:33Z</time>
      </trkpt>
      <trkpt lat="45.89182" lon="4.72241">
        <ele>180</ele>
        <time>2017-07-29T10:07:34Z</time>
      </trkpt>
      <trkpt lat="45.89187" lon="4.72243">
        <ele>180</ele>
        <time>2017-07-29T10:07:35Z</time>
      </trkpt>
      <trkpt lat="45.89192" lon="4.72245">
        <ele>180</ele>
        <time>2017-07-29T10:07:36Z</time>
      </trkpt>
      <trkpt lat="45.89197" lon="4.72247">
        <ele>180</ele>
        <time>2017-07-29T10:07:37Z</time>
      </trkpt>
      <trkpt lat="45.89202" lon="4.7225">
        <ele>180</ele>
        <time>2017-07-29T10:07:38Z</time>
      </trkpt>
      <trkpt lat="45.89207" lon="4.72252">
        <ele>181</ele>
        <time>2017-07-29T10:07:39Z</time>
      </trkpt>
      <trkpt lat="45.89215" lon="4.72256">
        <ele>181</ele>
        <time>2017-07-29T10:07:41Z</time>
      </trkpt>
      <trkpt lat="45.89219" lon="4.72258">
        <ele>181</ele>
        <time>2017-07-29T10:07:42Z</time>
      </trkpt>
      <trkpt lat="45.89224" lon="4.7226">
        <ele>181</ele>
        <time>2017-07-29T10:07:43Z</time>
      </trkpt>
      <trkpt lat="45.89229" lon="4.72261">
        <ele>181</ele>
        <time>2017-07-29T10:07:44Z</time>
      </trkpt>
      <trkpt lat="45.89233" lon="4.72264">
        <ele>181</ele>
        <time>2017-07-29T10:07:45Z</time>
      </trkpt>
      <trkpt lat="45.89238" lon="4.72267">
        <ele>181</ele>
        <time>2017-07-29T10:07:46Z</time>
      </trkpt>
      <trkpt lat="45.89244" lon="4.7227">
        <ele>181</ele>
        <time>2017-07-29T10:07:47Z</time>
      </trkpt>
      <trkpt lat="45.89249" lon="4.72271">
        <ele>181</ele>
        <time>2017-07-29T10:07:48Z</time>
      </trkpt>
      <trkpt lat="45.89253" lon="4.72275">
        <ele>181</ele>
        <time>2017-07-29T10:07:49Z</time>
      </trkpt>
      <trkpt lat="45.89258" lon="4.72277">
        <ele>181</ele>
        <time>2017-07-29T10:07:50Z</time>
      </trkpt>
      <trkpt lat="45.89263" lon="4.72278">
        <ele>181</ele>
        <time>2017-07-29T10:07:51Z</time>
      </trkpt>
      <trkpt lat="45.89267" lon="4.7228">
        <ele>181</ele>
        <time>2017-07-29T10:07:52Z</time>
      </trkpt>
      <trkpt lat="45.89275" lon="4.72282">
        <ele>181</ele>
        <time>2017-07-29T10:07:54Z</time>
      </trkpt>
      <trkpt lat="45.89278" lon="4.72285">
        <ele>181</ele>
        <time>2017-07-29T10:07:55Z</time>
      </trkpt>
      <trkpt lat="45.89286" lon="4.72289">
        <ele>181</ele>
        <time>2017-07-29T10:07:57Z</time>
      </trkpt>
      <trkpt lat="45.8929" lon="4.72291">
        <ele>181</ele>
        <time>2017-07-29T10:07:58Z</time>
      </trkpt>
      <trkpt lat="45.89294" lon="4.72294">
        <ele>181</ele>
        <time>2017-07-29T10:07:59Z</time>
      </trkpt>
      <trkpt lat="45.89299" lon="4.72296">
        <ele>181</ele>
        <time>2017-07-29T10:08:00Z</time>
      </trkpt>
      <trkpt lat="45.89307" lon="4.72301">
        <ele>181</ele>
        <time>2017-07-29T10:08:02Z</time>
      </trkpt>
      <trkpt lat="45.89311" lon="4.72303">
        <ele>181</ele>
        <time>2017-07-29T10:08:03Z</time>
      </trkpt>
      <trkpt lat="45.8932" lon="4.72305">
        <ele>181</ele>
        <time>2017-07-29T10:08:05Z</time>
      </trkpt>
      <trkpt lat="45.89325" lon="4.72304">
        <ele>181</ele>
        <time>2017-07-29T10:08:06Z</time>
      </trkpt>
      <trkpt lat="45.89329" lon="4.72304">
        <ele>181</ele>
        <time>2017-07-29T10:08:07Z</time>
      </trkpt>
      <trkpt lat="45.89334" lon="4.72303">
        <ele>181</ele>
        <time>2017-07-29T10:08:08Z</time>
      </trkpt>
      <trkpt lat="45.89339" lon="4.72303">
        <ele>181</ele>
        <time>2017-07-29T10:08:09Z</time>
      </trkpt>
      <trkpt lat="45.89344" lon="4.72303">
        <ele>181</ele>
        <time>2017-07-29T10:08:10Z</time>
      </trkpt>
      <trkpt lat="45.8935" lon="4.72303">
        <ele>181</ele>
        <time>2017-07-29T10:08:11Z</time>
      </trkpt>
      <trkpt lat="45.89354" lon="4.72302">
        <ele>181</ele>
        <time>2017-07-29T10:08:12Z</time>
      </trkpt>
      <trkpt lat="45.89359" lon="4.72302">
        <ele>181</ele>
        <time>2017-07-29T10:08:13Z</time>
      </trkpt>
      <trkpt lat="45.89364" lon="4.72301">
        <ele>181</ele>
        <time>2017-07-29T10:08:14Z</time>
      </trkpt>
      <trkpt lat="45.89369" lon="4.72299">
        <ele>181</ele>
        <time>2017-07-29T10:08:15Z</time>
      </trkpt>
      <trkpt lat="45.89373" lon="4.72298">
        <ele>181</ele>
        <time>2017-07-29T10:08:16Z</time>
      </trkpt>
      <trkpt lat="45.89381" lon="4.72295">
        <ele>180</ele>
        <time>2017-07-29T10:08:18Z</time>
      </trkpt>
      <trkpt lat="45.89385" lon="4.72295">
        <ele>180</ele>
        <time>2017-07-29T10:08:19Z</time>
      </trkpt>
      <trkpt lat="45.89393" lon="4.72293">
        <ele>180</ele>
        <time>2017-07-29T10:08:21Z</time>
      </trkpt>
      <trkpt lat="45.89397" lon="4.72293">
        <ele>180</ele>
        <time>2017-07-29T10:08:22Z</time>
      </trkpt>
      <trkpt lat="45.89402" lon="4.72293">
        <ele>180</ele>
        <time>2017-07-29T10:08:23Z</time>
      </trkpt>
      <trkpt lat="45.89407" lon="4.72293">
        <ele>180</ele>
        <time>2017-07-29T10:08:24Z</time>
      </trkpt>
      <trkpt lat="45.89412" lon="4.72293">
        <ele>180</ele>
        <time>2017-07-29T10:08:25Z</time>
      </trkpt>
      <trkpt lat="45.89417" lon="4.72292">
        <ele>180</ele>
        <time>2017-07-29T10:08:26Z</time>
      </trkpt>
      <trkpt lat="45.89422" lon="4.72292">
        <ele>180</ele>
        <time>2017-07-29T10:08:27Z</time>
      </trkpt>
      <trkpt lat="45.89427" lon="4.72291">
        <ele>179</ele>
        <time>2017-07-29T10:08:28Z</time>
      </trkpt>
      <trkpt lat="45.89435" lon="4.7229">
        <ele>179</ele>
        <time>2017-07-29T10:08:30Z</time>
      </trkpt>
      <trkpt lat="45.89439" lon="4.72289">
        <ele>179</ele>
        <time>2017-07-29T10:08:31Z</time>
      </trkpt>
      <trkpt lat="45.89448" lon="4.72288">
        <ele>179</ele>
        <time>2017-07-29T10:08:33Z</time>
      </trkpt>
      <trkpt lat="45.89453" lon="4.72288">
        <ele>179</ele>
        <time>2017-07-29T10:08:34Z</time>
      </trkpt>
      <trkpt lat="45.89458" lon="4.72288">
        <ele>179</ele>
        <time>2017-07-29T10:08:35Z</time>
      </trkpt>
      <trkpt lat="45.89463" lon="4.72288">
        <ele>179</ele>
        <time>2017-07-29T10:08:36Z</time>
      </trkpt>
      <trkpt lat="45.89468" lon="4.72287">
        <ele>179</ele>
        <time>2017-07-29T10:08:37Z</time>
      </trkpt>
      <trkpt lat="45.89473" lon="4.72286">
        <ele>179</ele>
        <time>2017-07-29T10:08:38Z</time>
      </trkpt>
      <trkpt lat="45.89478" lon="4.72286">
        <ele>179</ele>
        <time>2017-07-29T10:08:39Z</time>
      </trkpt>
      <trkpt lat="45.89482" lon="4.72284">
        <ele>179</ele>
        <time>2017-07-29T10:08:40Z</time>
      </trkpt>
      <trkpt lat="45.8949" lon="4.72282">
        <ele>179</ele>
        <time>2017-07-29T10:08:42Z</time>
      </trkpt>
      <trkpt lat="45.89495" lon="4.72282">
        <ele>179</ele>
        <time>2017-07-29T10:08:43Z</time>
      </trkpt>
      <trkpt lat="45.89504" lon="4.72282">
        <ele>179</ele>
        <time>2017-07-29T10:08:45Z</time>
      </trkpt>
      <trkpt lat="45.89508" lon="4.72282">
        <ele>179</ele>
        <time>2017-07-29T10:08:46Z</time>
      </trkpt>
      <trkpt lat="45.89513" lon="4.72281">
        <ele>179</ele>
        <time>2017-07-29T10:08:47Z</time>
      </trkpt>
      <trkpt lat="45.89518" lon="4.72281">
        <ele>179</ele>
        <time>2017-07-29T10:08:48Z</time>
      </trkpt>
      <trkpt lat="45.89523" lon="4.7228">
        <ele>179</ele>
        <time>2017-07-29T10:08:49Z</time>
      </trkpt>
      <trkpt lat="45.89529" lon="4.72281">
        <ele>179</ele>
        <time>2017-07-29T10:08:50Z</time>
      </trkpt>
      <trkpt lat="45.89535" lon="4.7228">
        <ele>179</ele>
        <time>2017-07-29T10:08:51Z</time>
      </trkpt>
      <trkpt lat="45.8954" lon="4.72279">
        <ele>179</ele>
        <time>2017-07-29T10:08:52Z</time>
      </trkpt>
      <trkpt lat="45.89545" lon="4.72279">
        <ele>179</ele>
        <time>2017-07-29T10:08:53Z</time>
      </trkpt>
      <trkpt lat="45.8955" lon="4.72279">
        <ele>179</ele>
        <time>2017-07-29T10:08:54Z</time>
      </trkpt>
      <trkpt lat="45.89554" lon="4.72279">
        <ele>179</ele>
        <time>2017-07-29T10:08:55Z</time>
      </trkpt>
      <trkpt lat="45.89559" lon="4.72279">
        <ele>179</ele>
        <time>2017-07-29T10:08:56Z</time>
      </trkpt>
      <trkpt lat="45.89564" lon="4.7228">
        <ele>179</ele>
        <time>2017-07-29T10:08:57Z</time>
      </trkpt>
      <trkpt lat="45.89568" lon="4.72279">
        <ele>179</ele>
        <time>2017-07-29T10:08:58Z</time>
      </trkpt>
      <trkpt lat="45.89577" lon="4.72279">
        <ele>179</ele>
        <time>2017-07-29T10:09:00Z</time>
      </trkpt>
      <trkpt lat="45.89582" lon="4.72279">
        <ele>179</ele>
        <time>2017-07-29T10:09:01Z</time>
      </trkpt>
      <trkpt lat="45.89587" lon="4.72279">
        <ele>179</ele>
        <time>2017-07-29T10:09:02Z</time>
      </trkpt>
      <trkpt lat="45.89592" lon="4.72279">
        <ele>179</ele>
        <time>2017-07-29T10:09:03Z</time>
      </trkpt>
      <trkpt lat="45.89596" lon="4.72279">
        <ele>179</ele>
        <time>2017-07-29T10:09:04Z</time>
      </trkpt>
      <trkpt lat="45.89601" lon="4.7228">
        <ele>179</ele>
        <time>2017-07-29T10:09:05Z</time>
      </trkpt>
      <trkpt lat="45.89605" lon="4.7228">
        <ele>179</ele>
        <time>2017-07-29T10:09:06Z</time>
      </trkpt>
      <trkpt lat="45.8961" lon="4.72279">
        <ele>179</ele>
        <time>2017-07-29T10:09:07Z</time>
      </trkpt>
      <trkpt lat="45.89619" lon="4.72278">
        <ele>179</ele>
        <time>2017-07-29T10:09:09Z</time>
      </trkpt>
      <trkpt lat="45.89623" lon="4.72278">
        <ele>179</ele>
        <time>2017-07-29T10:09:10Z</time>
      </trkpt>
      <trkpt lat="45.89628" lon="4.72278">
        <ele>179</ele>
        <time>2017-07-29T10:09:11Z</time>
      </trkpt>
      <trkpt lat="45.89632" lon="4.72277">
        <ele>179</ele>
        <time>2017-07-29T10:09:12Z</time>
      </trkpt>
      <trkpt lat="45.89641" lon="4.72277">
        <ele>179</ele>
        <time>2017-07-29T10:09:14Z</time>
      </trkpt>
      <trkpt lat="45.89644" lon="4.72277">
        <ele>179</ele>
        <time>2017-07-29T10:09:15Z</time>
      </trkpt>
      <trkpt lat="45.8965" lon="4.72275">
        <ele>179</ele>
        <time>2017-07-29T10:09:17Z</time>
      </trkpt>
      <trkpt lat="45.89653" lon="4.72273">
        <ele>179</ele>
        <time>2017-07-29T10:09:18Z</time>
      </trkpt>
      <trkpt lat="45.89657" lon="4.72268">
        <ele>179</ele>
        <time>2017-07-29T10:09:20Z</time>
      </trkpt>
      <trkpt lat="45.8966" lon="4.72264">
        <ele>179</ele>
        <time>2017-07-29T10:09:21Z</time>
      </trkpt>
      <trkpt lat="45.8966" lon="4.72252">
        <ele>179</ele>
        <time>2017-07-29T10:09:23Z</time>
      </trkpt>
      <trkpt lat="45.8966" lon="4.72246">
        <ele>179</ele>
        <time>2017-07-29T10:09:24Z</time>
      </trkpt>
      <trkpt lat="45.89661" lon="4.72233">
        <ele>179</ele>
        <time>2017-07-29T10:09:26Z</time>
      </trkpt>
      <trkpt lat="45.89661" lon="4.72227">
        <ele>179</ele>
        <time>2017-07-29T10:09:27Z</time>
      </trkpt>
      <trkpt lat="45.89662" lon="4.72216">
        <ele>179</ele>
        <time>2017-07-29T10:09:29Z</time>
      </trkpt>
      <trkpt lat="45.89662" lon="4.72211">
        <ele>179</ele>
        <time>2017-07-29T10:09:30Z</time>
      </trkpt>
      <trkpt lat="45.89662" lon="4.72198">
        <ele>179</ele>
        <time>2017-07-29T10:09:32Z</time>
      </trkpt>
      <trkpt lat="45.89663" lon="4.72192">
        <ele>179</ele>
        <time>2017-07-29T10:09:33Z</time>
      </trkpt>
      <trkpt lat="45.89663" lon="4.72185">
        <ele>179</ele>
        <time>2017-07-29T10:09:34Z</time>
      </trkpt>
      <trkpt lat="45.89662" lon="4.72178">
        <ele>179</ele>
        <time>2017-07-29T10:09:35Z</time>
      </trkpt>
      <trkpt lat="45.89663" lon="4.72171">
        <ele>179</ele>
        <time>2017-07-29T10:09:36Z</time>
      </trkpt>
      <trkpt lat="45.89662" lon="4.72164">
        <ele>179</ele>
        <time>2017-07-29T10:09:37Z</time>
      </trkpt>
      <trkpt lat="45.89662" lon="4.72151">
        <ele>179</ele>
        <time>2017-07-29T10:09:39Z</time>
      </trkpt>
      <trkpt lat="45.89662" lon="4.72146">
        <ele>179</ele>
        <time>2017-07-29T10:09:40Z</time>
      </trkpt>
      <trkpt lat="45.89662" lon="4.72134">
        <ele>179</ele>
        <time>2017-07-29T10:09:42Z</time>
      </trkpt>
      <trkpt lat="45.89662" lon="4.72127">
        <ele>179</ele>
        <time>2017-07-29T10:09:43Z</time>
      </trkpt>
      <trkpt lat="45.89662" lon="4.72115">
        <ele>179</ele>
        <time>2017-07-29T10:09:45Z</time>
      </trkpt>
      <trkpt lat="45.89663" lon="4.7211">
        <ele>179</ele>
        <time>2017-07-29T10:09:46Z</time>
      </trkpt>
      <trkpt lat="45.89664" lon="4.72097">
        <ele>180</ele>
        <time>2017-07-29T10:09:48Z</time>
      </trkpt>
      <trkpt lat="45.89664" lon="4.72091">
        <ele>180</ele>
        <time>2017-07-29T10:09:49Z</time>
      </trkpt>
      <trkpt lat="45.89664" lon="4.72078">
        <ele>180</ele>
        <time>2017-07-29T10:09:51Z</time>
      </trkpt>
      <trkpt lat="45.89664" lon="4.72072">
        <ele>180</ele>
        <time>2017-07-29T10:09:52Z</time>
      </trkpt>
      <trkpt lat="45.89664" lon="4.72065">
        <ele>180</ele>
        <time>2017-07-29T10:09:53Z</time>
      </trkpt>
      <trkpt lat="45.89664" lon="4.72058">
        <ele>180</ele>
        <time>2017-07-29T10:09:54Z</time>
      </trkpt>
      <trkpt lat="45.89664" lon="4.72046">
        <ele>180</ele>
        <time>2017-07-29T10:09:56Z</time>
      </trkpt>
      <trkpt lat="45.89664" lon="4.7204">
        <ele>180</ele>
        <time>2017-07-29T10:09:57Z</time>
      </trkpt>
      <trkpt lat="45.89665" lon="4.72034">
        <ele>180</ele>
        <time>2017-07-29T10:09:58Z</time>
      </trkpt>
      <trkpt lat="45.89665" lon="4.72027">
        <ele>180</ele>
        <time>2017-07-29T10:09:59Z</time>
      </trkpt>
      <trkpt lat="45.89665" lon="4.7202">
        <ele>180</ele>
        <time>2017-07-29T10:10:00Z</time>
      </trkpt>
      <trkpt lat="45.89664" lon="4.72013">
        <ele>181</ele>
        <time>2017-07-29T10:10:01Z</time>
      </trkpt>
      <trkpt lat="45.89664" lon="4.72001">
        <ele>181</ele>
        <time>2017-07-29T10:10:03Z</time>
      </trkpt>
      <trkpt lat="45.89664" lon="4.71995">
        <ele>181</ele>
        <time>2017-07-29T10:10:04Z</time>
      </trkpt>
      <trkpt lat="45.89666" lon="4.71985">
        <ele>181</ele>
        <time>2017-07-29T10:10:06Z</time>
      </trkpt>
      <trkpt lat="45.89666" lon="4.71979">
        <ele>181</ele>
        <time>2017-07-29T10:10:07Z</time>
      </trkpt>
      <trkpt lat="45.89667" lon="4.71967">
        <ele>181</ele>
        <time>2017-07-29T10:10:09Z</time>
      </trkpt>
      <trkpt lat="45.89667" lon="4.71961">
        <ele>181</ele>
        <time>2017-07-29T10:10:10Z</time>
      </trkpt>
      <trkpt lat="45.89668" lon="4.71949">
        <ele>181</ele>
        <time>2017-07-29T10:10:12Z</time>
      </trkpt>
      <trkpt lat="45.89668" lon="4.71944">
        <ele>181</ele>
        <time>2017-07-29T10:10:13Z</time>
      </trkpt>
      <trkpt lat="45.89668" lon="4.71932">
        <ele>181</ele>
        <time>2017-07-29T10:10:15Z</time>
      </trkpt>
      <trkpt lat="45.89668" lon="4.71926">
        <ele>181</ele>
        <time>2017-07-29T10:10:16Z</time>
      </trkpt>
      <trkpt lat="45.89669" lon="4.71913">
        <ele>181</ele>
        <time>2017-07-29T10:10:18Z</time>
      </trkpt>
      <trkpt lat="45.8967" lon="4.71907">
        <ele>181</ele>
        <time>2017-07-29T10:10:19Z</time>
      </trkpt>
      <trkpt lat="45.8967" lon="4.71895">
        <ele>181</ele>
        <time>2017-07-29T10:10:21Z</time>
      </trkpt>
      <trkpt lat="45.89669" lon="4.71889">
        <ele>181</ele>
        <time>2017-07-29T10:10:22Z</time>
      </trkpt>
      <trkpt lat="45.89668" lon="4.71879">
        <ele>181</ele>
        <time>2017-07-29T10:10:24Z</time>
      </trkpt>
      <trkpt lat="45.89668" lon="4.71874">
        <ele>181</ele>
        <time>2017-07-29T10:10:25Z</time>
      </trkpt>
      <trkpt lat="45.89668" lon="4.71863">
        <ele>181</ele>
        <time>2017-07-29T10:10:27Z</time>
      </trkpt>
      <trkpt lat="45.89668" lon="4.71857">
        <ele>181</ele>
        <time>2017-07-29T10:10:28Z</time>
      </trkpt>
      <trkpt lat="45.89669" lon="4.71845">
        <ele>181</ele>
        <time>2017-07-29T10:10:30Z</time>
      </trkpt>
      <trkpt lat="45.89669" lon="4.71839">
        <ele>181</ele>
        <time>2017-07-29T10:10:31Z</time>
      </trkpt>
      <trkpt lat="45.89669" lon="4.71827">
        <ele>181</ele>
        <time>2017-07-29T10:10:33Z</time>
      </trkpt>
      <trkpt lat="45.89671" lon="4.71822">
        <ele>182</ele>
        <time>2017-07-29T10:10:34Z</time>
      </trkpt>
      <trkpt lat="45.89671" lon="4.71811">
        <ele>182</ele>
        <time>2017-07-29T10:10:36Z</time>
      </trkpt>
      <trkpt lat="45.89672" lon="4.71805">
        <ele>182</ele>
        <time>2017-07-29T10:10:37Z</time>
      </trkpt>
      <trkpt lat="45.89672" lon="4.71794">
        <ele>182</ele>
        <time>2017-07-29T10:10:39Z</time>
      </trkpt>
      <trkpt lat="45.8967" lon="4.71787">
        <ele>183</ele>
        <time>2017-07-29T10:10:40Z</time>
      </trkpt>
      <trkpt lat="45.89668" lon="4.71776">
        <ele>183</ele>
        <time>2017-07-29T10:10:42Z</time>
      </trkpt>
      <trkpt lat="45.89667" lon="4.7177">
        <ele>182</ele>
        <time>2017-07-29T10:10:43Z</time>
      </trkpt>
      <trkpt lat="45.89666" lon="4.7176">
        <ele>183</ele>
        <time>2017-07-29T10:10:45Z</time>
      </trkpt>
      <trkpt lat="45.89665" lon="4.71755">
        <ele>183</ele>
        <time>2017-07-29T10:10:46Z</time>
      </trkpt>
      <trkpt lat="45.89663" lon="4.71745">
        <ele>183</ele>
        <time>2017-07-29T10:10:48Z</time>
      </trkpt>
      <trkpt lat="45.89662" lon="4.7174">
        <ele>184</ele>
        <time>2017-07-29T10:10:49Z</time>
      </trkpt>
      <trkpt lat="45.89662" lon="4.71731">
        <ele>184</ele>
        <time>2017-07-29T10:10:51Z</time>
      </trkpt>
      <trkpt lat="45.89662" lon="4.71727">
        <ele>184</ele>
        <time>2017-07-29T10:10:52Z</time>
      </trkpt>
      <trkpt lat="45.8966" lon="4.71718">
        <ele>185</ele>
        <time>2017-07-29T10:10:54Z</time>
      </trkpt>
      <trkpt lat="45.8966" lon="4.71714">
        <ele>185</ele>
        <time>2017-07-29T10:10:55Z</time>
      </trkpt>
      <trkpt lat="45.89659" lon="4.71705">
        <ele>185</ele>
        <time>2017-07-29T10:10:57Z</time>
      </trkpt>
      <trkpt lat="45.89659" lon="4.717">
        <ele>185</ele>
        <time>2017-07-29T10:10:58Z</time>
      </trkpt>
      <trkpt lat="45.89656" lon="4.71691">
        <ele>186</ele>
        <time>2017-07-29T10:11:00Z</time>
      </trkpt>
      <trkpt lat="45.89653" lon="4.71685">
        <ele>186</ele>
        <time>2017-07-29T10:11:01Z</time>
      </trkpt>
      <trkpt lat="45.89653" lon="4.71673">
        <ele>186</ele>
        <time>2017-07-29T10:11:04Z</time>
      </trkpt>
      <trkpt lat="45.89653" lon="4.7167">
        <ele>186</ele>
        <time>2017-07-29T10:11:05Z</time>
      </trkpt>
      <trkpt lat="45.89653" lon="4.71659">
        <ele>188</ele>
        <time>2017-07-29T10:11:08Z</time>
      </trkpt>
      <trkpt lat="45.89652" lon="4.71655">
        <ele>189</ele>
        <time>2017-07-29T10:11:09Z</time>
      </trkpt>
      <trkpt lat="45.8965" lon="4.71643">
        <ele>189</ele>
        <time>2017-07-29T10:11:12Z</time>
      </trkpt>
      <trkpt lat="45.89649" lon="4.71639">
        <ele>189</ele>
        <time>2017-07-29T10:11:13Z</time>
      </trkpt>
      <trkpt lat="45.89647" lon="4.71628">
        <ele>190</ele>
        <time>2017-07-29T10:11:16Z</time>
      </trkpt>
      <trkpt lat="45.89646" lon="4.71624">
        <ele>190</ele>
        <time>2017-07-29T10:11:17Z</time>
      </trkpt>
      <trkpt lat="45.89646" lon="4.71614">
        <ele>190</ele>
        <time>2017-07-29T10:11:20Z</time>
      </trkpt>
      <trkpt lat="45.89645" lon="4.7161">
        <ele>190</ele>
        <time>2017-07-29T10:11:21Z</time>
      </trkpt>
      <trkpt lat="45.89644" lon="4.71599">
        <ele>191</ele>
        <time>2017-07-29T10:11:24Z</time>
      </trkpt>
      <trkpt lat="45.89644" lon="4.71595">
        <ele>191</ele>
        <time>2017-07-29T10:11:25Z</time>
      </trkpt>
      <trkpt lat="45.89643" lon="4.71583">
        <ele>193</ele>
        <time>2017-07-29T10:11:28Z</time>
      </trkpt>
      <trkpt lat="45.89642" lon="4.71579">
        <ele>193</ele>
        <time>2017-07-29T10:11:29Z</time>
      </trkpt>
      <trkpt lat="45.89643" lon="4.71567">
        <ele>193</ele>
        <time>2017-07-29T10:11:32Z</time>
      </trkpt>
      <trkpt lat="45.89644" lon="4.71563">
        <ele>193</ele>
        <time>2017-07-29T10:11:33Z</time>
      </trkpt>
      <trkpt lat="45.89649" lon="4.71554">
        <ele>193</ele>
        <time>2017-07-29T10:11:36Z</time>
      </trkpt>
      <trkpt lat="45.89651" lon="4.71551">
        <ele>193</ele>
        <time>2017-07-29T10:11:37Z</time>
      </trkpt>
      <trkpt lat="45.89659" lon="4.71547">
        <ele>193</ele>
        <time>2017-07-29T10:11:40Z</time>
      </trkpt>
      <trkpt lat="45.89662" lon="4.71546">
        <ele>193</ele>
        <time>2017-07-29T10:11:41Z</time>
      </trkpt>
      <trkpt lat="45.89669" lon="4.71544">
        <ele>193</ele>
        <time>2017-07-29T10:11:43Z</time>
      </trkpt>
      <trkpt lat="45.89672" lon="4.71543">
        <ele>193</ele>
        <time>2017-07-29T10:11:44Z</time>
      </trkpt>
      <trkpt lat="45.8968" lon="4.71545">
        <ele>193</ele>
        <time>2017-07-29T10:11:46Z</time>
      </trkpt>
      <trkpt lat="45.89683" lon="4.71544">
        <ele>193</ele>
        <time>2017-07-29T10:11:47Z</time>
      </trkpt>
      <trkpt lat="45.8969" lon="4.71543">
        <ele>193</ele>
        <time>2017-07-29T10:11:49Z</time>
      </trkpt>
      <trkpt lat="45.89694" lon="4.71542">
        <ele>193</ele>
        <time>2017-07-29T10:11:50Z</time>
      </trkpt>
      <trkpt lat="45.89701" lon="4.71541">
        <ele>193</ele>
        <time>2017-07-29T10:11:52Z</time>
      </trkpt>
      <trkpt lat="45.89704" lon="4.71541">
        <ele>193</ele>
        <time>2017-07-29T10:11:53Z</time>
      </trkpt>
      <trkpt lat="45.89712" lon="4.7154">
        <ele>193</ele>
        <time>2017-07-29T10:11:55Z</time>
      </trkpt>
      <trkpt lat="45.89715" lon="4.71539">
        <ele>193</ele>
        <time>2017-07-29T10:11:56Z</time>
      </trkpt>
      <trkpt lat="45.89723" lon="4.71539">
        <ele>192</ele>
        <time>2017-07-29T10:11:58Z</time>
      </trkpt>
      <trkpt lat="45.89726" lon="4.71538">
        <ele>192</ele>
        <time>2017-07-29T10:11:59Z</time>
      </trkpt>
      <trkpt lat="45.89734" lon="4.71539">
        <ele>192</ele>
        <time>2017-07-29T10:12:01Z</time>
      </trkpt>
      <trkpt lat="45.89737" lon="4.71538">
        <ele>192</ele>
        <time>2017-07-29T10:12:02Z</time>
      </trkpt>
      <trkpt lat="45.89745" lon="4.71538">
        <ele>192</ele>
        <time>2017-07-29T10:12:04Z</time>
      </trkpt>
      <trkpt lat="45.8975" lon="4.71538">
        <ele>192</ele>
        <time>2017-07-29T10:12:05Z</time>
      </trkpt>
      <trkpt lat="45.89754" lon="4.71537">
        <ele>192</ele>
        <time>2017-07-29T10:12:06Z</time>
      </trkpt>
      <trkpt lat="45.89759" lon="4.71537">
        <ele>192</ele>
        <time>2017-07-29T10:12:07Z</time>
      </trkpt>
      <trkpt lat="45.89764" lon="4.71536">
        <ele>192</ele>
        <time>2017-07-29T10:12:08Z</time>
      </trkpt>
      <trkpt lat="45.89768" lon="4.71536">
        <ele>192</ele>
        <time>2017-07-29T10:12:09Z</time>
      </trkpt>
      <trkpt lat="45.89773" lon="4.71537">
        <ele>192</ele>
        <time>2017-07-29T10:12:10Z</time>
      </trkpt>
      <trkpt lat="45.89778" lon="4.71537">
        <ele>192</ele>
        <time>2017-07-29T10:12:11Z</time>
      </trkpt>
      <trkpt lat="45.89784" lon="4.71538">
        <ele>192</ele>
        <time>2017-07-29T10:12:12Z</time>
      </trkpt>
      <trkpt lat="45.89789" lon="4.71538">
        <ele>192</ele>
        <time>2017-07-29T10:12:13Z</time>
      </trkpt>
      <trkpt lat="45.89794" lon="4.71538">
        <ele>192</ele>
        <time>2017-07-29T10:12:14Z</time>
      </trkpt>
      <trkpt lat="45.898" lon="4.71538">
        <ele>192</ele>
        <time>2017-07-29T10:12:15Z</time>
      </trkpt>
      <trkpt lat="45.89805" lon="4.71539">
        <ele>192</ele>
        <time>2017-07-29T10:12:16Z</time>
      </trkpt>
      <trkpt lat="45.89811" lon="4.7154">
        <ele>192</ele>
        <time>2017-07-29T10:12:17Z</time>
      </trkpt>
      <trkpt lat="45.89816" lon="4.71542">
        <ele>192</ele>
        <time>2017-07-29T10:12:18Z</time>
      </trkpt>
      <trkpt lat="45.89823" lon="4.71543">
        <ele>192</ele>
        <time>2017-07-29T10:12:19Z</time>
      </trkpt>
      <trkpt lat="45.89829" lon="4.71544">
        <ele>192</ele>
        <time>2017-07-29T10:12:20Z</time>
      </trkpt>
      <trkpt lat="45.89836" lon="4.71545">
        <ele>192</ele>
        <time>2017-07-29T10:12:21Z</time>
      </trkpt>
      <trkpt lat="45.89843" lon="4.71545">
        <ele>192</ele>
        <time>2017-07-29T10:12:22Z</time>
      </trkpt>
      <trkpt lat="45.89849" lon="4.71546">
        <ele>192</ele>
        <time>2017-07-29T10:12:23Z</time>
      </trkpt>
      <trkpt lat="45.89856" lon="4.71548">
        <ele>192</ele>
        <time>2017-07-29T10:12:24Z</time>
      </trkpt>
      <trkpt lat="45.89862" lon="4.71548">
        <ele>192</ele>
        <time>2017-07-29T10:12:25Z</time>
      </trkpt>
      <trkpt lat="45.89869" lon="4.71548">
        <ele>192</ele>
        <time>2017-07-29T10:12:26Z</time>
      </trkpt>
      <trkpt lat="45.89876" lon="4.71547">
        <ele>192</ele>
        <time>2017-07-29T10:12:27Z</time>
      </trkpt>
      <trkpt lat="45.89882" lon="4.71546">
        <ele>192</ele>
        <time>2017-07-29T10:12:28Z</time>
      </trkpt>
      <trkpt lat="45.89889" lon="4.71545">
        <ele>192</ele>
        <time>2017-07-29T10:12:29Z</time>
      </trkpt>
      <trkpt lat="45.89895" lon="4.71544">
        <ele>192</ele>
        <time>2017-07-29T10:12:30Z</time>
      </trkpt>
      <trkpt lat="45.89901" lon="4.71544">
        <ele>192</ele>
        <time>2017-07-29T10:12:31Z</time>
      </trkpt>
      <trkpt lat="45.89906" lon="4.71542">
        <ele>192</ele>
        <time>2017-07-29T10:12:32Z</time>
      </trkpt>
      <trkpt lat="45.89911" lon="4.71541">
        <ele>193</ele>
        <time>2017-07-29T10:12:33Z</time>
      </trkpt>
      <trkpt lat="45.89916" lon="4.71539">
        <ele>193</ele>
        <time>2017-07-29T10:12:34Z</time>
      </trkpt>
      <trkpt lat="45.89922" lon="4.71537">
        <ele>193</ele>
        <time>2017-07-29T10:12:35Z</time>
      </trkpt>
      <trkpt lat="45.89927" lon="4.71536">
        <ele>193</ele>
        <time>2017-07-29T10:12:36Z</time>
      </trkpt>
      <trkpt lat="45.89931" lon="4.71535">
        <ele>193</ele>
        <time>2017-07-29T10:12:37Z</time>
      </trkpt>
      <trkpt lat="45.89936" lon="4.71534">
        <ele>193</ele>
        <time>2017-07-29T10:12:38Z</time>
      </trkpt>
      <trkpt lat="45.8994" lon="4.71533">
        <ele>193</ele>
        <time>2017-07-29T10:12:39Z</time>
      </trkpt>
      <trkpt lat="45.89945" lon="4.71533">
        <ele>193</ele>
        <time>2017-07-29T10:12:40Z</time>
      </trkpt>
      <trkpt lat="45.89949" lon="4.71533">
        <ele>193</ele>
        <time>2017-07-29T10:12:41Z</time>
      </trkpt>
      <trkpt lat="45.89958" lon="4.71533">
        <ele>194</ele>
        <time>2017-07-29T10:12:43Z</time>
      </trkpt>
      <trkpt lat="45.89962" lon="4.71532">
        <ele>194</ele>
        <time>2017-07-29T10:12:44Z</time>
      </trkpt>
      <trkpt lat="45.89969" lon="4.71533">
        <ele>194</ele>
        <time>2017-07-29T10:12:46Z</time>
      </trkpt>
      <trkpt lat="45.89973" lon="4.71533">
        <ele>194</ele>
        <time>2017-07-29T10:12:47Z</time>
      </trkpt>
      <trkpt lat="45.89981" lon="4.71533">
        <ele>194</ele>
        <time>2017-07-29T10:12:49Z</time>
      </trkpt>
      <trkpt lat="45.89985" lon="4.71533">
        <ele>194</ele>
        <time>2017-07-29T10:12:50Z</time>
      </trkpt>
      <trkpt lat="45.89993" lon="4.71533">
        <ele>194</ele>
        <time>2017-07-29T10:12:52Z</time>
      </trkpt>
      <trkpt lat="45.89997" lon="4.71532">
        <ele>194</ele>
        <time>2017-07-29T10:12:53Z</time>
      </trkpt>
      <trkpt lat="45.90005" lon="4.7153">
        <ele>196</ele>
        <time>2017-07-29T10:12:55Z</time>
      </trkpt>
      <trkpt lat="45.90009" lon="4.7153">
        <ele>196</ele>
        <time>2017-07-29T10:12:56Z</time>
      </trkpt>
      <trkpt lat="45.90016" lon="4.7153">
        <ele>197</ele>
        <time>2017-07-29T10:12:58Z</time>
      </trkpt>
      <trkpt lat="45.90019" lon="4.7153">
        <ele>197</ele>
        <time>2017-07-29T10:12:59Z</time>
      </trkpt>
      <trkpt lat="45.90026" lon="4.71531">
        <ele>197</ele>
        <time>2017-07-29T10:13:01Z</time>
      </trkpt>
      <trkpt lat="45.90029" lon="4.71532">
        <ele>197</ele>
        <time>2017-07-29T10:13:02Z</time>
      </trkpt>
      <trkpt lat="45.90037" lon="4.71531">
        <ele>197</ele>
        <time>2017-07-29T10:13:05Z</time>
      </trkpt>
      <trkpt lat="45.9004" lon="4.71531">
        <ele>197</ele>
        <time>2017-07-29T10:13:06Z</time>
      </trkpt>
      <trkpt lat="45.90047" lon="4.71532">
        <ele>198</ele>
        <time>2017-07-29T10:13:08Z</time>
      </trkpt>
      <trkpt lat="45.9005" lon="4.71532">
        <ele>198</ele>
        <time>2017-07-29T10:13:09Z</time>
      </trkpt>
      <trkpt lat="45.90056" lon="4.71532">
        <ele>198</ele>
        <time>2017-07-29T10:13:11Z</time>
      </trkpt>
      <trkpt lat="45.9006" lon="4.71532">
        <ele>198</ele>
        <time>2017-07-29T10:13:12Z</time>
      </trkpt>
      <trkpt lat="45.90068" lon="4.71531">
        <ele>198</ele>
        <time>2017-07-29T10:13:15Z</time>
      </trkpt>
      <trkpt lat="45.90071" lon="4.71532">
        <ele>198</ele>
        <time>2017-07-29T10:13:16Z</time>
      </trkpt>
      <trkpt lat="45.90079" lon="4.71531">
        <ele>199</ele>
        <time>2017-07-29T10:13:19Z</time>
      </trkpt>
      <trkpt lat="45.90082" lon="4.71531">
        <ele>199</ele>
        <time>2017-07-29T10:13:20Z</time>
      </trkpt>
      <trkpt lat="45.90089" lon="4.71531">
        <ele>201</ele>
        <time>2017-07-29T10:13:22Z</time>
      </trkpt>
      <trkpt lat="45.90092" lon="4.71531">
        <ele>201</ele>
        <time>2017-07-29T10:13:23Z</time>
      </trkpt>
      <trkpt lat="45.90098" lon="4.71533">
        <ele>200</ele>
        <time>2017-07-29T10:13:25Z</time>
      </trkpt>
      <trkpt lat="45.90102" lon="4.71534">
        <ele>200</ele>
        <time>2017-07-29T10:13:26Z</time>
      </trkpt>
      <trkpt lat="45.90108" lon="4.71533">
        <ele>201</ele>
        <time>2017-07-29T10:13:28Z</time>
      </trkpt>
      <trkpt lat="45.90111" lon="4.71532">
        <ele>201</ele>
        <time>2017-07-29T10:13:29Z</time>
      </trkpt>
      <trkpt lat="45.90116" lon="4.71539">
        <ele>200</ele>
        <time>2017-07-29T10:13:31Z</time>
      </trkpt>
      <trkpt lat="45.90119" lon="4.7154">
        <ele>200</ele>
        <time>2017-07-29T10:13:32Z</time>
      </trkpt>
      <trkpt lat="45.90124" lon="4.71542">
        <ele>200</ele>
        <time>2017-07-29T10:13:34Z</time>
      </trkpt>
      <trkpt lat="45.90128" lon="4.71543">
        <ele>200</ele>
        <time>2017-07-29T10:13:35Z</time>
      </trkpt>
      <trkpt lat="45.90133" lon="4.71544">
        <ele>201</ele>
        <time>2017-07-29T10:13:36Z</time>
      </trkpt>
      <trkpt lat="45.90137" lon="4.71543">
        <ele>201</ele>
        <time>2017-07-29T10:13:37Z</time>
      </trkpt>
      <trkpt lat="45.90145" lon="4.71542">
        <ele>201</ele>
        <time>2017-07-29T10:13:39Z</time>
      </trkpt>
      <trkpt lat="45.90149" lon="4.71543">
        <ele>201</ele>
        <time>2017-07-29T10:13:40Z</time>
      </trkpt>
      <trkpt lat="45.90158" lon="4.71544">
        <ele>201</ele>
        <time>2017-07-29T10:13:42Z</time>
      </trkpt>
      <trkpt lat="45.90161" lon="4.71544">
        <ele>201</ele>
        <time>2017-07-29T10:13:43Z</time>
      </trkpt>
      <trkpt lat="45.90169" lon="4.71546">
        <ele>200</ele>
        <time>2017-07-29T10:13:45Z</time>
      </trkpt>
      <trkpt lat="45.90174" lon="4.71547">
        <ele>200</ele>
        <time>2017-07-29T10:13:46Z</time>
      </trkpt>
      <trkpt lat="45.90182" lon="4.71548">
        <ele>200</ele>
        <time>2017-07-29T10:13:48Z</time>
      </trkpt>
      <trkpt lat="45.90186" lon="4.71548">
        <ele>200</ele>
        <time>2017-07-29T10:13:49Z</time>
      </trkpt>
      <trkpt lat="45.90191" lon="4.71548">
        <ele>200</ele>
        <time>2017-07-29T10:13:50Z</time>
      </trkpt>
      <trkpt lat="45.90196" lon="4.71548">
        <ele>199</ele>
        <time>2017-07-29T10:13:51Z</time>
      </trkpt>
      <trkpt lat="45.90202" lon="4.71549">
        <ele>199</ele>
        <time>2017-07-29T10:13:52Z</time>
      </trkpt>
      <trkpt lat="45.90206" lon="4.71549">
        <ele>199</ele>
        <time>2017-07-29T10:13:53Z</time>
      </trkpt>
      <trkpt lat="45.90211" lon="4.7155">
        <ele>199</ele>
        <time>2017-07-29T10:13:54Z</time>
      </trkpt>
      <trkpt lat="45.90216" lon="4.71551">
        <ele>199</ele>
        <time>2017-07-29T10:13:55Z</time>
      </trkpt>
      <trkpt lat="45.90221" lon="4.71551">
        <ele>199</ele>
        <time>2017-07-29T10:13:56Z</time>
      </trkpt>
      <trkpt lat="45.90227" lon="4.71552">
        <ele>199</ele>
        <time>2017-07-29T10:13:57Z</time>
      </trkpt>
      <trkpt lat="45.90232" lon="4.71551">
        <ele>199</ele>
        <time>2017-07-29T10:13:58Z</time>
      </trkpt>
      <trkpt lat="45.90237" lon="4.71546">
        <ele>199</ele>
        <time>2017-07-29T10:13:59Z</time>
      </trkpt>
      <trkpt lat="45.90243" lon="4.71543">
        <ele>199</ele>
        <time>2017-07-29T10:14:00Z</time>
      </trkpt>
      <trkpt lat="45.90249" lon="4.71542">
        <ele>199</ele>
        <time>2017-07-29T10:14:01Z</time>
      </trkpt>
      <trkpt lat="45.90255" lon="4.71541">
        <ele>196</ele>
        <time>2017-07-29T10:14:02Z</time>
      </trkpt>
      <trkpt lat="45.90262" lon="4.71539">
        <ele>196</ele>
        <time>2017-07-29T10:14:03Z</time>
      </trkpt>
      <trkpt lat="45.90268" lon="4.71539">
        <ele>196</ele>
        <time>2017-07-29T10:14:04Z</time>
      </trkpt>
      <trkpt lat="45.90273" lon="4.7154">
        <ele>196</ele>
        <time>2017-07-29T10:14:05Z</time>
      </trkpt>
      <trkpt lat="45.90277" lon="4.71551">
        <ele>195</ele>
        <time>2017-07-29T10:14:07Z</time>
      </trkpt>
      <trkpt lat="45.90277" lon="4.71557">
        <ele>195</ele>
        <time>2017-07-29T10:14:08Z</time>
      </trkpt>
      <trkpt lat="45.90276" lon="4.71569">
        <ele>195</ele>
        <time>2017-07-29T10:14:10Z</time>
      </trkpt>
      <trkpt lat="45.90276" lon="4.71576">
        <ele>195</ele>
        <time>2017-07-29T10:14:11Z</time>
      </trkpt>
      <trkpt lat="45.90275" lon="4.71584">
        <ele>194</ele>
        <time>2017-07-29T10:14:12Z</time>
      </trkpt>
      <trkpt lat="45.90275" lon="4.71591">
        <ele>194</ele>
        <time>2017-07-29T10:14:13Z</time>
      </trkpt>
      <trkpt lat="45.90274" lon="4.71599">
        <ele>193</ele>
        <time>2017-07-29T10:14:14Z</time>
      </trkpt>
      <trkpt lat="45.90272" lon="4.71607">
        <ele>193</ele>
        <time>2017-07-29T10:14:15Z</time>
      </trkpt>
      <trkpt lat="45.90271" lon="4.71615">
        <ele>193</ele>
        <time>2017-07-29T10:14:16Z</time>
      </trkpt>
      <trkpt lat="45.90271" lon="4.71624">
        <ele>193</ele>
        <time>2017-07-29T10:14:17Z</time>
      </trkpt>
      <trkpt lat="45.90271" lon="4.71634">
        <ele>192</ele>
        <time>2017-07-29T10:14:18Z</time>
      </trkpt>
      <trkpt lat="45.9027" lon="4.71644">
        <ele>192</ele>
        <time>2017-07-29T10:14:19Z</time>
      </trkpt>
      <trkpt lat="45.90268" lon="4.71655">
        <ele>192</ele>
        <time>2017-07-29T10:14:20Z</time>
      </trkpt>
      <trkpt lat="45.90267" lon="4.71667">
        <ele>192</ele>
        <time>2017-07-29T10:14:21Z</time>
      </trkpt>
      <trkpt lat="45.90265" lon="4.71678">
        <ele>189</ele>
        <time>2017-07-29T10:14:22Z</time>
      </trkpt>
      <trkpt lat="45.90263" lon="4.7169">
        <ele>188</ele>
        <time>2017-07-29T10:14:23Z</time>
      </trkpt>
      <trkpt lat="45.90261" lon="4.71701">
        <ele>188</ele>
        <time>2017-07-29T10:14:24Z</time>
      </trkpt>
      <trkpt lat="45.90259" lon="4.71712">
        <ele>187</ele>
        <time>2017-07-29T10:14:25Z</time>
      </trkpt>
      <trkpt lat="45.90258" lon="4.71723">
        <ele>186</ele>
        <time>2017-07-29T10:14:26Z</time>
      </trkpt>
      <trkpt lat="45.90256" lon="4.71733">
        <ele>186</ele>
        <time>2017-07-29T10:14:27Z</time>
      </trkpt>
      <trkpt lat="45.90255" lon="4.71745">
        <ele>185</ele>
        <time>2017-07-29T10:14:28Z</time>
      </trkpt>
      <trkpt lat="45.90254" lon="4.71757">
        <ele>184</ele>
        <time>2017-07-29T10:14:29Z</time>
      </trkpt>
      <trkpt lat="45.90253" lon="4.7177">
        <ele>183</ele>
        <time>2017-07-29T10:14:30Z</time>
      </trkpt>
      <trkpt lat="45.90252" lon="4.71782">
        <ele>183</ele>
        <time>2017-07-29T10:14:31Z</time>
      </trkpt>
      <trkpt lat="45.90251" lon="4.71795">
        <ele>182</ele>
        <time>2017-07-29T10:14:32Z</time>
      </trkpt>
      <trkpt lat="45.90249" lon="4.71808">
        <ele>184</ele>
        <time>2017-07-29T10:14:33Z</time>
      </trkpt>
      <trkpt lat="45.90244" lon="4.7182">
        <ele>183</ele>
        <time>2017-07-29T10:14:34Z</time>
      </trkpt>
      <trkpt lat="45.90239" lon="4.71831">
        <ele>183</ele>
        <time>2017-07-29T10:14:35Z</time>
      </trkpt>
      <trkpt lat="45.90233" lon="4.71841">
        <ele>182</ele>
        <time>2017-07-29T10:14:36Z</time>
      </trkpt>
      <trkpt lat="45.90227" lon="4.71851">
        <ele>181</ele>
        <time>2017-07-29T10:14:37Z</time>
      </trkpt>
      <trkpt lat="45.90222" lon="4.7186">
        <ele>181</ele>
        <time>2017-07-29T10:14:38Z</time>
      </trkpt>
      <trkpt lat="45.90216" lon="4.71869">
        <ele>180</ele>
        <time>2017-07-29T10:14:39Z</time>
      </trkpt>
      <trkpt lat="45.9021" lon="4.71878">
        <ele>180</ele>
        <time>2017-07-29T10:14:40Z</time>
      </trkpt>
      <trkpt lat="45.90205" lon="4.71887">
        <ele>180</ele>
        <time>2017-07-29T10:14:41Z</time>
      </trkpt>
      <trkpt lat="45.902" lon="4.71896">
        <ele>180</ele>
        <time>2017-07-29T10:14:42Z</time>
      </trkpt>
      <trkpt lat="45.90195" lon="4.71903">
        <ele>179</ele>
        <time>2017-07-29T10:14:43Z</time>
      </trkpt>
      <trkpt lat="45.9019" lon="4.71911">
        <ele>179</ele>
        <time>2017-07-29T10:14:44Z</time>
      </trkpt>
      <trkpt lat="45.90186" lon="4.71917">
        <ele>178</ele>
        <time>2017-07-29T10:14:45Z</time>
      </trkpt>
      <trkpt lat="45.90183" lon="4.71926">
        <ele>178</ele>
        <time>2017-07-29T10:14:46Z</time>
      </trkpt>
      <trkpt lat="45.90179" lon="4.71934">
        <ele>178</ele>
        <time>2017-07-29T10:14:47Z</time>
      </trkpt>
      <trkpt lat="45.90177" lon="4.71943">
        <ele>178</ele>
        <time>2017-07-29T10:14:48Z</time>
      </trkpt>
      <trkpt lat="45.90176" lon="4.71951">
        <ele>179</ele>
        <time>2017-07-29T10:14:49Z</time>
      </trkpt>
      <trkpt lat="45.90175" lon="4.7196">
        <ele>179</ele>
        <time>2017-07-29T10:14:50Z</time>
      </trkpt>
      <trkpt lat="45.90174" lon="4.71967">
        <ele>179</ele>
        <time>2017-07-29T10:14:51Z</time>
      </trkpt>
      <trkpt lat="45.90174" lon="4.71974">
        <ele>179</ele>
        <time>2017-07-29T10:14:52Z</time>
      </trkpt>
      <trkpt lat="45.90174" lon="4.71981">
        <ele>179</ele>
        <time>2017-07-29T10:14:53Z</time>
      </trkpt>
      <trkpt lat="45.90174" lon="4.71988">
        <ele>179</ele>
        <time>2017-07-29T10:14:54Z</time>
      </trkpt>
      <trkpt lat="45.90174" lon="4.71996">
        <ele>179</ele>
        <time>2017-07-29T10:14:55Z</time>
      </trkpt>
      <trkpt lat="45.90174" lon="4.72003">
        <ele>179</ele>
        <time>2017-07-29T10:14:56Z</time>
      </trkpt>
      <trkpt lat="45.90175" lon="4.72011">
        <ele>179</ele>
        <time>2017-07-29T10:14:57Z</time>
      </trkpt>
      <trkpt lat="45.90175" lon="4.72019">
        <ele>179</ele>
        <time>2017-07-29T10:14:58Z</time>
      </trkpt>
      <trkpt lat="45.90173" lon="4.72026">
        <ele>179</ele>
        <time>2017-07-29T10:14:59Z</time>
      </trkpt>
      <trkpt lat="45.90172" lon="4.72034">
        <ele>179</ele>
        <time>2017-07-29T10:15:00Z</time>
      </trkpt>
      <trkpt lat="45.90173" lon="4.72042">
        <ele>179</ele>
        <time>2017-07-29T10:15:01Z</time>
      </trkpt>
      <trkpt lat="45.90174" lon="4.7205">
        <ele>179</ele>
        <time>2017-07-29T10:15:02Z</time>
      </trkpt>
      <trkpt lat="45.90175" lon="4.72057">
        <ele>179</ele>
        <time>2017-07-29T10:15:03Z</time>
      </trkpt>
      <trkpt lat="45.90175" lon="4.72065">
        <ele>179</ele>
        <time>2017-07-29T10:15:04Z</time>
      </trkpt>
      <trkpt lat="45.90175" lon="4.72071">
        <ele>178</ele>
        <time>2017-07-29T10:15:05Z</time>
      </trkpt>
      <trkpt lat="45.90176" lon="4.72078">
        <ele>178</ele>
        <time>2017-07-29T10:15:06Z</time>
      </trkpt>
      <trkpt lat="45.90176" lon="4.72085">
        <ele>178</ele>
        <time>2017-07-29T10:15:07Z</time>
      </trkpt>
      <trkpt lat="45.90176" lon="4.72092">
        <ele>178</ele>
        <time>2017-07-29T10:15:08Z</time>
      </trkpt>
      <trkpt lat="45.90176" lon="4.721">
        <ele>178</ele>
        <time>2017-07-29T10:15:09Z</time>
      </trkpt>
      <trkpt lat="45.90177" lon="4.72107">
        <ele>178</ele>
        <time>2017-07-29T10:15:10Z</time>
      </trkpt>
      <trkpt lat="45.90178" lon="4.72115">
        <ele>178</ele>
        <time>2017-07-29T10:15:11Z</time>
      </trkpt>
      <trkpt lat="45.90178" lon="4.72123">
        <ele>178</ele>
        <time>2017-07-29T10:15:12Z</time>
      </trkpt>
      <trkpt lat="45.90178" lon="4.72131">
        <ele>178</ele>
        <time>2017-07-29T10:15:13Z</time>
      </trkpt>
      <trkpt lat="45.90178" lon="4.72139">
        <ele>178</ele>
        <time>2017-07-29T10:15:14Z</time>
      </trkpt>
      <trkpt lat="45.90179" lon="4.72147">
        <ele>178</ele>
        <time>2017-07-29T10:15:15Z</time>
      </trkpt>
      <trkpt lat="45.90179" lon="4.72153">
        <ele>178</ele>
        <time>2017-07-29T10:15:16Z</time>
      </trkpt>
      <trkpt lat="45.90179" lon="4.7216">
        <ele>178</ele>
        <time>2017-07-29T10:15:17Z</time>
      </trkpt>
      <trkpt lat="45.9018" lon="4.72167">
        <ele>177</ele>
        <time>2017-07-29T10:15:18Z</time>
      </trkpt>
      <trkpt lat="45.90181" lon="4.72175">
        <ele>177</ele>
        <time>2017-07-29T10:15:19Z</time>
      </trkpt>
      <trkpt lat="45.90181" lon="4.72183">
        <ele>177</ele>
        <time>2017-07-29T10:15:20Z</time>
      </trkpt>
      <trkpt lat="45.90183" lon="4.72191">
        <ele>177</ele>
        <time>2017-07-29T10:15:21Z</time>
      </trkpt>
      <trkpt lat="45.90184" lon="4.72198">
        <ele>177</ele>
        <time>2017-07-29T10:15:22Z</time>
      </trkpt>
      <trkpt lat="45.90184" lon="4.72206">
        <ele>177</ele>
        <time>2017-07-29T10:15:23Z</time>
      </trkpt>
      <trkpt lat="45.90185" lon="4.72212">
        <ele>177</ele>
        <time>2017-07-29T10:15:24Z</time>
      </trkpt>
      <trkpt lat="45.90186" lon="4.72225">
        <ele>177</ele>
        <time>2017-07-29T10:15:26Z</time>
      </trkpt>
      <trkpt lat="45.90187" lon="4.72231">
        <ele>177</ele>
        <time>2017-07-29T10:15:27Z</time>
      </trkpt>
      <trkpt lat="45.90187" lon="4.72238">
        <ele>177</ele>
        <time>2017-07-29T10:15:28Z</time>
      </trkpt>
      <trkpt lat="45.90188" lon="4.72245">
        <ele>177</ele>
        <time>2017-07-29T10:15:29Z</time>
      </trkpt>
      <trkpt lat="45.90189" lon="4.72253">
        <ele>177</ele>
        <time>2017-07-29T10:15:30Z</time>
      </trkpt>
      <trkpt lat="45.9019" lon="4.7226">
        <ele>177</ele>
        <time>2017-07-29T10:15:31Z</time>
      </trkpt>
      <trkpt lat="45.90191" lon="4.72267">
        <ele>177</ele>
        <time>2017-07-29T10:15:32Z</time>
      </trkpt>
      <trkpt lat="45.90193" lon="4.72273">
        <ele>177</ele>
        <time>2017-07-29T10:15:33Z</time>
      </trkpt>
      <trkpt lat="45.90194" lon="4.72281">
        <ele>177</ele>
        <time>2017-07-29T10:15:34Z</time>
      </trkpt>
      <trkpt lat="45.90196" lon="4.72287">
        <ele>177</ele>
        <time>2017-07-29T10:15:35Z</time>
      </trkpt>
      <trkpt lat="45.90199" lon="4.72297">
        <ele>177</ele>
        <time>2017-07-29T10:15:37Z</time>
      </trkpt>
      <trkpt lat="45.90201" lon="4.72303">
        <ele>177</ele>
        <time>2017-07-29T10:15:38Z</time>
      </trkpt>
      <trkpt lat="45.90204" lon="4.72307">
        <ele>177</ele>
        <time>2017-07-29T10:15:39Z</time>
      </trkpt>
      <trkpt lat="45.90208" lon="4.72311">
        <ele>177</ele>
        <time>2017-07-29T10:15:40Z</time>
      </trkpt>
      <trkpt lat="45.90216" lon="4.72314">
        <ele>177</ele>
        <time>2017-07-29T10:15:42Z</time>
      </trkpt>
      <trkpt lat="45.9022" lon="4.72314">
        <ele>177</ele>
        <time>2017-07-29T10:15:43Z</time>
      </trkpt>
      <trkpt lat="45.90224" lon="4.72313">
        <ele>177</ele>
        <time>2017-07-29T10:15:44Z</time>
      </trkpt>
      <trkpt lat="45.90229" lon="4.72313">
        <ele>177</ele>
        <time>2017-07-29T10:15:45Z</time>
      </trkpt>
      <trkpt lat="45.90234" lon="4.72313">
        <ele>177</ele>
        <time>2017-07-29T10:15:46Z</time>
      </trkpt>
      <trkpt lat="45.90239" lon="4.72311">
        <ele>177</ele>
        <time>2017-07-29T10:15:47Z</time>
      </trkpt>
      <trkpt lat="45.90244" lon="4.72309">
        <ele>177</ele>
        <time>2017-07-29T10:15:48Z</time>
      </trkpt>
      <trkpt lat="45.90249" lon="4.72307">
        <ele>177</ele>
        <time>2017-07-29T10:15:49Z</time>
      </trkpt>
      <trkpt lat="45.90254" lon="4.72306">
        <ele>177</ele>
        <time>2017-07-29T10:15:50Z</time>
      </trkpt>
      <trkpt lat="45.90259" lon="4.72305">
        <ele>177</ele>
        <time>2017-07-29T10:15:51Z</time>
      </trkpt>
      <trkpt lat="45.90268" lon="4.72303">
        <ele>177</ele>
        <time>2017-07-29T10:15:53Z</time>
      </trkpt>
      <trkpt lat="45.90272" lon="4.72302">
        <ele>177</ele>
        <time>2017-07-29T10:15:54Z</time>
      </trkpt>
      <trkpt lat="45.90279" lon="4.723">
        <ele>177</ele>
        <time>2017-07-29T10:15:56Z</time>
      </trkpt>
      <trkpt lat="45.90283" lon="4.72299">
        <ele>177</ele>
        <time>2017-07-29T10:15:57Z</time>
      </trkpt>
      <trkpt lat="45.90291" lon="4.72295">
        <ele>177</ele>
        <time>2017-07-29T10:15:59Z</time>
      </trkpt>
      <trkpt lat="45.90295" lon="4.72294">
        <ele>177</ele>
        <time>2017-07-29T10:16:00Z</time>
      </trkpt>
      <trkpt lat="45.90303" lon="4.72291">
        <ele>177</ele>
        <time>2017-07-29T10:16:02Z</time>
      </trkpt>
      <trkpt lat="45.90307" lon="4.72289">
        <ele>177</ele>
        <time>2017-07-29T10:16:03Z</time>
      </trkpt>
      <trkpt lat="45.90315" lon="4.72286">
        <ele>177</ele>
        <time>2017-07-29T10:16:05Z</time>
      </trkpt>
      <trkpt lat="45.90319" lon="4.72285">
        <ele>177</ele>
        <time>2017-07-29T10:16:06Z</time>
      </trkpt>
      <trkpt lat="45.90326" lon="4.72283">
        <ele>177</ele>
        <time>2017-07-29T10:16:08Z</time>
      </trkpt>
      <trkpt lat="45.90329" lon="4.72281">
        <ele>177</ele>
        <time>2017-07-29T10:16:09Z</time>
      </trkpt>
      <trkpt lat="45.90336" lon="4.72279">
        <ele>178</ele>
        <time>2017-07-29T10:16:11Z</time>
      </trkpt>
      <trkpt lat="45.9034" lon="4.72277">
        <ele>178</ele>
        <time>2017-07-29T10:16:12Z</time>
      </trkpt>
      <trkpt lat="45.90348" lon="4.72273">
        <ele>178</ele>
        <time>2017-07-29T10:16:14Z</time>
      </trkpt>
      <trkpt lat="45.90351" lon="4.72271">
        <ele>178</ele>
        <time>2017-07-29T10:16:15Z</time>
      </trkpt>
      <trkpt lat="45.90359" lon="4.72269">
        <ele>178</ele>
        <time>2017-07-29T10:16:17Z</time>
      </trkpt>
      <trkpt lat="45.90363" lon="4.72267">
        <ele>178</ele>
        <time>2017-07-29T10:16:18Z</time>
      </trkpt>
      <trkpt lat="45.90371" lon="4.72264">
        <ele>178</ele>
        <time>2017-07-29T10:16:20Z</time>
      </trkpt>
      <trkpt lat="45.90375" lon="4.72262">
        <ele>178</ele>
        <time>2017-07-29T10:16:21Z</time>
      </trkpt>
      <trkpt lat="45.90382" lon="4.72259">
        <ele>178</ele>
        <time>2017-07-29T10:16:23Z</time>
      </trkpt>
      <trkpt lat="45.90386" lon="4.72258">
        <ele>178</ele>
        <time>2017-07-29T10:16:24Z</time>
      </trkpt>
      <trkpt lat="45.90393" lon="4.72254">
        <ele>178</ele>
        <time>2017-07-29T10:16:26Z</time>
      </trkpt>
      <trkpt lat="45.90396" lon="4.72252">
        <ele>178</ele>
        <time>2017-07-29T10:16:27Z</time>
      </trkpt>
      <trkpt lat="45.90403" lon="4.7225">
        <ele>179</ele>
        <time>2017-07-29T10:16:29Z</time>
      </trkpt>
      <trkpt lat="45.90407" lon="4.72247">
        <ele>179</ele>
        <time>2017-07-29T10:16:30Z</time>
      </trkpt>
      <trkpt lat="45.90414" lon="4.72243">
        <ele>179</ele>
        <time>2017-07-29T10:16:32Z</time>
      </trkpt>
      <trkpt lat="45.90417" lon="4.7224">
        <ele>179</ele>
        <time>2017-07-29T10:16:33Z</time>
      </trkpt>
      <trkpt lat="45.90423" lon="4.72237">
        <ele>179</ele>
        <time>2017-07-29T10:16:35Z</time>
      </trkpt>
      <trkpt lat="45.90426" lon="4.72235">
        <ele>179</ele>
        <time>2017-07-29T10:16:36Z</time>
      </trkpt>
      <trkpt lat="45.90435" lon="4.72231">
        <ele>179</ele>
        <time>2017-07-29T10:16:38Z</time>
      </trkpt>
      <trkpt lat="45.90439" lon="4.72229">
        <ele>179</ele>
        <time>2017-07-29T10:16:39Z</time>
      </trkpt>
      <trkpt lat="45.90445" lon="4.72224">
        <ele>179</ele>
        <time>2017-07-29T10:16:41Z</time>
      </trkpt>
      <trkpt lat="45.90448" lon="4.72222">
        <ele>179</ele>
        <time>2017-07-29T10:16:42Z</time>
      </trkpt>
      <trkpt lat="45.90455" lon="4.72217">
        <ele>179</ele>
        <time>2017-07-29T10:16:44Z</time>
      </trkpt>
      <trkpt lat="45.90458" lon="4.72215">
        <ele>179</ele>
        <time>2017-07-29T10:16:45Z</time>
      </trkpt>
      <trkpt lat="45.90465" lon="4.72211">
        <ele>179</ele>
        <time>2017-07-29T10:16:47Z</time>
      </trkpt>
      <trkpt lat="45.90468" lon="4.72208">
        <ele>179</ele>
        <time>2017-07-29T10:16:48Z</time>
      </trkpt>
      <trkpt lat="45.90475" lon="4.72205">
        <ele>179</ele>
        <time>2017-07-29T10:16:50Z</time>
      </trkpt>
      <trkpt lat="45.90478" lon="4.72203">
        <ele>179</ele>
        <time>2017-07-29T10:16:51Z</time>
      </trkpt>
      <trkpt lat="45.90486" lon="4.72198">
        <ele>178</ele>
        <time>2017-07-29T10:16:53Z</time>
      </trkpt>
      <trkpt lat="45.9049" lon="4.72196">
        <ele>178</ele>
        <time>2017-07-29T10:16:54Z</time>
      </trkpt>
      <trkpt lat="45.90499" lon="4.72193">
        <ele>178</ele>
        <time>2017-07-29T10:16:56Z</time>
      </trkpt>
      <trkpt lat="45.90503" lon="4.72191">
        <ele>177</ele>
        <time>2017-07-29T10:16:57Z</time>
      </trkpt>
      <trkpt lat="45.9051" lon="4.72188">
        <ele>177</ele>
        <time>2017-07-29T10:16:59Z</time>
      </trkpt>
      <trkpt lat="45.90513" lon="4.72186">
        <ele>177</ele>
        <time>2017-07-29T10:17:00Z</time>
      </trkpt>
      <trkpt lat="45.90521" lon="4.72185">
        <ele>177</ele>
        <time>2017-07-29T10:17:02Z</time>
      </trkpt>
      <trkpt lat="45.90525" lon="4.72184">
        <ele>177</ele>
        <time>2017-07-29T10:17:03Z</time>
      </trkpt>
      <trkpt lat="45.9053" lon="4.72182">
        <ele>177</ele>
        <time>2017-07-29T10:17:04Z</time>
      </trkpt>
      <trkpt lat="45.90534" lon="4.7218">
        <ele>177</ele>
        <time>2017-07-29T10:17:05Z</time>
      </trkpt>
      <trkpt lat="45.90539" lon="4.72179">
        <ele>177</ele>
        <time>2017-07-29T10:17:06Z</time>
      </trkpt>
      <trkpt lat="45.90544" lon="4.72178">
        <ele>177</ele>
        <time>2017-07-29T10:17:07Z</time>
      </trkpt>
      <trkpt lat="45.90552" lon="4.72174">
        <ele>177</ele>
        <time>2017-07-29T10:17:09Z</time>
      </trkpt>
      <trkpt lat="45.90555" lon="4.72172">
        <ele>177</ele>
        <time>2017-07-29T10:17:10Z</time>
      </trkpt>
      <trkpt lat="45.90562" lon="4.72169">
        <ele>176</ele>
        <time>2017-07-29T10:17:12Z</time>
      </trkpt>
      <trkpt lat="45.90566" lon="4.72167">
        <ele>176</ele>
        <time>2017-07-29T10:17:13Z</time>
      </trkpt>
      <trkpt lat="45.90572" lon="4.72165">
        <ele>177</ele>
        <time>2017-07-29T10:17:15Z</time>
      </trkpt>
      <trkpt lat="45.90576" lon="4.72165">
        <ele>177</ele>
        <time>2017-07-29T10:17:16Z</time>
      </trkpt>
      <trkpt lat="45.90584" lon="4.72164">
        <ele>176</ele>
        <time>2017-07-29T10:17:18Z</time>
      </trkpt>
      <trkpt lat="45.90588" lon="4.72162">
        <ele>176</ele>
        <time>2017-07-29T10:17:19Z</time>
      </trkpt>
      <trkpt lat="45.90594" lon="4.72158">
        <ele>176</ele>
        <time>2017-07-29T10:17:21Z</time>
      </trkpt>
      <trkpt lat="45.90597" lon="4.72156">
        <ele>176</ele>
        <time>2017-07-29T10:17:22Z</time>
      </trkpt>
      <trkpt lat="45.90604" lon="4.72153">
        <ele>176</ele>
        <time>2017-07-29T10:17:24Z</time>
      </trkpt>
      <trkpt lat="45.90607" lon="4.72151">
        <ele>176</ele>
        <time>2017-07-29T10:17:25Z</time>
      </trkpt>
      <trkpt lat="45.90615" lon="4.72146">
        <ele>176</ele>
        <time>2017-07-29T10:17:27Z</time>
      </trkpt>
      <trkpt lat="45.90619" lon="4.72143">
        <ele>176</ele>
        <time>2017-07-29T10:17:28Z</time>
      </trkpt>
      <trkpt lat="45.90626" lon="4.72139">
        <ele>175</ele>
        <time>2017-07-29T10:17:30Z</time>
      </trkpt>
      <trkpt lat="45.9063" lon="4.72138">
        <ele>175</ele>
        <time>2017-07-29T10:17:31Z</time>
      </trkpt>
      <trkpt lat="45.90637" lon="4.72137">
        <ele>175</ele>
        <time>2017-07-29T10:17:33Z</time>
      </trkpt>
      <trkpt lat="45.90641" lon="4.72134">
        <ele>175</ele>
        <time>2017-07-29T10:17:34Z</time>
      </trkpt>
      <trkpt lat="45.9065" lon="4.72131">
        <ele>175</ele>
        <time>2017-07-29T10:17:36Z</time>
      </trkpt>
      <trkpt lat="45.90653" lon="4.72129">
        <ele>175</ele>
        <time>2017-07-29T10:17:37Z</time>
      </trkpt>
      <trkpt lat="45.9066" lon="4.72126">
        <ele>175</ele>
        <time>2017-07-29T10:17:39Z</time>
      </trkpt>
      <trkpt lat="45.90663" lon="4.72126">
        <ele>175</ele>
        <time>2017-07-29T10:17:40Z</time>
      </trkpt>
      <trkpt lat="45.90669" lon="4.72123">
        <ele>174</ele>
        <time>2017-07-29T10:17:42Z</time>
      </trkpt>
      <trkpt lat="45.90673" lon="4.72122">
        <ele>174</ele>
        <time>2017-07-29T10:17:43Z</time>
      </trkpt>
      <trkpt lat="45.90677" lon="4.72121">
        <ele>174</ele>
        <time>2017-07-29T10:17:44Z</time>
      </trkpt>
      <trkpt lat="45.90682" lon="4.72119">
        <ele>174</ele>
        <time>2017-07-29T10:17:45Z</time>
      </trkpt>
      <trkpt lat="45.90687" lon="4.72117">
        <ele>174</ele>
        <time>2017-07-29T10:17:46Z</time>
      </trkpt>
      <trkpt lat="45.90692" lon="4.72116">
        <ele>174</ele>
        <time>2017-07-29T10:17:47Z</time>
      </trkpt>
      <trkpt lat="45.90696" lon="4.72115">
        <ele>174</ele>
        <time>2017-07-29T10:17:48Z</time>
      </trkpt>
      <trkpt lat="45.90701" lon="4.72113">
        <ele>174</ele>
        <time>2017-07-29T10:17:49Z</time>
      </trkpt>
      <trkpt lat="45.90709" lon="4.72109">
        <ele>174</ele>
        <time>2017-07-29T10:17:51Z</time>
      </trkpt>
      <trkpt lat="45.90712" lon="4.72107">
        <ele>174</ele>
        <time>2017-07-29T10:17:52Z</time>
      </trkpt>
      <trkpt lat="45.90719" lon="4.72102">
        <ele>174</ele>
        <time>2017-07-29T10:17:54Z</time>
      </trkpt>
      <trkpt lat="45.90722" lon="4.72099">
        <ele>174</ele>
        <time>2017-07-29T10:17:55Z</time>
      </trkpt>
      <trkpt lat="45.9073" lon="4.72092">
        <ele>174</ele>
        <time>2017-07-29T10:17:57Z</time>
      </trkpt>
      <trkpt lat="45.90734" lon="4.72089">
        <ele>174</ele>
        <time>2017-07-29T10:17:58Z</time>
      </trkpt>
      <trkpt lat="45.90741" lon="4.72083">
        <ele>174</ele>
        <time>2017-07-29T10:18:00Z</time>
      </trkpt>
      <trkpt lat="45.90745" lon="4.7208">
        <ele>174</ele>
        <time>2017-07-29T10:18:01Z</time>
      </trkpt>
      <trkpt lat="45.90751" lon="4.72075">
        <ele>174</ele>
        <time>2017-07-29T10:18:03Z</time>
      </trkpt>
      <trkpt lat="45.90754" lon="4.72073">
        <ele>174</ele>
        <time>2017-07-29T10:18:04Z</time>
      </trkpt>
      <trkpt lat="45.90759" lon="4.72068">
        <ele>174</ele>
        <time>2017-07-29T10:18:06Z</time>
      </trkpt>
      <trkpt lat="45.90762" lon="4.72066">
        <ele>174</ele>
        <time>2017-07-29T10:18:07Z</time>
      </trkpt>
      <trkpt lat="45.90767" lon="4.72064">
        <ele>175</ele>
        <time>2017-07-29T10:18:09Z</time>
      </trkpt>
      <trkpt lat="45.90771" lon="4.72062">
        <ele>175</ele>
        <time>2017-07-29T10:18:10Z</time>
      </trkpt>
      <trkpt lat="45.90778" lon="4.72058">
        <ele>175</ele>
        <time>2017-07-29T10:18:12Z</time>
      </trkpt>
      <trkpt lat="45.90782" lon="4.72055">
        <ele>175</ele>
        <time>2017-07-29T10:18:13Z</time>
      </trkpt>
      <trkpt lat="45.90787" lon="4.72053">
        <ele>175</ele>
        <time>2017-07-29T10:18:14Z</time>
      </trkpt>
      <trkpt lat="45.90792" lon="4.72051">
        <ele>175</ele>
        <time>2017-07-29T10:18:15Z</time>
      </trkpt>
      <trkpt lat="45.90797" lon="4.72049">
        <ele>175</ele>
        <time>2017-07-29T10:18:16Z</time>
      </trkpt>
      <trkpt lat="45.90802" lon="4.72046">
        <ele>175</ele>
        <time>2017-07-29T10:18:17Z</time>
      </trkpt>
      <trkpt lat="45.90807" lon="4.72046">
        <ele>175</ele>
        <time>2017-07-29T10:18:18Z</time>
      </trkpt>
      <trkpt lat="45.90811" lon="4.72044">
        <ele>175</ele>
        <time>2017-07-29T10:18:19Z</time>
      </trkpt>
      <trkpt lat="45.90815" lon="4.72042">
        <ele>175</ele>
        <time>2017-07-29T10:18:20Z</time>
      </trkpt>
      <trkpt lat="45.9082" lon="4.7204">
        <ele>175</ele>
        <time>2017-07-29T10:18:21Z</time>
      </trkpt>
      <trkpt lat="45.90828" lon="4.72036">
        <ele>175</ele>
        <time>2017-07-29T10:18:23Z</time>
      </trkpt>
      <trkpt lat="45.90832" lon="4.72034">
        <ele>175</ele>
        <time>2017-07-29T10:18:24Z</time>
      </trkpt>
      <trkpt lat="45.90839" lon="4.7203">
        <ele>174</ele>
        <time>2017-07-29T10:18:26Z</time>
      </trkpt>
      <trkpt lat="45.90844" lon="4.72027">
        <ele>174</ele>
        <time>2017-07-29T10:18:27Z</time>
      </trkpt>
      <trkpt lat="45.90849" lon="4.72024">
        <ele>174</ele>
        <time>2017-07-29T10:18:28Z</time>
      </trkpt>
      <trkpt lat="45.90854" lon="4.72021">
        <ele>174</ele>
        <time>2017-07-29T10:18:29Z</time>
      </trkpt>
      <trkpt lat="45.90858" lon="4.72019">
        <ele>174</ele>
        <time>2017-07-29T10:18:30Z</time>
      </trkpt>
      <trkpt lat="45.90864" lon="4.72016">
        <ele>174</ele>
        <time>2017-07-29T10:18:31Z</time>
      </trkpt>
      <trkpt lat="45.90869" lon="4.72013">
        <ele>174</ele>
        <time>2017-07-29T10:18:32Z</time>
      </trkpt>
      <trkpt lat="45.90874" lon="4.72013">
        <ele>174</ele>
        <time>2017-07-29T10:18:33Z</time>
      </trkpt>
      <trkpt lat="45.90878" lon="4.7201">
        <ele>174</ele>
        <time>2017-07-29T10:18:34Z</time>
      </trkpt>
      <trkpt lat="45.90883" lon="4.72007">
        <ele>174</ele>
        <time>2017-07-29T10:18:35Z</time>
      </trkpt>
      <trkpt lat="45.90887" lon="4.72005">
        <ele>174</ele>
        <time>2017-07-29T10:18:36Z</time>
      </trkpt>
      <trkpt lat="45.90892" lon="4.72003">
        <ele>174</ele>
        <time>2017-07-29T10:18:37Z</time>
      </trkpt>
      <trkpt lat="45.90896" lon="4.72001">
        <ele>174</ele>
        <time>2017-07-29T10:18:38Z</time>
      </trkpt>
      <trkpt lat="45.90901" lon="4.71998">
        <ele>174</ele>
        <time>2017-07-29T10:18:39Z</time>
      </trkpt>
      <trkpt lat="45.90906" lon="4.71996">
        <ele>174</ele>
        <time>2017-07-29T10:18:40Z</time>
      </trkpt>
      <trkpt lat="45.90911" lon="4.71993">
        <ele>174</ele>
        <time>2017-07-29T10:18:41Z</time>
      </trkpt>
      <trkpt lat="45.90916" lon="4.71991">
        <ele>174</ele>
        <time>2017-07-29T10:18:42Z</time>
      </trkpt>
      <trkpt lat="45.90921" lon="4.71989">
        <ele>174</ele>
        <time>2017-07-29T10:18:43Z</time>
      </trkpt>
      <trkpt lat="45.90925" lon="4.71986">
        <ele>174</ele>
        <time>2017-07-29T10:18:44Z</time>
      </trkpt>
      <trkpt lat="45.9093" lon="4.71983">
        <ele>174</ele>
        <time>2017-07-29T10:18:45Z</time>
      </trkpt>
      <trkpt lat="45.90938" lon="4.71978">
        <ele>174</ele>
        <time>2017-07-29T10:18:47Z</time>
      </trkpt>
      <trkpt lat="45.90942" lon="4.71976">
        <ele>174</ele>
        <time>2017-07-29T10:18:48Z</time>
      </trkpt>
      <trkpt lat="45.90946" lon="4.71973">
        <ele>174</ele>
        <time>2017-07-29T10:18:49Z</time>
      </trkpt>
      <trkpt lat="45.90951" lon="4.7197">
        <ele>174</ele>
        <time>2017-07-29T10:18:50Z</time>
      </trkpt>
      <trkpt lat="45.90955" lon="4.71967">
        <ele>174</ele>
        <time>2017-07-29T10:18:51Z</time>
      </trkpt>
      <trkpt lat="45.9096" lon="4.71964">
        <ele>174</ele>
        <time>2017-07-29T10:18:52Z</time>
      </trkpt>
      <trkpt lat="45.90964" lon="4.71961">
        <ele>174</ele>
        <time>2017-07-29T10:18:53Z</time>
      </trkpt>
      <trkpt lat="45.90969" lon="4.71958">
        <ele>174</ele>
        <time>2017-07-29T10:18:54Z</time>
      </trkpt>
      <trkpt lat="45.90975" lon="4.71956">
        <ele>174</ele>
        <time>2017-07-29T10:18:55Z</time>
      </trkpt>
      <trkpt lat="45.9098" lon="4.71952">
        <ele>174</ele>
        <time>2017-07-29T10:18:56Z</time>
      </trkpt>
      <trkpt lat="45.90985" lon="4.71949">
        <ele>174</ele>
        <time>2017-07-29T10:18:57Z</time>
      </trkpt>
      <trkpt lat="45.90991" lon="4.71947">
        <ele>174</ele>
        <time>2017-07-29T10:18:58Z</time>
      </trkpt>
      <trkpt lat="45.90996" lon="4.71944">
        <ele>174</ele>
        <time>2017-07-29T10:18:59Z</time>
      </trkpt>
      <trkpt lat="45.91002" lon="4.71943">
        <ele>174</ele>
        <time>2017-07-29T10:19:00Z</time>
      </trkpt>
      <trkpt lat="45.91007" lon="4.71941">
        <ele>174</ele>
        <time>2017-07-29T10:19:01Z</time>
      </trkpt>
      <trkpt lat="45.91012" lon="4.7194">
        <ele>174</ele>
        <time>2017-07-29T10:19:02Z</time>
      </trkpt>
      <trkpt lat="45.91017" lon="4.71939">
        <ele>174</ele>
        <time>2017-07-29T10:19:03Z</time>
      </trkpt>
      <trkpt lat="45.91022" lon="4.71939">
        <ele>174</ele>
        <time>2017-07-29T10:19:04Z</time>
      </trkpt>
      <trkpt lat="45.91027" lon="4.71939">
        <ele>174</ele>
        <time>2017-07-29T10:19:05Z</time>
      </trkpt>
      <trkpt lat="45.91031" lon="4.71938">
        <ele>174</ele>
        <time>2017-07-29T10:19:06Z</time>
      </trkpt>
      <trkpt lat="45.91036" lon="4.71938">
        <ele>174</ele>
        <time>2017-07-29T10:19:07Z</time>
      </trkpt>
      <trkpt lat="45.9104" lon="4.71939">
        <ele>174</ele>
        <time>2017-07-29T10:19:08Z</time>
      </trkpt>
      <trkpt lat="45.91045" lon="4.71939">
        <ele>174</ele>
        <time>2017-07-29T10:19:09Z</time>
      </trkpt>
      <trkpt lat="45.9105" lon="4.7194">
        <ele>174</ele>
        <time>2017-07-29T10:19:10Z</time>
      </trkpt>
      <trkpt lat="45.91056" lon="4.7194">
        <ele>174</ele>
        <time>2017-07-29T10:19:11Z</time>
      </trkpt>
      <trkpt lat="45.91061" lon="4.71939">
        <ele>174</ele>
        <time>2017-07-29T10:19:12Z</time>
      </trkpt>
      <trkpt lat="45.91067" lon="4.71939">
        <ele>174</ele>
        <time>2017-07-29T10:19:13Z</time>
      </trkpt>
      <trkpt lat="45.91073" lon="4.71938">
        <ele>174</ele>
        <time>2017-07-29T10:19:14Z</time>
      </trkpt>
      <trkpt lat="45.91078" lon="4.71936">
        <ele>174</ele>
        <time>2017-07-29T10:19:15Z</time>
      </trkpt>
      <trkpt lat="45.91083" lon="4.71935">
        <ele>174</ele>
        <time>2017-07-29T10:19:16Z</time>
      </trkpt>
      <trkpt lat="45.91089" lon="4.71933">
        <ele>174</ele>
        <time>2017-07-29T10:19:17Z</time>
      </trkpt>
      <trkpt lat="45.91094" lon="4.71932">
        <ele>174</ele>
        <time>2017-07-29T10:19:18Z</time>
      </trkpt>
      <trkpt lat="45.91099" lon="4.71932">
        <ele>174</ele>
        <time>2017-07-29T10:19:19Z</time>
      </trkpt>
      <trkpt lat="45.91104" lon="4.7193">
        <ele>174</ele>
        <time>2017-07-29T10:19:20Z</time>
      </trkpt>
      <trkpt lat="45.91109" lon="4.71927">
        <ele>174</ele>
        <time>2017-07-29T10:19:21Z</time>
      </trkpt>
      <trkpt lat="45.91114" lon="4.71924">
        <ele>174</ele>
        <time>2017-07-29T10:19:22Z</time>
      </trkpt>
      <trkpt lat="45.91118" lon="4.71921">
        <ele>174</ele>
        <time>2017-07-29T10:19:23Z</time>
      </trkpt>
      <trkpt lat="45.91122" lon="4.71918">
        <ele>174</ele>
        <time>2017-07-29T10:19:24Z</time>
      </trkpt>
      <trkpt lat="45.9113" lon="4.71913">
        <ele>175</ele>
        <time>2017-07-29T10:19:26Z</time>
      </trkpt>
      <trkpt lat="45.91134" lon="4.7191">
        <ele>175</ele>
        <time>2017-07-29T10:19:27Z</time>
      </trkpt>
      <trkpt lat="45.91138" lon="4.71908">
        <ele>175</ele>
        <time>2017-07-29T10:19:28Z</time>
      </trkpt>
      <trkpt lat="45.91143" lon="4.71907">
        <ele>175</ele>
        <time>2017-07-29T10:19:29Z</time>
      </trkpt>
      <trkpt lat="45.91148" lon="4.71906">
        <ele>175</ele>
        <time>2017-07-29T10:19:30Z</time>
      </trkpt>
      <trkpt lat="45.91153" lon="4.71904">
        <ele>175</ele>
        <time>2017-07-29T10:19:31Z</time>
      </trkpt>
      <trkpt lat="45.91158" lon="4.71904">
        <ele>176</ele>
        <time>2017-07-29T10:19:32Z</time>
      </trkpt>
      <trkpt lat="45.91163" lon="4.71905">
        <ele>176</ele>
        <time>2017-07-29T10:19:33Z</time>
      </trkpt>
      <trkpt lat="45.91168" lon="4.71908">
        <ele>176</ele>
        <time>2017-07-29T10:19:34Z</time>
      </trkpt>
      <trkpt lat="45.91172" lon="4.71908">
        <ele>176</ele>
        <time>2017-07-29T10:19:35Z</time>
      </trkpt>
      <trkpt lat="45.91177" lon="4.71907">
        <ele>176</ele>
        <time>2017-07-29T10:19:36Z</time>
      </trkpt>
      <trkpt lat="45.91182" lon="4.71909">
        <ele>176</ele>
        <time>2017-07-29T10:19:37Z</time>
      </trkpt>
      <trkpt lat="45.91186" lon="4.71911">
        <ele>176</ele>
        <time>2017-07-29T10:19:38Z</time>
      </trkpt>
      <trkpt lat="45.91191" lon="4.71911">
        <ele>176</ele>
        <time>2017-07-29T10:19:39Z</time>
      </trkpt>
      <trkpt lat="45.91196" lon="4.71911">
        <ele>176</ele>
        <time>2017-07-29T10:19:40Z</time>
      </trkpt>
      <trkpt lat="45.91201" lon="4.71912">
        <ele>176</ele>
        <time>2017-07-29T10:19:41Z</time>
      </trkpt>
      <trkpt lat="45.91209" lon="4.71913">
        <ele>176</ele>
        <time>2017-07-29T10:19:43Z</time>
      </trkpt>
      <trkpt lat="45.91214" lon="4.71914">
        <ele>176</ele>
        <time>2017-07-29T10:19:44Z</time>
      </trkpt>
      <trkpt lat="45.91221" lon="4.71916">
        <ele>176</ele>
        <time>2017-07-29T10:19:46Z</time>
      </trkpt>
      <trkpt lat="45.91224" lon="4.71917">
        <ele>176</ele>
        <time>2017-07-29T10:19:47Z</time>
      </trkpt>
      <trkpt lat="45.91231" lon="4.71919">
        <ele>176</ele>
        <time>2017-07-29T10:19:49Z</time>
      </trkpt>
      <trkpt lat="45.91234" lon="4.7192">
        <ele>176</ele>
        <time>2017-07-29T10:19:50Z</time>
      </trkpt>
      <trkpt lat="45.91241" lon="4.71922">
        <ele>176</ele>
        <time>2017-07-29T10:19:52Z</time>
      </trkpt>
      <trkpt lat="45.91246" lon="4.71923">
        <ele>176</ele>
        <time>2017-07-29T10:19:53Z</time>
      </trkpt>
      <trkpt lat="45.91251" lon="4.71924">
        <ele>176</ele>
        <time>2017-07-29T10:19:54Z</time>
      </trkpt>
      <trkpt lat="45.91256" lon="4.71926">
        <ele>176</ele>
        <time>2017-07-29T10:19:55Z</time>
      </trkpt>
      <trkpt lat="45.91261" lon="4.71928">
        <ele>176</ele>
        <time>2017-07-29T10:19:56Z</time>
      </trkpt>
      <trkpt lat="45.91266" lon="4.7193">
        <ele>176</ele>
        <time>2017-07-29T10:19:57Z</time>
      </trkpt>
      <trkpt lat="45.91273" lon="4.71932">
        <ele>175</ele>
        <time>2017-07-29T10:19:58Z</time>
      </trkpt>
      <trkpt lat="45.91279" lon="4.71934">
        <ele>175</ele>
        <time>2017-07-29T10:19:59Z</time>
      </trkpt>
      <trkpt lat="45.91285" lon="4.71936">
        <ele>175</ele>
        <time>2017-07-29T10:20:00Z</time>
      </trkpt>
      <trkpt lat="45.91289" lon="4.71938">
        <ele>175</ele>
        <time>2017-07-29T10:20:01Z</time>
      </trkpt>
      <trkpt lat="45.91294" lon="4.71939">
        <ele>175</ele>
        <time>2017-07-29T10:20:02Z</time>
      </trkpt>
      <trkpt lat="45.91299" lon="4.71941">
        <ele>175</ele>
        <time>2017-07-29T10:20:03Z</time>
      </trkpt>
      <trkpt lat="45.91307" lon="4.71945">
        <ele>174</ele>
        <time>2017-07-29T10:20:05Z</time>
      </trkpt>
      <trkpt lat="45.91311" lon="4.71947">
        <ele>174</ele>
        <time>2017-07-29T10:20:06Z</time>
      </trkpt>
      <trkpt lat="45.91319" lon="4.7195">
        <ele>174</ele>
        <time>2017-07-29T10:20:08Z</time>
      </trkpt>
      <trkpt lat="45.91324" lon="4.71954">
        <ele>174</ele>
        <time>2017-07-29T10:20:09Z</time>
      </trkpt>
      <trkpt lat="45.91329" lon="4.71955">
        <ele>174</ele>
        <time>2017-07-29T10:20:10Z</time>
      </trkpt>
      <trkpt lat="45.91334" lon="4.71957">
        <ele>174</ele>
        <time>2017-07-29T10:20:11Z</time>
      </trkpt>
      <trkpt lat="45.91339" lon="4.71959">
        <ele>173</ele>
        <time>2017-07-29T10:20:12Z</time>
      </trkpt>
      <trkpt lat="45.91344" lon="4.71962">
        <ele>173</ele>
        <time>2017-07-29T10:20:13Z</time>
      </trkpt>
      <trkpt lat="45.9135" lon="4.71964">
        <ele>173</ele>
        <time>2017-07-29T10:20:14Z</time>
      </trkpt>
      <trkpt lat="45.91356" lon="4.71964">
        <ele>173</ele>
        <time>2017-07-29T10:20:15Z</time>
      </trkpt>
      <trkpt lat="45.91362" lon="4.71966">
        <ele>173</ele>
        <time>2017-07-29T10:20:16Z</time>
      </trkpt>
      <trkpt lat="45.91367" lon="4.71966">
        <ele>173</ele>
        <time>2017-07-29T10:20:17Z</time>
      </trkpt>
      <trkpt lat="45.91373" lon="4.71967">
        <ele>173</ele>
        <time>2017-07-29T10:20:18Z</time>
      </trkpt>
      <trkpt lat="45.91377" lon="4.71968">
        <ele>174</ele>
        <time>2017-07-29T10:20:19Z</time>
      </trkpt>
      <trkpt lat="45.91382" lon="4.71968">
        <ele>174</ele>
        <time>2017-07-29T10:20:20Z</time>
      </trkpt>
      <trkpt lat="45.91386" lon="4.71968">
        <ele>174</ele>
        <time>2017-07-29T10:20:21Z</time>
      </trkpt>
      <trkpt lat="45.91394" lon="4.71965">
        <ele>174</ele>
        <time>2017-07-29T10:20:23Z</time>
      </trkpt>
      <trkpt lat="45.91398" lon="4.71964">
        <ele>174</ele>
        <time>2017-07-29T10:20:24Z</time>
      </trkpt>
      <trkpt lat="45.91402" lon="4.71962">
        <ele>174</ele>
        <time>2017-07-29T10:20:25Z</time>
      </trkpt>
      <trkpt lat="45.91407" lon="4.71958">
        <ele>173</ele>
        <time>2017-07-29T10:20:26Z</time>
      </trkpt>
      <trkpt lat="45.91411" lon="4.71954">
        <ele>173</ele>
        <time>2017-07-29T10:20:27Z</time>
      </trkpt>
      <trkpt lat="45.91415" lon="4.71949">
        <ele>173</ele>
        <time>2017-07-29T10:20:28Z</time>
      </trkpt>
      <trkpt lat="45.9142" lon="4.71944">
        <ele>173</ele>
        <time>2017-07-29T10:20:29Z</time>
      </trkpt>
      <trkpt lat="45.91424" lon="4.7194">
        <ele>173</ele>
        <time>2017-07-29T10:20:30Z</time>
      </trkpt>
      <trkpt lat="45.91428" lon="4.71936">
        <ele>173</ele>
        <time>2017-07-29T10:20:31Z</time>
      </trkpt>
      <trkpt lat="45.91433" lon="4.71932">
        <ele>173</ele>
        <time>2017-07-29T10:20:32Z</time>
      </trkpt>
      <trkpt lat="45.91438" lon="4.71929">
        <ele>173</ele>
        <time>2017-07-29T10:20:33Z</time>
      </trkpt>
      <trkpt lat="45.91443" lon="4.71927">
        <ele>173</ele>
        <time>2017-07-29T10:20:34Z</time>
      </trkpt>
      <trkpt lat="45.91448" lon="4.71924">
        <ele>173</ele>
        <time>2017-07-29T10:20:35Z</time>
      </trkpt>
      <trkpt lat="45.91452" lon="4.71921">
        <ele>173</ele>
        <time>2017-07-29T10:20:36Z</time>
      </trkpt>
      <trkpt lat="45.9146" lon="4.71917">
        <ele>173</ele>
        <time>2017-07-29T10:20:38Z</time>
      </trkpt>
      <trkpt lat="45.91465" lon="4.71915">
        <ele>173</ele>
        <time>2017-07-29T10:20:39Z</time>
      </trkpt>
      <trkpt lat="45.91469" lon="4.71914">
        <ele>173</ele>
        <time>2017-07-29T10:20:40Z</time>
      </trkpt>
      <trkpt lat="45.91474" lon="4.7191">
        <ele>173</ele>
        <time>2017-07-29T10:20:41Z</time>
      </trkpt>
      <trkpt lat="45.91478" lon="4.71906">
        <ele>173</ele>
        <time>2017-07-29T10:20:42Z</time>
      </trkpt>
      <trkpt lat="45.91483" lon="4.71903">
        <ele>173</ele>
        <time>2017-07-29T10:20:43Z</time>
      </trkpt>
      <trkpt lat="45.91487" lon="4.719">
        <ele>173</ele>
        <time>2017-07-29T10:20:44Z</time>
      </trkpt>
      <trkpt lat="45.91491" lon="4.71898">
        <ele>173</ele>
        <time>2017-07-29T10:20:45Z</time>
      </trkpt>
      <trkpt lat="45.91499" lon="4.71895">
        <ele>173</ele>
        <time>2017-07-29T10:20:47Z</time>
      </trkpt>
      <trkpt lat="45.91502" lon="4.71893">
        <ele>173</ele>
        <time>2017-07-29T10:20:48Z</time>
      </trkpt>
      <trkpt lat="45.91508" lon="4.71886">
        <ele>173</ele>
        <time>2017-07-29T10:20:50Z</time>
      </trkpt>
      <trkpt lat="45.9151" lon="4.71882">
        <ele>173</ele>
        <time>2017-07-29T10:20:51Z</time>
      </trkpt>
      <trkpt lat="45.91516" lon="4.71872">
        <ele>174</ele>
        <time>2017-07-29T10:20:53Z</time>
      </trkpt>
      <trkpt lat="45.91519" lon="4.71866">
        <ele>174</ele>
        <time>2017-07-29T10:20:54Z</time>
      </trkpt>
      <trkpt lat="45.91522" lon="4.71858">
        <ele>174</ele>
        <time>2017-07-29T10:20:55Z</time>
      </trkpt>
      <trkpt lat="45.91524" lon="4.71852">
        <ele>174</ele>
        <time>2017-07-29T10:20:56Z</time>
      </trkpt>
      <trkpt lat="45.91527" lon="4.7184">
        <ele>174</ele>
        <time>2017-07-29T10:20:58Z</time>
      </trkpt>
      <trkpt lat="45.91529" lon="4.71835">
        <ele>174</ele>
        <time>2017-07-29T10:20:59Z</time>
      </trkpt>
      <trkpt lat="45.91532" lon="4.71825">
        <ele>174</ele>
        <time>2017-07-29T10:21:01Z</time>
      </trkpt>
      <trkpt lat="45.91533" lon="4.71821">
        <ele>174</ele>
        <time>2017-07-29T10:21:02Z</time>
      </trkpt>
      <trkpt lat="45.91538" lon="4.7181">
        <ele>174</ele>
        <time>2017-07-29T10:21:04Z</time>
      </trkpt>
      <trkpt lat="45.91541" lon="4.71805">
        <ele>174</ele>
        <time>2017-07-29T10:21:05Z</time>
      </trkpt>
      <trkpt lat="45.91544" lon="4.71799">
        <ele>174</ele>
        <time>2017-07-29T10:21:06Z</time>
      </trkpt>
      <trkpt lat="45.91547" lon="4.71793">
        <ele>174</ele>
        <time>2017-07-29T10:21:07Z</time>
      </trkpt>
      <trkpt lat="45.91552" lon="4.71782">
        <ele>174</ele>
        <time>2017-07-29T10:21:09Z</time>
      </trkpt>
      <trkpt lat="45.91554" lon="4.71778">
        <ele>174</ele>
        <time>2017-07-29T10:21:10Z</time>
      </trkpt>
      <trkpt lat="45.91559" lon="4.7177">
        <ele>174</ele>
        <time>2017-07-29T10:21:12Z</time>
      </trkpt>
      <trkpt lat="45.91562" lon="4.71767">
        <ele>174</ele>
        <time>2017-07-29T10:21:13Z</time>
      </trkpt>
      <trkpt lat="45.91565" lon="4.71762">
        <ele>174</ele>
        <time>2017-07-29T10:21:14Z</time>
      </trkpt>
      <trkpt lat="45.91569" lon="4.71758">
        <ele>174</ele>
        <time>2017-07-29T10:21:15Z</time>
      </trkpt>
      <trkpt lat="45.91573" lon="4.71753">
        <ele>174</ele>
        <time>2017-07-29T10:21:16Z</time>
      </trkpt>
      <trkpt lat="45.91579" lon="4.71748">
        <ele>174</ele>
        <time>2017-07-29T10:21:17Z</time>
      </trkpt>
      <trkpt lat="45.91584" lon="4.71744">
        <ele>174</ele>
        <time>2017-07-29T10:21:18Z</time>
      </trkpt>
      <trkpt lat="45.91589" lon="4.7174">
        <ele>174</ele>
        <time>2017-07-29T10:21:19Z</time>
      </trkpt>
      <trkpt lat="45.91594" lon="4.71736">
        <ele>173</ele>
        <time>2017-07-29T10:21:20Z</time>
      </trkpt>
      <trkpt lat="45.91599" lon="4.71732">
        <ele>173</ele>
        <time>2017-07-29T10:21:21Z</time>
      </trkpt>
      <trkpt lat="45.91605" lon="4.71729">
        <ele>173</ele>
        <time>2017-07-29T10:21:22Z</time>
      </trkpt>
      <trkpt lat="45.9161" lon="4.71727">
        <ele>173</ele>
        <time>2017-07-29T10:21:23Z</time>
      </trkpt>
      <trkpt lat="45.91614" lon="4.71725">
        <ele>173</ele>
        <time>2017-07-29T10:21:24Z</time>
      </trkpt>
      <trkpt lat="45.91619" lon="4.71725">
        <ele>173</ele>
        <time>2017-07-29T10:21:25Z</time>
      </trkpt>
      <trkpt lat="45.91627" lon="4.71726">
        <ele>173</ele>
        <time>2017-07-29T10:21:27Z</time>
      </trkpt>
      <trkpt lat="45.9163" lon="4.71729">
        <ele>173</ele>
        <time>2017-07-29T10:21:28Z</time>
      </trkpt>
      <trkpt lat="45.91634" lon="4.71738">
        <ele>173</ele>
        <time>2017-07-29T10:21:30Z</time>
      </trkpt>
      <trkpt lat="45.91636" lon="4.71743">
        <ele>173</ele>
        <time>2017-07-29T10:21:31Z</time>
      </trkpt>
      <trkpt lat="45.91641" lon="4.71754">
        <ele>174</ele>
        <time>2017-07-29T10:21:33Z</time>
      </trkpt>
      <trkpt lat="45.91644" lon="4.71758">
        <ele>173</ele>
        <time>2017-07-29T10:21:34Z</time>
      </trkpt>
      <trkpt lat="45.91648" lon="4.71762">
        <ele>173</ele>
        <time>2017-07-29T10:21:35Z</time>
      </trkpt>
      <trkpt lat="45.91653" lon="4.71766">
        <ele>173</ele>
        <time>2017-07-29T10:21:36Z</time>
      </trkpt>
      <trkpt lat="45.91658" lon="4.71769">
        <ele>173</ele>
        <time>2017-07-29T10:21:37Z</time>
      </trkpt>
      <trkpt lat="45.91663" lon="4.71771">
        <ele>173</ele>
        <time>2017-07-29T10:21:38Z</time>
      </trkpt>
      <trkpt lat="45.91669" lon="4.71772">
        <ele>173</ele>
        <time>2017-07-29T10:21:39Z</time>
      </trkpt>
      <trkpt lat="45.91673" lon="4.71774">
        <ele>173</ele>
        <time>2017-07-29T10:21:40Z</time>
      </trkpt>
      <trkpt lat="45.91678" lon="4.71775">
        <ele>173</ele>
        <time>2017-07-29T10:21:41Z</time>
      </trkpt>
      <trkpt lat="45.91682" lon="4.71775">
        <ele>173</ele>
        <time>2017-07-29T10:21:42Z</time>
      </trkpt>
      <trkpt lat="45.91687" lon="4.71775">
        <ele>173</ele>
        <time>2017-07-29T10:21:43Z</time>
      </trkpt>
      <trkpt lat="45.91692" lon="4.71776">
        <ele>173</ele>
        <time>2017-07-29T10:21:44Z</time>
      </trkpt>
      <trkpt lat="45.91697" lon="4.71777">
        <ele>173</ele>
        <time>2017-07-29T10:21:45Z</time>
      </trkpt>
      <trkpt lat="45.91703" lon="4.71777">
        <ele>173</ele>
        <time>2017-07-29T10:21:46Z</time>
      </trkpt>
      <trkpt lat="45.91708" lon="4.71778">
        <ele>173</ele>
        <time>2017-07-29T10:21:47Z</time>
      </trkpt>
      <trkpt lat="45.91713" lon="4.71778">
        <ele>173</ele>
        <time>2017-07-29T10:21:48Z</time>
      </trkpt>
      <trkpt lat="45.91718" lon="4.71778">
        <ele>173</ele>
        <time>2017-07-29T10:21:49Z</time>
      </trkpt>
      <trkpt lat="45.91724" lon="4.71778">
        <ele>173</ele>
        <time>2017-07-29T10:21:50Z</time>
      </trkpt>
      <trkpt lat="45.91729" lon="4.71778">
        <ele>173</ele>
        <time>2017-07-29T10:21:51Z</time>
      </trkpt>
      <trkpt lat="45.91735" lon="4.71779">
        <ele>173</ele>
        <time>2017-07-29T10:21:52Z</time>
      </trkpt>
      <trkpt lat="45.9174" lon="4.7178">
        <ele>173</ele>
        <time>2017-07-29T10:21:53Z</time>
      </trkpt>
      <trkpt lat="45.91745" lon="4.71781">
        <ele>173</ele>
        <time>2017-07-29T10:21:54Z</time>
      </trkpt>
      <trkpt lat="45.91749" lon="4.71782">
        <ele>173</ele>
        <time>2017-07-29T10:21:55Z</time>
      </trkpt>
      <trkpt lat="45.91754" lon="4.71783">
        <ele>173</ele>
        <time>2017-07-29T10:21:56Z</time>
      </trkpt>
      <trkpt lat="45.91762" lon="4.71783">
        <ele>173</ele>
        <time>2017-07-29T10:21:58Z</time>
      </trkpt>
      <trkpt lat="45.91767" lon="4.71782">
        <ele>173</ele>
        <time>2017-07-29T10:21:59Z</time>
      </trkpt>
      <trkpt lat="45.91772" lon="4.71782">
        <ele>173</ele>
        <time>2017-07-29T10:22:00Z</time>
      </trkpt>
      <trkpt lat="45.91777" lon="4.71782">
        <ele>173</ele>
        <time>2017-07-29T10:22:01Z</time>
      </trkpt>
      <trkpt lat="45.91781" lon="4.71782">
        <ele>173</ele>
        <time>2017-07-29T10:22:02Z</time>
      </trkpt>
      <trkpt lat="45.91786" lon="4.71782">
        <ele>173</ele>
        <time>2017-07-29T10:22:03Z</time>
      </trkpt>
      <trkpt lat="45.91795" lon="4.71781">
        <ele>172</ele>
        <time>2017-07-29T10:22:05Z</time>
      </trkpt>
      <trkpt lat="45.91799" lon="4.7178">
        <ele>172</ele>
        <time>2017-07-29T10:22:06Z</time>
      </trkpt>
      <trkpt lat="45.91803" lon="4.7178">
        <ele>172</ele>
        <time>2017-07-29T10:22:07Z</time>
      </trkpt>
      <trkpt lat="45.91808" lon="4.7178">
        <ele>172</ele>
        <time>2017-07-29T10:22:08Z</time>
      </trkpt>
      <trkpt lat="45.91813" lon="4.7178">
        <ele>172</ele>
        <time>2017-07-29T10:22:09Z</time>
      </trkpt>
      <trkpt lat="45.91818" lon="4.71781">
        <ele>172</ele>
        <time>2017-07-29T10:22:10Z</time>
      </trkpt>
      <trkpt lat="45.91823" lon="4.71782">
        <ele>172</ele>
        <time>2017-07-29T10:22:11Z</time>
      </trkpt>
      <trkpt lat="45.91828" lon="4.71781">
        <ele>172</ele>
        <time>2017-07-29T10:22:12Z</time>
      </trkpt>
      <trkpt lat="45.91836" lon="4.71779">
        <ele>172</ele>
        <time>2017-07-29T10:22:14Z</time>
      </trkpt>
      <trkpt lat="45.9184" lon="4.71779">
        <ele>172</ele>
        <time>2017-07-29T10:22:15Z</time>
      </trkpt>
      <trkpt lat="45.91845" lon="4.71778">
        <ele>172</ele>
        <time>2017-07-29T10:22:16Z</time>
      </trkpt>
      <trkpt lat="45.9185" lon="4.71777">
        <ele>172</ele>
        <time>2017-07-29T10:22:17Z</time>
      </trkpt>
      <trkpt lat="45.91855" lon="4.71776">
        <ele>172</ele>
        <time>2017-07-29T10:22:18Z</time>
      </trkpt>
      <trkpt lat="45.9186" lon="4.71775">
        <ele>172</ele>
        <time>2017-07-29T10:22:19Z</time>
      </trkpt>
      <trkpt lat="45.91865" lon="4.71774">
        <ele>172</ele>
        <time>2017-07-29T10:22:20Z</time>
      </trkpt>
      <trkpt lat="45.9187" lon="4.71774">
        <ele>172</ele>
        <time>2017-07-29T10:22:21Z</time>
      </trkpt>
      <trkpt lat="45.91879" lon="4.71773">
        <ele>172</ele>
        <time>2017-07-29T10:22:23Z</time>
      </trkpt>
      <trkpt lat="45.91883" lon="4.71773">
        <ele>172</ele>
        <time>2017-07-29T10:22:24Z</time>
      </trkpt>
      <trkpt lat="45.91888" lon="4.71773">
        <ele>172</ele>
        <time>2017-07-29T10:22:25Z</time>
      </trkpt>
      <trkpt lat="45.91893" lon="4.71775">
        <ele>172</ele>
        <time>2017-07-29T10:22:26Z</time>
      </trkpt>
      <trkpt lat="45.91898" lon="4.71775">
        <ele>172</ele>
        <time>2017-07-29T10:22:27Z</time>
      </trkpt>
      <trkpt lat="45.91903" lon="4.71775">
        <ele>172</ele>
        <time>2017-07-29T10:22:28Z</time>
      </trkpt>
      <trkpt lat="45.91908" lon="4.71777">
        <ele>172</ele>
        <time>2017-07-29T10:22:29Z</time>
      </trkpt>
      <trkpt lat="45.91912" lon="4.71778">
        <ele>172</ele>
        <time>2017-07-29T10:22:30Z</time>
      </trkpt>
      <trkpt lat="45.91921" lon="4.7178">
        <ele>172</ele>
        <time>2017-07-29T10:22:32Z</time>
      </trkpt>
      <trkpt lat="45.91925" lon="4.71781">
        <ele>172</ele>
        <time>2017-07-29T10:22:33Z</time>
      </trkpt>
      <trkpt lat="45.91934" lon="4.71782">
        <ele>173</ele>
        <time>2017-07-29T10:22:35Z</time>
      </trkpt>
      <trkpt lat="45.91939" lon="4.71782">
        <ele>173</ele>
        <time>2017-07-29T10:22:36Z</time>
      </trkpt>
      <trkpt lat="45.91943" lon="4.71783">
        <ele>173</ele>
        <time>2017-07-29T10:22:37Z</time>
      </trkpt>
      <trkpt lat="45.91948" lon="4.71783">
        <ele>173</ele>
        <time>2017-07-29T10:22:38Z</time>
      </trkpt>
      <trkpt lat="45.91953" lon="4.71784">
        <ele>173</ele>
        <time>2017-07-29T10:22:39Z</time>
      </trkpt>
      <trkpt lat="45.91958" lon="4.71784">
        <ele>173</ele>
        <time>2017-07-29T10:22:40Z</time>
      </trkpt>
      <trkpt lat="45.91963" lon="4.71785">
        <ele>173</ele>
        <time>2017-07-29T10:22:41Z</time>
      </trkpt>
      <trkpt lat="45.91968" lon="4.71786">
        <ele>173</ele>
        <time>2017-07-29T10:22:42Z</time>
      </trkpt>
      <trkpt lat="45.91973" lon="4.71786">
        <ele>173</ele>
        <time>2017-07-29T10:22:43Z</time>
      </trkpt>
      <trkpt lat="45.91978" lon="4.71785">
        <ele>173</ele>
        <time>2017-07-29T10:22:44Z</time>
      </trkpt>
      <trkpt lat="45.91987" lon="4.71785">
        <ele>173</ele>
        <time>2017-07-29T10:22:46Z</time>
      </trkpt>
      <trkpt lat="45.91991" lon="4.71786">
        <ele>173</ele>
        <time>2017-07-29T10:22:47Z</time>
      </trkpt>
      <trkpt lat="45.91996" lon="4.71785">
        <ele>173</ele>
        <time>2017-07-29T10:22:48Z</time>
      </trkpt>
      <trkpt lat="45.92" lon="4.71785">
        <ele>173</ele>
        <time>2017-07-29T10:22:49Z</time>
      </trkpt>
      <trkpt lat="45.92009" lon="4.71785">
        <ele>173</ele>
        <time>2017-07-29T10:22:51Z</time>
      </trkpt>
      <trkpt lat="45.92012" lon="4.71785">
        <ele>173</ele>
        <time>2017-07-29T10:22:52Z</time>
      </trkpt>
      <trkpt lat="45.9202" lon="4.71786">
        <ele>173</ele>
        <time>2017-07-29T10:22:54Z</time>
      </trkpt>
      <trkpt lat="45.92023" lon="4.71785">
        <ele>173</ele>
        <time>2017-07-29T10:22:55Z</time>
      </trkpt>
      <trkpt lat="45.9203" lon="4.71786">
        <ele>173</ele>
        <time>2017-07-29T10:22:57Z</time>
      </trkpt>
      <trkpt lat="45.92034" lon="4.71787">
        <ele>173</ele>
        <time>2017-07-29T10:22:58Z</time>
      </trkpt>
      <trkpt lat="45.92041" lon="4.71786">
        <ele>173</ele>
        <time>2017-07-29T10:23:00Z</time>
      </trkpt>
      <trkpt lat="45.92045" lon="4.71784">
        <ele>173</ele>
        <time>2017-07-29T10:23:01Z</time>
      </trkpt>
      <trkpt lat="45.92048" lon="4.71773">
        <ele>173</ele>
        <time>2017-07-29T10:23:03Z</time>
      </trkpt>
      <trkpt lat="45.92049" lon="4.71768">
        <ele>173</ele>
        <time>2017-07-29T10:23:04Z</time>
      </trkpt>
      <trkpt lat="45.9205" lon="4.71761">
        <ele>173</ele>
        <time>2017-07-29T10:23:05Z</time>
      </trkpt>
      <trkpt lat="45.92051" lon="4.71755">
        <ele>173</ele>
        <time>2017-07-29T10:23:06Z</time>
      </trkpt>
      <trkpt lat="45.92052" lon="4.71748">
        <ele>173</ele>
        <time>2017-07-29T10:23:07Z</time>
      </trkpt>
      <trkpt lat="45.92054" lon="4.7174">
        <ele>173</ele>
        <time>2017-07-29T10:23:08Z</time>
      </trkpt>
      <trkpt lat="45.92056" lon="4.71733">
        <ele>173</ele>
        <time>2017-07-29T10:23:09Z</time>
      </trkpt>
      <trkpt lat="45.92057" lon="4.71726">
        <ele>173</ele>
        <time>2017-07-29T10:23:10Z</time>
      </trkpt>
      <trkpt lat="45.92058" lon="4.71719">
        <ele>173</ele>
        <time>2017-07-29T10:23:11Z</time>
      </trkpt>
      <trkpt lat="45.9206" lon="4.71712">
        <ele>173</ele>
        <time>2017-07-29T10:23:12Z</time>
      </trkpt>
      <trkpt lat="45.92061" lon="4.71706">
        <ele>173</ele>
        <time>2017-07-29T10:23:13Z</time>
      </trkpt>
      <trkpt lat="45.92062" lon="4.717">
        <ele>173</ele>
        <time>2017-07-29T10:23:14Z</time>
      </trkpt>
      <trkpt lat="45.92065" lon="4.71688">
        <ele>173</ele>
        <time>2017-07-29T10:23:16Z</time>
      </trkpt>
      <trkpt lat="45.92066" lon="4.71681">
        <ele>173</ele>
        <time>2017-07-29T10:23:17Z</time>
      </trkpt>
      <trkpt lat="45.92067" lon="4.71674">
        <ele>173</ele>
        <time>2017-07-29T10:23:18Z</time>
      </trkpt>
      <trkpt lat="45.92068" lon="4.71666">
        <ele>172</ele>
        <time>2017-07-29T10:23:19Z</time>
      </trkpt>
      <trkpt lat="45.9207" lon="4.71659">
        <ele>172</ele>
        <time>2017-07-29T10:23:20Z</time>
      </trkpt>
      <trkpt lat="45.92071" lon="4.71651">
        <ele>172</ele>
        <time>2017-07-29T10:23:21Z</time>
      </trkpt>
      <trkpt lat="45.92072" lon="4.71644">
        <ele>172</ele>
        <time>2017-07-29T10:23:22Z</time>
      </trkpt>
      <trkpt lat="45.92074" lon="4.71637">
        <ele>172</ele>
        <time>2017-07-29T10:23:23Z</time>
      </trkpt>
      <trkpt lat="45.92074" lon="4.7163">
        <ele>172</ele>
        <time>2017-07-29T10:23:24Z</time>
      </trkpt>
      <trkpt lat="45.92075" lon="4.71623">
        <ele>172</ele>
        <time>2017-07-29T10:23:25Z</time>
      </trkpt>
      <trkpt lat="45.92078" lon="4.71612">
        <ele>172</ele>
        <time>2017-07-29T10:23:27Z</time>
      </trkpt>
      <trkpt lat="45.9208" lon="4.71606">
        <ele>172</ele>
        <time>2017-07-29T10:23:28Z</time>
      </trkpt>
      <trkpt lat="45.92081" lon="4.716">
        <ele>172</ele>
        <time>2017-07-29T10:23:29Z</time>
      </trkpt>
      <trkpt lat="45.92082" lon="4.71593">
        <ele>172</ele>
        <time>2017-07-29T10:23:30Z</time>
      </trkpt>
      <trkpt lat="45.92083" lon="4.71585">
        <ele>172</ele>
        <time>2017-07-29T10:23:31Z</time>
      </trkpt>
      <trkpt lat="45.92085" lon="4.71578">
        <ele>172</ele>
        <time>2017-07-29T10:23:32Z</time>
      </trkpt>
      <trkpt lat="45.92086" lon="4.71571">
        <ele>173</ele>
        <time>2017-07-29T10:23:33Z</time>
      </trkpt>
      <trkpt lat="45.92087" lon="4.71564">
        <ele>173</ele>
        <time>2017-07-29T10:23:34Z</time>
      </trkpt>
      <trkpt lat="45.92089" lon="4.71558">
        <ele>173</ele>
        <time>2017-07-29T10:23:35Z</time>
      </trkpt>
      <trkpt lat="45.9209" lon="4.71552">
        <ele>173</ele>
        <time>2017-07-29T10:23:36Z</time>
      </trkpt>
      <trkpt lat="45.92091" lon="4.71539">
        <ele>173</ele>
        <time>2017-07-29T10:23:38Z</time>
      </trkpt>
      <trkpt lat="45.92092" lon="4.71533">
        <ele>173</ele>
        <time>2017-07-29T10:23:39Z</time>
      </trkpt>
      <trkpt lat="45.92093" lon="4.71522">
        <ele>174</ele>
        <time>2017-07-29T10:23:41Z</time>
      </trkpt>
      <trkpt lat="45.92094" lon="4.71517">
        <ele>174</ele>
        <time>2017-07-29T10:23:42Z</time>
      </trkpt>
      <trkpt lat="45.92095" lon="4.71511">
        <ele>174</ele>
        <time>2017-07-29T10:23:43Z</time>
      </trkpt>
      <trkpt lat="45.92097" lon="4.71505">
        <ele>174</ele>
        <time>2017-07-29T10:23:44Z</time>
      </trkpt>
      <trkpt lat="45.92098" lon="4.71498">
        <ele>174</ele>
        <time>2017-07-29T10:23:45Z</time>
      </trkpt>
      <trkpt lat="45.92099" lon="4.7149">
        <ele>174</ele>
        <time>2017-07-29T10:23:46Z</time>
      </trkpt>
      <trkpt lat="45.92099" lon="4.71483">
        <ele>174</ele>
        <time>2017-07-29T10:23:47Z</time>
      </trkpt>
      <trkpt lat="45.92101" lon="4.71476">
        <ele>174</ele>
        <time>2017-07-29T10:23:48Z</time>
      </trkpt>
      <trkpt lat="45.92102" lon="4.71469">
        <ele>174</ele>
        <time>2017-07-29T10:23:49Z</time>
      </trkpt>
      <trkpt lat="45.92104" lon="4.71462">
        <ele>174</ele>
        <time>2017-07-29T10:23:50Z</time>
      </trkpt>
      <trkpt lat="45.92105" lon="4.71456">
        <ele>174</ele>
        <time>2017-07-29T10:23:51Z</time>
      </trkpt>
      <trkpt lat="45.92107" lon="4.7145">
        <ele>174</ele>
        <time>2017-07-29T10:23:52Z</time>
      </trkpt>
      <trkpt lat="45.92107" lon="4.71443">
        <ele>174</ele>
        <time>2017-07-29T10:23:53Z</time>
      </trkpt>
      <trkpt lat="45.92109" lon="4.71436">
        <ele>174</ele>
        <time>2017-07-29T10:23:54Z</time>
      </trkpt>
      <trkpt lat="45.9211" lon="4.7143">
        <ele>174</ele>
        <time>2017-07-29T10:23:55Z</time>
      </trkpt>
      <trkpt lat="45.92111" lon="4.71421">
        <ele>174</ele>
        <time>2017-07-29T10:23:56Z</time>
      </trkpt>
      <trkpt lat="45.92112" lon="4.71414">
        <ele>173</ele>
        <time>2017-07-29T10:23:57Z</time>
      </trkpt>
      <trkpt lat="45.92113" lon="4.71406">
        <ele>173</ele>
        <time>2017-07-29T10:23:58Z</time>
      </trkpt>
      <trkpt lat="45.92114" lon="4.71397">
        <ele>173</ele>
        <time>2017-07-29T10:23:59Z</time>
      </trkpt>
      <trkpt lat="45.92116" lon="4.7139">
        <ele>173</ele>
        <time>2017-07-29T10:24:00Z</time>
      </trkpt>
      <trkpt lat="45.92117" lon="4.71383">
        <ele>173</ele>
        <time>2017-07-29T10:24:01Z</time>
      </trkpt>
      <trkpt lat="45.92117" lon="4.71376">
        <ele>173</ele>
        <time>2017-07-29T10:24:02Z</time>
      </trkpt>
      <trkpt lat="45.92118" lon="4.71363">
        <ele>173</ele>
        <time>2017-07-29T10:24:04Z</time>
      </trkpt>
      <trkpt lat="45.92118" lon="4.71357">
        <ele>173</ele>
        <time>2017-07-29T10:24:05Z</time>
      </trkpt>
      <trkpt lat="45.92119" lon="4.71351">
        <ele>173</ele>
        <time>2017-07-29T10:24:06Z</time>
      </trkpt>
      <trkpt lat="45.92119" lon="4.71344">
        <ele>173</ele>
        <time>2017-07-29T10:24:07Z</time>
      </trkpt>
      <trkpt lat="45.92119" lon="4.71336">
        <ele>173</ele>
        <time>2017-07-29T10:24:08Z</time>
      </trkpt>
      <trkpt lat="45.9212" lon="4.71329">
        <ele>174</ele>
        <time>2017-07-29T10:24:09Z</time>
      </trkpt>
      <trkpt lat="45.92121" lon="4.71321">
        <ele>174</ele>
        <time>2017-07-29T10:24:10Z</time>
      </trkpt>
      <trkpt lat="45.92122" lon="4.71314">
        <ele>174</ele>
        <time>2017-07-29T10:24:11Z</time>
      </trkpt>
      <trkpt lat="45.92123" lon="4.71306">
        <ele>174</ele>
        <time>2017-07-29T10:24:12Z</time>
      </trkpt>
      <trkpt lat="45.92125" lon="4.71298">
        <ele>174</ele>
        <time>2017-07-29T10:24:13Z</time>
      </trkpt>
      <trkpt lat="45.92125" lon="4.71292">
        <ele>173</ele>
        <time>2017-07-29T10:24:14Z</time>
      </trkpt>
      <trkpt lat="45.92126" lon="4.71285">
        <ele>173</ele>
        <time>2017-07-29T10:24:15Z</time>
      </trkpt>
      <trkpt lat="45.92126" lon="4.71278">
        <ele>173</ele>
        <time>2017-07-29T10:24:16Z</time>
      </trkpt>
      <trkpt lat="45.92126" lon="4.71271">
        <ele>173</ele>
        <time>2017-07-29T10:24:17Z</time>
      </trkpt>
      <trkpt lat="45.92127" lon="4.71264">
        <ele>173</ele>
        <time>2017-07-29T10:24:18Z</time>
      </trkpt>
      <trkpt lat="45.92128" lon="4.71258">
        <ele>173</ele>
        <time>2017-07-29T10:24:19Z</time>
      </trkpt>
      <trkpt lat="45.92129" lon="4.71251">
        <ele>173</ele>
        <time>2017-07-29T10:24:20Z</time>
      </trkpt>
      <trkpt lat="45.92131" lon="4.71244">
        <ele>175</ele>
        <time>2017-07-29T10:24:21Z</time>
      </trkpt>
      <trkpt lat="45.92132" lon="4.71237">
        <ele>175</ele>
        <time>2017-07-29T10:24:22Z</time>
      </trkpt>
      <trkpt lat="45.92133" lon="4.7123">
        <ele>175</ele>
        <time>2017-07-29T10:24:23Z</time>
      </trkpt>
      <trkpt lat="45.92134" lon="4.71222">
        <ele>175</ele>
        <time>2017-07-29T10:24:24Z</time>
      </trkpt>
      <trkpt lat="45.92135" lon="4.71216">
        <ele>175</ele>
        <time>2017-07-29T10:24:25Z</time>
      </trkpt>
      <trkpt lat="45.92137" lon="4.71208">
        <ele>175</ele>
        <time>2017-07-29T10:24:26Z</time>
      </trkpt>
      <trkpt lat="45.92138" lon="4.71201">
        <ele>175</ele>
        <time>2017-07-29T10:24:27Z</time>
      </trkpt>
      <trkpt lat="45.92139" lon="4.71193">
        <ele>175</ele>
        <time>2017-07-29T10:24:28Z</time>
      </trkpt>
      <trkpt lat="45.92139" lon="4.71186">
        <ele>176</ele>
        <time>2017-07-29T10:24:29Z</time>
      </trkpt>
      <trkpt lat="45.9214" lon="4.71178">
        <ele>176</ele>
        <time>2017-07-29T10:24:30Z</time>
      </trkpt>
      <trkpt lat="45.9214" lon="4.71171">
        <ele>176</ele>
        <time>2017-07-29T10:24:31Z</time>
      </trkpt>
      <trkpt lat="45.92141" lon="4.71163">
        <ele>178</ele>
        <time>2017-07-29T10:24:32Z</time>
      </trkpt>
      <trkpt lat="45.92142" lon="4.71156">
        <ele>178</ele>
        <time>2017-07-29T10:24:33Z</time>
      </trkpt>
      <trkpt lat="45.92143" lon="4.71149">
        <ele>178</ele>
        <time>2017-07-29T10:24:34Z</time>
      </trkpt>
      <trkpt lat="45.92144" lon="4.71141">
        <ele>178</ele>
        <time>2017-07-29T10:24:35Z</time>
      </trkpt>
      <trkpt lat="45.92145" lon="4.71134">
        <ele>178</ele>
        <time>2017-07-29T10:24:36Z</time>
      </trkpt>
      <trkpt lat="45.92146" lon="4.71126">
        <ele>178</ele>
        <time>2017-07-29T10:24:37Z</time>
      </trkpt>
      <trkpt lat="45.92148" lon="4.71119">
        <ele>179</ele>
        <time>2017-07-29T10:24:38Z</time>
      </trkpt>
      <trkpt lat="45.92149" lon="4.71112">
        <ele>179</ele>
        <time>2017-07-29T10:24:39Z</time>
      </trkpt>
      <trkpt lat="45.9215" lon="4.71106">
        <ele>179</ele>
        <time>2017-07-29T10:24:40Z</time>
      </trkpt>
      <trkpt lat="45.92151" lon="4.71099">
        <ele>179</ele>
        <time>2017-07-29T10:24:41Z</time>
      </trkpt>
      <trkpt lat="45.92154" lon="4.71087">
        <ele>179</ele>
        <time>2017-07-29T10:24:43Z</time>
      </trkpt>
      <trkpt lat="45.92155" lon="4.71081">
        <ele>180</ele>
        <time>2017-07-29T10:24:44Z</time>
      </trkpt>
      <trkpt lat="45.92157" lon="4.71069">
        <ele>181</ele>
        <time>2017-07-29T10:24:46Z</time>
      </trkpt>
      <trkpt lat="45.92158" lon="4.71063">
        <ele>181</ele>
        <time>2017-07-29T10:24:47Z</time>
      </trkpt>
      <trkpt lat="45.92159" lon="4.71051">
        <ele>181</ele>
        <time>2017-07-29T10:24:49Z</time>
      </trkpt>
      <trkpt lat="45.9216" lon="4.71046">
        <ele>181</ele>
        <time>2017-07-29T10:24:50Z</time>
      </trkpt>
      <trkpt lat="45.92161" lon="4.71037">
        <ele>181</ele>
        <time>2017-07-29T10:24:52Z</time>
      </trkpt>
      <trkpt lat="45.92161" lon="4.71032">
        <ele>181</ele>
        <time>2017-07-29T10:24:53Z</time>
      </trkpt>
      <trkpt lat="45.92163" lon="4.71021">
        <ele>181</ele>
        <time>2017-07-29T10:24:55Z</time>
      </trkpt>
      <trkpt lat="45.92165" lon="4.71017">
        <ele>181</ele>
        <time>2017-07-29T10:24:56Z</time>
      </trkpt>
      <trkpt lat="45.92172" lon="4.71014">
        <ele>181</ele>
        <time>2017-07-29T10:25:00Z</time>
      </trkpt>
      <trkpt lat="45.92175" lon="4.71015">
        <ele>181</ele>
        <time>2017-07-29T10:25:01Z</time>
      </trkpt>
      <trkpt lat="45.92181" lon="4.71017">
        <ele>181</ele>
        <time>2017-07-29T10:25:03Z</time>
      </trkpt>
      <trkpt lat="45.92184" lon="4.71017">
        <ele>181</ele>
        <time>2017-07-29T10:25:04Z</time>
      </trkpt>
      <trkpt lat="45.92191" lon="4.71019">
        <ele>181</ele>
        <time>2017-07-29T10:25:07Z</time>
      </trkpt>
      <trkpt lat="45.92194" lon="4.7102">
        <ele>181</ele>
        <time>2017-07-29T10:25:08Z</time>
      </trkpt>
      <trkpt lat="45.922" lon="4.71024">
        <ele>181</ele>
        <time>2017-07-29T10:25:12Z</time>
      </trkpt>
      <trkpt lat="45.92201" lon="4.71025">
        <ele>181</ele>
        <time>2017-07-29T10:25:13Z</time>
      </trkpt>
      <trkpt lat="45.92201" lon="4.71025">
        <ele>181</ele>
        <time>2017-07-29T10:30:24Z</time>
      </trkpt>
      <trkpt lat="45.92203" lon="4.71022">
        <ele>182</ele>
        <time>2017-07-29T10:30:25Z</time>
      </trkpt>
      <trkpt lat="45.92211" lon="4.71024">
        <ele>182</ele>
        <time>2017-07-29T10:30:29Z</time>
      </trkpt>
      <trkpt lat="45.92213" lon="4.71024">
        <ele>182</ele>
        <time>2017-07-29T10:30:30Z</time>
      </trkpt>
      <trkpt lat="45.9222" lon="4.71028">
        <ele>182</ele>
        <time>2017-07-29T10:30:35Z</time>
      </trkpt>
      <trkpt lat="45.92222" lon="4.71029">
        <ele>182</ele>
        <time>2017-07-29T10:30:36Z</time>
      </trkpt>
      <trkpt lat="45.92229" lon="4.71034">
        <ele>182</ele>
        <time>2017-07-29T10:30:40Z</time>
      </trkpt>
      <trkpt lat="45.92231" lon="4.71035">
        <ele>182</ele>
        <time>2017-07-29T10:30:41Z</time>
      </trkpt>
      <trkpt lat="45.92239" lon="4.7104">
        <ele>182</ele>
        <time>2017-07-29T10:30:46Z</time>
      </trkpt>
      <trkpt lat="45.9224" lon="4.7104">
        <ele>182</ele>
        <time>2017-07-29T10:30:47Z</time>
      </trkpt>
      <trkpt lat="45.92247" lon="4.71043">
        <ele>182</ele>
        <time>2017-07-29T10:30:50Z</time>
      </trkpt>
      <trkpt lat="45.92249" lon="4.71044">
        <ele>182</ele>
        <time>2017-07-29T10:30:51Z</time>
      </trkpt>
      <trkpt lat="45.92257" lon="4.71048">
        <ele>183</ele>
        <time>2017-07-29T10:30:54Z</time>
      </trkpt>
      <trkpt lat="45.92259" lon="4.71049">
        <ele>183</ele>
        <time>2017-07-29T10:30:55Z</time>
      </trkpt>
      <trkpt lat="45.92266" lon="4.71053">
        <ele>183</ele>
        <time>2017-07-29T10:30:58Z</time>
      </trkpt>
      <trkpt lat="45.9227" lon="4.71055">
        <ele>183</ele>
        <time>2017-07-29T10:30:59Z</time>
      </trkpt>
      <trkpt lat="45.92278" lon="4.71058">
        <ele>183</ele>
        <time>2017-07-29T10:31:02Z</time>
      </trkpt>
      <trkpt lat="45.9228" lon="4.7106">
        <ele>183</ele>
        <time>2017-07-29T10:31:03Z</time>
      </trkpt>
      <trkpt lat="45.92287" lon="4.71064">
        <ele>183</ele>
        <time>2017-07-29T10:31:06Z</time>
      </trkpt>
      <trkpt lat="45.9229" lon="4.71065">
        <ele>183</ele>
        <time>2017-07-29T10:31:07Z</time>
      </trkpt>
      <trkpt lat="45.92296" lon="4.71068">
        <ele>183</ele>
        <time>2017-07-29T10:31:09Z</time>
      </trkpt>
      <trkpt lat="45.92299" lon="4.7107">
        <ele>183</ele>
        <time>2017-07-29T10:31:10Z</time>
      </trkpt>
      <trkpt lat="45.92305" lon="4.71073">
        <ele>184</ele>
        <time>2017-07-29T10:31:12Z</time>
      </trkpt>
      <trkpt lat="45.92308" lon="4.71074">
        <ele>184</ele>
        <time>2017-07-29T10:31:13Z</time>
      </trkpt>
      <trkpt lat="45.92316" lon="4.71078">
        <ele>184</ele>
        <time>2017-07-29T10:31:16Z</time>
      </trkpt>
      <trkpt lat="45.92319" lon="4.71079">
        <ele>184</ele>
        <time>2017-07-29T10:31:17Z</time>
      </trkpt>
      <trkpt lat="45.92327" lon="4.71084">
        <ele>183</ele>
        <time>2017-07-29T10:31:20Z</time>
      </trkpt>
      <trkpt lat="45.92329" lon="4.71085">
        <ele>183</ele>
        <time>2017-07-29T10:31:21Z</time>
      </trkpt>
      <trkpt lat="45.92335" lon="4.71088">
        <ele>184</ele>
        <time>2017-07-29T10:31:23Z</time>
      </trkpt>
      <trkpt lat="45.92338" lon="4.7109">
        <ele>184</ele>
        <time>2017-07-29T10:31:24Z</time>
      </trkpt>
      <trkpt lat="45.92343" lon="4.71093">
        <ele>184</ele>
        <time>2017-07-29T10:31:26Z</time>
      </trkpt>
      <trkpt lat="45.92346" lon="4.71095">
        <ele>184</ele>
        <time>2017-07-29T10:31:27Z</time>
      </trkpt>
      <trkpt lat="45.92353" lon="4.71099">
        <ele>184</ele>
        <time>2017-07-29T10:31:29Z</time>
      </trkpt>
      <trkpt lat="45.92357" lon="4.71101">
        <ele>184</ele>
        <time>2017-07-29T10:31:30Z</time>
      </trkpt>
      <trkpt lat="45.92363" lon="4.71103">
        <ele>184</ele>
        <time>2017-07-29T10:31:32Z</time>
      </trkpt>
      <trkpt lat="45.92367" lon="4.71104">
        <ele>184</ele>
        <time>2017-07-29T10:31:33Z</time>
      </trkpt>
      <trkpt lat="45.92374" lon="4.71109">
        <ele>184</ele>
        <time>2017-07-29T10:31:36Z</time>
      </trkpt>
      <trkpt lat="45.92377" lon="4.71111">
        <ele>184</ele>
        <time>2017-07-29T10:31:37Z</time>
      </trkpt>
      <trkpt lat="45.92383" lon="4.71114">
        <ele>184</ele>
        <time>2017-07-29T10:31:39Z</time>
      </trkpt>
      <trkpt lat="45.92386" lon="4.71115">
        <ele>184</ele>
        <time>2017-07-29T10:31:40Z</time>
      </trkpt>
      <trkpt lat="45.92393" lon="4.71118">
        <ele>184</ele>
        <time>2017-07-29T10:31:42Z</time>
      </trkpt>
      <trkpt lat="45.92396" lon="4.71119">
        <ele>184</ele>
        <time>2017-07-29T10:31:43Z</time>
      </trkpt>
      <trkpt lat="45.92404" lon="4.71122">
        <ele>184</ele>
        <time>2017-07-29T10:31:46Z</time>
      </trkpt>
      <trkpt lat="45.92407" lon="4.71123">
        <ele>184</ele>
        <time>2017-07-29T10:31:47Z</time>
      </trkpt>
      <trkpt lat="45.92412" lon="4.71127">
        <ele>184</ele>
        <time>2017-07-29T10:31:49Z</time>
      </trkpt>
      <trkpt lat="45.92415" lon="4.71128">
        <ele>184</ele>
        <time>2017-07-29T10:31:50Z</time>
      </trkpt>
      <trkpt lat="45.92421" lon="4.71132">
        <ele>186</ele>
        <time>2017-07-29T10:31:52Z</time>
      </trkpt>
      <trkpt lat="45.92424" lon="4.71134">
        <ele>186</ele>
        <time>2017-07-29T10:31:53Z</time>
      </trkpt>
      <trkpt lat="45.92429" lon="4.71137">
        <ele>186</ele>
        <time>2017-07-29T10:31:55Z</time>
      </trkpt>
      <trkpt lat="45.92432" lon="4.7114">
        <ele>186</ele>
        <time>2017-07-29T10:31:56Z</time>
      </trkpt>
      <trkpt lat="45.92439" lon="4.71146">
        <ele>186</ele>
        <time>2017-07-29T10:31:59Z</time>
      </trkpt>
      <trkpt lat="45.92442" lon="4.71148">
        <ele>186</ele>
        <time>2017-07-29T10:32:00Z</time>
      </trkpt>
      <trkpt lat="45.92447" lon="4.71152">
        <ele>186</ele>
        <time>2017-07-29T10:32:02Z</time>
      </trkpt>
      <trkpt lat="45.9245" lon="4.71154">
        <ele>186</ele>
        <time>2017-07-29T10:32:03Z</time>
      </trkpt>
      <trkpt lat="45.92457" lon="4.71158">
        <ele>186</ele>
        <time>2017-07-29T10:32:05Z</time>
      </trkpt>
      <trkpt lat="45.92461" lon="4.7116">
        <ele>186</ele>
        <time>2017-07-29T10:32:06Z</time>
      </trkpt>
      <trkpt lat="45.92469" lon="4.71165">
        <ele>186</ele>
        <time>2017-07-29T10:32:08Z</time>
      </trkpt>
      <trkpt lat="45.92473" lon="4.71167">
        <ele>184</ele>
        <time>2017-07-29T10:32:09Z</time>
      </trkpt>
      <trkpt lat="45.92479" lon="4.7117">
        <ele>185</ele>
        <time>2017-07-29T10:32:11Z</time>
      </trkpt>
      <trkpt lat="45.92483" lon="4.71172">
        <ele>185</ele>
        <time>2017-07-29T10:32:12Z</time>
      </trkpt>
      <trkpt lat="45.9249" lon="4.71174">
        <ele>185</ele>
        <time>2017-07-29T10:32:14Z</time>
      </trkpt>
      <trkpt lat="45.92494" lon="4.71176">
        <ele>185</ele>
        <time>2017-07-29T10:32:15Z</time>
      </trkpt>
      <trkpt lat="45.925" lon="4.71179">
        <ele>185</ele>
        <time>2017-07-29T10:32:17Z</time>
      </trkpt>
      <trkpt lat="45.92503" lon="4.7118">
        <ele>186</ele>
        <time>2017-07-29T10:32:18Z</time>
      </trkpt>
      <trkpt lat="45.92508" lon="4.71185">
        <ele>185</ele>
        <time>2017-07-29T10:32:20Z</time>
      </trkpt>
      <trkpt lat="45.92511" lon="4.71186">
        <ele>185</ele>
        <time>2017-07-29T10:32:21Z</time>
      </trkpt>
      <trkpt lat="45.92518" lon="4.71188">
        <ele>185</ele>
        <time>2017-07-29T10:32:23Z</time>
      </trkpt>
      <trkpt lat="45.92521" lon="4.71189">
        <ele>185</ele>
        <time>2017-07-29T10:32:24Z</time>
      </trkpt>
      <trkpt lat="45.92529" lon="4.71194">
        <ele>185</ele>
        <time>2017-07-29T10:32:27Z</time>
      </trkpt>
      <trkpt lat="45.92532" lon="4.71195">
        <ele>185</ele>
        <time>2017-07-29T10:32:28Z</time>
      </trkpt>
      <trkpt lat="45.92539" lon="4.71197">
        <ele>185</ele>
        <time>2017-07-29T10:32:30Z</time>
      </trkpt>
      <trkpt lat="45.92543" lon="4.71199">
        <ele>185</ele>
        <time>2017-07-29T10:32:31Z</time>
      </trkpt>
      <trkpt lat="45.9255" lon="4.712">
        <ele>185</ele>
        <time>2017-07-29T10:32:33Z</time>
      </trkpt>
      <trkpt lat="45.92553" lon="4.71203">
        <ele>185</ele>
        <time>2017-07-29T10:32:34Z</time>
      </trkpt>
      <trkpt lat="45.9256" lon="4.71206">
        <ele>185</ele>
        <time>2017-07-29T10:32:36Z</time>
      </trkpt>
      <trkpt lat="45.92562" lon="4.71208">
        <ele>185</ele>
        <time>2017-07-29T10:32:37Z</time>
      </trkpt>
      <trkpt lat="45.92568" lon="4.71212">
        <ele>185</ele>
        <time>2017-07-29T10:32:39Z</time>
      </trkpt>
      <trkpt lat="45.92571" lon="4.71213">
        <ele>185</ele>
        <time>2017-07-29T10:32:40Z</time>
      </trkpt>
      <trkpt lat="45.92578" lon="4.71217">
        <ele>185</ele>
        <time>2017-07-29T10:32:42Z</time>
      </trkpt>
      <trkpt lat="45.92581" lon="4.71218">
        <ele>185</ele>
        <time>2017-07-29T10:32:43Z</time>
      </trkpt>
      <trkpt lat="45.92589" lon="4.7122">
        <ele>186</ele>
        <time>2017-07-29T10:32:45Z</time>
      </trkpt>
      <trkpt lat="45.92593" lon="4.71222">
        <ele>186</ele>
        <time>2017-07-29T10:32:46Z</time>
      </trkpt>
      <trkpt lat="45.92599" lon="4.71224">
        <ele>186</ele>
        <time>2017-07-29T10:32:48Z</time>
      </trkpt>
      <trkpt lat="45.92602" lon="4.71226">
        <ele>186</ele>
        <time>2017-07-29T10:32:49Z</time>
      </trkpt>
      <trkpt lat="45.9261" lon="4.71229">
        <ele>186</ele>
        <time>2017-07-29T10:32:52Z</time>
      </trkpt>
      <trkpt lat="45.92612" lon="4.7123">
        <ele>186</ele>
        <time>2017-07-29T10:32:53Z</time>
      </trkpt>
      <trkpt lat="45.92621" lon="4.71235">
        <ele>186</ele>
        <time>2017-07-29T10:32:56Z</time>
      </trkpt>
      <trkpt lat="45.92624" lon="4.71236">
        <ele>186</ele>
        <time>2017-07-29T10:32:57Z</time>
      </trkpt>
      <trkpt lat="45.9263" lon="4.71239">
        <ele>186</ele>
        <time>2017-07-29T10:32:59Z</time>
      </trkpt>
      <trkpt lat="45.92633" lon="4.7124">
        <ele>186</ele>
        <time>2017-07-29T10:33:00Z</time>
      </trkpt>
      <trkpt lat="45.92639" lon="4.71242">
        <ele>186</ele>
        <time>2017-07-29T10:33:02Z</time>
      </trkpt>
      <trkpt lat="45.92643" lon="4.71244">
        <ele>187</ele>
        <time>2017-07-29T10:33:03Z</time>
      </trkpt>
      <trkpt lat="45.9265" lon="4.71248">
        <ele>187</ele>
        <time>2017-07-29T10:33:05Z</time>
      </trkpt>
      <trkpt lat="45.92654" lon="4.71249">
        <ele>187</ele>
        <time>2017-07-29T10:33:06Z</time>
      </trkpt>
      <trkpt lat="45.9266" lon="4.71253">
        <ele>186</ele>
        <time>2017-07-29T10:33:08Z</time>
      </trkpt>
      <trkpt lat="45.92663" lon="4.71254">
        <ele>186</ele>
        <time>2017-07-29T10:33:09Z</time>
      </trkpt>
      <trkpt lat="45.92671" lon="4.71257">
        <ele>187</ele>
        <time>2017-07-29T10:33:12Z</time>
      </trkpt>
      <trkpt lat="45.92673" lon="4.71258">
        <ele>187</ele>
        <time>2017-07-29T10:33:13Z</time>
      </trkpt>
      <trkpt lat="45.92681" lon="4.71262">
        <ele>187</ele>
        <time>2017-07-29T10:33:16Z</time>
      </trkpt>
      <trkpt lat="45.92684" lon="4.71263">
        <ele>187</ele>
        <time>2017-07-29T10:33:17Z</time>
      </trkpt>
      <trkpt lat="45.92691" lon="4.71268">
        <ele>187</ele>
        <time>2017-07-29T10:33:20Z</time>
      </trkpt>
      <trkpt lat="45.92693" lon="4.71269">
        <ele>187</ele>
        <time>2017-07-29T10:33:21Z</time>
      </trkpt>
      <trkpt lat="45.927" lon="4.71268">
        <ele>187</ele>
        <time>2017-07-29T10:33:24Z</time>
      </trkpt>
      <trkpt lat="45.92703" lon="4.71269">
        <ele>187</ele>
        <time>2017-07-29T10:33:25Z</time>
      </trkpt>
      <trkpt lat="45.92709" lon="4.7127">
        <ele>187</ele>
        <time>2017-07-29T10:33:27Z</time>
      </trkpt>
      <trkpt lat="45.92712" lon="4.71271">
        <ele>187</ele>
        <time>2017-07-29T10:33:28Z</time>
      </trkpt>
      <trkpt lat="45.92721" lon="4.71273">
        <ele>188</ele>
        <time>2017-07-29T10:33:31Z</time>
      </trkpt>
      <trkpt lat="45.92723" lon="4.71274">
        <ele>188</ele>
        <time>2017-07-29T10:33:32Z</time>
      </trkpt>
      <trkpt lat="45.92732" lon="4.71275">
        <ele>188</ele>
        <time>2017-07-29T10:33:35Z</time>
      </trkpt>
      <trkpt lat="45.92735" lon="4.71277">
        <ele>188</ele>
        <time>2017-07-29T10:33:36Z</time>
      </trkpt>
      <trkpt lat="45.92741" lon="4.71278">
        <ele>188</ele>
        <time>2017-07-29T10:33:38Z</time>
      </trkpt>
      <trkpt lat="45.92745" lon="4.71278">
        <ele>188</ele>
        <time>2017-07-29T10:33:39Z</time>
      </trkpt>
      <trkpt lat="45.92752" lon="4.7128">
        <ele>189</ele>
        <time>2017-07-29T10:33:41Z</time>
      </trkpt>
      <trkpt lat="45.92756" lon="4.7128">
        <ele>189</ele>
        <time>2017-07-29T10:33:42Z</time>
      </trkpt>
      <trkpt lat="45.92763" lon="4.71281">
        <ele>189</ele>
        <time>2017-07-29T10:33:44Z</time>
      </trkpt>
      <trkpt lat="45.92766" lon="4.71282">
        <ele>189</ele>
        <time>2017-07-29T10:33:45Z</time>
      </trkpt>
      <trkpt lat="45.92773" lon="4.71283">
        <ele>189</ele>
        <time>2017-07-29T10:33:47Z</time>
      </trkpt>
      <trkpt lat="45.92777" lon="4.71284">
        <ele>189</ele>
        <time>2017-07-29T10:33:48Z</time>
      </trkpt>
      <trkpt lat="45.92781" lon="4.71284">
        <ele>189</ele>
        <time>2017-07-29T10:33:49Z</time>
      </trkpt>
      <trkpt lat="45.92788" lon="4.7129">
        <ele>189</ele>
        <time>2017-07-29T10:33:50Z</time>
      </trkpt>
      <trkpt lat="45.92795" lon="4.71295">
        <ele>189</ele>
        <time>2017-07-29T10:33:52Z</time>
      </trkpt>
      <trkpt lat="45.92798" lon="4.71296">
        <ele>189</ele>
        <time>2017-07-29T10:33:53Z</time>
      </trkpt>
      <trkpt lat="45.92804" lon="4.71297">
        <ele>189</ele>
        <time>2017-07-29T10:33:55Z</time>
      </trkpt>
      <trkpt lat="45.92808" lon="4.71297">
        <ele>189</ele>
        <time>2017-07-29T10:33:56Z</time>
      </trkpt>
      <trkpt lat="45.92816" lon="4.71297">
        <ele>189</ele>
        <time>2017-07-29T10:33:58Z</time>
      </trkpt>
      <trkpt lat="45.92819" lon="4.71299">
        <ele>189</ele>
        <time>2017-07-29T10:33:59Z</time>
      </trkpt>
      <trkpt lat="45.92824" lon="4.71307">
        <ele>189</ele>
        <time>2017-07-29T10:34:01Z</time>
      </trkpt>
      <trkpt lat="45.92825" lon="4.71312">
        <ele>189</ele>
        <time>2017-07-29T10:34:02Z</time>
      </trkpt>
      <trkpt lat="45.92825" lon="4.71323">
        <ele>190</ele>
        <time>2017-07-29T10:34:04Z</time>
      </trkpt>
      <trkpt lat="45.92824" lon="4.71328">
        <ele>190</ele>
        <time>2017-07-29T10:34:05Z</time>
      </trkpt>
      <trkpt lat="45.92826" lon="4.71339">
        <ele>189</ele>
        <time>2017-07-29T10:34:07Z</time>
      </trkpt>
      <trkpt lat="45.92827" lon="4.71345">
        <ele>188</ele>
        <time>2017-07-29T10:34:08Z</time>
      </trkpt>
      <trkpt lat="45.92829" lon="4.71351">
        <ele>188</ele>
        <time>2017-07-29T10:34:09Z</time>
      </trkpt>
      <trkpt lat="45.92831" lon="4.71357">
        <ele>188</ele>
        <time>2017-07-29T10:34:10Z</time>
      </trkpt>
      <trkpt lat="45.92833" lon="4.71363">
        <ele>187</ele>
        <time>2017-07-29T10:34:11Z</time>
      </trkpt>
      <trkpt lat="45.92835" lon="4.7137">
        <ele>188</ele>
        <time>2017-07-29T10:34:12Z</time>
      </trkpt>
      <trkpt lat="45.92837" lon="4.71377">
        <ele>188</ele>
        <time>2017-07-29T10:34:13Z</time>
      </trkpt>
      <trkpt lat="45.9284" lon="4.71382">
        <ele>188</ele>
        <time>2017-07-29T10:34:14Z</time>
      </trkpt>
      <trkpt lat="45.92843" lon="4.71388">
        <ele>188</ele>
        <time>2017-07-29T10:34:15Z</time>
      </trkpt>
      <trkpt lat="45.92845" lon="4.71394">
        <ele>187</ele>
        <time>2017-07-29T10:34:16Z</time>
      </trkpt>
      <trkpt lat="45.92844" lon="4.714">
        <ele>187</ele>
        <time>2017-07-29T10:34:17Z</time>
      </trkpt>
      <trkpt lat="45.92843" lon="4.71409">
        <ele>187</ele>
        <time>2017-07-29T10:34:18Z</time>
      </trkpt>
      <trkpt lat="45.9284" lon="4.7142">
        <ele>185</ele>
        <time>2017-07-29T10:34:19Z</time>
      </trkpt>
      <trkpt lat="45.92839" lon="4.71433">
        <ele>184</ele>
        <time>2017-07-29T10:34:20Z</time>
      </trkpt>
      <trkpt lat="45.92837" lon="4.71443">
        <ele>183</ele>
        <time>2017-07-29T10:34:21Z</time>
      </trkpt>
      <trkpt lat="45.92834" lon="4.71454">
        <ele>182</ele>
        <time>2017-07-29T10:34:22Z</time>
      </trkpt>
      <trkpt lat="45.92831" lon="4.71466">
        <ele>180</ele>
        <time>2017-07-29T10:34:23Z</time>
      </trkpt>
      <trkpt lat="45.92826" lon="4.7148">
        <ele>178</ele>
        <time>2017-07-29T10:34:24Z</time>
      </trkpt>
      <trkpt lat="45.92822" lon="4.71494">
        <ele>178</ele>
        <time>2017-07-29T10:34:25Z</time>
      </trkpt>
      <trkpt lat="45.92818" lon="4.71508">
        <ele>174</ele>
        <time>2017-07-29T10:34:26Z</time>
      </trkpt>
      <trkpt lat="45.92814" lon="4.71522">
        <ele>174</ele>
        <time>2017-07-29T10:34:27Z</time>
      </trkpt>
      <trkpt lat="45.9281" lon="4.71537">
        <ele>173</ele>
        <time>2017-07-29T10:34:28Z</time>
      </trkpt>
      <trkpt lat="45.92804" lon="4.71551">
        <ele>173</ele>
        <time>2017-07-29T10:34:29Z</time>
      </trkpt>
      <trkpt lat="45.928" lon="4.71566">
        <ele>172</ele>
        <time>2017-07-29T10:34:30Z</time>
      </trkpt>
      <trkpt lat="45.92794" lon="4.71579">
        <ele>172</ele>
        <time>2017-07-29T10:34:31Z</time>
      </trkpt>
      <trkpt lat="45.92788" lon="4.71591">
        <ele>170</ele>
        <time>2017-07-29T10:34:32Z</time>
      </trkpt>
      <trkpt lat="45.92781" lon="4.716">
        <ele>171</ele>
        <time>2017-07-29T10:34:33Z</time>
      </trkpt>
      <trkpt lat="45.92774" lon="4.71609">
        <ele>171</ele>
        <time>2017-07-29T10:34:34Z</time>
      </trkpt>
      <trkpt lat="45.92767" lon="4.71618">
        <ele>171</ele>
        <time>2017-07-29T10:34:35Z</time>
      </trkpt>
      <trkpt lat="45.92761" lon="4.71627">
        <ele>171</ele>
        <time>2017-07-29T10:34:36Z</time>
      </trkpt>
      <trkpt lat="45.92755" lon="4.71635">
        <ele>171</ele>
        <time>2017-07-29T10:34:37Z</time>
      </trkpt>
      <trkpt lat="45.92749" lon="4.71642">
        <ele>172</ele>
        <time>2017-07-29T10:34:38Z</time>
      </trkpt>
      <trkpt lat="45.92741" lon="4.7165">
        <ele>172</ele>
        <time>2017-07-29T10:34:39Z</time>
      </trkpt>
      <trkpt lat="45.92735" lon="4.71657">
        <ele>172</ele>
        <time>2017-07-29T10:34:40Z</time>
      </trkpt>
      <trkpt lat="45.9273" lon="4.71664">
        <ele>172</ele>
        <time>2017-07-29T10:34:41Z</time>
      </trkpt>
      <trkpt lat="45.92726" lon="4.71671">
        <ele>173</ele>
        <time>2017-07-29T10:34:42Z</time>
      </trkpt>
      <trkpt lat="45.92722" lon="4.71678">
        <ele>173</ele>
        <time>2017-07-29T10:34:43Z</time>
      </trkpt>
      <trkpt lat="45.92718" lon="4.71685">
        <ele>174</ele>
        <time>2017-07-29T10:34:44Z</time>
      </trkpt>
      <trkpt lat="45.92714" lon="4.71692">
        <ele>174</ele>
        <time>2017-07-29T10:34:45Z</time>
      </trkpt>
      <trkpt lat="45.92711" lon="4.717">
        <ele>174</ele>
        <time>2017-07-29T10:34:46Z</time>
      </trkpt>
      <trkpt lat="45.92708" lon="4.71708">
        <ele>174</ele>
        <time>2017-07-29T10:34:47Z</time>
      </trkpt>
      <trkpt lat="45.92706" lon="4.71714">
        <ele>174</ele>
        <time>2017-07-29T10:34:48Z</time>
      </trkpt>
      <trkpt lat="45.92704" lon="4.71722">
        <ele>174</ele>
        <time>2017-07-29T10:34:49Z</time>
      </trkpt>
      <trkpt lat="45.92703" lon="4.7173">
        <ele>174</ele>
        <time>2017-07-29T10:34:50Z</time>
      </trkpt>
      <trkpt lat="45.92704" lon="4.71737">
        <ele>174</ele>
        <time>2017-07-29T10:34:51Z</time>
      </trkpt>
      <trkpt lat="45.92705" lon="4.71744">
        <ele>175</ele>
        <time>2017-07-29T10:34:52Z</time>
      </trkpt>
      <trkpt lat="45.92706" lon="4.71751">
        <ele>175</ele>
        <time>2017-07-29T10:34:53Z</time>
      </trkpt>
      <trkpt lat="45.92707" lon="4.71758">
        <ele>175</ele>
        <time>2017-07-29T10:34:54Z</time>
      </trkpt>
      <trkpt lat="45.92707" lon="4.71766">
        <ele>175</ele>
        <time>2017-07-29T10:34:55Z</time>
      </trkpt>
      <trkpt lat="45.92707" lon="4.71773">
        <ele>174</ele>
        <time>2017-07-29T10:34:56Z</time>
      </trkpt>
      <trkpt lat="45.92708" lon="4.71779">
        <ele>174</ele>
        <time>2017-07-29T10:34:57Z</time>
      </trkpt>
      <trkpt lat="45.92708" lon="4.71792">
        <ele>174</ele>
        <time>2017-07-29T10:34:59Z</time>
      </trkpt>
      <trkpt lat="45.92708" lon="4.71798">
        <ele>174</ele>
        <time>2017-07-29T10:35:00Z</time>
      </trkpt>
      <trkpt lat="45.92708" lon="4.71809">
        <ele>174</ele>
        <time>2017-07-29T10:35:02Z</time>
      </trkpt>
      <trkpt lat="45.9271" lon="4.71813">
        <ele>174</ele>
        <time>2017-07-29T10:35:03Z</time>
      </trkpt>
      <trkpt lat="45.92717" lon="4.71816">
        <ele>174</ele>
        <time>2017-07-29T10:35:05Z</time>
      </trkpt>
      <trkpt lat="45.92721" lon="4.71819">
        <ele>174</ele>
        <time>2017-07-29T10:35:06Z</time>
      </trkpt>
      <trkpt lat="45.92726" lon="4.71822">
        <ele>174</ele>
        <time>2017-07-29T10:35:07Z</time>
      </trkpt>
      <trkpt lat="45.92731" lon="4.71825">
        <ele>174</ele>
        <time>2017-07-29T10:35:08Z</time>
      </trkpt>
      <trkpt lat="45.92736" lon="4.71828">
        <ele>173</ele>
        <time>2017-07-29T10:35:09Z</time>
      </trkpt>
      <trkpt lat="45.92741" lon="4.7183">
        <ele>173</ele>
        <time>2017-07-29T10:35:10Z</time>
      </trkpt>
      <trkpt lat="45.92746" lon="4.71833">
        <ele>173</ele>
        <time>2017-07-29T10:35:11Z</time>
      </trkpt>
      <trkpt lat="45.92751" lon="4.71836">
        <ele>173</ele>
        <time>2017-07-29T10:35:12Z</time>
      </trkpt>
      <trkpt lat="45.92756" lon="4.71839">
        <ele>173</ele>
        <time>2017-07-29T10:35:13Z</time>
      </trkpt>
      <trkpt lat="45.9276" lon="4.71843">
        <ele>172</ele>
        <time>2017-07-29T10:35:14Z</time>
      </trkpt>
      <trkpt lat="45.92764" lon="4.71845">
        <ele>172</ele>
        <time>2017-07-29T10:35:15Z</time>
      </trkpt>
      <trkpt lat="45.92769" lon="4.71848">
        <ele>172</ele>
        <time>2017-07-29T10:35:16Z</time>
      </trkpt>
      <trkpt lat="45.92776" lon="4.71853">
        <ele>172</ele>
        <time>2017-07-29T10:35:18Z</time>
      </trkpt>
      <trkpt lat="45.9278" lon="4.71855">
        <ele>172</ele>
        <time>2017-07-29T10:35:19Z</time>
      </trkpt>
      <trkpt lat="45.92788" lon="4.7186">
        <ele>172</ele>
        <time>2017-07-29T10:35:21Z</time>
      </trkpt>
      <trkpt lat="45.92791" lon="4.71862">
        <ele>172</ele>
        <time>2017-07-29T10:35:22Z</time>
      </trkpt>
      <trkpt lat="45.92799" lon="4.71866">
        <ele>172</ele>
        <time>2017-07-29T10:35:24Z</time>
      </trkpt>
      <trkpt lat="45.92803" lon="4.7187">
        <ele>172</ele>
        <time>2017-07-29T10:35:25Z</time>
      </trkpt>
      <trkpt lat="45.92807" lon="4.71873">
        <ele>172</ele>
        <time>2017-07-29T10:35:26Z</time>
      </trkpt>
      <trkpt lat="45.92812" lon="4.71875">
        <ele>172</ele>
        <time>2017-07-29T10:35:27Z</time>
      </trkpt>
      <trkpt lat="45.92816" lon="4.71877">
        <ele>171</ele>
        <time>2017-07-29T10:35:28Z</time>
      </trkpt>
      <trkpt lat="45.92821" lon="4.7188">
        <ele>171</ele>
        <time>2017-07-29T10:35:29Z</time>
      </trkpt>
      <trkpt lat="45.92825" lon="4.71881">
        <ele>171</ele>
        <time>2017-07-29T10:35:30Z</time>
      </trkpt>
      <trkpt lat="45.9283" lon="4.71885">
        <ele>171</ele>
        <time>2017-07-29T10:35:31Z</time>
      </trkpt>
      <trkpt lat="45.92837" lon="4.71888">
        <ele>171</ele>
        <time>2017-07-29T10:35:33Z</time>
      </trkpt>
      <trkpt lat="45.92841" lon="4.71889">
        <ele>171</ele>
        <time>2017-07-29T10:35:34Z</time>
      </trkpt>
      <trkpt lat="45.92849" lon="4.71893">
        <ele>171</ele>
        <time>2017-07-29T10:35:36Z</time>
      </trkpt>
      <trkpt lat="45.92852" lon="4.71896">
        <ele>171</ele>
        <time>2017-07-29T10:35:37Z</time>
      </trkpt>
      <trkpt lat="45.92857" lon="4.71899">
        <ele>171</ele>
        <time>2017-07-29T10:35:38Z</time>
      </trkpt>
      <trkpt lat="45.92861" lon="4.71902">
        <ele>171</ele>
        <time>2017-07-29T10:35:39Z</time>
      </trkpt>
      <trkpt lat="45.92869" lon="4.71907">
        <ele>171</ele>
        <time>2017-07-29T10:35:41Z</time>
      </trkpt>
      <trkpt lat="45.92872" lon="4.7191">
        <ele>171</ele>
        <time>2017-07-29T10:35:42Z</time>
      </trkpt>
      <trkpt lat="45.92879" lon="4.71915">
        <ele>171</ele>
        <time>2017-07-29T10:35:44Z</time>
      </trkpt>
      <trkpt lat="45.92883" lon="4.71917">
        <ele>171</ele>
        <time>2017-07-29T10:35:45Z</time>
      </trkpt>
      <trkpt lat="45.92887" lon="4.7192">
        <ele>170</ele>
        <time>2017-07-29T10:35:46Z</time>
      </trkpt>
      <trkpt lat="45.92891" lon="4.71923">
        <ele>170</ele>
        <time>2017-07-29T10:35:47Z</time>
      </trkpt>
      <trkpt lat="45.92895" lon="4.71926">
        <ele>170</ele>
        <time>2017-07-29T10:35:48Z</time>
      </trkpt>
      <trkpt lat="45.92899" lon="4.71928">
        <ele>170</ele>
        <time>2017-07-29T10:35:49Z</time>
      </trkpt>
      <trkpt lat="45.92904" lon="4.7193">
        <ele>170</ele>
        <time>2017-07-29T10:35:50Z</time>
      </trkpt>
      <trkpt lat="45.92908" lon="4.71932">
        <ele>170</ele>
        <time>2017-07-29T10:35:51Z</time>
      </trkpt>
      <trkpt lat="45.92915" lon="4.71936">
        <ele>170</ele>
        <time>2017-07-29T10:35:53Z</time>
      </trkpt>
      <trkpt lat="45.92919" lon="4.71938">
        <ele>170</ele>
        <time>2017-07-29T10:35:54Z</time>
      </trkpt>
      <trkpt lat="45.92924" lon="4.71939">
        <ele>170</ele>
        <time>2017-07-29T10:35:55Z</time>
      </trkpt>
      <trkpt lat="45.92928" lon="4.7194">
        <ele>170</ele>
        <time>2017-07-29T10:35:56Z</time>
      </trkpt>
      <trkpt lat="45.92933" lon="4.71942">
        <ele>170</ele>
        <time>2017-07-29T10:35:57Z</time>
      </trkpt>
      <trkpt lat="45.92938" lon="4.71944">
        <ele>170</ele>
        <time>2017-07-29T10:35:58Z</time>
      </trkpt>
      <trkpt lat="45.92944" lon="4.71946">
        <ele>169</ele>
        <time>2017-07-29T10:35:59Z</time>
      </trkpt>
      <trkpt lat="45.92949" lon="4.71948">
        <ele>169</ele>
        <time>2017-07-29T10:36:00Z</time>
      </trkpt>
      <trkpt lat="45.92955" lon="4.71951">
        <ele>169</ele>
        <time>2017-07-29T10:36:01Z</time>
      </trkpt>
      <trkpt lat="45.92961" lon="4.71954">
        <ele>169</ele>
        <time>2017-07-29T10:36:02Z</time>
      </trkpt>
      <trkpt lat="45.92966" lon="4.71955">
        <ele>169</ele>
        <time>2017-07-29T10:36:03Z</time>
      </trkpt>
      <trkpt lat="45.92972" lon="4.71956">
        <ele>169</ele>
        <time>2017-07-29T10:36:04Z</time>
      </trkpt>
      <trkpt lat="45.92977" lon="4.71958">
        <ele>169</ele>
        <time>2017-07-29T10:36:05Z</time>
      </trkpt>
      <trkpt lat="45.92982" lon="4.71959">
        <ele>169</ele>
        <time>2017-07-29T10:36:06Z</time>
      </trkpt>
      <trkpt lat="45.92987" lon="4.7196">
        <ele>169</ele>
        <time>2017-07-29T10:36:07Z</time>
      </trkpt>
      <trkpt lat="45.92992" lon="4.71961">
        <ele>169</ele>
        <time>2017-07-29T10:36:08Z</time>
      </trkpt>
      <trkpt lat="45.92996" lon="4.71963">
        <ele>169</ele>
        <time>2017-07-29T10:36:09Z</time>
      </trkpt>
      <trkpt lat="45.93" lon="4.71964">
        <ele>169</ele>
        <time>2017-07-29T10:36:10Z</time>
      </trkpt>
      <trkpt lat="45.93005" lon="4.71965">
        <ele>169</ele>
        <time>2017-07-29T10:36:11Z</time>
      </trkpt>
      <trkpt lat="45.9301" lon="4.71968">
        <ele>169</ele>
        <time>2017-07-29T10:36:12Z</time>
      </trkpt>
      <trkpt lat="45.93015" lon="4.71969">
        <ele>169</ele>
        <time>2017-07-29T10:36:13Z</time>
      </trkpt>
      <trkpt lat="45.9302" lon="4.71971">
        <ele>169</ele>
        <time>2017-07-29T10:36:14Z</time>
      </trkpt>
      <trkpt lat="45.93025" lon="4.71973">
        <ele>169</ele>
        <time>2017-07-29T10:36:15Z</time>
      </trkpt>
      <trkpt lat="45.9303" lon="4.71975">
        <ele>169</ele>
        <time>2017-07-29T10:36:16Z</time>
      </trkpt>
      <trkpt lat="45.93035" lon="4.71979">
        <ele>169</ele>
        <time>2017-07-29T10:36:17Z</time>
      </trkpt>
      <trkpt lat="45.9304" lon="4.71981">
        <ele>169</ele>
        <time>2017-07-29T10:36:18Z</time>
      </trkpt>
      <trkpt lat="45.93045" lon="4.71983">
        <ele>169</ele>
        <time>2017-07-29T10:36:19Z</time>
      </trkpt>
      <trkpt lat="45.9305" lon="4.71984">
        <ele>169</ele>
        <time>2017-07-29T10:36:20Z</time>
      </trkpt>
      <trkpt lat="45.93055" lon="4.71985">
        <ele>169</ele>
        <time>2017-07-29T10:36:21Z</time>
      </trkpt>
      <trkpt lat="45.9306" lon="4.71987">
        <ele>169</ele>
        <time>2017-07-29T10:36:22Z</time>
      </trkpt>
      <trkpt lat="45.93065" lon="4.7199">
        <ele>169</ele>
        <time>2017-07-29T10:36:23Z</time>
      </trkpt>
      <trkpt lat="45.9307" lon="4.71992">
        <ele>169</ele>
        <time>2017-07-29T10:36:24Z</time>
      </trkpt>
      <trkpt lat="45.93076" lon="4.71994">
        <ele>169</ele>
        <time>2017-07-29T10:36:25Z</time>
      </trkpt>
      <trkpt lat="45.93082" lon="4.71996">
        <ele>169</ele>
        <time>2017-07-29T10:36:26Z</time>
      </trkpt>
      <trkpt lat="45.93087" lon="4.71998">
        <ele>169</ele>
        <time>2017-07-29T10:36:27Z</time>
      </trkpt>
      <trkpt lat="45.93093" lon="4.72001">
        <ele>169</ele>
        <time>2017-07-29T10:36:28Z</time>
      </trkpt>
      <trkpt lat="45.93098" lon="4.72003">
        <ele>169</ele>
        <time>2017-07-29T10:36:29Z</time>
      </trkpt>
      <trkpt lat="45.93103" lon="4.72005">
        <ele>169</ele>
        <time>2017-07-29T10:36:30Z</time>
      </trkpt>
      <trkpt lat="45.93108" lon="4.72006">
        <ele>169</ele>
        <time>2017-07-29T10:36:31Z</time>
      </trkpt>
      <trkpt lat="45.93114" lon="4.72008">
        <ele>169</ele>
        <time>2017-07-29T10:36:32Z</time>
      </trkpt>
      <trkpt lat="45.93119" lon="4.72008">
        <ele>169</ele>
        <time>2017-07-29T10:36:33Z</time>
      </trkpt>
      <trkpt lat="45.93123" lon="4.7201">
        <ele>169</ele>
        <time>2017-07-29T10:36:34Z</time>
      </trkpt>
      <trkpt lat="45.93127" lon="4.72011">
        <ele>169</ele>
        <time>2017-07-29T10:36:35Z</time>
      </trkpt>
      <trkpt lat="45.93132" lon="4.72013">
        <ele>169</ele>
        <time>2017-07-29T10:36:36Z</time>
      </trkpt>
      <trkpt lat="45.93136" lon="4.72014">
        <ele>169</ele>
        <time>2017-07-29T10:36:37Z</time>
      </trkpt>
      <trkpt lat="45.93141" lon="4.72015">
        <ele>169</ele>
        <time>2017-07-29T10:36:38Z</time>
      </trkpt>
      <trkpt lat="45.93146" lon="4.72017">
        <ele>169</ele>
        <time>2017-07-29T10:36:39Z</time>
      </trkpt>
      <trkpt lat="45.93151" lon="4.72018">
        <ele>169</ele>
        <time>2017-07-29T10:36:40Z</time>
      </trkpt>
      <trkpt lat="45.93156" lon="4.7202">
        <ele>169</ele>
        <time>2017-07-29T10:36:41Z</time>
      </trkpt>
      <trkpt lat="45.9316" lon="4.72022">
        <ele>169</ele>
        <time>2017-07-29T10:36:42Z</time>
      </trkpt>
      <trkpt lat="45.93168" lon="4.72025">
        <ele>170</ele>
        <time>2017-07-29T10:36:44Z</time>
      </trkpt>
      <trkpt lat="45.93173" lon="4.72027">
        <ele>170</ele>
        <time>2017-07-29T10:36:45Z</time>
      </trkpt>
      <trkpt lat="45.93179" lon="4.72031">
        <ele>170</ele>
        <time>2017-07-29T10:36:47Z</time>
      </trkpt>
      <trkpt lat="45.93182" lon="4.72036">
        <ele>170</ele>
        <time>2017-07-29T10:36:48Z</time>
      </trkpt>
      <trkpt lat="45.93183" lon="4.72041">
        <ele>170</ele>
        <time>2017-07-29T10:36:49Z</time>
      </trkpt>
      <trkpt lat="45.93181" lon="4.7205">
        <ele>170</ele>
        <time>2017-07-29T10:36:50Z</time>
      </trkpt>
      <trkpt lat="45.93179" lon="4.72057">
        <ele>170</ele>
        <time>2017-07-29T10:36:51Z</time>
      </trkpt>
      <trkpt lat="45.93178" lon="4.72063">
        <ele>170</ele>
        <time>2017-07-29T10:36:52Z</time>
      </trkpt>
      <trkpt lat="45.93177" lon="4.72071">
        <ele>169</ele>
        <time>2017-07-29T10:36:53Z</time>
      </trkpt>
      <trkpt lat="45.93176" lon="4.72078">
        <ele>169</ele>
        <time>2017-07-29T10:36:54Z</time>
      </trkpt>
      <trkpt lat="45.93175" lon="4.72085">
        <ele>169</ele>
        <time>2017-07-29T10:36:55Z</time>
      </trkpt>
      <trkpt lat="45.93174" lon="4.72092">
        <ele>169</ele>
        <time>2017-07-29T10:36:56Z</time>
      </trkpt>
      <trkpt lat="45.93173" lon="4.72098">
        <ele>169</ele>
        <time>2017-07-29T10:36:57Z</time>
      </trkpt>
      <trkpt lat="45.93172" lon="4.72105">
        <ele>170</ele>
        <time>2017-07-29T10:36:58Z</time>
      </trkpt>
      <trkpt lat="45.9317" lon="4.72117">
        <ele>170</ele>
        <time>2017-07-29T10:37:00Z</time>
      </trkpt>
      <trkpt lat="45.93169" lon="4.72123">
        <ele>170</ele>
        <time>2017-07-29T10:37:01Z</time>
      </trkpt>
      <trkpt lat="45.93167" lon="4.72136">
        <ele>170</ele>
        <time>2017-07-29T10:37:03Z</time>
      </trkpt>
      <trkpt lat="45.93167" lon="4.72142">
        <ele>169</ele>
        <time>2017-07-29T10:37:04Z</time>
      </trkpt>
      <trkpt lat="45.93166" lon="4.72148">
        <ele>169</ele>
        <time>2017-07-29T10:37:05Z</time>
      </trkpt>
      <trkpt lat="45.93164" lon="4.72155">
        <ele>169</ele>
        <time>2017-07-29T10:37:06Z</time>
      </trkpt>
      <trkpt lat="45.93163" lon="4.72162">
        <ele>169</ele>
        <time>2017-07-29T10:37:07Z</time>
      </trkpt>
      <trkpt lat="45.93163" lon="4.7217">
        <ele>169</ele>
        <time>2017-07-29T10:37:08Z</time>
      </trkpt>
      <trkpt lat="45.93163" lon="4.72177">
        <ele>169</ele>
        <time>2017-07-29T10:37:09Z</time>
      </trkpt>
      <trkpt lat="45.93162" lon="4.72184">
        <ele>169</ele>
        <time>2017-07-29T10:37:10Z</time>
      </trkpt>
      <trkpt lat="45.93161" lon="4.72196">
        <ele>170</ele>
        <time>2017-07-29T10:37:12Z</time>
      </trkpt>
      <trkpt lat="45.93161" lon="4.72202">
        <ele>170</ele>
        <time>2017-07-29T10:37:13Z</time>
      </trkpt>
      <trkpt lat="45.93163" lon="4.72213">
        <ele>170</ele>
        <time>2017-07-29T10:37:15Z</time>
      </trkpt>
      <trkpt lat="45.93166" lon="4.72218">
        <ele>170</ele>
        <time>2017-07-29T10:37:16Z</time>
      </trkpt>
      <trkpt lat="45.93172" lon="4.72223">
        <ele>170</ele>
        <time>2017-07-29T10:37:18Z</time>
      </trkpt>
      <trkpt lat="45.93177" lon="4.72223">
        <ele>170</ele>
        <time>2017-07-29T10:37:19Z</time>
      </trkpt>
      <trkpt lat="45.93182" lon="4.72223">
        <ele>170</ele>
        <time>2017-07-29T10:37:20Z</time>
      </trkpt>
      <trkpt lat="45.93188" lon="4.72222">
        <ele>171</ele>
        <time>2017-07-29T10:37:21Z</time>
      </trkpt>
      <trkpt lat="45.93193" lon="4.72221">
        <ele>171</ele>
        <time>2017-07-29T10:37:22Z</time>
      </trkpt>
      <trkpt lat="45.93197" lon="4.72221">
        <ele>171</ele>
        <time>2017-07-29T10:37:23Z</time>
      </trkpt>
      <trkpt lat="45.93202" lon="4.7222">
        <ele>171</ele>
        <time>2017-07-29T10:37:24Z</time>
      </trkpt>
      <trkpt lat="45.93207" lon="4.7222">
        <ele>171</ele>
        <time>2017-07-29T10:37:25Z</time>
      </trkpt>
      <trkpt lat="45.93216" lon="4.72219">
        <ele>171</ele>
        <time>2017-07-29T10:37:27Z</time>
      </trkpt>
      <trkpt lat="45.9322" lon="4.72218">
        <ele>171</ele>
        <time>2017-07-29T10:37:28Z</time>
      </trkpt>
      <trkpt lat="45.93225" lon="4.72217">
        <ele>171</ele>
        <time>2017-07-29T10:37:29Z</time>
      </trkpt>
      <trkpt lat="45.93231" lon="4.72215">
        <ele>171</ele>
        <time>2017-07-29T10:37:30Z</time>
      </trkpt>
      <trkpt lat="45.93237" lon="4.72214">
        <ele>171</ele>
        <time>2017-07-29T10:37:31Z</time>
      </trkpt>
      <trkpt lat="45.93242" lon="4.72214">
        <ele>171</ele>
        <time>2017-07-29T10:37:32Z</time>
      </trkpt>
      <trkpt lat="45.93247" lon="4.72215">
        <ele>171</ele>
        <time>2017-07-29T10:37:33Z</time>
      </trkpt>
      <trkpt lat="45.93252" lon="4.72216">
        <ele>174</ele>
        <time>2017-07-29T10:37:34Z</time>
      </trkpt>
      <trkpt lat="45.93257" lon="4.72217">
        <ele>174</ele>
        <time>2017-07-29T10:37:35Z</time>
      </trkpt>
      <trkpt lat="45.93262" lon="4.72217">
        <ele>174</ele>
        <time>2017-07-29T10:37:36Z</time>
      </trkpt>
      <trkpt lat="45.93267" lon="4.72217">
        <ele>174</ele>
        <time>2017-07-29T10:37:37Z</time>
      </trkpt>
      <trkpt lat="45.93273" lon="4.72216">
        <ele>174</ele>
        <time>2017-07-29T10:37:38Z</time>
      </trkpt>
      <trkpt lat="45.93278" lon="4.72216">
        <ele>174</ele>
        <time>2017-07-29T10:37:39Z</time>
      </trkpt>
      <trkpt lat="45.93283" lon="4.72216">
        <ele>174</ele>
        <time>2017-07-29T10:37:40Z</time>
      </trkpt>
      <trkpt lat="45.93289" lon="4.72216">
        <ele>175</ele>
        <time>2017-07-29T10:37:41Z</time>
      </trkpt>
      <trkpt lat="45.93294" lon="4.72216">
        <ele>175</ele>
        <time>2017-07-29T10:37:42Z</time>
      </trkpt>
      <trkpt lat="45.933" lon="4.72216">
        <ele>175</ele>
        <time>2017-07-29T10:37:43Z</time>
      </trkpt>
      <trkpt lat="45.93306" lon="4.72215">
        <ele>175</ele>
        <time>2017-07-29T10:37:44Z</time>
      </trkpt>
      <trkpt lat="45.93313" lon="4.72218">
        <ele>175</ele>
        <time>2017-07-29T10:37:45Z</time>
      </trkpt>
      <trkpt lat="45.93319" lon="4.72216">
        <ele>175</ele>
        <time>2017-07-29T10:37:46Z</time>
      </trkpt>
      <trkpt lat="45.93327" lon="4.72213">
        <ele>176</ele>
        <time>2017-07-29T10:37:47Z</time>
      </trkpt>
      <trkpt lat="45.93334" lon="4.72218">
        <ele>176</ele>
        <time>2017-07-29T10:37:48Z</time>
      </trkpt>
      <trkpt lat="45.93341" lon="4.72215">
        <ele>176</ele>
        <time>2017-07-29T10:37:49Z</time>
      </trkpt>
      <trkpt lat="45.93346" lon="4.72214">
        <ele>176</ele>
        <time>2017-07-29T10:37:50Z</time>
      </trkpt>
      <trkpt lat="45.93351" lon="4.72213">
        <ele>176</ele>
        <time>2017-07-29T10:37:51Z</time>
      </trkpt>
      <trkpt lat="45.93355" lon="4.72213">
        <ele>176</ele>
        <time>2017-07-29T10:37:52Z</time>
      </trkpt>
      <trkpt lat="45.93364" lon="4.72213">
        <ele>176</ele>
        <time>2017-07-29T10:37:54Z</time>
      </trkpt>
      <trkpt lat="45.9337" lon="4.72211">
        <ele>176</ele>
        <time>2017-07-29T10:37:55Z</time>
      </trkpt>
      <trkpt lat="45.93376" lon="4.72209">
        <ele>176</ele>
        <time>2017-07-29T10:37:56Z</time>
      </trkpt>
      <trkpt lat="45.93381" lon="4.72206">
        <ele>176</ele>
        <time>2017-07-29T10:37:57Z</time>
      </trkpt>
      <trkpt lat="45.93387" lon="4.72206">
        <ele>176</ele>
        <time>2017-07-29T10:37:58Z</time>
      </trkpt>
      <trkpt lat="45.93392" lon="4.72205">
        <ele>176</ele>
        <time>2017-07-29T10:37:59Z</time>
      </trkpt>
      <trkpt lat="45.93398" lon="4.72203">
        <ele>176</ele>
        <time>2017-07-29T10:38:00Z</time>
      </trkpt>
      <trkpt lat="45.93403" lon="4.72203">
        <ele>176</ele>
        <time>2017-07-29T10:38:01Z</time>
      </trkpt>
      <trkpt lat="45.93409" lon="4.722">
        <ele>176</ele>
        <time>2017-07-29T10:38:02Z</time>
      </trkpt>
      <trkpt lat="45.93413" lon="4.72198">
        <ele>176</ele>
        <time>2017-07-29T10:38:03Z</time>
      </trkpt>
      <trkpt lat="45.93418" lon="4.72195">
        <ele>175</ele>
        <time>2017-07-29T10:38:04Z</time>
      </trkpt>
      <trkpt lat="45.93422" lon="4.72191">
        <ele>175</ele>
        <time>2017-07-29T10:38:05Z</time>
      </trkpt>
      <trkpt lat="45.93427" lon="4.72187">
        <ele>175</ele>
        <time>2017-07-29T10:38:06Z</time>
      </trkpt>
      <trkpt lat="45.93431" lon="4.72184">
        <ele>175</ele>
        <time>2017-07-29T10:38:07Z</time>
      </trkpt>
      <trkpt lat="45.93436" lon="4.72181">
        <ele>175</ele>
        <time>2017-07-29T10:38:08Z</time>
      </trkpt>
      <trkpt lat="45.93441" lon="4.72178">
        <ele>175</ele>
        <time>2017-07-29T10:38:09Z</time>
      </trkpt>
      <trkpt lat="45.93446" lon="4.72176">
        <ele>174</ele>
        <time>2017-07-29T10:38:10Z</time>
      </trkpt>
      <trkpt lat="45.93451" lon="4.72177">
        <ele>174</ele>
        <time>2017-07-29T10:38:11Z</time>
      </trkpt>
      <trkpt lat="45.93457" lon="4.72178">
        <ele>174</ele>
        <time>2017-07-29T10:38:12Z</time>
      </trkpt>
      <trkpt lat="45.93462" lon="4.7218">
        <ele>174</ele>
        <time>2017-07-29T10:38:13Z</time>
      </trkpt>
      <trkpt lat="45.93467" lon="4.72182">
        <ele>174</ele>
        <time>2017-07-29T10:38:14Z</time>
      </trkpt>
      <trkpt lat="45.93471" lon="4.72184">
        <ele>174</ele>
        <time>2017-07-29T10:38:15Z</time>
      </trkpt>
      <trkpt lat="45.93475" lon="4.72185">
        <ele>173</ele>
        <time>2017-07-29T10:38:16Z</time>
      </trkpt>
      <trkpt lat="45.9348" lon="4.72187">
        <ele>173</ele>
        <time>2017-07-29T10:38:17Z</time>
      </trkpt>
      <trkpt lat="45.93487" lon="4.72195">
        <ele>173</ele>
        <time>2017-07-29T10:38:19Z</time>
      </trkpt>
      <trkpt lat="45.93491" lon="4.72197">
        <ele>173</ele>
        <time>2017-07-29T10:38:20Z</time>
      </trkpt>
      <trkpt lat="45.93499" lon="4.72202">
        <ele>173</ele>
        <time>2017-07-29T10:38:23Z</time>
      </trkpt>
      <trkpt lat="45.93498" lon="4.72206">
        <ele>173</ele>
        <time>2017-07-29T10:38:24Z</time>
      </trkpt>
      <trkpt lat="45.93506" lon="4.72205">
        <ele>172</ele>
        <time>2017-07-29T10:38:26Z</time>
      </trkpt>
      <trkpt lat="45.9351" lon="4.72206">
        <ele>172</ele>
        <time>2017-07-29T10:38:27Z</time>
      </trkpt>
      <trkpt lat="45.93515" lon="4.72211">
        <ele>172</ele>
        <time>2017-07-29T10:38:28Z</time>
      </trkpt>
      <trkpt lat="45.9352" lon="4.72208">
        <ele>172</ele>
        <time>2017-07-29T10:38:29Z</time>
      </trkpt>
      <trkpt lat="45.93525" lon="4.72206">
        <ele>172</ele>
        <time>2017-07-29T10:38:30Z</time>
      </trkpt>
      <trkpt lat="45.9353" lon="4.72205">
        <ele>172</ele>
        <time>2017-07-29T10:38:31Z</time>
      </trkpt>
      <trkpt lat="45.93538" lon="4.72205">
        <ele>172</ele>
        <time>2017-07-29T10:38:33Z</time>
      </trkpt>
      <trkpt lat="45.93541" lon="4.72207">
        <ele>173</ele>
        <time>2017-07-29T10:38:34Z</time>
      </trkpt>
      <trkpt lat="45.93544" lon="4.72216">
        <ele>172</ele>
        <time>2017-07-29T10:38:37Z</time>
      </trkpt>
      <trkpt lat="45.93543" lon="4.7222">
        <ele>172</ele>
        <time>2017-07-29T10:38:38Z</time>
      </trkpt>
      <trkpt lat="45.9354" lon="4.72229">
        <ele>172</ele>
        <time>2017-07-29T10:38:40Z</time>
      </trkpt>
      <trkpt lat="45.93538" lon="4.72234">
        <ele>172</ele>
        <time>2017-07-29T10:38:41Z</time>
      </trkpt>
      <trkpt lat="45.93534" lon="4.72245">
        <ele>172</ele>
        <time>2017-07-29T10:38:43Z</time>
      </trkpt>
      <trkpt lat="45.93532" lon="4.72249">
        <ele>172</ele>
        <time>2017-07-29T10:38:44Z</time>
      </trkpt>
      <trkpt lat="45.93529" lon="4.72259">
        <ele>172</ele>
        <time>2017-07-29T10:38:46Z</time>
      </trkpt>
      <trkpt lat="45.93527" lon="4.72263">
        <ele>172</ele>
        <time>2017-07-29T10:38:47Z</time>
      </trkpt>
      <trkpt lat="45.93525" lon="4.72269">
        <ele>172</ele>
        <time>2017-07-29T10:38:48Z</time>
      </trkpt>
      <trkpt lat="45.93523" lon="4.72275">
        <ele>172</ele>
        <time>2017-07-29T10:38:49Z</time>
      </trkpt>
      <trkpt lat="45.93521" lon="4.72282">
        <ele>172</ele>
        <time>2017-07-29T10:38:50Z</time>
      </trkpt>
      <trkpt lat="45.9352" lon="4.72289">
        <ele>172</ele>
        <time>2017-07-29T10:38:51Z</time>
      </trkpt>
      <trkpt lat="45.93517" lon="4.72296">
        <ele>172</ele>
        <time>2017-07-29T10:38:52Z</time>
      </trkpt>
      <trkpt lat="45.93515" lon="4.72303">
        <ele>172</ele>
        <time>2017-07-29T10:38:53Z</time>
      </trkpt>
      <trkpt lat="45.93512" lon="4.72313">
        <ele>173</ele>
        <time>2017-07-29T10:38:55Z</time>
      </trkpt>
      <trkpt lat="45.93512" lon="4.72318">
        <ele>173</ele>
        <time>2017-07-29T10:38:56Z</time>
      </trkpt>
      <trkpt lat="45.93519" lon="4.7232">
        <ele>173</ele>
        <time>2017-07-29T10:38:59Z</time>
      </trkpt>
      <trkpt lat="45.93523" lon="4.72312">
        <ele>173</ele>
        <time>2017-07-29T10:39:00Z</time>
      </trkpt>
      <trkpt lat="45.9353" lon="4.72307">
        <ele>173</ele>
        <time>2017-07-29T10:39:02Z</time>
      </trkpt>
      <trkpt lat="45.93533" lon="4.72306">
        <ele>173</ele>
        <time>2017-07-29T10:39:03Z</time>
      </trkpt>
      <trkpt lat="45.93542" lon="4.72303">
        <ele>173</ele>
        <time>2017-07-29T10:39:05Z</time>
      </trkpt>
      <trkpt lat="45.93547" lon="4.72304">
        <ele>173</ele>
        <time>2017-07-29T10:39:06Z</time>
      </trkpt>
      <trkpt lat="45.93552" lon="4.72304">
        <ele>173</ele>
        <time>2017-07-29T10:39:07Z</time>
      </trkpt>
      <trkpt lat="45.93558" lon="4.72306">
        <ele>173</ele>
        <time>2017-07-29T10:39:08Z</time>
      </trkpt>
      <trkpt lat="45.93563" lon="4.72314">
        <ele>173</ele>
        <time>2017-07-29T10:39:10Z</time>
      </trkpt>
      <trkpt lat="45.93566" lon="4.72317">
        <ele>173</ele>
        <time>2017-07-29T10:39:11Z</time>
      </trkpt>
      <trkpt lat="45.93572" lon="4.72325">
        <ele>173</ele>
        <time>2017-07-29T10:39:13Z</time>
      </trkpt>
      <trkpt lat="45.93575" lon="4.72328">
        <ele>173</ele>
        <time>2017-07-29T10:39:14Z</time>
      </trkpt>
      <trkpt lat="45.93577" lon="4.72337">
        <ele>173</ele>
        <time>2017-07-29T10:39:15Z</time>
      </trkpt>
      <trkpt lat="45.93579" lon="4.7234">
        <ele>173</ele>
        <time>2017-07-29T10:39:16Z</time>
      </trkpt>
      <trkpt lat="45.93586" lon="4.72345">
        <ele>173</ele>
        <time>2017-07-29T10:39:18Z</time>
      </trkpt>
      <trkpt lat="45.93587" lon="4.72347">
        <ele>173</ele>
        <time>2017-07-29T10:39:19Z</time>
      </trkpt>
      <trkpt lat="45.93593" lon="4.72357">
        <ele>172</ele>
        <time>2017-07-29T10:39:22Z</time>
      </trkpt>
      <trkpt lat="45.93594" lon="4.7236">
        <ele>172</ele>
        <time>2017-07-29T10:39:23Z</time>
      </trkpt>
      <trkpt lat="45.93601" lon="4.72366">
        <ele>172</ele>
        <time>2017-07-29T10:39:26Z</time>
      </trkpt>
      <trkpt lat="45.93604" lon="4.72368">
        <ele>172</ele>
        <time>2017-07-29T10:39:27Z</time>
      </trkpt>
      <trkpt lat="45.93609" lon="4.72375">
        <ele>172</ele>
        <time>2017-07-29T10:39:29Z</time>
      </trkpt>
      <trkpt lat="45.93612" lon="4.72378">
        <ele>172</ele>
        <time>2017-07-29T10:39:30Z</time>
      </trkpt>
      <trkpt lat="45.93618" lon="4.72385">
        <ele>172</ele>
        <time>2017-07-29T10:39:32Z</time>
      </trkpt>
      <trkpt lat="45.93621" lon="4.72388">
        <ele>172</ele>
        <time>2017-07-29T10:39:33Z</time>
      </trkpt>
      <trkpt lat="45.93627" lon="4.72393">
        <ele>172</ele>
        <time>2017-07-29T10:39:35Z</time>
      </trkpt>
      <trkpt lat="45.9363" lon="4.72396">
        <ele>172</ele>
        <time>2017-07-29T10:39:36Z</time>
      </trkpt>
      <trkpt lat="45.93634" lon="4.72403">
        <ele>172</ele>
        <time>2017-07-29T10:39:38Z</time>
      </trkpt>
      <trkpt lat="45.93636" lon="4.72407">
        <ele>172</ele>
        <time>2017-07-29T10:39:39Z</time>
      </trkpt>
      <trkpt lat="45.93642" lon="4.72414">
        <ele>172</ele>
        <time>2017-07-29T10:39:41Z</time>
      </trkpt>
      <trkpt lat="45.93644" lon="4.72417">
        <ele>172</ele>
        <time>2017-07-29T10:39:42Z</time>
      </trkpt>
      <trkpt lat="45.9365" lon="4.72422">
        <ele>172</ele>
        <time>2017-07-29T10:39:44Z</time>
      </trkpt>
      <trkpt lat="45.93654" lon="4.72425">
        <ele>172</ele>
        <time>2017-07-29T10:39:45Z</time>
      </trkpt>
      <trkpt lat="45.9366" lon="4.72431">
        <ele>172</ele>
        <time>2017-07-29T10:39:47Z</time>
      </trkpt>
      <trkpt lat="45.93662" lon="4.72437">
        <ele>172</ele>
        <time>2017-07-29T10:39:48Z</time>
      </trkpt>
      <trkpt lat="45.93667" lon="4.72445">
        <ele>172</ele>
        <time>2017-07-29T10:39:52Z</time>
      </trkpt>
      <trkpt lat="45.9367" lon="4.72448">
        <ele>171</ele>
        <time>2017-07-29T10:39:53Z</time>
      </trkpt>
      <trkpt lat="45.93675" lon="4.72454">
        <ele>171</ele>
        <time>2017-07-29T10:39:55Z</time>
      </trkpt>
      <trkpt lat="45.93678" lon="4.72457">
        <ele>171</ele>
        <time>2017-07-29T10:39:56Z</time>
      </trkpt>
      <trkpt lat="45.93683" lon="4.72462">
        <ele>171</ele>
        <time>2017-07-29T10:39:58Z</time>
      </trkpt>
      <trkpt lat="45.93687" lon="4.72466">
        <ele>171</ele>
        <time>2017-07-29T10:39:59Z</time>
      </trkpt>
      <trkpt lat="45.93693" lon="4.72474">
        <ele>171</ele>
        <time>2017-07-29T10:40:01Z</time>
      </trkpt>
      <trkpt lat="45.93696" lon="4.72477">
        <ele>171</ele>
        <time>2017-07-29T10:40:02Z</time>
      </trkpt>
      <trkpt lat="45.93702" lon="4.72483">
        <ele>171</ele>
        <time>2017-07-29T10:40:04Z</time>
      </trkpt>
      <trkpt lat="45.93705" lon="4.72486">
        <ele>171</ele>
        <time>2017-07-29T10:40:05Z</time>
      </trkpt>
      <trkpt lat="45.93712" lon="4.72491">
        <ele>171</ele>
        <time>2017-07-29T10:40:07Z</time>
      </trkpt>
      <trkpt lat="45.93715" lon="4.72495">
        <ele>171</ele>
        <time>2017-07-29T10:40:08Z</time>
      </trkpt>
      <trkpt lat="45.93722" lon="4.72501">
        <ele>171</ele>
        <time>2017-07-29T10:40:10Z</time>
      </trkpt>
      <trkpt lat="45.93725" lon="4.72504">
        <ele>171</ele>
        <time>2017-07-29T10:40:11Z</time>
      </trkpt>
      <trkpt lat="45.93733" lon="4.72509">
        <ele>171</ele>
        <time>2017-07-29T10:40:13Z</time>
      </trkpt>
      <trkpt lat="45.93736" lon="4.72513">
        <ele>171</ele>
        <time>2017-07-29T10:40:14Z</time>
      </trkpt>
      <trkpt lat="45.93739" lon="4.72517">
        <ele>171</ele>
        <time>2017-07-29T10:40:15Z</time>
      </trkpt>
      <trkpt lat="45.93743" lon="4.72522">
        <ele>172</ele>
        <time>2017-07-29T10:40:16Z</time>
      </trkpt>
      <trkpt lat="45.93747" lon="4.72526">
        <ele>172</ele>
        <time>2017-07-29T10:40:17Z</time>
      </trkpt>
      <trkpt lat="45.93751" lon="4.72529">
        <ele>172</ele>
        <time>2017-07-29T10:40:18Z</time>
      </trkpt>
      <trkpt lat="45.93758" lon="4.72533">
        <ele>173</ele>
        <time>2017-07-29T10:40:20Z</time>
      </trkpt>
      <trkpt lat="45.93761" lon="4.72537">
        <ele>173</ele>
        <time>2017-07-29T10:40:21Z</time>
      </trkpt>
      <trkpt lat="45.93767" lon="4.72542">
        <ele>173</ele>
        <time>2017-07-29T10:40:23Z</time>
      </trkpt>
      <trkpt lat="45.93771" lon="4.72544">
        <ele>173</ele>
        <time>2017-07-29T10:40:24Z</time>
      </trkpt>
      <trkpt lat="45.93776" lon="4.72548">
        <ele>173</ele>
        <time>2017-07-29T10:40:26Z</time>
      </trkpt>
      <trkpt lat="45.9378" lon="4.72549">
        <ele>173</ele>
        <time>2017-07-29T10:40:27Z</time>
      </trkpt>
      <trkpt lat="45.93785" lon="4.72552">
        <ele>173</ele>
        <time>2017-07-29T10:40:29Z</time>
      </trkpt>
      <trkpt lat="45.93795" lon="4.72562">
        <ele>174</ele>
        <time>2017-07-29T10:40:30Z</time>
      </trkpt>
      <trkpt lat="45.93802" lon="4.72567">
        <ele>174</ele>
        <time>2017-07-29T10:40:31Z</time>
      </trkpt>
      <trkpt lat="45.93807" lon="4.72569">
        <ele>174</ele>
        <time>2017-07-29T10:40:32Z</time>
      </trkpt>
      <trkpt lat="45.93815" lon="4.72574">
        <ele>174</ele>
        <time>2017-07-29T10:40:34Z</time>
      </trkpt>
      <trkpt lat="45.93815" lon="4.72584">
        <ele>174</ele>
        <time>2017-07-29T10:40:35Z</time>
      </trkpt>
      <trkpt lat="45.93815" lon="4.72594">
        <ele>174</ele>
        <time>2017-07-29T10:40:37Z</time>
      </trkpt>
      <trkpt lat="45.93817" lon="4.726">
        <ele>173</ele>
        <time>2017-07-29T10:40:38Z</time>
      </trkpt>
      <trkpt lat="45.93817" lon="4.72612">
        <ele>173</ele>
        <time>2017-07-29T10:40:40Z</time>
      </trkpt>
      <trkpt lat="45.93815" lon="4.72616">
        <ele>173</ele>
        <time>2017-07-29T10:40:41Z</time>
      </trkpt>
      <trkpt lat="45.93809" lon="4.72624">
        <ele>173</ele>
        <time>2017-07-29T10:40:43Z</time>
      </trkpt>
      <trkpt lat="45.93805" lon="4.72628">
        <ele>173</ele>
        <time>2017-07-29T10:40:44Z</time>
      </trkpt>
      <trkpt lat="45.93802" lon="4.72633">
        <ele>173</ele>
        <time>2017-07-29T10:40:45Z</time>
      </trkpt>
      <trkpt lat="45.93798" lon="4.72637">
        <ele>173</ele>
        <time>2017-07-29T10:40:46Z</time>
      </trkpt>
      <trkpt lat="45.93791" lon="4.72645">
        <ele>173</ele>
        <time>2017-07-29T10:40:48Z</time>
      </trkpt>
      <trkpt lat="45.93788" lon="4.7265">
        <ele>173</ele>
        <time>2017-07-29T10:40:49Z</time>
      </trkpt>
      <trkpt lat="45.93782" lon="4.72658">
        <ele>173</ele>
        <time>2017-07-29T10:40:51Z</time>
      </trkpt>
      <trkpt lat="45.93779" lon="4.72661">
        <ele>173</ele>
        <time>2017-07-29T10:40:52Z</time>
      </trkpt>
      <trkpt lat="45.93775" lon="4.72665">
        <ele>173</ele>
        <time>2017-07-29T10:40:53Z</time>
      </trkpt>
      <trkpt lat="45.93771" lon="4.72668">
        <ele>173</ele>
        <time>2017-07-29T10:40:54Z</time>
      </trkpt>
      <trkpt lat="45.93767" lon="4.72672">
        <ele>173</ele>
        <time>2017-07-29T10:40:55Z</time>
      </trkpt>
      <trkpt lat="45.93764" lon="4.72677">
        <ele>173</ele>
        <time>2017-07-29T10:40:56Z</time>
      </trkpt>
      <trkpt lat="45.93757" lon="4.72684">
        <ele>173</ele>
        <time>2017-07-29T10:40:58Z</time>
      </trkpt>
      <trkpt lat="45.93754" lon="4.72687">
        <ele>173</ele>
        <time>2017-07-29T10:40:59Z</time>
      </trkpt>
      <trkpt lat="45.93748" lon="4.72693">
        <ele>173</ele>
        <time>2017-07-29T10:41:01Z</time>
      </trkpt>
      <trkpt lat="45.93743" lon="4.72696">
        <ele>173</ele>
        <time>2017-07-29T10:41:02Z</time>
      </trkpt>
      <trkpt lat="45.93739" lon="4.72699">
        <ele>173</ele>
        <time>2017-07-29T10:41:03Z</time>
      </trkpt>
      <trkpt lat="45.93735" lon="4.72704">
        <ele>173</ele>
        <time>2017-07-29T10:41:04Z</time>
      </trkpt>
      <trkpt lat="45.93731" lon="4.72708">
        <ele>173</ele>
        <time>2017-07-29T10:41:05Z</time>
      </trkpt>
      <trkpt lat="45.93727" lon="4.72712">
        <ele>173</ele>
        <time>2017-07-29T10:41:06Z</time>
      </trkpt>
      <trkpt lat="45.93722" lon="4.72716">
        <ele>173</ele>
        <time>2017-07-29T10:41:07Z</time>
      </trkpt>
      <trkpt lat="45.93718" lon="4.7272">
        <ele>173</ele>
        <time>2017-07-29T10:41:08Z</time>
      </trkpt>
      <trkpt lat="45.93714" lon="4.72724">
        <ele>173</ele>
        <time>2017-07-29T10:41:09Z</time>
      </trkpt>
      <trkpt lat="45.93711" lon="4.72727">
        <ele>173</ele>
        <time>2017-07-29T10:41:10Z</time>
      </trkpt>
      <trkpt lat="45.93703" lon="4.72734">
        <ele>173</ele>
        <time>2017-07-29T10:41:12Z</time>
      </trkpt>
      <trkpt lat="45.937" lon="4.72738">
        <ele>173</ele>
        <time>2017-07-29T10:41:13Z</time>
      </trkpt>
      <trkpt lat="45.93696" lon="4.72742">
        <ele>173</ele>
        <time>2017-07-29T10:41:14Z</time>
      </trkpt>
      <trkpt lat="45.93692" lon="4.72745">
        <ele>173</ele>
        <time>2017-07-29T10:41:15Z</time>
      </trkpt>
      <trkpt lat="45.93688" lon="4.72749">
        <ele>173</ele>
        <time>2017-07-29T10:41:16Z</time>
      </trkpt>
      <trkpt lat="45.93684" lon="4.72752">
        <ele>173</ele>
        <time>2017-07-29T10:41:17Z</time>
      </trkpt>
      <trkpt lat="45.93679" lon="4.72756">
        <ele>173</ele>
        <time>2017-07-29T10:41:18Z</time>
      </trkpt>
      <trkpt lat="45.93675" lon="4.7276">
        <ele>173</ele>
        <time>2017-07-29T10:41:19Z</time>
      </trkpt>
      <trkpt lat="45.93672" lon="4.72763">
        <ele>173</ele>
        <time>2017-07-29T10:41:20Z</time>
      </trkpt>
      <trkpt lat="45.93668" lon="4.72767">
        <ele>173</ele>
        <time>2017-07-29T10:41:21Z</time>
      </trkpt>
      <trkpt lat="45.9366" lon="4.72773">
        <ele>174</ele>
        <time>2017-07-29T10:41:23Z</time>
      </trkpt>
      <trkpt lat="45.93656" lon="4.72776">
        <ele>174</ele>
        <time>2017-07-29T10:41:24Z</time>
      </trkpt>
      <trkpt lat="45.93652" lon="4.72779">
        <ele>174</ele>
        <time>2017-07-29T10:41:25Z</time>
      </trkpt>
      <trkpt lat="45.93648" lon="4.72782">
        <ele>174</ele>
        <time>2017-07-29T10:41:26Z</time>
      </trkpt>
      <trkpt lat="45.93644" lon="4.72785">
        <ele>174</ele>
        <time>2017-07-29T10:41:27Z</time>
      </trkpt>
      <trkpt lat="45.9364" lon="4.72788">
        <ele>173</ele>
        <time>2017-07-29T10:41:28Z</time>
      </trkpt>
      <trkpt lat="45.93632" lon="4.72794">
        <ele>173</ele>
        <time>2017-07-29T10:41:30Z</time>
      </trkpt>
      <trkpt lat="45.93629" lon="4.72798">
        <ele>173</ele>
        <time>2017-07-29T10:41:31Z</time>
      </trkpt>
      <trkpt lat="45.93625" lon="4.728">
        <ele>173</ele>
        <time>2017-07-29T10:41:32Z</time>
      </trkpt>
      <trkpt lat="45.93621" lon="4.72802">
        <ele>173</ele>
        <time>2017-07-29T10:41:33Z</time>
      </trkpt>
      <trkpt lat="45.93616" lon="4.72805">
        <ele>173</ele>
        <time>2017-07-29T10:41:34Z</time>
      </trkpt>
      <trkpt lat="45.93611" lon="4.72809">
        <ele>173</ele>
        <time>2017-07-29T10:41:35Z</time>
      </trkpt>
      <trkpt lat="45.93607" lon="4.72815">
        <ele>173</ele>
        <time>2017-07-29T10:41:36Z</time>
      </trkpt>
      <trkpt lat="45.93603" lon="4.7282">
        <ele>173</ele>
        <time>2017-07-29T10:41:37Z</time>
      </trkpt>
      <trkpt lat="45.93598" lon="4.72823">
        <ele>173</ele>
        <time>2017-07-29T10:41:38Z</time>
      </trkpt>
      <trkpt lat="45.93594" lon="4.72826">
        <ele>173</ele>
        <time>2017-07-29T10:41:39Z</time>
      </trkpt>
      <trkpt lat="45.93586" lon="4.72831">
        <ele>172</ele>
        <time>2017-07-29T10:41:41Z</time>
      </trkpt>
      <trkpt lat="45.93583" lon="4.72834">
        <ele>172</ele>
        <time>2017-07-29T10:41:42Z</time>
      </trkpt>
      <trkpt lat="45.93579" lon="4.72838">
        <ele>172</ele>
        <time>2017-07-29T10:41:43Z</time>
      </trkpt>
      <trkpt lat="45.93575" lon="4.72841">
        <ele>172</ele>
        <time>2017-07-29T10:41:44Z</time>
      </trkpt>
      <trkpt lat="45.9357" lon="4.72844">
        <ele>172</ele>
        <time>2017-07-29T10:41:45Z</time>
      </trkpt>
      <trkpt lat="45.93566" lon="4.72848">
        <ele>172</ele>
        <time>2017-07-29T10:41:46Z</time>
      </trkpt>
      <trkpt lat="45.93562" lon="4.72852">
        <ele>172</ele>
        <time>2017-07-29T10:41:47Z</time>
      </trkpt>
      <trkpt lat="45.93558" lon="4.72855">
        <ele>172</ele>
        <time>2017-07-29T10:41:48Z</time>
      </trkpt>
      <trkpt lat="45.9355" lon="4.72862">
        <ele>173</ele>
        <time>2017-07-29T10:41:50Z</time>
      </trkpt>
      <trkpt lat="45.93547" lon="4.72866">
        <ele>173</ele>
        <time>2017-07-29T10:41:51Z</time>
      </trkpt>
      <trkpt lat="45.93543" lon="4.7287">
        <ele>173</ele>
        <time>2017-07-29T10:41:52Z</time>
      </trkpt>
      <trkpt lat="45.93539" lon="4.72874">
        <ele>173</ele>
        <time>2017-07-29T10:41:53Z</time>
      </trkpt>
      <trkpt lat="45.93536" lon="4.72878">
        <ele>173</ele>
        <time>2017-07-29T10:41:54Z</time>
      </trkpt>
      <trkpt lat="45.93532" lon="4.72882">
        <ele>173</ele>
        <time>2017-07-29T10:41:55Z</time>
      </trkpt>
      <trkpt lat="45.93527" lon="4.72887">
        <ele>172</ele>
        <time>2017-07-29T10:41:56Z</time>
      </trkpt>
      <trkpt lat="45.93523" lon="4.72891">
        <ele>172</ele>
        <time>2017-07-29T10:41:57Z</time>
      </trkpt>
      <trkpt lat="45.9352" lon="4.72896">
        <ele>172</ele>
        <time>2017-07-29T10:41:58Z</time>
      </trkpt>
      <trkpt lat="45.93516" lon="4.729">
        <ele>172</ele>
        <time>2017-07-29T10:41:59Z</time>
      </trkpt>
      <trkpt lat="45.9351" lon="4.72907">
        <ele>172</ele>
        <time>2017-07-29T10:42:01Z</time>
      </trkpt>
      <trkpt lat="45.93507" lon="4.7291">
        <ele>172</ele>
        <time>2017-07-29T10:42:02Z</time>
      </trkpt>
      <trkpt lat="45.93501" lon="4.72916">
        <ele>172</ele>
        <time>2017-07-29T10:42:04Z</time>
      </trkpt>
      <trkpt lat="45.93499" lon="4.7292">
        <ele>172</ele>
        <time>2017-07-29T10:42:05Z</time>
      </trkpt>
      <trkpt lat="45.93495" lon="4.7293">
        <ele>172</ele>
        <time>2017-07-29T10:42:07Z</time>
      </trkpt>
      <trkpt lat="45.93493" lon="4.72936">
        <ele>172</ele>
        <time>2017-07-29T10:42:08Z</time>
      </trkpt>
      <trkpt lat="45.93492" lon="4.72942">
        <ele>172</ele>
        <time>2017-07-29T10:42:09Z</time>
      </trkpt>
      <trkpt lat="45.9349" lon="4.72949">
        <ele>171</ele>
        <time>2017-07-29T10:42:10Z</time>
      </trkpt>
      <trkpt lat="45.93488" lon="4.72955">
        <ele>171</ele>
        <time>2017-07-29T10:42:11Z</time>
      </trkpt>
      <trkpt lat="45.93486" lon="4.72961">
        <ele>171</ele>
        <time>2017-07-29T10:42:12Z</time>
      </trkpt>
      <trkpt lat="45.93485" lon="4.72968">
        <ele>171</ele>
        <time>2017-07-29T10:42:13Z</time>
      </trkpt>
      <trkpt lat="45.93485" lon="4.72974">
        <ele>171</ele>
        <time>2017-07-29T10:42:14Z</time>
      </trkpt>
      <trkpt lat="45.93483" lon="4.72987">
        <ele>170</ele>
        <time>2017-07-29T10:42:16Z</time>
      </trkpt>
      <trkpt lat="45.93483" lon="4.72993">
        <ele>170</ele>
        <time>2017-07-29T10:42:17Z</time>
      </trkpt>
      <trkpt lat="45.93482" lon="4.73">
        <ele>170</ele>
        <time>2017-07-29T10:42:18Z</time>
      </trkpt>
      <trkpt lat="45.93482" lon="4.73007">
        <ele>170</ele>
        <time>2017-07-29T10:42:19Z</time>
      </trkpt>
      <trkpt lat="45.93482" lon="4.73015">
        <ele>170</ele>
        <time>2017-07-29T10:42:20Z</time>
      </trkpt>
      <trkpt lat="45.93482" lon="4.73022">
        <ele>170</ele>
        <time>2017-07-29T10:42:21Z</time>
      </trkpt>
      <trkpt lat="45.93481" lon="4.7303">
        <ele>170</ele>
        <time>2017-07-29T10:42:22Z</time>
      </trkpt>
      <trkpt lat="45.9348" lon="4.73038">
        <ele>170</ele>
        <time>2017-07-29T10:42:23Z</time>
      </trkpt>
      <trkpt lat="45.9348" lon="4.73051">
        <ele>170</ele>
        <time>2017-07-29T10:42:25Z</time>
      </trkpt>
      <trkpt lat="45.9348" lon="4.73057">
        <ele>170</ele>
        <time>2017-07-29T10:42:26Z</time>
      </trkpt>
      <trkpt lat="45.93481" lon="4.73064">
        <ele>170</ele>
        <time>2017-07-29T10:42:27Z</time>
      </trkpt>
      <trkpt lat="45.9348" lon="4.73071">
        <ele>170</ele>
        <time>2017-07-29T10:42:28Z</time>
      </trkpt>
      <trkpt lat="45.9348" lon="4.73079">
        <ele>170</ele>
        <time>2017-07-29T10:42:29Z</time>
      </trkpt>
      <trkpt lat="45.93479" lon="4.73086">
        <ele>170</ele>
        <time>2017-07-29T10:42:30Z</time>
      </trkpt>
      <trkpt lat="45.9348" lon="4.73093">
        <ele>170</ele>
        <time>2017-07-29T10:42:31Z</time>
      </trkpt>
      <trkpt lat="45.9348" lon="4.731">
        <ele>170</ele>
        <time>2017-07-29T10:42:32Z</time>
      </trkpt>
      <trkpt lat="45.9348" lon="4.73112">
        <ele>170</ele>
        <time>2017-07-29T10:42:34Z</time>
      </trkpt>
      <trkpt lat="45.93481" lon="4.73118">
        <ele>170</ele>
        <time>2017-07-29T10:42:35Z</time>
      </trkpt>
      <trkpt lat="45.93482" lon="4.7313">
        <ele>170</ele>
        <time>2017-07-29T10:42:37Z</time>
      </trkpt>
      <trkpt lat="45.93483" lon="4.73137">
        <ele>170</ele>
        <time>2017-07-29T10:42:38Z</time>
      </trkpt>
      <trkpt lat="45.93484" lon="4.73144">
        <ele>170</ele>
        <time>2017-07-29T10:42:39Z</time>
      </trkpt>
      <trkpt lat="45.93486" lon="4.73151">
        <ele>170</ele>
        <time>2017-07-29T10:42:40Z</time>
      </trkpt>
      <trkpt lat="45.93488" lon="4.73157">
        <ele>170</ele>
        <time>2017-07-29T10:42:41Z</time>
      </trkpt>
      <trkpt lat="45.9349" lon="4.73163">
        <ele>170</ele>
        <time>2017-07-29T10:42:42Z</time>
      </trkpt>
      <trkpt lat="45.93493" lon="4.73169">
        <ele>170</ele>
        <time>2017-07-29T10:42:43Z</time>
      </trkpt>
      <trkpt lat="45.93495" lon="4.73175">
        <ele>170</ele>
        <time>2017-07-29T10:42:44Z</time>
      </trkpt>
      <trkpt lat="45.93499" lon="4.73185">
        <ele>169</ele>
        <time>2017-07-29T10:42:46Z</time>
      </trkpt>
      <trkpt lat="45.93501" lon="4.7319">
        <ele>169</ele>
        <time>2017-07-29T10:42:47Z</time>
      </trkpt>
      <trkpt lat="45.93503" lon="4.73201">
        <ele>169</ele>
        <time>2017-07-29T10:42:49Z</time>
      </trkpt>
      <trkpt lat="45.93504" lon="4.73207">
        <ele>169</ele>
        <time>2017-07-29T10:42:50Z</time>
      </trkpt>
      <trkpt lat="45.93506" lon="4.73213">
        <ele>169</ele>
        <time>2017-07-29T10:42:51Z</time>
      </trkpt>
      <trkpt lat="45.93507" lon="4.7322">
        <ele>169</ele>
        <time>2017-07-29T10:42:52Z</time>
      </trkpt>
      <trkpt lat="45.93509" lon="4.73229">
        <ele>169</ele>
        <time>2017-07-29T10:42:53Z</time>
      </trkpt>
      <trkpt lat="45.93509" lon="4.73235">
        <ele>169</ele>
        <time>2017-07-29T10:42:54Z</time>
      </trkpt>
      <trkpt lat="45.93511" lon="4.73246">
        <ele>169</ele>
        <time>2017-07-29T10:42:56Z</time>
      </trkpt>
      <trkpt lat="45.93512" lon="4.73253">
        <ele>169</ele>
        <time>2017-07-29T10:42:57Z</time>
      </trkpt>
      <trkpt lat="45.93514" lon="4.7326">
        <ele>169</ele>
        <time>2017-07-29T10:42:58Z</time>
      </trkpt>
      <trkpt lat="45.93515" lon="4.73268">
        <ele>169</ele>
        <time>2017-07-29T10:42:59Z</time>
      </trkpt>
      <trkpt lat="45.93516" lon="4.73276">
        <ele>169</ele>
        <time>2017-07-29T10:43:00Z</time>
      </trkpt>
      <trkpt lat="45.93517" lon="4.73284">
        <ele>169</ele>
        <time>2017-07-29T10:43:01Z</time>
      </trkpt>
      <trkpt lat="45.93519" lon="4.73291">
        <ele>169</ele>
        <time>2017-07-29T10:43:02Z</time>
      </trkpt>
      <trkpt lat="45.9352" lon="4.73298">
        <ele>169</ele>
        <time>2017-07-29T10:43:03Z</time>
      </trkpt>
      <trkpt lat="45.93521" lon="4.73305">
        <ele>169</ele>
        <time>2017-07-29T10:43:04Z</time>
      </trkpt>
      <trkpt lat="45.93522" lon="4.73311">
        <ele>169</ele>
        <time>2017-07-29T10:43:05Z</time>
      </trkpt>
      <trkpt lat="45.93524" lon="4.73323">
        <ele>169</ele>
        <time>2017-07-29T10:43:07Z</time>
      </trkpt>
      <trkpt lat="45.93525" lon="4.73328">
        <ele>169</ele>
        <time>2017-07-29T10:43:08Z</time>
      </trkpt>
      <trkpt lat="45.93526" lon="4.73334">
        <ele>169</ele>
        <time>2017-07-29T10:43:09Z</time>
      </trkpt>
      <trkpt lat="45.93528" lon="4.73341">
        <ele>169</ele>
        <time>2017-07-29T10:43:10Z</time>
      </trkpt>
      <trkpt lat="45.93529" lon="4.73347">
        <ele>169</ele>
        <time>2017-07-29T10:43:11Z</time>
      </trkpt>
      <trkpt lat="45.93531" lon="4.73354">
        <ele>169</ele>
        <time>2017-07-29T10:43:12Z</time>
      </trkpt>
      <trkpt lat="45.93532" lon="4.7336">
        <ele>169</ele>
        <time>2017-07-29T10:43:13Z</time>
      </trkpt>
      <trkpt lat="45.93533" lon="4.73367">
        <ele>169</ele>
        <time>2017-07-29T10:43:14Z</time>
      </trkpt>
      <trkpt lat="45.93535" lon="4.73378">
        <ele>169</ele>
        <time>2017-07-29T10:43:16Z</time>
      </trkpt>
      <trkpt lat="45.93536" lon="4.73384">
        <ele>169</ele>
        <time>2017-07-29T10:43:17Z</time>
      </trkpt>
      <trkpt lat="45.93537" lon="4.73395">
        <ele>169</ele>
        <time>2017-07-29T10:43:19Z</time>
      </trkpt>
      <trkpt lat="45.93538" lon="4.73401">
        <ele>169</ele>
        <time>2017-07-29T10:43:20Z</time>
      </trkpt>
      <trkpt lat="45.93539" lon="4.73407">
        <ele>169</ele>
        <time>2017-07-29T10:43:21Z</time>
      </trkpt>
      <trkpt lat="45.9354" lon="4.73414">
        <ele>169</ele>
        <time>2017-07-29T10:43:22Z</time>
      </trkpt>
      <trkpt lat="45.93542" lon="4.73426">
        <ele>169</ele>
        <time>2017-07-29T10:43:24Z</time>
      </trkpt>
      <trkpt lat="45.93544" lon="4.73431">
        <ele>169</ele>
        <time>2017-07-29T10:43:25Z</time>
      </trkpt>
      <trkpt lat="45.93547" lon="4.73442">
        <ele>169</ele>
        <time>2017-07-29T10:43:27Z</time>
      </trkpt>
      <trkpt lat="45.93548" lon="4.73446">
        <ele>169</ele>
        <time>2017-07-29T10:43:28Z</time>
      </trkpt>
      <trkpt lat="45.93549" lon="4.73457">
        <ele>169</ele>
        <time>2017-07-29T10:43:30Z</time>
      </trkpt>
      <trkpt lat="45.93551" lon="4.73464">
        <ele>169</ele>
        <time>2017-07-29T10:43:31Z</time>
      </trkpt>
      <trkpt lat="45.93553" lon="4.73471">
        <ele>169</ele>
        <time>2017-07-29T10:43:32Z</time>
      </trkpt>
      <trkpt lat="45.93555" lon="4.73476">
        <ele>169</ele>
        <time>2017-07-29T10:43:33Z</time>
      </trkpt>
      <trkpt lat="45.93558" lon="4.73487">
        <ele>169</ele>
        <time>2017-07-29T10:43:35Z</time>
      </trkpt>
      <trkpt lat="45.9356" lon="4.73492">
        <ele>169</ele>
        <time>2017-07-29T10:43:36Z</time>
      </trkpt>
      <trkpt lat="45.93562" lon="4.73505">
        <ele>169</ele>
        <time>2017-07-29T10:43:38Z</time>
      </trkpt>
      <trkpt lat="45.93565" lon="4.73511">
        <ele>168</ele>
        <time>2017-07-29T10:43:39Z</time>
      </trkpt>
      <trkpt lat="45.93566" lon="4.73517">
        <ele>168</ele>
        <time>2017-07-29T10:43:40Z</time>
      </trkpt>
      <trkpt lat="45.93568" lon="4.73523">
        <ele>168</ele>
        <time>2017-07-29T10:43:41Z</time>
      </trkpt>
      <trkpt lat="45.93571" lon="4.73529">
        <ele>169</ele>
        <time>2017-07-29T10:43:42Z</time>
      </trkpt>
      <trkpt lat="45.93572" lon="4.73535">
        <ele>169</ele>
        <time>2017-07-29T10:43:43Z</time>
      </trkpt>
      <trkpt lat="45.93573" lon="4.73542">
        <ele>169</ele>
        <time>2017-07-29T10:43:44Z</time>
      </trkpt>
      <trkpt lat="45.93574" lon="4.73548">
        <ele>168</ele>
        <time>2017-07-29T10:43:45Z</time>
      </trkpt>
      <trkpt lat="45.93576" lon="4.73559">
        <ele>168</ele>
        <time>2017-07-29T10:43:47Z</time>
      </trkpt>
      <trkpt lat="45.93577" lon="4.73564">
        <ele>168</ele>
        <time>2017-07-29T10:43:48Z</time>
      </trkpt>
      <trkpt lat="45.93577" lon="4.73575">
        <ele>168</ele>
        <time>2017-07-29T10:43:50Z</time>
      </trkpt>
      <trkpt lat="45.93578" lon="4.73581">
        <ele>168</ele>
        <time>2017-07-29T10:43:51Z</time>
      </trkpt>
      <trkpt lat="45.9358" lon="4.73587">
        <ele>168</ele>
        <time>2017-07-29T10:43:52Z</time>
      </trkpt>
      <trkpt lat="45.9358" lon="4.73594">
        <ele>168</ele>
        <time>2017-07-29T10:43:53Z</time>
      </trkpt>
      <trkpt lat="45.93581" lon="4.73602">
        <ele>168</ele>
        <time>2017-07-29T10:43:54Z</time>
      </trkpt>
      <trkpt lat="45.93581" lon="4.7361">
        <ele>168</ele>
        <time>2017-07-29T10:43:55Z</time>
      </trkpt>
      <trkpt lat="45.93581" lon="4.73618">
        <ele>168</ele>
        <time>2017-07-29T10:43:56Z</time>
      </trkpt>
      <trkpt lat="45.9358" lon="4.73626">
        <ele>168</ele>
        <time>2017-07-29T10:43:57Z</time>
      </trkpt>
      <trkpt lat="45.9358" lon="4.73635">
        <ele>168</ele>
        <time>2017-07-29T10:43:58Z</time>
      </trkpt>
      <trkpt lat="45.93581" lon="4.73643">
        <ele>168</ele>
        <time>2017-07-29T10:43:59Z</time>
      </trkpt>
      <trkpt lat="45.93582" lon="4.73651">
        <ele>168</ele>
        <time>2017-07-29T10:44:00Z</time>
      </trkpt>
      <trkpt lat="45.93583" lon="4.73658">
        <ele>168</ele>
        <time>2017-07-29T10:44:01Z</time>
      </trkpt>
      <trkpt lat="45.93584" lon="4.73665">
        <ele>168</ele>
        <time>2017-07-29T10:44:02Z</time>
      </trkpt>
      <trkpt lat="45.93584" lon="4.73672">
        <ele>168</ele>
        <time>2017-07-29T10:44:03Z</time>
      </trkpt>
      <trkpt lat="45.93585" lon="4.73679">
        <ele>168</ele>
        <time>2017-07-29T10:44:04Z</time>
      </trkpt>
      <trkpt lat="45.93585" lon="4.73685">
        <ele>169</ele>
        <time>2017-07-29T10:44:05Z</time>
      </trkpt>
      <trkpt lat="45.93584" lon="4.73698">
        <ele>169</ele>
        <time>2017-07-29T10:44:07Z</time>
      </trkpt>
      <trkpt lat="45.93584" lon="4.73705">
        <ele>169</ele>
        <time>2017-07-29T10:44:08Z</time>
      </trkpt>
      <trkpt lat="45.93581" lon="4.73712">
        <ele>169</ele>
        <time>2017-07-29T10:44:09Z</time>
      </trkpt>
      <trkpt lat="45.93578" lon="4.73717">
        <ele>169</ele>
        <time>2017-07-29T10:44:10Z</time>
      </trkpt>
      <trkpt lat="45.93574" lon="4.73722">
        <ele>169</ele>
        <time>2017-07-29T10:44:11Z</time>
      </trkpt>
      <trkpt lat="45.9357" lon="4.73728">
        <ele>169</ele>
        <time>2017-07-29T10:44:12Z</time>
      </trkpt>
      <trkpt lat="45.93564" lon="4.73732">
        <ele>169</ele>
        <time>2017-07-29T10:44:13Z</time>
      </trkpt>
      <trkpt lat="45.93559" lon="4.73737">
        <ele>169</ele>
        <time>2017-07-29T10:44:14Z</time>
      </trkpt>
      <trkpt lat="45.93554" lon="4.73742">
        <ele>169</ele>
        <time>2017-07-29T10:44:15Z</time>
      </trkpt>
      <trkpt lat="45.93549" lon="4.73747">
        <ele>169</ele>
        <time>2017-07-29T10:44:16Z</time>
      </trkpt>
      <trkpt lat="45.93545" lon="4.73752">
        <ele>169</ele>
        <time>2017-07-29T10:44:17Z</time>
      </trkpt>
      <trkpt lat="45.9354" lon="4.73756">
        <ele>169</ele>
        <time>2017-07-29T10:44:18Z</time>
      </trkpt>
      <trkpt lat="45.93535" lon="4.73761">
        <ele>169</ele>
        <time>2017-07-29T10:44:19Z</time>
      </trkpt>
      <trkpt lat="45.93531" lon="4.73766">
        <ele>169</ele>
        <time>2017-07-29T10:44:20Z</time>
      </trkpt>
      <trkpt lat="45.93527" lon="4.7377">
        <ele>169</ele>
        <time>2017-07-29T10:44:21Z</time>
      </trkpt>
      <trkpt lat="45.93523" lon="4.73773">
        <ele>169</ele>
        <time>2017-07-29T10:44:22Z</time>
      </trkpt>
      <trkpt lat="45.93519" lon="4.73777">
        <ele>169</ele>
        <time>2017-07-29T10:44:23Z</time>
      </trkpt>
      <trkpt lat="45.93516" lon="4.73781">
        <ele>169</ele>
        <time>2017-07-29T10:44:24Z</time>
      </trkpt>
      <trkpt lat="45.93508" lon="4.73788">
        <ele>169</ele>
        <time>2017-07-29T10:44:26Z</time>
      </trkpt>
      <trkpt lat="45.93504" lon="4.73792">
        <ele>169</ele>
        <time>2017-07-29T10:44:27Z</time>
      </trkpt>
      <trkpt lat="45.93497" lon="4.73798">
        <ele>169</ele>
        <time>2017-07-29T10:44:29Z</time>
      </trkpt>
      <trkpt lat="45.93493" lon="4.73801">
        <ele>169</ele>
        <time>2017-07-29T10:44:30Z</time>
      </trkpt>
      <trkpt lat="45.93485" lon="4.73805">
        <ele>169</ele>
        <time>2017-07-29T10:44:32Z</time>
      </trkpt>
      <trkpt lat="45.93481" lon="4.73807">
        <ele>169</ele>
        <time>2017-07-29T10:44:33Z</time>
      </trkpt>
      <trkpt lat="45.93477" lon="4.73809">
        <ele>169</ele>
        <time>2017-07-29T10:44:34Z</time>
      </trkpt>
      <trkpt lat="45.93472" lon="4.73812">
        <ele>169</ele>
        <time>2017-07-29T10:44:35Z</time>
      </trkpt>
      <trkpt lat="45.93467" lon="4.73814">
        <ele>169</ele>
        <time>2017-07-29T10:44:36Z</time>
      </trkpt>
      <trkpt lat="45.93462" lon="4.73817">
        <ele>169</ele>
        <time>2017-07-29T10:44:37Z</time>
      </trkpt>
      <trkpt lat="45.93457" lon="4.73819">
        <ele>169</ele>
        <time>2017-07-29T10:44:38Z</time>
      </trkpt>
      <trkpt lat="45.93453" lon="4.73821">
        <ele>169</ele>
        <time>2017-07-29T10:44:39Z</time>
      </trkpt>
      <trkpt lat="45.93448" lon="4.73822">
        <ele>169</ele>
        <time>2017-07-29T10:44:40Z</time>
      </trkpt>
      <trkpt lat="45.93444" lon="4.73824">
        <ele>169</ele>
        <time>2017-07-29T10:44:41Z</time>
      </trkpt>
      <trkpt lat="45.93436" lon="4.73828">
        <ele>169</ele>
        <time>2017-07-29T10:44:43Z</time>
      </trkpt>
      <trkpt lat="45.93432" lon="4.7383">
        <ele>169</ele>
        <time>2017-07-29T10:44:44Z</time>
      </trkpt>
      <trkpt lat="45.93427" lon="4.73833">
        <ele>169</ele>
        <time>2017-07-29T10:44:45Z</time>
      </trkpt>
      <trkpt lat="45.93423" lon="4.73835">
        <ele>169</ele>
        <time>2017-07-29T10:44:46Z</time>
      </trkpt>
      <trkpt lat="45.93418" lon="4.73838">
        <ele>169</ele>
        <time>2017-07-29T10:44:47Z</time>
      </trkpt>
      <trkpt lat="45.93414" lon="4.7384">
        <ele>169</ele>
        <time>2017-07-29T10:44:48Z</time>
      </trkpt>
      <trkpt lat="45.93406" lon="4.73845">
        <ele>169</ele>
        <time>2017-07-29T10:44:50Z</time>
      </trkpt>
      <trkpt lat="45.93402" lon="4.73847">
        <ele>169</ele>
        <time>2017-07-29T10:44:51Z</time>
      </trkpt>
      <trkpt lat="45.93398" lon="4.7385">
        <ele>169</ele>
        <time>2017-07-29T10:44:52Z</time>
      </trkpt>
      <trkpt lat="45.93393" lon="4.73853">
        <ele>169</ele>
        <time>2017-07-29T10:44:53Z</time>
      </trkpt>
      <trkpt lat="45.93389" lon="4.73855">
        <ele>169</ele>
        <time>2017-07-29T10:44:54Z</time>
      </trkpt>
      <trkpt lat="45.93384" lon="4.73856">
        <ele>169</ele>
        <time>2017-07-29T10:44:55Z</time>
      </trkpt>
      <trkpt lat="45.9338" lon="4.73859">
        <ele>169</ele>
        <time>2017-07-29T10:44:56Z</time>
      </trkpt>
      <trkpt lat="45.93376" lon="4.73863">
        <ele>169</ele>
        <time>2017-07-29T10:44:57Z</time>
      </trkpt>
      <trkpt lat="45.93369" lon="4.73869">
        <ele>169</ele>
        <time>2017-07-29T10:44:59Z</time>
      </trkpt>
      <trkpt lat="45.93365" lon="4.73872">
        <ele>169</ele>
        <time>2017-07-29T10:45:00Z</time>
      </trkpt>
      <trkpt lat="45.93359" lon="4.73879">
        <ele>168</ele>
        <time>2017-07-29T10:45:02Z</time>
      </trkpt>
      <trkpt lat="45.93357" lon="4.73883">
        <ele>168</ele>
        <time>2017-07-29T10:45:03Z</time>
      </trkpt>
      <trkpt lat="45.93352" lon="4.7389">
        <ele>168</ele>
        <time>2017-07-29T10:45:05Z</time>
      </trkpt>
      <trkpt lat="45.93349" lon="4.73893">
        <ele>168</ele>
        <time>2017-07-29T10:45:06Z</time>
      </trkpt>
      <trkpt lat="45.93343" lon="4.73901">
        <ele>168</ele>
        <time>2017-07-29T10:45:08Z</time>
      </trkpt>
      <trkpt lat="45.9334" lon="4.73906">
        <ele>168</ele>
        <time>2017-07-29T10:45:09Z</time>
      </trkpt>
      <trkpt lat="45.93334" lon="4.73913">
        <ele>168</ele>
        <time>2017-07-29T10:45:11Z</time>
      </trkpt>
      <trkpt lat="45.93332" lon="4.73918">
        <ele>168</ele>
        <time>2017-07-29T10:45:12Z</time>
      </trkpt>
      <trkpt lat="45.93327" lon="4.73925">
        <ele>168</ele>
        <time>2017-07-29T10:45:14Z</time>
      </trkpt>
      <trkpt lat="45.93325" lon="4.73929">
        <ele>168</ele>
        <time>2017-07-29T10:45:15Z</time>
      </trkpt>
      <trkpt lat="45.93322" lon="4.73935">
        <ele>168</ele>
        <time>2017-07-29T10:45:17Z</time>
      </trkpt>
      <trkpt lat="45.93319" lon="4.73939">
        <ele>168</ele>
        <time>2017-07-29T10:45:18Z</time>
      </trkpt>
      <trkpt lat="45.93314" lon="4.73947">
        <ele>168</ele>
        <time>2017-07-29T10:45:20Z</time>
      </trkpt>
      <trkpt lat="45.93312" lon="4.73952">
        <ele>168</ele>
        <time>2017-07-29T10:45:21Z</time>
      </trkpt>
      <trkpt lat="45.93306" lon="4.73962">
        <ele>168</ele>
        <time>2017-07-29T10:45:23Z</time>
      </trkpt>
      <trkpt lat="45.93304" lon="4.73967">
        <ele>168</ele>
        <time>2017-07-29T10:45:24Z</time>
      </trkpt>
      <trkpt lat="45.933" lon="4.73975">
        <ele>168</ele>
        <time>2017-07-29T10:45:26Z</time>
      </trkpt>
      <trkpt lat="45.93298" lon="4.7398">
        <ele>168</ele>
        <time>2017-07-29T10:45:27Z</time>
      </trkpt>
      <trkpt lat="45.93294" lon="4.7399">
        <ele>168</ele>
        <time>2017-07-29T10:45:29Z</time>
      </trkpt>
      <trkpt lat="45.93291" lon="4.73995">
        <ele>168</ele>
        <time>2017-07-29T10:45:30Z</time>
      </trkpt>
      <trkpt lat="45.93288" lon="4.74001">
        <ele>168</ele>
        <time>2017-07-29T10:45:31Z</time>
      </trkpt>
      <trkpt lat="45.93285" lon="4.74006">
        <ele>168</ele>
        <time>2017-07-29T10:45:32Z</time>
      </trkpt>
      <trkpt lat="45.93281" lon="4.74016">
        <ele>168</ele>
        <time>2017-07-29T10:45:34Z</time>
      </trkpt>
      <trkpt lat="45.93278" lon="4.7402">
        <ele>168</ele>
        <time>2017-07-29T10:45:35Z</time>
      </trkpt>
      <trkpt lat="45.93273" lon="4.7403">
        <ele>168</ele>
        <time>2017-07-29T10:45:37Z</time>
      </trkpt>
      <trkpt lat="45.93271" lon="4.74035">
        <ele>168</ele>
        <time>2017-07-29T10:45:38Z</time>
      </trkpt>
      <trkpt lat="45.93266" lon="4.74044">
        <ele>168</ele>
        <time>2017-07-29T10:45:40Z</time>
      </trkpt>
      <trkpt lat="45.93263" lon="4.74049">
        <ele>168</ele>
        <time>2017-07-29T10:45:41Z</time>
      </trkpt>
      <trkpt lat="45.93258" lon="4.74059">
        <ele>168</ele>
        <time>2017-07-29T10:45:43Z</time>
      </trkpt>
      <trkpt lat="45.93256" lon="4.74063">
        <ele>167</ele>
        <time>2017-07-29T10:45:44Z</time>
      </trkpt>
      <trkpt lat="45.93252" lon="4.74072">
        <ele>167</ele>
        <time>2017-07-29T10:45:46Z</time>
      </trkpt>
      <trkpt lat="45.93249" lon="4.74076">
        <ele>167</ele>
        <time>2017-07-29T10:45:47Z</time>
      </trkpt>
      <trkpt lat="45.93245" lon="4.74086">
        <ele>167</ele>
        <time>2017-07-29T10:45:49Z</time>
      </trkpt>
      <trkpt lat="45.93243" lon="4.74091">
        <ele>167</ele>
        <time>2017-07-29T10:45:50Z</time>
      </trkpt>
      <trkpt lat="45.93238" lon="4.74101">
        <ele>167</ele>
        <time>2017-07-29T10:45:52Z</time>
      </trkpt>
      <trkpt lat="45.93235" lon="4.74104">
        <ele>167</ele>
        <time>2017-07-29T10:45:53Z</time>
      </trkpt>
      <trkpt lat="45.93228" lon="4.74108">
        <ele>167</ele>
        <time>2017-07-29T10:45:55Z</time>
      </trkpt>
      <trkpt lat="45.93223" lon="4.74109">
        <ele>167</ele>
        <time>2017-07-29T10:45:56Z</time>
      </trkpt>
      <trkpt lat="45.93216" lon="4.74108">
        <ele>167</ele>
        <time>2017-07-29T10:45:58Z</time>
      </trkpt>
      <trkpt lat="45.93214" lon="4.74107">
        <ele>167</ele>
        <time>2017-07-29T10:45:59Z</time>
      </trkpt>
      <trkpt lat="45.93208" lon="4.74103">
        <ele>167</ele>
        <time>2017-07-29T10:46:01Z</time>
      </trkpt>
      <trkpt lat="45.93204" lon="4.74101">
        <ele>167</ele>
        <time>2017-07-29T10:46:02Z</time>
      </trkpt>
      <trkpt lat="45.93197" lon="4.74094">
        <ele>167</ele>
        <time>2017-07-29T10:46:04Z</time>
      </trkpt>
      <trkpt lat="45.93193" lon="4.7409">
        <ele>167</ele>
        <time>2017-07-29T10:46:05Z</time>
      </trkpt>
      <trkpt lat="45.93189" lon="4.74086">
        <ele>168</ele>
        <time>2017-07-29T10:46:06Z</time>
      </trkpt>
      <trkpt lat="45.93185" lon="4.74083">
        <ele>168</ele>
        <time>2017-07-29T10:46:07Z</time>
      </trkpt>
      <trkpt lat="45.93178" lon="4.74076">
        <ele>168</ele>
        <time>2017-07-29T10:46:09Z</time>
      </trkpt>
      <trkpt lat="45.93175" lon="4.74072">
        <ele>168</ele>
        <time>2017-07-29T10:46:10Z</time>
      </trkpt>
      <trkpt lat="45.9317" lon="4.74065">
        <ele>168</ele>
        <time>2017-07-29T10:46:12Z</time>
      </trkpt>
      <trkpt lat="45.93167" lon="4.74061">
        <ele>168</ele>
        <time>2017-07-29T10:46:13Z</time>
      </trkpt>
      <trkpt lat="45.9316" lon="4.74054">
        <ele>168</ele>
        <time>2017-07-29T10:46:15Z</time>
      </trkpt>
      <trkpt lat="45.93156" lon="4.7405">
        <ele>168</ele>
        <time>2017-07-29T10:46:16Z</time>
      </trkpt>
      <trkpt lat="45.93152" lon="4.74046">
        <ele>168</ele>
        <time>2017-07-29T10:46:17Z</time>
      </trkpt>
      <trkpt lat="45.93147" lon="4.74043">
        <ele>168</ele>
        <time>2017-07-29T10:46:18Z</time>
      </trkpt>
      <trkpt lat="45.93143" lon="4.74039">
        <ele>168</ele>
        <time>2017-07-29T10:46:19Z</time>
      </trkpt>
      <trkpt lat="45.93139" lon="4.74035">
        <ele>168</ele>
        <time>2017-07-29T10:46:20Z</time>
      </trkpt>
      <trkpt lat="45.93134" lon="4.74033">
        <ele>168</ele>
        <time>2017-07-29T10:46:21Z</time>
      </trkpt>
      <trkpt lat="45.9313" lon="4.7403">
        <ele>168</ele>
        <time>2017-07-29T10:46:22Z</time>
      </trkpt>
      <trkpt lat="45.93126" lon="4.74027">
        <ele>168</ele>
        <time>2017-07-29T10:46:23Z</time>
      </trkpt>
      <trkpt lat="45.93121" lon="4.74026">
        <ele>168</ele>
        <time>2017-07-29T10:46:24Z</time>
      </trkpt>
      <trkpt lat="45.93113" lon="4.74024">
        <ele>168</ele>
        <time>2017-07-29T10:46:26Z</time>
      </trkpt>
      <trkpt lat="45.93109" lon="4.74023">
        <ele>168</ele>
        <time>2017-07-29T10:46:27Z</time>
      </trkpt>
      <trkpt lat="45.93102" lon="4.7402">
        <ele>168</ele>
        <time>2017-07-29T10:46:29Z</time>
      </trkpt>
      <trkpt lat="45.93097" lon="4.74019">
        <ele>168</ele>
        <time>2017-07-29T10:46:30Z</time>
      </trkpt>
      <trkpt lat="45.93092" lon="4.74019">
        <ele>168</ele>
        <time>2017-07-29T10:46:31Z</time>
      </trkpt>
      <trkpt lat="45.93088" lon="4.74019">
        <ele>168</ele>
        <time>2017-07-29T10:46:32Z</time>
      </trkpt>
      <trkpt lat="45.93081" lon="4.74018">
        <ele>169</ele>
        <time>2017-07-29T10:46:33Z</time>
      </trkpt>
      <trkpt lat="45.93076" lon="4.74017">
        <ele>169</ele>
        <time>2017-07-29T10:46:34Z</time>
      </trkpt>
      <trkpt lat="45.93071" lon="4.74017">
        <ele>169</ele>
        <time>2017-07-29T10:46:35Z</time>
      </trkpt>
      <trkpt lat="45.93066" lon="4.74015">
        <ele>169</ele>
        <time>2017-07-29T10:46:36Z</time>
      </trkpt>
      <trkpt lat="45.93061" lon="4.74014">
        <ele>169</ele>
        <time>2017-07-29T10:46:37Z</time>
      </trkpt>
      <trkpt lat="45.93057" lon="4.74012">
        <ele>169</ele>
        <time>2017-07-29T10:46:38Z</time>
      </trkpt>
      <trkpt lat="45.93052" lon="4.7401">
        <ele>169</ele>
        <time>2017-07-29T10:46:39Z</time>
      </trkpt>
      <trkpt lat="45.93047" lon="4.74009">
        <ele>169</ele>
        <time>2017-07-29T10:46:40Z</time>
      </trkpt>
      <trkpt lat="45.93039" lon="4.74005">
        <ele>169</ele>
        <time>2017-07-29T10:46:42Z</time>
      </trkpt>
      <trkpt lat="45.93035" lon="4.74003">
        <ele>169</ele>
        <time>2017-07-29T10:46:43Z</time>
      </trkpt>
      <trkpt lat="45.9303" lon="4.74002">
        <ele>170</ele>
        <time>2017-07-29T10:46:44Z</time>
      </trkpt>
      <trkpt lat="45.93025" lon="4.74">
        <ele>170</ele>
        <time>2017-07-29T10:46:45Z</time>
      </trkpt>
      <trkpt lat="45.9302" lon="4.74">
        <ele>170</ele>
        <time>2017-07-29T10:46:46Z</time>
      </trkpt>
      <trkpt lat="45.93016" lon="4.74002">
        <ele>170</ele>
        <time>2017-07-29T10:46:47Z</time>
      </trkpt>
      <trkpt lat="45.93009" lon="4.74007">
        <ele>170</ele>
        <time>2017-07-29T10:46:49Z</time>
      </trkpt>
      <trkpt lat="45.93006" lon="4.7401">
        <ele>170</ele>
        <time>2017-07-29T10:46:50Z</time>
      </trkpt>
      <trkpt lat="45.93003" lon="4.74015">
        <ele>170</ele>
        <time>2017-07-29T10:46:51Z</time>
      </trkpt>
      <trkpt lat="45.93" lon="4.74021">
        <ele>170</ele>
        <time>2017-07-29T10:46:52Z</time>
      </trkpt>
      <trkpt lat="45.92998" lon="4.74027">
        <ele>171</ele>
        <time>2017-07-29T10:46:53Z</time>
      </trkpt>
      <trkpt lat="45.92997" lon="4.74034">
        <ele>171</ele>
        <time>2017-07-29T10:46:54Z</time>
      </trkpt>
      <trkpt lat="45.92996" lon="4.74042">
        <ele>171</ele>
        <time>2017-07-29T10:46:55Z</time>
      </trkpt>
      <trkpt lat="45.92996" lon="4.7405">
        <ele>171</ele>
        <time>2017-07-29T10:46:56Z</time>
      </trkpt>
      <trkpt lat="45.92996" lon="4.74057">
        <ele>171</ele>
        <time>2017-07-29T10:46:57Z</time>
      </trkpt>
      <trkpt lat="45.92996" lon="4.74065">
        <ele>171</ele>
        <time>2017-07-29T10:46:58Z</time>
      </trkpt>
      <trkpt lat="45.92996" lon="4.74072">
        <ele>171</ele>
        <time>2017-07-29T10:46:59Z</time>
      </trkpt>
      <trkpt lat="45.92996" lon="4.74079">
        <ele>171</ele>
        <time>2017-07-29T10:47:00Z</time>
      </trkpt>
      <trkpt lat="45.92996" lon="4.74091">
        <ele>171</ele>
        <time>2017-07-29T10:47:02Z</time>
      </trkpt>
      <trkpt lat="45.92995" lon="4.74096">
        <ele>171</ele>
        <time>2017-07-29T10:47:03Z</time>
      </trkpt>
      <trkpt lat="45.92993" lon="4.74107">
        <ele>171</ele>
        <time>2017-07-29T10:47:05Z</time>
      </trkpt>
      <trkpt lat="45.92993" lon="4.74113">
        <ele>171</ele>
        <time>2017-07-29T10:47:06Z</time>
      </trkpt>
      <trkpt lat="45.92992" lon="4.74124">
        <ele>171</ele>
        <time>2017-07-29T10:47:08Z</time>
      </trkpt>
      <trkpt lat="45.9299" lon="4.74129">
        <ele>171</ele>
        <time>2017-07-29T10:47:09Z</time>
      </trkpt>
      <trkpt lat="45.92987" lon="4.7414">
        <ele>171</ele>
        <time>2017-07-29T10:47:11Z</time>
      </trkpt>
      <trkpt lat="45.92986" lon="4.74145">
        <ele>170</ele>
        <time>2017-07-29T10:47:12Z</time>
      </trkpt>
      <trkpt lat="45.92984" lon="4.74154">
        <ele>170</ele>
        <time>2017-07-29T10:47:14Z</time>
      </trkpt>
      <trkpt lat="45.92982" lon="4.74158">
        <ele>170</ele>
        <time>2017-07-29T10:47:15Z</time>
      </trkpt>
      <trkpt lat="45.92979" lon="4.74166">
        <ele>170</ele>
        <time>2017-07-29T10:47:17Z</time>
      </trkpt>
      <trkpt lat="45.92977" lon="4.7417">
        <ele>170</ele>
        <time>2017-07-29T10:47:18Z</time>
      </trkpt>
      <trkpt lat="45.92976" lon="4.74179">
        <ele>170</ele>
        <time>2017-07-29T10:47:20Z</time>
      </trkpt>
      <trkpt lat="45.92974" lon="4.74183">
        <ele>170</ele>
        <time>2017-07-29T10:47:21Z</time>
      </trkpt>
      <trkpt lat="45.92971" lon="4.74191">
        <ele>170</ele>
        <time>2017-07-29T10:47:23Z</time>
      </trkpt>
      <trkpt lat="45.92968" lon="4.74195">
        <ele>170</ele>
        <time>2017-07-29T10:47:24Z</time>
      </trkpt>
      <trkpt lat="45.92963" lon="4.74201">
        <ele>170</ele>
        <time>2017-07-29T10:47:26Z</time>
      </trkpt>
      <trkpt lat="45.9296" lon="4.74202">
        <ele>170</ele>
        <time>2017-07-29T10:47:27Z</time>
      </trkpt>
      <trkpt lat="45.92952" lon="4.74204">
        <ele>170</ele>
        <time>2017-07-29T10:47:29Z</time>
      </trkpt>
      <trkpt lat="45.92949" lon="4.74204">
        <ele>170</ele>
        <time>2017-07-29T10:47:30Z</time>
      </trkpt>
      <trkpt lat="45.9294" lon="4.74202">
        <ele>170</ele>
        <time>2017-07-29T10:47:33Z</time>
      </trkpt>
      <trkpt lat="45.92937" lon="4.742">
        <ele>170</ele>
        <time>2017-07-29T10:47:34Z</time>
      </trkpt>
      <trkpt lat="45.92929" lon="4.74194">
        <ele>170</ele>
        <time>2017-07-29T10:47:37Z</time>
      </trkpt>
      <trkpt lat="45.92926" lon="4.74193">
        <ele>170</ele>
        <time>2017-07-29T10:47:38Z</time>
      </trkpt>
      <trkpt lat="45.92919" lon="4.74188">
        <ele>171</ele>
        <time>2017-07-29T10:47:41Z</time>
      </trkpt>
      <trkpt lat="45.92917" lon="4.74186">
        <ele>171</ele>
        <time>2017-07-29T10:47:42Z</time>
      </trkpt>
      <trkpt lat="45.92909" lon="4.74181">
        <ele>172</ele>
        <time>2017-07-29T10:47:46Z</time>
      </trkpt>
      <trkpt lat="45.92906" lon="4.7418">
        <ele>172</ele>
        <time>2017-07-29T10:47:47Z</time>
      </trkpt>
      <trkpt lat="45.929" lon="4.74177">
        <ele>172</ele>
        <time>2017-07-29T10:47:49Z</time>
      </trkpt>
      <trkpt lat="45.92897" lon="4.74175">
        <ele>172</ele>
        <time>2017-07-29T10:47:50Z</time>
      </trkpt>
      <trkpt lat="45.92891" lon="4.74172">
        <ele>171</ele>
        <time>2017-07-29T10:47:52Z</time>
      </trkpt>
      <trkpt lat="45.92888" lon="4.74169">
        <ele>171</ele>
        <time>2017-07-29T10:47:53Z</time>
      </trkpt>
      <trkpt lat="45.92884" lon="4.7416">
        <ele>172</ele>
        <time>2017-07-29T10:47:55Z</time>
      </trkpt>
      <trkpt lat="45.92882" lon="4.74156">
        <ele>172</ele>
        <time>2017-07-29T10:47:56Z</time>
      </trkpt>
      <trkpt lat="45.92881" lon="4.74144">
        <ele>172</ele>
        <time>2017-07-29T10:47:58Z</time>
      </trkpt>
      <trkpt lat="45.92881" lon="4.74137">
        <ele>172</ele>
        <time>2017-07-29T10:47:59Z</time>
      </trkpt>
      <trkpt lat="45.92882" lon="4.7413">
        <ele>172</ele>
        <time>2017-07-29T10:48:00Z</time>
      </trkpt>
      <trkpt lat="45.92884" lon="4.74124">
        <ele>172</ele>
        <time>2017-07-29T10:48:01Z</time>
      </trkpt>
      <trkpt lat="45.92889" lon="4.74118">
        <ele>172</ele>
        <time>2017-07-29T10:48:02Z</time>
      </trkpt>
      <trkpt lat="45.92893" lon="4.74112">
        <ele>172</ele>
        <time>2017-07-29T10:48:03Z</time>
      </trkpt>
      <trkpt lat="45.92899" lon="4.74106">
        <ele>172</ele>
        <time>2017-07-29T10:48:04Z</time>
      </trkpt>
      <trkpt lat="45.92904" lon="4.741">
        <ele>172</ele>
        <time>2017-07-29T10:48:05Z</time>
      </trkpt>
      <trkpt lat="45.92909" lon="4.74093">
        <ele>172</ele>
        <time>2017-07-29T10:48:06Z</time>
      </trkpt>
      <trkpt lat="45.92913" lon="4.74085">
        <ele>173</ele>
        <time>2017-07-29T10:48:07Z</time>
      </trkpt>
      <trkpt lat="45.92915" lon="4.74074">
        <ele>173</ele>
        <time>2017-07-29T10:48:08Z</time>
      </trkpt>
      <trkpt lat="45.92916" lon="4.74064">
        <ele>173</ele>
        <time>2017-07-29T10:48:09Z</time>
      </trkpt>
      <trkpt lat="45.92917" lon="4.74054">
        <ele>172</ele>
        <time>2017-07-29T10:48:10Z</time>
      </trkpt>
      <trkpt lat="45.92918" lon="4.74044">
        <ele>172</ele>
        <time>2017-07-29T10:48:11Z</time>
      </trkpt>
      <trkpt lat="45.92919" lon="4.74036">
        <ele>172</ele>
        <time>2017-07-29T10:48:12Z</time>
      </trkpt>
      <trkpt lat="45.92921" lon="4.74028">
        <ele>172</ele>
        <time>2017-07-29T10:48:13Z</time>
      </trkpt>
      <trkpt lat="45.92922" lon="4.7402">
        <ele>172</ele>
        <time>2017-07-29T10:48:14Z</time>
      </trkpt>
      <trkpt lat="45.92921" lon="4.74012">
        <ele>172</ele>
        <time>2017-07-29T10:48:15Z</time>
      </trkpt>
      <trkpt lat="45.9292" lon="4.74003">
        <ele>172</ele>
        <time>2017-07-29T10:48:16Z</time>
      </trkpt>
      <trkpt lat="45.92918" lon="4.73995">
        <ele>172</ele>
        <time>2017-07-29T10:48:17Z</time>
      </trkpt>
      <trkpt lat="45.92916" lon="4.73988">
        <ele>172</ele>
        <time>2017-07-29T10:48:18Z</time>
      </trkpt>
      <trkpt lat="45.92914" lon="4.73981">
        <ele>172</ele>
        <time>2017-07-29T10:48:19Z</time>
      </trkpt>
      <trkpt lat="45.92912" lon="4.73973">
        <ele>172</ele>
        <time>2017-07-29T10:48:20Z</time>
      </trkpt>
      <trkpt lat="45.9291" lon="4.73966">
        <ele>172</ele>
        <time>2017-07-29T10:48:21Z</time>
      </trkpt>
      <trkpt lat="45.92908" lon="4.73959">
        <ele>172</ele>
        <time>2017-07-29T10:48:22Z</time>
      </trkpt>
      <trkpt lat="45.92905" lon="4.73953">
        <ele>172</ele>
        <time>2017-07-29T10:48:23Z</time>
      </trkpt>
      <trkpt lat="45.92902" lon="4.73947">
        <ele>172</ele>
        <time>2017-07-29T10:48:24Z</time>
      </trkpt>
      <trkpt lat="45.92899" lon="4.73941">
        <ele>172</ele>
        <time>2017-07-29T10:48:25Z</time>
      </trkpt>
      <trkpt lat="45.92897" lon="4.73934">
        <ele>172</ele>
        <time>2017-07-29T10:48:26Z</time>
      </trkpt>
      <trkpt lat="45.92894" lon="4.73928">
        <ele>172</ele>
        <time>2017-07-29T10:48:27Z</time>
      </trkpt>
      <trkpt lat="45.92894" lon="4.73921">
        <ele>172</ele>
        <time>2017-07-29T10:48:28Z</time>
      </trkpt>
      <trkpt lat="45.92892" lon="4.73914">
        <ele>172</ele>
        <time>2017-07-29T10:48:29Z</time>
      </trkpt>
      <trkpt lat="45.9289" lon="4.73907">
        <ele>173</ele>
        <time>2017-07-29T10:48:30Z</time>
      </trkpt>
      <trkpt lat="45.92887" lon="4.73901">
        <ele>173</ele>
        <time>2017-07-29T10:48:31Z</time>
      </trkpt>
      <trkpt lat="45.92885" lon="4.73894">
        <ele>173</ele>
        <time>2017-07-29T10:48:32Z</time>
      </trkpt>
      <trkpt lat="45.92884" lon="4.73887">
        <ele>173</ele>
        <time>2017-07-29T10:48:33Z</time>
      </trkpt>
      <trkpt lat="45.92882" lon="4.7388">
        <ele>173</ele>
        <time>2017-07-29T10:48:34Z</time>
      </trkpt>
      <trkpt lat="45.9288" lon="4.73873">
        <ele>173</ele>
        <time>2017-07-29T10:48:35Z</time>
      </trkpt>
      <trkpt lat="45.92878" lon="4.73866">
        <ele>173</ele>
        <time>2017-07-29T10:48:36Z</time>
      </trkpt>
      <trkpt lat="45.92877" lon="4.73858">
        <ele>173</ele>
        <time>2017-07-29T10:48:37Z</time>
      </trkpt>
      <trkpt lat="45.92875" lon="4.73852">
        <ele>173</ele>
        <time>2017-07-29T10:48:38Z</time>
      </trkpt>
      <trkpt lat="45.92874" lon="4.73845">
        <ele>173</ele>
        <time>2017-07-29T10:48:39Z</time>
      </trkpt>
      <trkpt lat="45.92872" lon="4.73839">
        <ele>173</ele>
        <time>2017-07-29T10:48:40Z</time>
      </trkpt>
      <trkpt lat="45.9287" lon="4.73833">
        <ele>173</ele>
        <time>2017-07-29T10:48:41Z</time>
      </trkpt>
      <trkpt lat="45.9287" lon="4.7382">
        <ele>173</ele>
        <time>2017-07-29T10:48:42Z</time>
      </trkpt>
      <trkpt lat="45.92868" lon="4.73812">
        <ele>173</ele>
        <time>2017-07-29T10:48:43Z</time>
      </trkpt>
      <trkpt lat="45.92866" lon="4.73804">
        <ele>173</ele>
        <time>2017-07-29T10:48:44Z</time>
      </trkpt>
      <trkpt lat="45.92863" lon="4.73798">
        <ele>173</ele>
        <time>2017-07-29T10:48:45Z</time>
      </trkpt>
      <trkpt lat="45.9286" lon="4.73793">
        <ele>173</ele>
        <time>2017-07-29T10:48:46Z</time>
      </trkpt>
      <trkpt lat="45.92855" lon="4.73787">
        <ele>173</ele>
        <time>2017-07-29T10:48:47Z</time>
      </trkpt>
      <trkpt lat="45.9285" lon="4.73783">
        <ele>173</ele>
        <time>2017-07-29T10:48:48Z</time>
      </trkpt>
      <trkpt lat="45.92845" lon="4.73781">
        <ele>173</ele>
        <time>2017-07-29T10:48:49Z</time>
      </trkpt>
      <trkpt lat="45.92841" lon="4.73778">
        <ele>172</ele>
        <time>2017-07-29T10:48:50Z</time>
      </trkpt>
      <trkpt lat="45.92836" lon="4.73776">
        <ele>172</ele>
        <time>2017-07-29T10:48:51Z</time>
      </trkpt>
      <trkpt lat="45.92831" lon="4.73773">
        <ele>173</ele>
        <time>2017-07-29T10:48:52Z</time>
      </trkpt>
      <trkpt lat="45.92826" lon="4.73771">
        <ele>173</ele>
        <time>2017-07-29T10:48:53Z</time>
      </trkpt>
      <trkpt lat="45.92821" lon="4.73768">
        <ele>173</ele>
        <time>2017-07-29T10:48:54Z</time>
      </trkpt>
      <trkpt lat="45.92817" lon="4.73764">
        <ele>172</ele>
        <time>2017-07-29T10:48:55Z</time>
      </trkpt>
      <trkpt lat="45.92809" lon="4.7376">
        <ele>173</ele>
        <time>2017-07-29T10:48:57Z</time>
      </trkpt>
      <trkpt lat="45.92804" lon="4.73758">
        <ele>173</ele>
        <time>2017-07-29T10:48:58Z</time>
      </trkpt>
      <trkpt lat="45.928" lon="4.73756">
        <ele>173</ele>
        <time>2017-07-29T10:48:59Z</time>
      </trkpt>
      <trkpt lat="45.92795" lon="4.73754">
        <ele>173</ele>
        <time>2017-07-29T10:49:00Z</time>
      </trkpt>
      <trkpt lat="45.92791" lon="4.73751">
        <ele>173</ele>
        <time>2017-07-29T10:49:01Z</time>
      </trkpt>
      <trkpt lat="45.92787" lon="4.73747">
        <ele>172</ele>
        <time>2017-07-29T10:49:02Z</time>
      </trkpt>
      <trkpt lat="45.9278" lon="4.73738">
        <ele>172</ele>
        <time>2017-07-29T10:49:04Z</time>
      </trkpt>
      <trkpt lat="45.92777" lon="4.73734">
        <ele>172</ele>
        <time>2017-07-29T10:49:05Z</time>
      </trkpt>
      <trkpt lat="45.92773" lon="4.73733">
        <ele>172</ele>
        <time>2017-07-29T10:49:06Z</time>
      </trkpt>
      <trkpt lat="45.92768" lon="4.73731">
        <ele>172</ele>
        <time>2017-07-29T10:49:07Z</time>
      </trkpt>
      <trkpt lat="45.9276" lon="4.73729">
        <ele>172</ele>
        <time>2017-07-29T10:49:09Z</time>
      </trkpt>
      <trkpt lat="45.92756" lon="4.73728">
        <ele>172</ele>
        <time>2017-07-29T10:49:10Z</time>
      </trkpt>
      <trkpt lat="45.92747" lon="4.73727">
        <ele>173</ele>
        <time>2017-07-29T10:49:12Z</time>
      </trkpt>
      <trkpt lat="45.92742" lon="4.73727">
        <ele>173</ele>
        <time>2017-07-29T10:49:13Z</time>
      </trkpt>
      <trkpt lat="45.92737" lon="4.73729">
        <ele>173</ele>
        <time>2017-07-29T10:49:14Z</time>
      </trkpt>
      <trkpt lat="45.92732" lon="4.73729">
        <ele>173</ele>
        <time>2017-07-29T10:49:15Z</time>
      </trkpt>
      <trkpt lat="45.92726" lon="4.73726">
        <ele>173</ele>
        <time>2017-07-29T10:49:16Z</time>
      </trkpt>
      <trkpt lat="45.92721" lon="4.73722">
        <ele>173</ele>
        <time>2017-07-29T10:49:17Z</time>
      </trkpt>
      <trkpt lat="45.92715" lon="4.7372">
        <ele>173</ele>
        <time>2017-07-29T10:49:18Z</time>
      </trkpt>
      <trkpt lat="45.9271" lon="4.73718">
        <ele>173</ele>
        <time>2017-07-29T10:49:19Z</time>
      </trkpt>
      <trkpt lat="45.92705" lon="4.73716">
        <ele>173</ele>
        <time>2017-07-29T10:49:20Z</time>
      </trkpt>
      <trkpt lat="45.92701" lon="4.73714">
        <ele>173</ele>
        <time>2017-07-29T10:49:21Z</time>
      </trkpt>
      <trkpt lat="45.92697" lon="4.73712">
        <ele>173</ele>
        <time>2017-07-29T10:49:22Z</time>
      </trkpt>
      <trkpt lat="45.92692" lon="4.73711">
        <ele>173</ele>
        <time>2017-07-29T10:49:23Z</time>
      </trkpt>
      <trkpt lat="45.92687" lon="4.7371">
        <ele>173</ele>
        <time>2017-07-29T10:49:24Z</time>
      </trkpt>
      <trkpt lat="45.92682" lon="4.73708">
        <ele>173</ele>
        <time>2017-07-29T10:49:25Z</time>
      </trkpt>
      <trkpt lat="45.92677" lon="4.73706">
        <ele>173</ele>
        <time>2017-07-29T10:49:26Z</time>
      </trkpt>
      <trkpt lat="45.92671" lon="4.73704">
        <ele>174</ele>
        <time>2017-07-29T10:49:27Z</time>
      </trkpt>
      <trkpt lat="45.92665" lon="4.73701">
        <ele>173</ele>
        <time>2017-07-29T10:49:28Z</time>
      </trkpt>
      <trkpt lat="45.9266" lon="4.73697">
        <ele>173</ele>
        <time>2017-07-29T10:49:29Z</time>
      </trkpt>
      <trkpt lat="45.92655" lon="4.73691">
        <ele>173</ele>
        <time>2017-07-29T10:49:30Z</time>
      </trkpt>
      <trkpt lat="45.9265" lon="4.73687">
        <ele>173</ele>
        <time>2017-07-29T10:49:31Z</time>
      </trkpt>
      <trkpt lat="45.92646" lon="4.73683">
        <ele>173</ele>
        <time>2017-07-29T10:49:32Z</time>
      </trkpt>
      <trkpt lat="45.92642" lon="4.73679">
        <ele>173</ele>
        <time>2017-07-29T10:49:33Z</time>
      </trkpt>
      <trkpt lat="45.92636" lon="4.7367">
        <ele>173</ele>
        <time>2017-07-29T10:49:35Z</time>
      </trkpt>
      <trkpt lat="45.92633" lon="4.73666">
        <ele>173</ele>
        <time>2017-07-29T10:49:36Z</time>
      </trkpt>
      <trkpt lat="45.92631" lon="4.7366">
        <ele>173</ele>
        <time>2017-07-29T10:49:37Z</time>
      </trkpt>
      <trkpt lat="45.92629" lon="4.73654">
        <ele>173</ele>
        <time>2017-07-29T10:49:38Z</time>
      </trkpt>
      <trkpt lat="45.92627" lon="4.73647">
        <ele>173</ele>
        <time>2017-07-29T10:49:39Z</time>
      </trkpt>
      <trkpt lat="45.92624" lon="4.7364">
        <ele>173</ele>
        <time>2017-07-29T10:49:40Z</time>
      </trkpt>
      <trkpt lat="45.92621" lon="4.73634">
        <ele>173</ele>
        <time>2017-07-29T10:49:41Z</time>
      </trkpt>
      <trkpt lat="45.92617" lon="4.7363">
        <ele>173</ele>
        <time>2017-07-29T10:49:42Z</time>
      </trkpt>
      <trkpt lat="45.9261" lon="4.73623">
        <ele>173</ele>
        <time>2017-07-29T10:49:44Z</time>
      </trkpt>
      <trkpt lat="45.92606" lon="4.73622">
        <ele>173</ele>
        <time>2017-07-29T10:49:45Z</time>
      </trkpt>
      <trkpt lat="45.92601" lon="4.73621">
        <ele>173</ele>
        <time>2017-07-29T10:49:46Z</time>
      </trkpt>
      <trkpt lat="45.92596" lon="4.7362">
        <ele>173</ele>
        <time>2017-07-29T10:49:47Z</time>
      </trkpt>
      <trkpt lat="45.92591" lon="4.73621">
        <ele>173</ele>
        <time>2017-07-29T10:49:48Z</time>
      </trkpt>
      <trkpt lat="45.92586" lon="4.73621">
        <ele>173</ele>
        <time>2017-07-29T10:49:49Z</time>
      </trkpt>
      <trkpt lat="45.92581" lon="4.73622">
        <ele>173</ele>
        <time>2017-07-29T10:49:50Z</time>
      </trkpt>
      <trkpt lat="45.92576" lon="4.73625">
        <ele>173</ele>
        <time>2017-07-29T10:49:51Z</time>
      </trkpt>
      <trkpt lat="45.92571" lon="4.73629">
        <ele>173</ele>
        <time>2017-07-29T10:49:52Z</time>
      </trkpt>
      <trkpt lat="45.92569" lon="4.73635">
        <ele>173</ele>
        <time>2017-07-29T10:49:53Z</time>
      </trkpt>
      <trkpt lat="45.92566" lon="4.7364">
        <ele>173</ele>
        <time>2017-07-29T10:49:54Z</time>
      </trkpt>
      <trkpt lat="45.92563" lon="4.73646">
        <ele>173</ele>
        <time>2017-07-29T10:49:55Z</time>
      </trkpt>
      <trkpt lat="45.92561" lon="4.73654">
        <ele>172</ele>
        <time>2017-07-29T10:49:56Z</time>
      </trkpt>
      <trkpt lat="45.92556" lon="4.73658">
        <ele>173</ele>
        <time>2017-07-29T10:49:57Z</time>
      </trkpt>
      <trkpt lat="45.92545" lon="4.73659">
        <ele>173</ele>
        <time>2017-07-29T10:49:58Z</time>
      </trkpt>
      <trkpt lat="45.92536" lon="4.73657">
        <ele>173</ele>
        <time>2017-07-29T10:49:59Z</time>
      </trkpt>
      <trkpt lat="45.92531" lon="4.73657">
        <ele>173</ele>
        <time>2017-07-29T10:50:00Z</time>
      </trkpt>
      <trkpt lat="45.92521" lon="4.73656">
        <ele>174</ele>
        <time>2017-07-29T10:50:01Z</time>
      </trkpt>
      <trkpt lat="45.92517" lon="4.73647">
        <ele>174</ele>
        <time>2017-07-29T10:50:02Z</time>
      </trkpt>
      <trkpt lat="45.92512" lon="4.73646">
        <ele>174</ele>
        <time>2017-07-29T10:50:03Z</time>
      </trkpt>
      <trkpt lat="45.92507" lon="4.73645">
        <ele>174</ele>
        <time>2017-07-29T10:50:04Z</time>
      </trkpt>
      <trkpt lat="45.92501" lon="4.73645">
        <ele>174</ele>
        <time>2017-07-29T10:50:05Z</time>
      </trkpt>
      <trkpt lat="45.92496" lon="4.73645">
        <ele>174</ele>
        <time>2017-07-29T10:50:06Z</time>
      </trkpt>
      <trkpt lat="45.9249" lon="4.73644">
        <ele>174</ele>
        <time>2017-07-29T10:50:07Z</time>
      </trkpt>
      <trkpt lat="45.92483" lon="4.73638">
        <ele>174</ele>
        <time>2017-07-29T10:50:09Z</time>
      </trkpt>
      <trkpt lat="45.92479" lon="4.73638">
        <ele>174</ele>
        <time>2017-07-29T10:50:10Z</time>
      </trkpt>
      <trkpt lat="45.92471" lon="4.73641">
        <ele>174</ele>
        <time>2017-07-29T10:50:12Z</time>
      </trkpt>
      <trkpt lat="45.92468" lon="4.73645">
        <ele>174</ele>
        <time>2017-07-29T10:50:13Z</time>
      </trkpt>
      <trkpt lat="45.92466" lon="4.73657">
        <ele>174</ele>
        <time>2017-07-29T10:50:16Z</time>
      </trkpt>
      <trkpt lat="45.92466" lon="4.73661">
        <ele>174</ele>
        <time>2017-07-29T10:50:17Z</time>
      </trkpt>
      <trkpt lat="45.92465" lon="4.73671">
        <ele>174</ele>
        <time>2017-07-29T10:50:19Z</time>
      </trkpt>
      <trkpt lat="45.92465" lon="4.73675">
        <ele>174</ele>
        <time>2017-07-29T10:50:20Z</time>
      </trkpt>
      <trkpt lat="45.92465" lon="4.73685">
        <ele>174</ele>
        <time>2017-07-29T10:50:22Z</time>
      </trkpt>
      <trkpt lat="45.92464" lon="4.73691">
        <ele>174</ele>
        <time>2017-07-29T10:50:23Z</time>
      </trkpt>
      <trkpt lat="45.92463" lon="4.737">
        <ele>174</ele>
        <time>2017-07-29T10:50:25Z</time>
      </trkpt>
      <trkpt lat="45.92462" lon="4.73704">
        <ele>174</ele>
        <time>2017-07-29T10:50:26Z</time>
      </trkpt>
      <trkpt lat="45.92455" lon="4.73709">
        <ele>174</ele>
        <time>2017-07-29T10:51:01.453Z</time>
      </trkpt>
    </trkseg>
  </trk>
</gpx>